<?xml version="1.0" encoding="UTF-8" standalone="no" ?>
<gpx xmlns="http://www.topografix.com/GPX/1/1" xmlns:xsi="http://www.w3.org/2001/XMLSchema-instance" xsi:schemaLocation="http://www.topografix.com/GPX/1/1 http://www.topografix.com/GPX/1/1/gpx.xsd" version="1.1" creator="VisuGPX - https://www.visugpx.com">
  <metadata>
    <name>La Velollière 2018</name>
  </metadata>
  <trk>
    <name><![CDATA[La Vel'ollière]]></name>
    <trkseg>
      <trkpt lat="45.75628" lon="4.72526">
        <ele>299.7</ele>
        <time>2018-09-09T06:19:44Z</time>
      </trkpt>
      <trkpt lat="45.75629" lon="4.7251">
        <ele>300</ele>
        <time>2018-09-09T06:19:50Z</time>
      </trkpt>
      <trkpt lat="45.75632" lon="4.72493">
        <ele>300</ele>
        <time>2018-09-09T06:19:58Z</time>
      </trkpt>
      <trkpt lat="45.75632" lon="4.72492">
        <ele>300</ele>
        <time>2018-09-09T06:19:59Z</time>
      </trkpt>
      <trkpt lat="45.75634" lon="4.7249">
        <ele>300</ele>
        <time>2018-09-09T06:20:01Z</time>
      </trkpt>
      <trkpt lat="45.75636" lon="4.72491">
        <ele>299.7</ele>
        <time>2018-09-09T06:20:02Z</time>
      </trkpt>
      <trkpt lat="45.75638" lon="4.72492">
        <ele>299.5</ele>
        <time>2018-09-09T06:20:03Z</time>
      </trkpt>
      <trkpt lat="45.7564" lon="4.72494">
        <ele>299.3</ele>
        <time>2018-09-09T06:20:04Z</time>
      </trkpt>
      <trkpt lat="45.75652" lon="4.72503">
        <ele>298.2</ele>
        <time>2018-09-09T06:20:08Z</time>
      </trkpt>
      <trkpt lat="45.75672" lon="4.72517">
        <ele>297.6</ele>
        <time>2018-09-09T06:20:14Z</time>
      </trkpt>
      <trkpt lat="45.75701" lon="4.72532">
        <ele>297.1</ele>
        <time>2018-09-09T06:20:20Z</time>
      </trkpt>
      <trkpt lat="45.75712" lon="4.72536">
        <ele>297</ele>
        <time>2018-09-09T06:20:22Z</time>
      </trkpt>
      <trkpt lat="45.75722" lon="4.72528">
        <ele>297.3</ele>
        <time>2018-09-09T06:20:24Z</time>
      </trkpt>
      <trkpt lat="45.75725" lon="4.72515">
        <ele>297.8</ele>
        <time>2018-09-09T06:20:26Z</time>
      </trkpt>
      <trkpt lat="45.7573" lon="4.72492">
        <ele>298.6</ele>
        <time>2018-09-09T06:20:30Z</time>
      </trkpt>
      <trkpt lat="45.75735" lon="4.72475">
        <ele>299</ele>
        <time>2018-09-09T06:20:33Z</time>
      </trkpt>
      <trkpt lat="45.75741" lon="4.72447">
        <ele>299</ele>
        <time>2018-09-09T06:20:38Z</time>
      </trkpt>
      <trkpt lat="45.75743" lon="4.72436">
        <ele>298.8</ele>
        <time>2018-09-09T06:20:40Z</time>
      </trkpt>
      <trkpt lat="45.75754" lon="4.7239">
        <ele>298.1</ele>
        <time>2018-09-09T06:20:48Z</time>
      </trkpt>
      <trkpt lat="45.75762" lon="4.72362">
        <ele>297.7</ele>
        <time>2018-09-09T06:20:53Z</time>
      </trkpt>
      <trkpt lat="45.75766" lon="4.72344">
        <ele>297.5</ele>
        <time>2018-09-09T06:20:56Z</time>
      </trkpt>
      <trkpt lat="45.75768" lon="4.72338">
        <ele>297.5</ele>
        <time>2018-09-09T06:20:57Z</time>
      </trkpt>
      <trkpt lat="45.75769" lon="4.72333">
        <ele>297.4</ele>
        <time>2018-09-09T06:20:58Z</time>
      </trkpt>
      <trkpt lat="45.75773" lon="4.72316">
        <ele>297.2</ele>
        <time>2018-09-09T06:21:01Z</time>
      </trkpt>
      <trkpt lat="45.75775" lon="4.7231">
        <ele>297.2</ele>
        <time>2018-09-09T06:21:02Z</time>
      </trkpt>
      <trkpt lat="45.75776" lon="4.72304">
        <ele>297.1</ele>
        <time>2018-09-09T06:21:03Z</time>
      </trkpt>
      <trkpt lat="45.75779" lon="4.72287">
        <ele>297</ele>
        <time>2018-09-09T06:21:06Z</time>
      </trkpt>
      <trkpt lat="45.75781" lon="4.72281">
        <ele>297</ele>
        <time>2018-09-09T06:21:07Z</time>
      </trkpt>
      <trkpt lat="45.75794" lon="4.72238">
        <ele>297.5</ele>
        <time>2018-09-09T06:21:15Z</time>
      </trkpt>
      <trkpt lat="45.75807" lon="4.72201">
        <ele>298</ele>
        <time>2018-09-09T06:21:23Z</time>
      </trkpt>
      <trkpt lat="45.75814" lon="4.7219">
        <ele>298.4</ele>
        <time>2018-09-09T06:21:26Z</time>
      </trkpt>
      <trkpt lat="45.75824" lon="4.72173">
        <ele>298.9</ele>
        <time>2018-09-09T06:21:30Z</time>
      </trkpt>
      <trkpt lat="45.75842" lon="4.72148">
        <ele>299.5</ele>
        <time>2018-09-09T06:21:36Z</time>
      </trkpt>
      <trkpt lat="45.7585" lon="4.72134">
        <ele>299.8</ele>
        <time>2018-09-09T06:21:39Z</time>
      </trkpt>
      <trkpt lat="45.75856" lon="4.72125">
        <ele>299.9</ele>
        <time>2018-09-09T06:21:41Z</time>
      </trkpt>
      <trkpt lat="45.75868" lon="4.72106">
        <ele>300.2</ele>
        <time>2018-09-09T06:21:45Z</time>
      </trkpt>
      <trkpt lat="45.75874" lon="4.72096">
        <ele>300.4</ele>
        <time>2018-09-09T06:21:47Z</time>
      </trkpt>
      <trkpt lat="45.75884" lon="4.72082">
        <ele>300.6</ele>
        <time>2018-09-09T06:21:50Z</time>
      </trkpt>
      <trkpt lat="45.75901" lon="4.72052">
        <ele>300.7</ele>
        <time>2018-09-09T06:21:56Z</time>
      </trkpt>
      <trkpt lat="45.75903" lon="4.72047">
        <ele>300.7</ele>
        <time>2018-09-09T06:21:57Z</time>
      </trkpt>
      <trkpt lat="45.75912" lon="4.72032">
        <ele>300.6</ele>
        <time>2018-09-09T06:22:00Z</time>
      </trkpt>
      <trkpt lat="45.7592" lon="4.72024">
        <ele>300.5</ele>
        <time>2018-09-09T06:22:02Z</time>
      </trkpt>
      <trkpt lat="45.75934" lon="4.72023">
        <ele>300.3</ele>
        <time>2018-09-09T06:22:05Z</time>
      </trkpt>
      <trkpt lat="45.75945" lon="4.72033">
        <ele>300</ele>
        <time>2018-09-09T06:22:07Z</time>
      </trkpt>
      <trkpt lat="45.75956" lon="4.72044">
        <ele>299.4</ele>
        <time>2018-09-09T06:22:09Z</time>
      </trkpt>
      <trkpt lat="45.75977" lon="4.72071">
        <ele>298.2</ele>
        <time>2018-09-09T06:22:13Z</time>
      </trkpt>
      <trkpt lat="45.75993" lon="4.72094">
        <ele>297.2</ele>
        <time>2018-09-09T06:22:16Z</time>
      </trkpt>
      <trkpt lat="45.76014" lon="4.72135">
        <ele>295.6</ele>
        <time>2018-09-09T06:22:21Z</time>
      </trkpt>
      <trkpt lat="45.76024" lon="4.72148">
        <ele>295.3</ele>
        <time>2018-09-09T06:22:23Z</time>
      </trkpt>
      <trkpt lat="45.76042" lon="4.72154">
        <ele>295</ele>
        <time>2018-09-09T06:22:26Z</time>
      </trkpt>
      <trkpt lat="45.76058" lon="4.7214">
        <ele>294.7</ele>
        <time>2018-09-09T06:22:29Z</time>
      </trkpt>
      <trkpt lat="45.76063" lon="4.72134">
        <ele>294.7</ele>
        <time>2018-09-09T06:22:30Z</time>
      </trkpt>
      <trkpt lat="45.76085" lon="4.72105">
        <ele>294.2</ele>
        <time>2018-09-09T06:22:35Z</time>
      </trkpt>
      <trkpt lat="45.76089" lon="4.72099">
        <ele>294</ele>
        <time>2018-09-09T06:22:36Z</time>
      </trkpt>
      <trkpt lat="45.76112" lon="4.72069">
        <ele>295.6</ele>
        <time>2018-09-09T06:22:42Z</time>
      </trkpt>
      <trkpt lat="45.76123" lon="4.72057">
        <ele>295.2</ele>
        <time>2018-09-09T06:22:45Z</time>
      </trkpt>
      <trkpt lat="45.76132" lon="4.72051">
        <ele>294.9</ele>
        <time>2018-09-09T06:22:47Z</time>
      </trkpt>
      <trkpt lat="45.76136" lon="4.72048">
        <ele>294.7</ele>
        <time>2018-09-09T06:22:48Z</time>
      </trkpt>
      <trkpt lat="45.76157" lon="4.72049">
        <ele>293.9</ele>
        <time>2018-09-09T06:22:52Z</time>
      </trkpt>
      <trkpt lat="45.76186" lon="4.72066">
        <ele>292.7</ele>
        <time>2018-09-09T06:22:58Z</time>
      </trkpt>
      <trkpt lat="45.76223" lon="4.72099">
        <ele>291.3</ele>
        <time>2018-09-09T06:23:06Z</time>
      </trkpt>
      <trkpt lat="45.76256" lon="4.7213">
        <ele>290.2</ele>
        <time>2018-09-09T06:23:13Z</time>
      </trkpt>
      <trkpt lat="45.76266" lon="4.7214">
        <ele>289.8</ele>
        <time>2018-09-09T06:23:15Z</time>
      </trkpt>
      <trkpt lat="45.76272" lon="4.72153">
        <ele>289.4</ele>
        <time>2018-09-09T06:23:17Z</time>
      </trkpt>
      <trkpt lat="45.76274" lon="4.72179">
        <ele>288.8</ele>
        <time>2018-09-09T06:23:20Z</time>
      </trkpt>
      <trkpt lat="45.76275" lon="4.72189">
        <ele>288.6</ele>
        <time>2018-09-09T06:23:21Z</time>
      </trkpt>
      <trkpt lat="45.76275" lon="4.72231">
        <ele>287.4</ele>
        <time>2018-09-09T06:23:25Z</time>
      </trkpt>
      <trkpt lat="45.76275" lon="4.72242">
        <ele>287</ele>
        <time>2018-09-09T06:23:26Z</time>
      </trkpt>
      <trkpt lat="45.76273" lon="4.72278">
        <ele>285.8</ele>
        <time>2018-09-09T06:23:29Z</time>
      </trkpt>
      <trkpt lat="45.76271" lon="4.72301">
        <ele>285.3</ele>
        <time>2018-09-09T06:23:31Z</time>
      </trkpt>
      <trkpt lat="45.76271" lon="4.72322">
        <ele>284.2</ele>
        <time>2018-09-09T06:23:33Z</time>
      </trkpt>
      <trkpt lat="45.7627" lon="4.72331">
        <ele>283</ele>
        <time>2018-09-09T06:23:34Z</time>
      </trkpt>
      <trkpt lat="45.76269" lon="4.72347">
        <ele>281.7</ele>
        <time>2018-09-09T06:23:36Z</time>
      </trkpt>
      <trkpt lat="45.76267" lon="4.72364">
        <ele>281</ele>
        <time>2018-09-09T06:23:38Z</time>
      </trkpt>
      <trkpt lat="45.76264" lon="4.72394">
        <ele>279.4</ele>
        <time>2018-09-09T06:23:41Z</time>
      </trkpt>
      <trkpt lat="45.76262" lon="4.72416">
        <ele>278.2</ele>
        <time>2018-09-09T06:23:43Z</time>
      </trkpt>
      <trkpt lat="45.76262" lon="4.72426">
        <ele>277.7</ele>
        <time>2018-09-09T06:23:44Z</time>
      </trkpt>
      <trkpt lat="45.76265" lon="4.72448">
        <ele>276.8</ele>
        <time>2018-09-09T06:23:46Z</time>
      </trkpt>
      <trkpt lat="45.76271" lon="4.7247">
        <ele>275.9</ele>
        <time>2018-09-09T06:23:48Z</time>
      </trkpt>
      <trkpt lat="45.76278" lon="4.72493">
        <ele>275.3</ele>
        <time>2018-09-09T06:23:50Z</time>
      </trkpt>
      <trkpt lat="45.76283" lon="4.72515">
        <ele>275</ele>
        <time>2018-09-09T06:23:52Z</time>
      </trkpt>
      <trkpt lat="45.76285" lon="4.72526">
        <ele>274.9</ele>
        <time>2018-09-09T06:23:53Z</time>
      </trkpt>
      <trkpt lat="45.76291" lon="4.7256">
        <ele>274.8</ele>
        <time>2018-09-09T06:23:56Z</time>
      </trkpt>
      <trkpt lat="45.76296" lon="4.72593">
        <ele>274.3</ele>
        <time>2018-09-09T06:23:59Z</time>
      </trkpt>
      <trkpt lat="45.76297" lon="4.72603">
        <ele>274</ele>
        <time>2018-09-09T06:24:00Z</time>
      </trkpt>
      <trkpt lat="45.76303" lon="4.72646">
        <ele>274</ele>
        <time>2018-09-09T06:24:05Z</time>
      </trkpt>
      <trkpt lat="45.76304" lon="4.72653">
        <ele>274</ele>
        <time>2018-09-09T06:24:06Z</time>
      </trkpt>
      <trkpt lat="45.76306" lon="4.72665">
        <ele>274</ele>
        <time>2018-09-09T06:24:08Z</time>
      </trkpt>
      <trkpt lat="45.76309" lon="4.72676">
        <ele>274</ele>
        <time>2018-09-09T06:24:10Z</time>
      </trkpt>
      <trkpt lat="45.76307" lon="4.72695">
        <ele>274</ele>
        <time>2018-09-09T06:24:14Z</time>
      </trkpt>
      <trkpt lat="45.76294" lon="4.72731">
        <ele>273.4</ele>
        <time>2018-09-09T06:24:21Z</time>
      </trkpt>
      <trkpt lat="45.76285" lon="4.72755">
        <ele>273.4</ele>
        <time>2018-09-09T06:24:25Z</time>
      </trkpt>
      <trkpt lat="45.76275" lon="4.7278">
        <ele>273.7</ele>
        <time>2018-09-09T06:24:29Z</time>
      </trkpt>
      <trkpt lat="45.76253" lon="4.72838">
        <ele>274.5</ele>
        <time>2018-09-09T06:24:38Z</time>
      </trkpt>
      <trkpt lat="45.76243" lon="4.72865">
        <ele>274.3</ele>
        <time>2018-09-09T06:24:42Z</time>
      </trkpt>
      <trkpt lat="45.76236" lon="4.72886">
        <ele>274</ele>
        <time>2018-09-09T06:24:45Z</time>
      </trkpt>
      <trkpt lat="45.76232" lon="4.72899">
        <ele>273.8</ele>
        <time>2018-09-09T06:24:47Z</time>
      </trkpt>
      <trkpt lat="45.7623" lon="4.72913">
        <ele>273.4</ele>
        <time>2018-09-09T06:24:49Z</time>
      </trkpt>
      <trkpt lat="45.76231" lon="4.72928">
        <ele>273</ele>
        <time>2018-09-09T06:24:51Z</time>
      </trkpt>
      <trkpt lat="45.76234" lon="4.72945">
        <ele>272.3</ele>
        <time>2018-09-09T06:24:53Z</time>
      </trkpt>
      <trkpt lat="45.76238" lon="4.72965">
        <ele>271.8</ele>
        <time>2018-09-09T06:24:55Z</time>
      </trkpt>
      <trkpt lat="45.76242" lon="4.72987">
        <ele>271</ele>
        <time>2018-09-09T06:24:57Z</time>
      </trkpt>
      <trkpt lat="45.76251" lon="4.73028">
        <ele>269.9</ele>
        <time>2018-09-09T06:25:00Z</time>
      </trkpt>
      <trkpt lat="45.76267" lon="4.73074">
        <ele>268.5</ele>
        <time>2018-09-09T06:25:03Z</time>
      </trkpt>
      <trkpt lat="45.76275" lon="4.73101">
        <ele>267.6</ele>
        <time>2018-09-09T06:25:05Z</time>
      </trkpt>
      <trkpt lat="45.76279" lon="4.73114">
        <ele>267.7</ele>
        <time>2018-09-09T06:25:06Z</time>
      </trkpt>
      <trkpt lat="45.76282" lon="4.73124">
        <ele>267.8</ele>
        <time>2018-09-09T06:25:07Z</time>
      </trkpt>
      <trkpt lat="45.76283" lon="4.73132">
        <ele>268</ele>
        <time>2018-09-09T06:25:08Z</time>
      </trkpt>
      <trkpt lat="45.76284" lon="4.73137">
        <ele>268.1</ele>
        <time>2018-09-09T06:25:09Z</time>
      </trkpt>
      <trkpt lat="45.76284" lon="4.73145">
        <ele>268.1</ele>
        <time>2018-09-09T06:25:11Z</time>
      </trkpt>
      <trkpt lat="45.76285" lon="4.73149">
        <ele>268.2</ele>
        <time>2018-09-09T06:25:12Z</time>
      </trkpt>
      <trkpt lat="45.76286" lon="4.73152">
        <ele>268.2</ele>
        <time>2018-09-09T06:25:13Z</time>
      </trkpt>
      <trkpt lat="45.76291" lon="4.73159">
        <ele>268.3</ele>
        <time>2018-09-09T06:25:15Z</time>
      </trkpt>
      <trkpt lat="45.76295" lon="4.73163">
        <ele>268.4</ele>
        <time>2018-09-09T06:25:16Z</time>
      </trkpt>
      <trkpt lat="45.76299" lon="4.73166">
        <ele>268.4</ele>
        <time>2018-09-09T06:25:17Z</time>
      </trkpt>
      <trkpt lat="45.76313" lon="4.73178">
        <ele>268.6</ele>
        <time>2018-09-09T06:25:20Z</time>
      </trkpt>
      <trkpt lat="45.76336" lon="4.73195">
        <ele>268.9</ele>
        <time>2018-09-09T06:25:25Z</time>
      </trkpt>
      <trkpt lat="45.76376" lon="4.73218">
        <ele>268.4</ele>
        <time>2018-09-09T06:25:33Z</time>
      </trkpt>
      <trkpt lat="45.76426" lon="4.73247">
        <ele>267.3</ele>
        <time>2018-09-09T06:25:43Z</time>
      </trkpt>
      <trkpt lat="45.76463" lon="4.73258">
        <ele>266.4</ele>
        <time>2018-09-09T06:25:50Z</time>
      </trkpt>
      <trkpt lat="45.76507" lon="4.73266">
        <ele>265.6</ele>
        <time>2018-09-09T06:25:58Z</time>
      </trkpt>
      <trkpt lat="45.76535" lon="4.73272">
        <ele>265</ele>
        <time>2018-09-09T06:26:03Z</time>
      </trkpt>
      <trkpt lat="45.7655" lon="4.73274">
        <ele>265</ele>
        <time>2018-09-09T06:26:06Z</time>
      </trkpt>
      <trkpt lat="45.76555" lon="4.73274">
        <ele>265</ele>
        <time>2018-09-09T06:26:07Z</time>
      </trkpt>
      <trkpt lat="45.76564" lon="4.73272">
        <ele>265.1</ele>
        <time>2018-09-09T06:26:09Z</time>
      </trkpt>
      <trkpt lat="45.76574" lon="4.73269">
        <ele>265.1</ele>
        <time>2018-09-09T06:26:11Z</time>
      </trkpt>
      <trkpt lat="45.76584" lon="4.73266">
        <ele>265.1</ele>
        <time>2018-09-09T06:26:13Z</time>
      </trkpt>
      <trkpt lat="45.7662" lon="4.73256">
        <ele>264.5</ele>
        <time>2018-09-09T06:26:20Z</time>
      </trkpt>
      <trkpt lat="45.76668" lon="4.7324">
        <ele>263.9</ele>
        <time>2018-09-09T06:26:29Z</time>
      </trkpt>
      <trkpt lat="45.76686" lon="4.7323">
        <ele>263.9</ele>
        <time>2018-09-09T06:26:33Z</time>
      </trkpt>
      <trkpt lat="45.7669" lon="4.73229">
        <ele>263.9</ele>
        <time>2018-09-09T06:26:34Z</time>
      </trkpt>
      <trkpt lat="45.76696" lon="4.73238">
        <ele>263.8</ele>
        <time>2018-09-09T06:26:37Z</time>
      </trkpt>
      <trkpt lat="45.76691" lon="4.73253">
        <ele>264.2</ele>
        <time>2018-09-09T06:26:40Z</time>
      </trkpt>
      <trkpt lat="45.76693" lon="4.73269">
        <ele>264.6</ele>
        <time>2018-09-09T06:26:43Z</time>
      </trkpt>
      <trkpt lat="45.76706" lon="4.73285">
        <ele>265.1</ele>
        <time>2018-09-09T06:26:47Z</time>
      </trkpt>
      <trkpt lat="45.76739" lon="4.73317">
        <ele>265.9</ele>
        <time>2018-09-09T06:26:55Z</time>
      </trkpt>
      <trkpt lat="45.76758" lon="4.73336">
        <ele>266.4</ele>
        <time>2018-09-09T06:26:59Z</time>
      </trkpt>
      <trkpt lat="45.7676" lon="4.73342">
        <ele>266.7</ele>
        <time>2018-09-09T06:27:00Z</time>
      </trkpt>
      <trkpt lat="45.76753" lon="4.73359">
        <ele>266.8</ele>
        <time>2018-09-09T06:27:03Z</time>
      </trkpt>
      <trkpt lat="45.76747" lon="4.73371">
        <ele>266.7</ele>
        <time>2018-09-09T06:27:05Z</time>
      </trkpt>
      <trkpt lat="45.76738" lon="4.73392">
        <ele>266.3</ele>
        <time>2018-09-09T06:27:08Z</time>
      </trkpt>
      <trkpt lat="45.76737" lon="4.73399">
        <ele>265.9</ele>
        <time>2018-09-09T06:27:09Z</time>
      </trkpt>
      <trkpt lat="45.76746" lon="4.73416">
        <ele>265.2</ele>
        <time>2018-09-09T06:27:12Z</time>
      </trkpt>
      <trkpt lat="45.76755" lon="4.73424">
        <ele>264.8</ele>
        <time>2018-09-09T06:27:14Z</time>
      </trkpt>
      <trkpt lat="45.7676" lon="4.73428">
        <ele>264.7</ele>
        <time>2018-09-09T06:27:15Z</time>
      </trkpt>
      <trkpt lat="45.76772" lon="4.73436">
        <ele>264.4</ele>
        <time>2018-09-09T06:27:17Z</time>
      </trkpt>
      <trkpt lat="45.7679" lon="4.73454">
        <ele>263.1</ele>
        <time>2018-09-09T06:27:21Z</time>
      </trkpt>
      <trkpt lat="45.76795" lon="4.73455">
        <ele>262.3</ele>
        <time>2018-09-09T06:27:23Z</time>
      </trkpt>
      <trkpt lat="45.76805" lon="4.73467">
        <ele>260.4</ele>
        <time>2018-09-09T06:27:27Z</time>
      </trkpt>
      <trkpt lat="45.76824" lon="4.73486">
        <ele>256.9</ele>
        <time>2018-09-09T06:27:31Z</time>
      </trkpt>
      <trkpt lat="45.76855" lon="4.73505">
        <ele>251.2</ele>
        <time>2018-09-09T06:27:36Z</time>
      </trkpt>
      <trkpt lat="45.76866" lon="4.73519">
        <ele>248.4</ele>
        <time>2018-09-09T06:27:40Z</time>
      </trkpt>
      <trkpt lat="45.76869" lon="4.73523">
        <ele>247.6</ele>
        <time>2018-09-09T06:27:41Z</time>
      </trkpt>
      <trkpt lat="45.76875" lon="4.73535">
        <ele>245.9</ele>
        <time>2018-09-09T06:27:43Z</time>
      </trkpt>
      <trkpt lat="45.76881" lon="4.7355">
        <ele>244.3</ele>
        <time>2018-09-09T06:27:45Z</time>
      </trkpt>
      <trkpt lat="45.7689" lon="4.73574">
        <ele>241.1</ele>
        <time>2018-09-09T06:27:48Z</time>
      </trkpt>
      <trkpt lat="45.76896" lon="4.73585">
        <ele>239.6</ele>
        <time>2018-09-09T06:27:50Z</time>
      </trkpt>
      <trkpt lat="45.76902" lon="4.73595">
        <ele>238.3</ele>
        <time>2018-09-09T06:27:52Z</time>
      </trkpt>
      <trkpt lat="45.76909" lon="4.73612">
        <ele>237</ele>
        <time>2018-09-09T06:27:55Z</time>
      </trkpt>
      <trkpt lat="45.76913" lon="4.73618">
        <ele>236.2</ele>
        <time>2018-09-09T06:27:56Z</time>
      </trkpt>
      <trkpt lat="45.76918" lon="4.73623">
        <ele>235.3</ele>
        <time>2018-09-09T06:27:57Z</time>
      </trkpt>
      <trkpt lat="45.76929" lon="4.7363">
        <ele>234.7</ele>
        <time>2018-09-09T06:27:59Z</time>
      </trkpt>
      <trkpt lat="45.76934" lon="4.73633">
        <ele>234.5</ele>
        <time>2018-09-09T06:28:00Z</time>
      </trkpt>
      <trkpt lat="45.76952" lon="4.73638">
        <ele>234</ele>
        <time>2018-09-09T06:28:03Z</time>
      </trkpt>
      <trkpt lat="45.76958" lon="4.73638">
        <ele>234</ele>
        <time>2018-09-09T06:28:04Z</time>
      </trkpt>
      <trkpt lat="45.76965" lon="4.73637">
        <ele>233.9</ele>
        <time>2018-09-09T06:28:05Z</time>
      </trkpt>
      <trkpt lat="45.7697" lon="4.73636">
        <ele>234</ele>
        <time>2018-09-09T06:28:06Z</time>
      </trkpt>
      <trkpt lat="45.76984" lon="4.73624">
        <ele>234.1</ele>
        <time>2018-09-09T06:28:09Z</time>
      </trkpt>
      <trkpt lat="45.7699" lon="4.73614">
        <ele>234.7</ele>
        <time>2018-09-09T06:28:11Z</time>
      </trkpt>
      <trkpt lat="45.76996" lon="4.73603">
        <ele>235.7</ele>
        <time>2018-09-09T06:28:13Z</time>
      </trkpt>
      <trkpt lat="45.77009" lon="4.73581">
        <ele>237.1</ele>
        <time>2018-09-09T06:28:17Z</time>
      </trkpt>
      <trkpt lat="45.77016" lon="4.73571">
        <ele>237.6</ele>
        <time>2018-09-09T06:28:19Z</time>
      </trkpt>
      <trkpt lat="45.77019" lon="4.73566">
        <ele>237.8</ele>
        <time>2018-09-09T06:28:20Z</time>
      </trkpt>
      <trkpt lat="45.77028" lon="4.73551">
        <ele>237.8</ele>
        <time>2018-09-09T06:28:23Z</time>
      </trkpt>
      <trkpt lat="45.77046" lon="4.73537">
        <ele>236.9</ele>
        <time>2018-09-09T06:28:27Z</time>
      </trkpt>
      <trkpt lat="45.77049" lon="4.73532">
        <ele>236.6</ele>
        <time>2018-09-09T06:28:28Z</time>
      </trkpt>
      <trkpt lat="45.77053" lon="4.73522">
        <ele>236.9</ele>
        <time>2018-09-09T06:28:30Z</time>
      </trkpt>
      <trkpt lat="45.77059" lon="4.7351">
        <ele>237.6</ele>
        <time>2018-09-09T06:28:34Z</time>
      </trkpt>
      <trkpt lat="45.77063" lon="4.73504">
        <ele>237.8</ele>
        <time>2018-09-09T06:28:36Z</time>
      </trkpt>
      <trkpt lat="45.77065" lon="4.73497">
        <ele>238.5</ele>
        <time>2018-09-09T06:28:38Z</time>
      </trkpt>
      <trkpt lat="45.77071" lon="4.73496">
        <ele>238.2</ele>
        <time>2018-09-09T06:28:41Z</time>
      </trkpt>
      <trkpt lat="45.77073" lon="4.73498">
        <ele>237.7</ele>
        <time>2018-09-09T06:28:42Z</time>
      </trkpt>
      <trkpt lat="45.77084" lon="4.73496">
        <ele>237.7</ele>
        <time>2018-09-09T06:28:45Z</time>
      </trkpt>
      <trkpt lat="45.77087" lon="4.73491">
        <ele>238.1</ele>
        <time>2018-09-09T06:28:46Z</time>
      </trkpt>
      <trkpt lat="45.77093" lon="4.7348">
        <ele>239.1</ele>
        <time>2018-09-09T06:28:48Z</time>
      </trkpt>
      <trkpt lat="45.77095" lon="4.73475">
        <ele>239.4</ele>
        <time>2018-09-09T06:28:49Z</time>
      </trkpt>
      <trkpt lat="45.77098" lon="4.73472">
        <ele>239.5</ele>
        <time>2018-09-09T06:28:50Z</time>
      </trkpt>
      <trkpt lat="45.77106" lon="4.73473">
        <ele>239.6</ele>
        <time>2018-09-09T06:28:53Z</time>
      </trkpt>
      <trkpt lat="45.7711" lon="4.73475">
        <ele>239.7</ele>
        <time>2018-09-09T06:28:56Z</time>
      </trkpt>
      <trkpt lat="45.77113" lon="4.73478">
        <ele>239.6</ele>
        <time>2018-09-09T06:28:58Z</time>
      </trkpt>
      <trkpt lat="45.77121" lon="4.73486">
        <ele>239.8</ele>
        <time>2018-09-09T06:29:04Z</time>
      </trkpt>
      <trkpt lat="45.77122" lon="4.73488">
        <ele>239.9</ele>
        <time>2018-09-09T06:29:05Z</time>
      </trkpt>
      <trkpt lat="45.77126" lon="4.735">
        <ele>239.3</ele>
        <time>2018-09-09T06:29:09Z</time>
      </trkpt>
      <trkpt lat="45.77127" lon="4.73504">
        <ele>239.4</ele>
        <time>2018-09-09T06:29:10Z</time>
      </trkpt>
      <trkpt lat="45.77136" lon="4.73524">
        <ele>238.9</ele>
        <time>2018-09-09T06:29:16Z</time>
      </trkpt>
      <trkpt lat="45.77149" lon="4.73535">
        <ele>240</ele>
        <time>2018-09-09T06:29:20Z</time>
      </trkpt>
      <trkpt lat="45.77156" lon="4.7354">
        <ele>240.7</ele>
        <time>2018-09-09T06:29:22Z</time>
      </trkpt>
      <trkpt lat="45.77159" lon="4.73542">
        <ele>240.9</ele>
        <time>2018-09-09T06:29:23Z</time>
      </trkpt>
      <trkpt lat="45.77169" lon="4.73549">
        <ele>242.3</ele>
        <time>2018-09-09T06:29:26Z</time>
      </trkpt>
      <trkpt lat="45.77171" lon="4.73551">
        <ele>242.2</ele>
        <time>2018-09-09T06:29:27Z</time>
      </trkpt>
      <trkpt lat="45.77176" lon="4.73553">
        <ele>242.8</ele>
        <time>2018-09-09T06:29:29Z</time>
      </trkpt>
      <trkpt lat="45.77184" lon="4.73553">
        <ele>243.9</ele>
        <time>2018-09-09T06:29:32Z</time>
      </trkpt>
      <trkpt lat="45.7719" lon="4.7355">
        <ele>245.1</ele>
        <time>2018-09-09T06:29:35Z</time>
      </trkpt>
      <trkpt lat="45.77192" lon="4.73546">
        <ele>245.8</ele>
        <time>2018-09-09T06:29:36Z</time>
      </trkpt>
      <trkpt lat="45.77198" lon="4.73537">
        <ele>248.2</ele>
        <time>2018-09-09T06:29:40Z</time>
      </trkpt>
      <trkpt lat="45.77201" lon="4.73534">
        <ele>249.3</ele>
        <time>2018-09-09T06:29:42Z</time>
      </trkpt>
      <trkpt lat="45.77203" lon="4.73533">
        <ele>249.9</ele>
        <time>2018-09-09T06:29:43Z</time>
      </trkpt>
      <trkpt lat="45.77207" lon="4.73532">
        <ele>250.9</ele>
        <time>2018-09-09T06:29:45Z</time>
      </trkpt>
      <trkpt lat="45.77212" lon="4.73529">
        <ele>251.8</ele>
        <time>2018-09-09T06:29:47Z</time>
      </trkpt>
      <trkpt lat="45.77214" lon="4.73528">
        <ele>252.2</ele>
        <time>2018-09-09T06:29:48Z</time>
      </trkpt>
      <trkpt lat="45.7722" lon="4.73522">
        <ele>253.5</ele>
        <time>2018-09-09T06:29:51Z</time>
      </trkpt>
      <trkpt lat="45.77223" lon="4.73519">
        <ele>254.1</ele>
        <time>2018-09-09T06:29:53Z</time>
      </trkpt>
      <trkpt lat="45.77225" lon="4.73517">
        <ele>254.4</ele>
        <time>2018-09-09T06:29:54Z</time>
      </trkpt>
      <trkpt lat="45.7723" lon="4.73511">
        <ele>255.4</ele>
        <time>2018-09-09T06:29:57Z</time>
      </trkpt>
      <trkpt lat="45.77236" lon="4.73505">
        <ele>256.3</ele>
        <time>2018-09-09T06:30:00Z</time>
      </trkpt>
      <trkpt lat="45.77239" lon="4.735">
        <ele>256.9</ele>
        <time>2018-09-09T06:30:02Z</time>
      </trkpt>
      <trkpt lat="45.77247" lon="4.73492">
        <ele>257.8</ele>
        <time>2018-09-09T06:30:06Z</time>
      </trkpt>
      <trkpt lat="45.77252" lon="4.73481">
        <ele>258.7</ele>
        <time>2018-09-09T06:30:10Z</time>
      </trkpt>
      <trkpt lat="45.77254" lon="4.73479">
        <ele>258.9</ele>
        <time>2018-09-09T06:30:11Z</time>
      </trkpt>
      <trkpt lat="45.77262" lon="4.73467">
        <ele>259.9</ele>
        <time>2018-09-09T06:30:16Z</time>
      </trkpt>
      <trkpt lat="45.77264" lon="4.73464">
        <ele>260</ele>
        <time>2018-09-09T06:30:17Z</time>
      </trkpt>
      <trkpt lat="45.77268" lon="4.73459">
        <ele>260.4</ele>
        <time>2018-09-09T06:30:19Z</time>
      </trkpt>
      <trkpt lat="45.77274" lon="4.73448">
        <ele>261.1</ele>
        <time>2018-09-09T06:30:23Z</time>
      </trkpt>
      <trkpt lat="45.77275" lon="4.73445">
        <ele>261.3</ele>
        <time>2018-09-09T06:30:24Z</time>
      </trkpt>
      <trkpt lat="45.77283" lon="4.73426">
        <ele>262.5</ele>
        <time>2018-09-09T06:30:30Z</time>
      </trkpt>
      <trkpt lat="45.77284" lon="4.73406">
        <ele>263.4</ele>
        <time>2018-09-09T06:30:36Z</time>
      </trkpt>
      <trkpt lat="45.77283" lon="4.73396">
        <ele>264</ele>
        <time>2018-09-09T06:30:39Z</time>
      </trkpt>
      <trkpt lat="45.77283" lon="4.73391">
        <ele>264.3</ele>
        <time>2018-09-09T06:30:41Z</time>
      </trkpt>
      <trkpt lat="45.77281" lon="4.73378">
        <ele>265.1</ele>
        <time>2018-09-09T06:30:46Z</time>
      </trkpt>
      <trkpt lat="45.77278" lon="4.73369">
        <ele>265.7</ele>
        <time>2018-09-09T06:30:49Z</time>
      </trkpt>
      <trkpt lat="45.77278" lon="4.73365">
        <ele>266</ele>
        <time>2018-09-09T06:30:50Z</time>
      </trkpt>
      <trkpt lat="45.7728" lon="4.73361">
        <ele>266</ele>
        <time>2018-09-09T06:30:51Z</time>
      </trkpt>
      <trkpt lat="45.77284" lon="4.73354">
        <ele>266</ele>
        <time>2018-09-09T06:30:53Z</time>
      </trkpt>
      <trkpt lat="45.77298" lon="4.7333">
        <ele>266</ele>
        <time>2018-09-09T06:31:00Z</time>
      </trkpt>
      <trkpt lat="45.7731" lon="4.73312">
        <ele>266.3</ele>
        <time>2018-09-09T06:31:05Z</time>
      </trkpt>
      <trkpt lat="45.77315" lon="4.73303">
        <ele>266.6</ele>
        <time>2018-09-09T06:31:07Z</time>
      </trkpt>
      <trkpt lat="45.77334" lon="4.73274">
        <ele>267.1</ele>
        <time>2018-09-09T06:31:15Z</time>
      </trkpt>
      <trkpt lat="45.77349" lon="4.73262">
        <ele>267.1</ele>
        <time>2018-09-09T06:31:20Z</time>
      </trkpt>
      <trkpt lat="45.77353" lon="4.73259">
        <ele>267.1</ele>
        <time>2018-09-09T06:31:21Z</time>
      </trkpt>
      <trkpt lat="45.77365" lon="4.73243">
        <ele>267.6</ele>
        <time>2018-09-09T06:31:25Z</time>
      </trkpt>
      <trkpt lat="45.77367" lon="4.73239">
        <ele>267.7</ele>
        <time>2018-09-09T06:31:26Z</time>
      </trkpt>
      <trkpt lat="45.77386" lon="4.73206">
        <ele>268.6</ele>
        <time>2018-09-09T06:31:34Z</time>
      </trkpt>
      <trkpt lat="45.77395" lon="4.73189">
        <ele>269.2</ele>
        <time>2018-09-09T06:31:38Z</time>
      </trkpt>
      <trkpt lat="45.77409" lon="4.73162">
        <ele>270.3</ele>
        <time>2018-09-09T06:31:45Z</time>
      </trkpt>
      <trkpt lat="45.77421" lon="4.7313">
        <ele>271.9</ele>
        <time>2018-09-09T06:31:52Z</time>
      </trkpt>
      <trkpt lat="45.77439" lon="4.73082">
        <ele>275.1</ele>
        <time>2018-09-09T06:32:01Z</time>
      </trkpt>
      <trkpt lat="45.7745" lon="4.73049">
        <ele>277.5</ele>
        <time>2018-09-09T06:32:07Z</time>
      </trkpt>
      <trkpt lat="45.77453" lon="4.73038">
        <ele>278.1</ele>
        <time>2018-09-09T06:32:09Z</time>
      </trkpt>
      <trkpt lat="45.77454" lon="4.73032">
        <ele>278.4</ele>
        <time>2018-09-09T06:32:10Z</time>
      </trkpt>
      <trkpt lat="45.77457" lon="4.73011">
        <ele>280</ele>
        <time>2018-09-09T06:32:14Z</time>
      </trkpt>
      <trkpt lat="45.7746" lon="4.72982">
        <ele>282.3</ele>
        <time>2018-09-09T06:32:20Z</time>
      </trkpt>
      <trkpt lat="45.7746" lon="4.72978">
        <ele>282.6</ele>
        <time>2018-09-09T06:32:21Z</time>
      </trkpt>
      <trkpt lat="45.77459" lon="4.72965">
        <ele>283.2</ele>
        <time>2018-09-09T06:32:24Z</time>
      </trkpt>
      <trkpt lat="45.77455" lon="4.72947">
        <ele>284</ele>
        <time>2018-09-09T06:32:28Z</time>
      </trkpt>
      <trkpt lat="45.77443" lon="4.72921">
        <ele>285.3</ele>
        <time>2018-09-09T06:32:34Z</time>
      </trkpt>
      <trkpt lat="45.77443" lon="4.72916">
        <ele>285.4</ele>
        <time>2018-09-09T06:32:35Z</time>
      </trkpt>
      <trkpt lat="45.77442" lon="4.72885">
        <ele>285.8</ele>
        <time>2018-09-09T06:32:41Z</time>
      </trkpt>
      <trkpt lat="45.77441" lon="4.7285">
        <ele>286</ele>
        <time>2018-09-09T06:32:47Z</time>
      </trkpt>
      <trkpt lat="45.77442" lon="4.72817">
        <ele>286</ele>
        <time>2018-09-09T06:32:52Z</time>
      </trkpt>
      <trkpt lat="45.77443" lon="4.72811">
        <ele>286</ele>
        <time>2018-09-09T06:32:53Z</time>
      </trkpt>
      <trkpt lat="45.77454" lon="4.72789">
        <ele>286</ele>
        <time>2018-09-09T06:32:57Z</time>
      </trkpt>
      <trkpt lat="45.77457" lon="4.72785">
        <ele>286</ele>
        <time>2018-09-09T06:32:58Z</time>
      </trkpt>
      <trkpt lat="45.77469" lon="4.72767">
        <ele>286</ele>
        <time>2018-09-09T06:33:02Z</time>
      </trkpt>
      <trkpt lat="45.77483" lon="4.72734">
        <ele>286.2</ele>
        <time>2018-09-09T06:33:08Z</time>
      </trkpt>
      <trkpt lat="45.77491" lon="4.72709">
        <ele>286.2</ele>
        <time>2018-09-09T06:33:12Z</time>
      </trkpt>
      <trkpt lat="45.77492" lon="4.72703">
        <ele>286.2</ele>
        <time>2018-09-09T06:33:13Z</time>
      </trkpt>
      <trkpt lat="45.77494" lon="4.72697">
        <ele>286.2</ele>
        <time>2018-09-09T06:33:14Z</time>
      </trkpt>
      <trkpt lat="45.77509" lon="4.72668">
        <ele>286.2</ele>
        <time>2018-09-09T06:33:20Z</time>
      </trkpt>
      <trkpt lat="45.77515" lon="4.72659">
        <ele>286</ele>
        <time>2018-09-09T06:33:22Z</time>
      </trkpt>
      <trkpt lat="45.77523" lon="4.72638">
        <ele>285.6</ele>
        <time>2018-09-09T06:33:26Z</time>
      </trkpt>
      <trkpt lat="45.77533" lon="4.72611">
        <ele>285.1</ele>
        <time>2018-09-09T06:33:32Z</time>
      </trkpt>
      <trkpt lat="45.77525" lon="4.72584">
        <ele>285.4</ele>
        <time>2018-09-09T06:33:37Z</time>
      </trkpt>
      <trkpt lat="45.77523" lon="4.72579">
        <ele>285.7</ele>
        <time>2018-09-09T06:33:38Z</time>
      </trkpt>
      <trkpt lat="45.77515" lon="4.72545">
        <ele>286.6</ele>
        <time>2018-09-09T06:33:45Z</time>
      </trkpt>
      <trkpt lat="45.77523" lon="4.72531">
        <ele>287.2</ele>
        <time>2018-09-09T06:33:49Z</time>
      </trkpt>
      <trkpt lat="45.77544" lon="4.72512">
        <ele>288</ele>
        <time>2018-09-09T06:33:55Z</time>
      </trkpt>
      <trkpt lat="45.77558" lon="4.725">
        <ele>288.3</ele>
        <time>2018-09-09T06:33:59Z</time>
      </trkpt>
      <trkpt lat="45.77563" lon="4.72492">
        <ele>288.5</ele>
        <time>2018-09-09T06:34:01Z</time>
      </trkpt>
      <trkpt lat="45.7757" lon="4.72474">
        <ele>288.6</ele>
        <time>2018-09-09T06:34:05Z</time>
      </trkpt>
      <trkpt lat="45.77577" lon="4.72439">
        <ele>289.3</ele>
        <time>2018-09-09T06:34:11Z</time>
      </trkpt>
      <trkpt lat="45.77577" lon="4.72433">
        <ele>289.4</ele>
        <time>2018-09-09T06:34:12Z</time>
      </trkpt>
      <trkpt lat="45.77578" lon="4.72415">
        <ele>289.4</ele>
        <time>2018-09-09T06:34:15Z</time>
      </trkpt>
      <trkpt lat="45.77578" lon="4.72409">
        <ele>289.3</ele>
        <time>2018-09-09T06:34:16Z</time>
      </trkpt>
      <trkpt lat="45.77579" lon="4.72403">
        <ele>288.9</ele>
        <time>2018-09-09T06:34:17Z</time>
      </trkpt>
      <trkpt lat="45.77581" lon="4.7239">
        <ele>288.7</ele>
        <time>2018-09-09T06:34:19Z</time>
      </trkpt>
      <trkpt lat="45.77583" lon="4.72373">
        <ele>288.1</ele>
        <time>2018-09-09T06:34:22Z</time>
      </trkpt>
      <trkpt lat="45.77583" lon="4.72366">
        <ele>288</ele>
        <time>2018-09-09T06:34:23Z</time>
      </trkpt>
      <trkpt lat="45.77582" lon="4.72359">
        <ele>287.9</ele>
        <time>2018-09-09T06:34:24Z</time>
      </trkpt>
      <trkpt lat="45.77578" lon="4.72341">
        <ele>288.1</ele>
        <time>2018-09-09T06:34:27Z</time>
      </trkpt>
      <trkpt lat="45.77571" lon="4.72309">
        <ele>287.5</ele>
        <time>2018-09-09T06:34:32Z</time>
      </trkpt>
      <trkpt lat="45.7757" lon="4.72286">
        <ele>287</ele>
        <time>2018-09-09T06:34:35Z</time>
      </trkpt>
      <trkpt lat="45.77572" lon="4.72261">
        <ele>286.5</ele>
        <time>2018-09-09T06:34:38Z</time>
      </trkpt>
      <trkpt lat="45.77575" lon="4.72236">
        <ele>286.1</ele>
        <time>2018-09-09T06:34:41Z</time>
      </trkpt>
      <trkpt lat="45.77577" lon="4.72214">
        <ele>285.9</ele>
        <time>2018-09-09T06:34:44Z</time>
      </trkpt>
      <trkpt lat="45.77578" lon="4.72206">
        <ele>285.9</ele>
        <time>2018-09-09T06:34:45Z</time>
      </trkpt>
      <trkpt lat="45.77577" lon="4.72192">
        <ele>285.8</ele>
        <time>2018-09-09T06:34:47Z</time>
      </trkpt>
      <trkpt lat="45.7757" lon="4.72158">
        <ele>285.7</ele>
        <time>2018-09-09T06:34:52Z</time>
      </trkpt>
      <trkpt lat="45.77565" lon="4.72146">
        <ele>285.7</ele>
        <time>2018-09-09T06:34:54Z</time>
      </trkpt>
      <trkpt lat="45.77562" lon="4.72141">
        <ele>285.7</ele>
        <time>2018-09-09T06:34:55Z</time>
      </trkpt>
      <trkpt lat="45.77559" lon="4.72135">
        <ele>285.7</ele>
        <time>2018-09-09T06:34:56Z</time>
      </trkpt>
      <trkpt lat="45.77554" lon="4.72125">
        <ele>285.7</ele>
        <time>2018-09-09T06:34:58Z</time>
      </trkpt>
      <trkpt lat="45.77551" lon="4.7212">
        <ele>285.8</ele>
        <time>2018-09-09T06:34:59Z</time>
      </trkpt>
      <trkpt lat="45.77541" lon="4.72105">
        <ele>286</ele>
        <time>2018-09-09T06:35:02Z</time>
      </trkpt>
      <trkpt lat="45.77534" lon="4.72098">
        <ele>286.4</ele>
        <time>2018-09-09T06:35:04Z</time>
      </trkpt>
      <trkpt lat="45.77525" lon="4.72089">
        <ele>286.7</ele>
        <time>2018-09-09T06:35:07Z</time>
      </trkpt>
      <trkpt lat="45.77515" lon="4.7208">
        <ele>287.3</ele>
        <time>2018-09-09T06:35:10Z</time>
      </trkpt>
      <trkpt lat="45.77508" lon="4.72073">
        <ele>287.6</ele>
        <time>2018-09-09T06:35:12Z</time>
      </trkpt>
      <trkpt lat="45.77496" lon="4.72048">
        <ele>288.1</ele>
        <time>2018-09-09T06:35:17Z</time>
      </trkpt>
      <trkpt lat="45.77495" lon="4.72042">
        <ele>288.3</ele>
        <time>2018-09-09T06:35:18Z</time>
      </trkpt>
      <trkpt lat="45.77494" lon="4.72036">
        <ele>288.4</ele>
        <time>2018-09-09T06:35:19Z</time>
      </trkpt>
      <trkpt lat="45.7749" lon="4.7201">
        <ele>289.4</ele>
        <time>2018-09-09T06:35:23Z</time>
      </trkpt>
      <trkpt lat="45.77489" lon="4.72003">
        <ele>289.9</ele>
        <time>2018-09-09T06:35:24Z</time>
      </trkpt>
      <trkpt lat="45.7748" lon="4.71979">
        <ele>291.2</ele>
        <time>2018-09-09T06:35:28Z</time>
      </trkpt>
      <trkpt lat="45.77475" lon="4.71968">
        <ele>291.8</ele>
        <time>2018-09-09T06:35:30Z</time>
      </trkpt>
      <trkpt lat="45.77462" lon="4.71952">
        <ele>292.4</ele>
        <time>2018-09-09T06:35:34Z</time>
      </trkpt>
      <trkpt lat="45.77446" lon="4.7193">
        <ele>292.9</ele>
        <time>2018-09-09T06:35:40Z</time>
      </trkpt>
      <trkpt lat="45.77433" lon="4.71901">
        <ele>293.4</ele>
        <time>2018-09-09T06:35:46Z</time>
      </trkpt>
      <trkpt lat="45.7742" lon="4.71867">
        <ele>293.6</ele>
        <time>2018-09-09T06:35:54Z</time>
      </trkpt>
      <trkpt lat="45.77421" lon="4.71858">
        <ele>293.8</ele>
        <time>2018-09-09T06:35:56Z</time>
      </trkpt>
      <trkpt lat="45.77425" lon="4.71851">
        <ele>293.9</ele>
        <time>2018-09-09T06:35:58Z</time>
      </trkpt>
      <trkpt lat="45.77441" lon="4.71815">
        <ele>294.8</ele>
        <time>2018-09-09T06:36:05Z</time>
      </trkpt>
      <trkpt lat="45.77446" lon="4.71805">
        <ele>295.1</ele>
        <time>2018-09-09T06:36:07Z</time>
      </trkpt>
      <trkpt lat="45.77458" lon="4.71784">
        <ele>295.6</ele>
        <time>2018-09-09T06:36:11Z</time>
      </trkpt>
      <trkpt lat="45.77461" lon="4.71779">
        <ele>295.7</ele>
        <time>2018-09-09T06:36:12Z</time>
      </trkpt>
      <trkpt lat="45.77471" lon="4.71764">
        <ele>296.4</ele>
        <time>2018-09-09T06:36:15Z</time>
      </trkpt>
      <trkpt lat="45.77485" lon="4.71748">
        <ele>297.1</ele>
        <time>2018-09-09T06:36:19Z</time>
      </trkpt>
      <trkpt lat="45.77514" lon="4.71718">
        <ele>298.3</ele>
        <time>2018-09-09T06:36:27Z</time>
      </trkpt>
      <trkpt lat="45.77527" lon="4.71696">
        <ele>298.9</ele>
        <time>2018-09-09T06:36:32Z</time>
      </trkpt>
      <trkpt lat="45.77535" lon="4.71675">
        <ele>299.2</ele>
        <time>2018-09-09T06:36:36Z</time>
      </trkpt>
      <trkpt lat="45.77536" lon="4.7166">
        <ele>299.2</ele>
        <time>2018-09-09T06:36:38Z</time>
      </trkpt>
      <trkpt lat="45.7753" lon="4.7164">
        <ele>299.4</ele>
        <time>2018-09-09T06:36:41Z</time>
      </trkpt>
      <trkpt lat="45.77528" lon="4.71634">
        <ele>299.4</ele>
        <time>2018-09-09T06:36:42Z</time>
      </trkpt>
      <trkpt lat="45.77518" lon="4.71617">
        <ele>300</ele>
        <time>2018-09-09T06:36:45Z</time>
      </trkpt>
      <trkpt lat="45.7751" lon="4.71606">
        <ele>300.3</ele>
        <time>2018-09-09T06:36:47Z</time>
      </trkpt>
      <trkpt lat="45.77504" lon="4.71596">
        <ele>300.5</ele>
        <time>2018-09-09T06:36:49Z</time>
      </trkpt>
      <trkpt lat="45.77497" lon="4.71586">
        <ele>300.5</ele>
        <time>2018-09-09T06:36:51Z</time>
      </trkpt>
      <trkpt lat="45.77493" lon="4.71582">
        <ele>300.4</ele>
        <time>2018-09-09T06:36:52Z</time>
      </trkpt>
      <trkpt lat="45.77485" lon="4.71574">
        <ele>300.2</ele>
        <time>2018-09-09T06:36:54Z</time>
      </trkpt>
      <trkpt lat="45.77472" lon="4.7156">
        <ele>299.8</ele>
        <time>2018-09-09T06:36:57Z</time>
      </trkpt>
      <trkpt lat="45.77447" lon="4.71526">
        <ele>299</ele>
        <time>2018-09-09T06:37:04Z</time>
      </trkpt>
      <trkpt lat="45.77426" lon="4.71489">
        <ele>298.7</ele>
        <time>2018-09-09T06:37:11Z</time>
      </trkpt>
      <trkpt lat="45.77423" lon="4.71484">
        <ele>298.9</ele>
        <time>2018-09-09T06:37:12Z</time>
      </trkpt>
      <trkpt lat="45.77408" lon="4.71456">
        <ele>299.2</ele>
        <time>2018-09-09T06:37:17Z</time>
      </trkpt>
      <trkpt lat="45.77402" lon="4.71446">
        <ele>299.2</ele>
        <time>2018-09-09T06:37:19Z</time>
      </trkpt>
      <trkpt lat="45.77391" lon="4.7144">
        <ele>299.7</ele>
        <time>2018-09-09T06:37:22Z</time>
      </trkpt>
      <trkpt lat="45.77387" lon="4.7144">
        <ele>299.9</ele>
        <time>2018-09-09T06:37:23Z</time>
      </trkpt>
      <trkpt lat="45.77382" lon="4.71439">
        <ele>300</ele>
        <time>2018-09-09T06:37:24Z</time>
      </trkpt>
      <trkpt lat="45.77374" lon="4.71434">
        <ele>300.3</ele>
        <time>2018-09-09T06:37:26Z</time>
      </trkpt>
      <trkpt lat="45.77361" lon="4.71416">
        <ele>301</ele>
        <time>2018-09-09T06:37:30Z</time>
      </trkpt>
      <trkpt lat="45.77358" lon="4.71411">
        <ele>301.2</ele>
        <time>2018-09-09T06:37:31Z</time>
      </trkpt>
      <trkpt lat="45.77349" lon="4.71397">
        <ele>301.7</ele>
        <time>2018-09-09T06:37:34Z</time>
      </trkpt>
      <trkpt lat="45.7734" lon="4.71385">
        <ele>302.3</ele>
        <time>2018-09-09T06:37:37Z</time>
      </trkpt>
      <trkpt lat="45.77326" lon="4.71362">
        <ele>303.3</ele>
        <time>2018-09-09T06:37:42Z</time>
      </trkpt>
      <trkpt lat="45.77323" lon="4.71358">
        <ele>303.5</ele>
        <time>2018-09-09T06:37:43Z</time>
      </trkpt>
      <trkpt lat="45.77302" lon="4.71332">
        <ele>304.4</ele>
        <time>2018-09-09T06:37:49Z</time>
      </trkpt>
      <trkpt lat="45.77297" lon="4.71315">
        <ele>304.7</ele>
        <time>2018-09-09T06:37:52Z</time>
      </trkpt>
      <trkpt lat="45.77297" lon="4.71309">
        <ele>304.8</ele>
        <time>2018-09-09T06:37:53Z</time>
      </trkpt>
      <trkpt lat="45.77296" lon="4.71303">
        <ele>304.8</ele>
        <time>2018-09-09T06:37:54Z</time>
      </trkpt>
      <trkpt lat="45.77295" lon="4.71278">
        <ele>304.9</ele>
        <time>2018-09-09T06:37:58Z</time>
      </trkpt>
      <trkpt lat="45.77295" lon="4.71271">
        <ele>304.9</ele>
        <time>2018-09-09T06:37:59Z</time>
      </trkpt>
      <trkpt lat="45.77292" lon="4.71229">
        <ele>305.7</ele>
        <time>2018-09-09T06:38:05Z</time>
      </trkpt>
      <trkpt lat="45.77292" lon="4.71217">
        <ele>305.9</ele>
        <time>2018-09-09T06:38:07Z</time>
      </trkpt>
      <trkpt lat="45.77289" lon="4.71179">
        <ele>306.7</ele>
        <time>2018-09-09T06:38:13Z</time>
      </trkpt>
      <trkpt lat="45.77288" lon="4.71149">
        <ele>307.4</ele>
        <time>2018-09-09T06:38:18Z</time>
      </trkpt>
      <trkpt lat="45.77288" lon="4.71126">
        <ele>308.1</ele>
        <time>2018-09-09T06:38:22Z</time>
      </trkpt>
      <trkpt lat="45.77285" lon="4.71094">
        <ele>308.8</ele>
        <time>2018-09-09T06:38:28Z</time>
      </trkpt>
      <trkpt lat="45.77285" lon="4.71062">
        <ele>309.2</ele>
        <time>2018-09-09T06:38:34Z</time>
      </trkpt>
      <trkpt lat="45.77284" lon="4.7102">
        <ele>311.8</ele>
        <time>2018-09-09T06:38:41Z</time>
      </trkpt>
      <trkpt lat="45.77283" lon="4.70986">
        <ele>313.3</ele>
        <time>2018-09-09T06:38:47Z</time>
      </trkpt>
      <trkpt lat="45.77278" lon="4.70961">
        <ele>313.2</ele>
        <time>2018-09-09T06:38:52Z</time>
      </trkpt>
      <trkpt lat="45.77278" lon="4.70956">
        <ele>313.1</ele>
        <time>2018-09-09T06:38:53Z</time>
      </trkpt>
      <trkpt lat="45.77277" lon="4.7093">
        <ele>312.8</ele>
        <time>2018-09-09T06:38:58Z</time>
      </trkpt>
      <trkpt lat="45.77278" lon="4.70916">
        <ele>312.7</ele>
        <time>2018-09-09T06:39:01Z</time>
      </trkpt>
      <trkpt lat="45.77279" lon="4.70902">
        <ele>312.5</ele>
        <time>2018-09-09T06:39:04Z</time>
      </trkpt>
      <trkpt lat="45.7728" lon="4.70886">
        <ele>312.4</ele>
        <time>2018-09-09T06:39:08Z</time>
      </trkpt>
      <trkpt lat="45.77281" lon="4.70882">
        <ele>312.3</ele>
        <time>2018-09-09T06:39:09Z</time>
      </trkpt>
      <trkpt lat="45.77285" lon="4.70868">
        <ele>312.2</ele>
        <time>2018-09-09T06:39:12Z</time>
      </trkpt>
      <trkpt lat="45.77287" lon="4.70863">
        <ele>312.1</ele>
        <time>2018-09-09T06:39:13Z</time>
      </trkpt>
      <trkpt lat="45.77291" lon="4.70852">
        <ele>312</ele>
        <time>2018-09-09T06:39:15Z</time>
      </trkpt>
      <trkpt lat="45.77301" lon="4.70826">
        <ele>311.7</ele>
        <time>2018-09-09T06:39:20Z</time>
      </trkpt>
      <trkpt lat="45.77304" lon="4.70821">
        <ele>311.6</ele>
        <time>2018-09-09T06:39:21Z</time>
      </trkpt>
      <trkpt lat="45.77316" lon="4.70799">
        <ele>311.3</ele>
        <time>2018-09-09T06:39:26Z</time>
      </trkpt>
      <trkpt lat="45.77329" lon="4.7077">
        <ele>311.2</ele>
        <time>2018-09-09T06:39:32Z</time>
      </trkpt>
      <trkpt lat="45.77342" lon="4.7074">
        <ele>310.8</ele>
        <time>2018-09-09T06:39:38Z</time>
      </trkpt>
      <trkpt lat="45.77351" lon="4.70706">
        <ele>310</ele>
        <time>2018-09-09T06:39:44Z</time>
      </trkpt>
      <trkpt lat="45.77355" lon="4.70674">
        <ele>310</ele>
        <time>2018-09-09T06:39:49Z</time>
      </trkpt>
      <trkpt lat="45.77356" lon="4.7066">
        <ele>310.2</ele>
        <time>2018-09-09T06:39:51Z</time>
      </trkpt>
      <trkpt lat="45.77358" lon="4.70618">
        <ele>311.3</ele>
        <time>2018-09-09T06:39:57Z</time>
      </trkpt>
      <trkpt lat="45.77359" lon="4.70604">
        <ele>311.6</ele>
        <time>2018-09-09T06:39:59Z</time>
      </trkpt>
      <trkpt lat="45.77358" lon="4.70551">
        <ele>313.4</ele>
        <time>2018-09-09T06:40:07Z</time>
      </trkpt>
      <trkpt lat="45.77353" lon="4.70519">
        <ele>314.4</ele>
        <time>2018-09-09T06:40:13Z</time>
      </trkpt>
      <trkpt lat="45.7735" lon="4.70484">
        <ele>315.2</ele>
        <time>2018-09-09T06:40:20Z</time>
      </trkpt>
      <trkpt lat="45.77352" lon="4.70481">
        <ele>315.3</ele>
        <time>2018-09-09T06:40:21Z</time>
      </trkpt>
      <trkpt lat="45.77356" lon="4.70469">
        <ele>315.4</ele>
        <time>2018-09-09T06:40:24Z</time>
      </trkpt>
      <trkpt lat="45.77356" lon="4.70453">
        <ele>315.6</ele>
        <time>2018-09-09T06:40:27Z</time>
      </trkpt>
      <trkpt lat="45.77356" lon="4.70447">
        <ele>315.7</ele>
        <time>2018-09-09T06:40:28Z</time>
      </trkpt>
      <trkpt lat="45.77355" lon="4.70441">
        <ele>315.8</ele>
        <time>2018-09-09T06:40:29Z</time>
      </trkpt>
      <trkpt lat="45.77353" lon="4.7043">
        <ele>316</ele>
        <time>2018-09-09T06:40:31Z</time>
      </trkpt>
      <trkpt lat="45.77345" lon="4.70417">
        <ele>316</ele>
        <time>2018-09-09T06:40:34Z</time>
      </trkpt>
      <trkpt lat="45.77328" lon="4.70415">
        <ele>318</ele>
        <time>2018-09-09T06:40:38Z</time>
      </trkpt>
      <trkpt lat="45.77324" lon="4.70415">
        <ele>319.1</ele>
        <time>2018-09-09T06:40:39Z</time>
      </trkpt>
      <trkpt lat="45.77312" lon="4.70409">
        <ele>322</ele>
        <time>2018-09-09T06:40:42Z</time>
      </trkpt>
      <trkpt lat="45.77309" lon="4.70406">
        <ele>322.1</ele>
        <time>2018-09-09T06:40:43Z</time>
      </trkpt>
      <trkpt lat="45.77295" lon="4.70396">
        <ele>322.2</ele>
        <time>2018-09-09T06:40:47Z</time>
      </trkpt>
      <trkpt lat="45.77282" lon="4.70387">
        <ele>322.4</ele>
        <time>2018-09-09T06:40:51Z</time>
      </trkpt>
      <trkpt lat="45.77268" lon="4.7038">
        <ele>322.5</ele>
        <time>2018-09-09T06:40:55Z</time>
      </trkpt>
      <trkpt lat="45.77255" lon="4.70372">
        <ele>322.5</ele>
        <time>2018-09-09T06:40:59Z</time>
      </trkpt>
      <trkpt lat="45.77245" lon="4.70365">
        <ele>322.5</ele>
        <time>2018-09-09T06:41:02Z</time>
      </trkpt>
      <trkpt lat="45.7722" lon="4.7035">
        <ele>322.5</ele>
        <time>2018-09-09T06:41:09Z</time>
      </trkpt>
      <trkpt lat="45.77212" lon="4.70345">
        <ele>322.5</ele>
        <time>2018-09-09T06:41:11Z</time>
      </trkpt>
      <trkpt lat="45.77172" lon="4.70319">
        <ele>321.9</ele>
        <time>2018-09-09T06:41:21Z</time>
      </trkpt>
      <trkpt lat="45.77168" lon="4.70316">
        <ele>321.8</ele>
        <time>2018-09-09T06:41:22Z</time>
      </trkpt>
      <trkpt lat="45.77148" lon="4.70305">
        <ele>321.5</ele>
        <time>2018-09-09T06:41:27Z</time>
      </trkpt>
      <trkpt lat="45.77144" lon="4.70302">
        <ele>321.4</ele>
        <time>2018-09-09T06:41:28Z</time>
      </trkpt>
      <trkpt lat="45.77127" lon="4.7029">
        <ele>321.1</ele>
        <time>2018-09-09T06:41:32Z</time>
      </trkpt>
      <trkpt lat="45.77119" lon="4.70283">
        <ele>321</ele>
        <time>2018-09-09T06:41:34Z</time>
      </trkpt>
      <trkpt lat="45.77109" lon="4.70278">
        <ele>321.1</ele>
        <time>2018-09-09T06:41:36Z</time>
      </trkpt>
      <trkpt lat="45.77104" lon="4.70275">
        <ele>321.1</ele>
        <time>2018-09-09T06:41:37Z</time>
      </trkpt>
      <trkpt lat="45.77095" lon="4.70265">
        <ele>321.2</ele>
        <time>2018-09-09T06:41:39Z</time>
      </trkpt>
      <trkpt lat="45.7709" lon="4.7026">
        <ele>321.2</ele>
        <time>2018-09-09T06:41:40Z</time>
      </trkpt>
      <trkpt lat="45.77062" lon="4.70226">
        <ele>321.5</ele>
        <time>2018-09-09T06:41:46Z</time>
      </trkpt>
      <trkpt lat="45.77058" lon="4.7022">
        <ele>321.6</ele>
        <time>2018-09-09T06:41:47Z</time>
      </trkpt>
      <trkpt lat="45.77049" lon="4.70207">
        <ele>321.9</ele>
        <time>2018-09-09T06:41:49Z</time>
      </trkpt>
      <trkpt lat="45.77031" lon="4.70183">
        <ele>322.3</ele>
        <time>2018-09-09T06:41:53Z</time>
      </trkpt>
      <trkpt lat="45.77017" lon="4.70166">
        <ele>322.6</ele>
        <time>2018-09-09T06:41:56Z</time>
      </trkpt>
      <trkpt lat="45.77001" lon="4.70145">
        <ele>323</ele>
        <time>2018-09-09T06:42:00Z</time>
      </trkpt>
      <trkpt lat="45.76981" lon="4.70119">
        <ele>322.8</ele>
        <time>2018-09-09T06:42:05Z</time>
      </trkpt>
      <trkpt lat="45.76947" lon="4.70078">
        <ele>323.5</ele>
        <time>2018-09-09T06:42:14Z</time>
      </trkpt>
      <trkpt lat="45.76927" lon="4.70053">
        <ele>327</ele>
        <time>2018-09-09T06:42:20Z</time>
      </trkpt>
      <trkpt lat="45.76921" lon="4.70045">
        <ele>324</ele>
        <time>2018-09-09T06:42:24Z</time>
      </trkpt>
      <trkpt lat="45.76921" lon="4.70044">
        <ele>324</ele>
        <time>2018-09-09T06:42:25Z</time>
      </trkpt>
      <trkpt lat="45.76921" lon="4.70034">
        <ele>324.5</ele>
        <time>2018-09-09T06:42:30Z</time>
      </trkpt>
      <trkpt lat="45.76923" lon="4.70024">
        <ele>325.2</ele>
        <time>2018-09-09T06:42:33Z</time>
      </trkpt>
      <trkpt lat="45.76925" lon="4.70016">
        <ele>325.7</ele>
        <time>2018-09-09T06:42:36Z</time>
      </trkpt>
      <trkpt lat="45.76925" lon="4.70013">
        <ele>325.9</ele>
        <time>2018-09-09T06:42:37Z</time>
      </trkpt>
      <trkpt lat="45.76926" lon="4.7001">
        <ele>326.1</ele>
        <time>2018-09-09T06:42:38Z</time>
      </trkpt>
      <trkpt lat="45.76927" lon="4.70003">
        <ele>326.5</ele>
        <time>2018-09-09T06:42:40Z</time>
      </trkpt>
      <trkpt lat="45.76928" lon="4.69997">
        <ele>326.9</ele>
        <time>2018-09-09T06:42:42Z</time>
      </trkpt>
      <trkpt lat="45.76929" lon="4.69988">
        <ele>327.5</ele>
        <time>2018-09-09T06:42:45Z</time>
      </trkpt>
      <trkpt lat="45.7693" lon="4.69986">
        <ele>327.6</ele>
        <time>2018-09-09T06:42:46Z</time>
      </trkpt>
      <trkpt lat="45.7693" lon="4.69977">
        <ele>328.3</ele>
        <time>2018-09-09T06:42:49Z</time>
      </trkpt>
      <trkpt lat="45.76931" lon="4.69969">
        <ele>328.9</ele>
        <time>2018-09-09T06:42:52Z</time>
      </trkpt>
      <trkpt lat="45.76931" lon="4.69965">
        <ele>329.2</ele>
        <time>2018-09-09T06:42:53Z</time>
      </trkpt>
      <trkpt lat="45.76933" lon="4.69952">
        <ele>330.1</ele>
        <time>2018-09-09T06:42:56Z</time>
      </trkpt>
      <trkpt lat="45.76934" lon="4.6994">
        <ele>331</ele>
        <time>2018-09-09T06:42:59Z</time>
      </trkpt>
      <trkpt lat="45.76935" lon="4.69936">
        <ele>331.3</ele>
        <time>2018-09-09T06:43:00Z</time>
      </trkpt>
      <trkpt lat="45.76936" lon="4.69926">
        <ele>331.9</ele>
        <time>2018-09-09T06:43:03Z</time>
      </trkpt>
      <trkpt lat="45.76939" lon="4.69913">
        <ele>333</ele>
        <time>2018-09-09T06:43:07Z</time>
      </trkpt>
      <trkpt lat="45.76941" lon="4.69898">
        <ele>334.1</ele>
        <time>2018-09-09T06:43:12Z</time>
      </trkpt>
      <trkpt lat="45.76941" lon="4.69893">
        <ele>334.5</ele>
        <time>2018-09-09T06:43:14Z</time>
      </trkpt>
      <trkpt lat="45.76943" lon="4.69887">
        <ele>335.1</ele>
        <time>2018-09-09T06:43:17Z</time>
      </trkpt>
      <trkpt lat="45.76946" lon="4.69874">
        <ele>336.1</ele>
        <time>2018-09-09T06:43:22Z</time>
      </trkpt>
      <trkpt lat="45.76945" lon="4.69866">
        <ele>336.8</ele>
        <time>2018-09-09T06:43:25Z</time>
      </trkpt>
      <trkpt lat="45.76945" lon="4.69861">
        <ele>337.2</ele>
        <time>2018-09-09T06:43:27Z</time>
      </trkpt>
      <trkpt lat="45.76946" lon="4.69854">
        <ele>337.8</ele>
        <time>2018-09-09T06:43:30Z</time>
      </trkpt>
      <trkpt lat="45.76948" lon="4.69839">
        <ele>339.3</ele>
        <time>2018-09-09T06:43:36Z</time>
      </trkpt>
      <trkpt lat="45.76948" lon="4.69836">
        <ele>339.6</ele>
        <time>2018-09-09T06:43:37Z</time>
      </trkpt>
      <trkpt lat="45.76948" lon="4.69829">
        <ele>340.3</ele>
        <time>2018-09-09T06:43:40Z</time>
      </trkpt>
      <trkpt lat="45.76949" lon="4.69819">
        <ele>341.1</ele>
        <time>2018-09-09T06:43:43Z</time>
      </trkpt>
      <trkpt lat="45.76948" lon="4.69812">
        <ele>341.7</ele>
        <time>2018-09-09T06:43:45Z</time>
      </trkpt>
      <trkpt lat="45.76947" lon="4.69793">
        <ele>343</ele>
        <time>2018-09-09T06:43:50Z</time>
      </trkpt>
      <trkpt lat="45.76947" lon="4.69779">
        <ele>343.9</ele>
        <time>2018-09-09T06:43:54Z</time>
      </trkpt>
      <trkpt lat="45.76946" lon="4.69765">
        <ele>344.8</ele>
        <time>2018-09-09T06:43:58Z</time>
      </trkpt>
      <trkpt lat="45.76943" lon="4.69736">
        <ele>346.8</ele>
        <time>2018-09-09T06:44:06Z</time>
      </trkpt>
      <trkpt lat="45.76941" lon="4.69715">
        <ele>347.8</ele>
        <time>2018-09-09T06:44:12Z</time>
      </trkpt>
      <trkpt lat="45.76941" lon="4.69704">
        <ele>348.1</ele>
        <time>2018-09-09T06:44:15Z</time>
      </trkpt>
      <trkpt lat="45.76939" lon="4.69684">
        <ele>349.4</ele>
        <time>2018-09-09T06:44:21Z</time>
      </trkpt>
      <trkpt lat="45.76939" lon="4.69677">
        <ele>349.7</ele>
        <time>2018-09-09T06:44:23Z</time>
      </trkpt>
      <trkpt lat="45.76939" lon="4.69673">
        <ele>349.8</ele>
        <time>2018-09-09T06:44:24Z</time>
      </trkpt>
      <trkpt lat="45.76937" lon="4.69658">
        <ele>350.4</ele>
        <time>2018-09-09T06:44:28Z</time>
      </trkpt>
      <trkpt lat="45.76935" lon="4.69643">
        <ele>351.9</ele>
        <time>2018-09-09T06:44:32Z</time>
      </trkpt>
      <trkpt lat="45.76931" lon="4.69609">
        <ele>352.7</ele>
        <time>2018-09-09T06:44:40Z</time>
      </trkpt>
      <trkpt lat="45.76931" lon="4.696">
        <ele>352.7</ele>
        <time>2018-09-09T06:44:42Z</time>
      </trkpt>
      <trkpt lat="45.76928" lon="4.69572">
        <ele>353</ele>
        <time>2018-09-09T06:44:48Z</time>
      </trkpt>
      <trkpt lat="45.76928" lon="4.69542">
        <ele>353</ele>
        <time>2018-09-09T06:44:54Z</time>
      </trkpt>
      <trkpt lat="45.7693" lon="4.69496">
        <ele>353</ele>
        <time>2018-09-09T06:45:03Z</time>
      </trkpt>
      <trkpt lat="45.7693" lon="4.69485">
        <ele>353</ele>
        <time>2018-09-09T06:45:05Z</time>
      </trkpt>
      <trkpt lat="45.76933" lon="4.69439">
        <ele>352.6</ele>
        <time>2018-09-09T06:45:13Z</time>
      </trkpt>
      <trkpt lat="45.76934" lon="4.6939">
        <ele>351.1</ele>
        <time>2018-09-09T06:45:20Z</time>
      </trkpt>
      <trkpt lat="45.76935" lon="4.69353">
        <ele>351</ele>
        <time>2018-09-09T06:45:25Z</time>
      </trkpt>
      <trkpt lat="45.76935" lon="4.69328">
        <ele>351</ele>
        <time>2018-09-09T06:45:28Z</time>
      </trkpt>
      <trkpt lat="45.76933" lon="4.69304">
        <ele>351</ele>
        <time>2018-09-09T06:45:31Z</time>
      </trkpt>
      <trkpt lat="45.7693" lon="4.69272">
        <ele>350.9</ele>
        <time>2018-09-09T06:45:35Z</time>
      </trkpt>
      <trkpt lat="45.76929" lon="4.69264">
        <ele>350.8</ele>
        <time>2018-09-09T06:45:36Z</time>
      </trkpt>
      <trkpt lat="45.76921" lon="4.69202">
        <ele>352.2</ele>
        <time>2018-09-09T06:45:44Z</time>
      </trkpt>
      <trkpt lat="45.76922" lon="4.6916">
        <ele>353.9</ele>
        <time>2018-09-09T06:45:50Z</time>
      </trkpt>
      <trkpt lat="45.76924" lon="4.6913">
        <ele>354.8</ele>
        <time>2018-09-09T06:45:55Z</time>
      </trkpt>
      <trkpt lat="45.76924" lon="4.6912">
        <ele>354.9</ele>
        <time>2018-09-09T06:45:57Z</time>
      </trkpt>
      <trkpt lat="45.76924" lon="4.69111">
        <ele>355.1</ele>
        <time>2018-09-09T06:45:59Z</time>
      </trkpt>
      <trkpt lat="45.76924" lon="4.69087">
        <ele>355.6</ele>
        <time>2018-09-09T06:46:04Z</time>
      </trkpt>
      <trkpt lat="45.76923" lon="4.69083">
        <ele>355.9</ele>
        <time>2018-09-09T06:46:05Z</time>
      </trkpt>
      <trkpt lat="45.76924" lon="4.69069">
        <ele>356.5</ele>
        <time>2018-09-09T06:46:08Z</time>
      </trkpt>
      <trkpt lat="45.76921" lon="4.6905">
        <ele>357.3</ele>
        <time>2018-09-09T06:46:12Z</time>
      </trkpt>
      <trkpt lat="45.76912" lon="4.6903">
        <ele>358.3</ele>
        <time>2018-09-09T06:46:17Z</time>
      </trkpt>
      <trkpt lat="45.7691" lon="4.69026">
        <ele>358.3</ele>
        <time>2018-09-09T06:46:18Z</time>
      </trkpt>
      <trkpt lat="45.76903" lon="4.69014">
        <ele>358.4</ele>
        <time>2018-09-09T06:46:21Z</time>
      </trkpt>
      <trkpt lat="45.76892" lon="4.68997">
        <ele>358.5</ele>
        <time>2018-09-09T06:46:25Z</time>
      </trkpt>
      <trkpt lat="45.76881" lon="4.68963">
        <ele>358.3</ele>
        <time>2018-09-09T06:46:31Z</time>
      </trkpt>
      <trkpt lat="45.76879" lon="4.68957">
        <ele>358.3</ele>
        <time>2018-09-09T06:46:32Z</time>
      </trkpt>
      <trkpt lat="45.76867" lon="4.68906">
        <ele>358.1</ele>
        <time>2018-09-09T06:46:41Z</time>
      </trkpt>
      <trkpt lat="45.76865" lon="4.68901">
        <ele>358</ele>
        <time>2018-09-09T06:46:42Z</time>
      </trkpt>
      <trkpt lat="45.76853" lon="4.6889">
        <ele>358</ele>
        <time>2018-09-09T06:46:45Z</time>
      </trkpt>
      <trkpt lat="45.76847" lon="4.68888">
        <ele>358</ele>
        <time>2018-09-09T06:46:46Z</time>
      </trkpt>
      <trkpt lat="45.76835" lon="4.68881">
        <ele>358</ele>
        <time>2018-09-09T06:46:48Z</time>
      </trkpt>
      <trkpt lat="45.76829" lon="4.68876">
        <ele>357.7</ele>
        <time>2018-09-09T06:46:49Z</time>
      </trkpt>
      <trkpt lat="45.76816" lon="4.68863">
        <ele>356.2</ele>
        <time>2018-09-09T06:46:51Z</time>
      </trkpt>
      <trkpt lat="45.76797" lon="4.68838">
        <ele>353.4</ele>
        <time>2018-09-09T06:46:54Z</time>
      </trkpt>
      <trkpt lat="45.7678" lon="4.68809">
        <ele>351.4</ele>
        <time>2018-09-09T06:46:57Z</time>
      </trkpt>
      <trkpt lat="45.76776" lon="4.688">
        <ele>350.9</ele>
        <time>2018-09-09T06:46:58Z</time>
      </trkpt>
      <trkpt lat="45.76773" lon="4.68792">
        <ele>350.6</ele>
        <time>2018-09-09T06:46:59Z</time>
      </trkpt>
      <trkpt lat="45.76769" lon="4.68787">
        <ele>350.2</ele>
        <time>2018-09-09T06:47:00Z</time>
      </trkpt>
      <trkpt lat="45.76765" lon="4.68787">
        <ele>350.1</ele>
        <time>2018-09-09T06:47:01Z</time>
      </trkpt>
      <trkpt lat="45.76761" lon="4.68791">
        <ele>350</ele>
        <time>2018-09-09T06:47:02Z</time>
      </trkpt>
      <trkpt lat="45.76759" lon="4.68797">
        <ele>349.5</ele>
        <time>2018-09-09T06:47:03Z</time>
      </trkpt>
      <trkpt lat="45.76756" lon="4.6881">
        <ele>348.3</ele>
        <time>2018-09-09T06:47:05Z</time>
      </trkpt>
      <trkpt lat="45.76751" lon="4.68834">
        <ele>346.1</ele>
        <time>2018-09-09T06:47:08Z</time>
      </trkpt>
      <trkpt lat="45.76735" lon="4.68884">
        <ele>341</ele>
        <time>2018-09-09T06:47:14Z</time>
      </trkpt>
      <trkpt lat="45.76724" lon="4.68894">
        <ele>341</ele>
        <time>2018-09-09T06:47:16Z</time>
      </trkpt>
      <trkpt lat="45.76717" lon="4.68897">
        <ele>341</ele>
        <time>2018-09-09T06:47:17Z</time>
      </trkpt>
      <trkpt lat="45.76709" lon="4.68899">
        <ele>341</ele>
        <time>2018-09-09T06:47:18Z</time>
      </trkpt>
      <trkpt lat="45.76702" lon="4.68901">
        <ele>341</ele>
        <time>2018-09-09T06:47:19Z</time>
      </trkpt>
      <trkpt lat="45.76685" lon="4.68903">
        <ele>340.5</ele>
        <time>2018-09-09T06:47:21Z</time>
      </trkpt>
      <trkpt lat="45.76657" lon="4.68906">
        <ele>338.3</ele>
        <time>2018-09-09T06:47:24Z</time>
      </trkpt>
      <trkpt lat="45.76636" lon="4.68908">
        <ele>336.6</ele>
        <time>2018-09-09T06:47:26Z</time>
      </trkpt>
      <trkpt lat="45.76626" lon="4.68911">
        <ele>335.6</ele>
        <time>2018-09-09T06:47:27Z</time>
      </trkpt>
      <trkpt lat="45.76616" lon="4.68913">
        <ele>334.6</ele>
        <time>2018-09-09T06:47:28Z</time>
      </trkpt>
      <trkpt lat="45.76596" lon="4.68916">
        <ele>332.7</ele>
        <time>2018-09-09T06:47:30Z</time>
      </trkpt>
      <trkpt lat="45.76577" lon="4.68919">
        <ele>330.9</ele>
        <time>2018-09-09T06:47:32Z</time>
      </trkpt>
      <trkpt lat="45.76567" lon="4.68919">
        <ele>330.1</ele>
        <time>2018-09-09T06:47:33Z</time>
      </trkpt>
      <trkpt lat="45.76558" lon="4.68919">
        <ele>329.4</ele>
        <time>2018-09-09T06:47:34Z</time>
      </trkpt>
      <trkpt lat="45.76539" lon="4.68919">
        <ele>328.6</ele>
        <time>2018-09-09T06:47:36Z</time>
      </trkpt>
      <trkpt lat="45.76521" lon="4.68922">
        <ele>326.9</ele>
        <time>2018-09-09T06:47:38Z</time>
      </trkpt>
      <trkpt lat="45.76509" lon="4.68926">
        <ele>325.4</ele>
        <time>2018-09-09T06:47:40Z</time>
      </trkpt>
      <trkpt lat="45.76504" lon="4.68925">
        <ele>324.8</ele>
        <time>2018-09-09T06:47:41Z</time>
      </trkpt>
      <trkpt lat="45.76499" lon="4.68924">
        <ele>324.1</ele>
        <time>2018-09-09T06:47:42Z</time>
      </trkpt>
      <trkpt lat="45.76487" lon="4.68921">
        <ele>322.7</ele>
        <time>2018-09-09T06:47:44Z</time>
      </trkpt>
      <trkpt lat="45.7648" lon="4.68921">
        <ele>322</ele>
        <time>2018-09-09T06:47:45Z</time>
      </trkpt>
      <trkpt lat="45.76472" lon="4.6892">
        <ele>321.2</ele>
        <time>2018-09-09T06:47:46Z</time>
      </trkpt>
      <trkpt lat="45.76459" lon="4.68919">
        <ele>319.8</ele>
        <time>2018-09-09T06:47:48Z</time>
      </trkpt>
      <trkpt lat="45.76453" lon="4.68918">
        <ele>319.2</ele>
        <time>2018-09-09T06:47:49Z</time>
      </trkpt>
      <trkpt lat="45.76447" lon="4.68918">
        <ele>318.7</ele>
        <time>2018-09-09T06:47:50Z</time>
      </trkpt>
      <trkpt lat="45.7644" lon="4.68917">
        <ele>318.2</ele>
        <time>2018-09-09T06:47:51Z</time>
      </trkpt>
      <trkpt lat="45.76434" lon="4.68917">
        <ele>317.8</ele>
        <time>2018-09-09T06:47:52Z</time>
      </trkpt>
      <trkpt lat="45.76427" lon="4.68917">
        <ele>317.5</ele>
        <time>2018-09-09T06:47:53Z</time>
      </trkpt>
      <trkpt lat="45.76416" lon="4.68917">
        <ele>317.2</ele>
        <time>2018-09-09T06:47:55Z</time>
      </trkpt>
      <trkpt lat="45.7641" lon="4.68915">
        <ele>317</ele>
        <time>2018-09-09T06:47:56Z</time>
      </trkpt>
      <trkpt lat="45.76404" lon="4.68913">
        <ele>316.8</ele>
        <time>2018-09-09T06:47:57Z</time>
      </trkpt>
      <trkpt lat="45.76398" lon="4.68912">
        <ele>316.6</ele>
        <time>2018-09-09T06:47:58Z</time>
      </trkpt>
      <trkpt lat="45.76392" lon="4.68912">
        <ele>316.4</ele>
        <time>2018-09-09T06:47:59Z</time>
      </trkpt>
      <trkpt lat="45.76387" lon="4.68911">
        <ele>316.2</ele>
        <time>2018-09-09T06:48:00Z</time>
      </trkpt>
      <trkpt lat="45.76381" lon="4.6891">
        <ele>316</ele>
        <time>2018-09-09T06:48:01Z</time>
      </trkpt>
      <trkpt lat="45.76375" lon="4.6891">
        <ele>315.8</ele>
        <time>2018-09-09T06:48:02Z</time>
      </trkpt>
      <trkpt lat="45.76369" lon="4.6891">
        <ele>315.7</ele>
        <time>2018-09-09T06:48:03Z</time>
      </trkpt>
      <trkpt lat="45.76362" lon="4.68908">
        <ele>315.5</ele>
        <time>2018-09-09T06:48:04Z</time>
      </trkpt>
      <trkpt lat="45.76355" lon="4.68905">
        <ele>315.1</ele>
        <time>2018-09-09T06:48:05Z</time>
      </trkpt>
      <trkpt lat="45.76348" lon="4.68901">
        <ele>314.9</ele>
        <time>2018-09-09T06:48:06Z</time>
      </trkpt>
      <trkpt lat="45.7634" lon="4.68898">
        <ele>314.6</ele>
        <time>2018-09-09T06:48:07Z</time>
      </trkpt>
      <trkpt lat="45.76331" lon="4.68893">
        <ele>314.3</ele>
        <time>2018-09-09T06:48:08Z</time>
      </trkpt>
      <trkpt lat="45.76322" lon="4.68888">
        <ele>314.1</ele>
        <time>2018-09-09T06:48:09Z</time>
      </trkpt>
      <trkpt lat="45.76314" lon="4.68883">
        <ele>314</ele>
        <time>2018-09-09T06:48:10Z</time>
      </trkpt>
      <trkpt lat="45.76307" lon="4.6888">
        <ele>314</ele>
        <time>2018-09-09T06:48:11Z</time>
      </trkpt>
      <trkpt lat="45.76301" lon="4.68876">
        <ele>314</ele>
        <time>2018-09-09T06:48:12Z</time>
      </trkpt>
      <trkpt lat="45.76297" lon="4.68875">
        <ele>314</ele>
        <time>2018-09-09T06:48:13Z</time>
      </trkpt>
      <trkpt lat="45.76293" lon="4.68875">
        <ele>314</ele>
        <time>2018-09-09T06:48:14Z</time>
      </trkpt>
      <trkpt lat="45.76289" lon="4.68877">
        <ele>314</ele>
        <time>2018-09-09T06:48:15Z</time>
      </trkpt>
      <trkpt lat="45.76286" lon="4.68878">
        <ele>314</ele>
        <time>2018-09-09T06:48:16Z</time>
      </trkpt>
      <trkpt lat="45.76283" lon="4.6888">
        <ele>314</ele>
        <time>2018-09-09T06:48:17Z</time>
      </trkpt>
      <trkpt lat="45.76283" lon="4.6888">
        <ele>314</ele>
        <time>2018-09-09T06:48:19Z</time>
      </trkpt>
      <trkpt lat="45.76284" lon="4.68881">
        <ele>314</ele>
        <time>2018-09-09T06:49:20Z</time>
      </trkpt>
      <trkpt lat="45.76279" lon="4.68885">
        <ele>313.9</ele>
        <time>2018-09-09T06:49:23Z</time>
      </trkpt>
      <trkpt lat="45.76272" lon="4.6889">
        <ele>313.8</ele>
        <time>2018-09-09T06:49:30Z</time>
      </trkpt>
      <trkpt lat="45.76272" lon="4.68894">
        <ele>313.8</ele>
        <time>2018-09-09T06:49:43Z</time>
      </trkpt>
      <trkpt lat="45.76271" lon="4.68897">
        <ele>313.7</ele>
        <time>2018-09-09T06:49:44Z</time>
      </trkpt>
      <trkpt lat="45.76268" lon="4.68923">
        <ele>313.3</ele>
        <time>2018-09-09T06:49:49Z</time>
      </trkpt>
      <trkpt lat="45.76261" lon="4.68971">
        <ele>312.4</ele>
        <time>2018-09-09T06:49:56Z</time>
      </trkpt>
      <trkpt lat="45.76259" lon="4.68977">
        <ele>312.2</ele>
        <time>2018-09-09T06:49:57Z</time>
      </trkpt>
      <trkpt lat="45.76247" lon="4.68994">
        <ele>311.3</ele>
        <time>2018-09-09T06:50:00Z</time>
      </trkpt>
      <trkpt lat="45.76232" lon="4.69007">
        <ele>310.3</ele>
        <time>2018-09-09T06:50:03Z</time>
      </trkpt>
      <trkpt lat="45.76215" lon="4.69019">
        <ele>309.7</ele>
        <time>2018-09-09T06:50:06Z</time>
      </trkpt>
      <trkpt lat="45.76182" lon="4.69051">
        <ele>307.9</ele>
        <time>2018-09-09T06:50:12Z</time>
      </trkpt>
      <trkpt lat="45.76154" lon="4.6909">
        <ele>305.7</ele>
        <time>2018-09-09T06:50:18Z</time>
      </trkpt>
      <trkpt lat="45.76126" lon="4.69143">
        <ele>303.4</ele>
        <time>2018-09-09T06:50:25Z</time>
      </trkpt>
      <trkpt lat="45.76091" lon="4.69211">
        <ele>302.1</ele>
        <time>2018-09-09T06:50:34Z</time>
      </trkpt>
      <trkpt lat="45.76087" lon="4.69218">
        <ele>301.8</ele>
        <time>2018-09-09T06:50:35Z</time>
      </trkpt>
      <trkpt lat="45.7608" lon="4.69229">
        <ele>301.5</ele>
        <time>2018-09-09T06:50:37Z</time>
      </trkpt>
      <trkpt lat="45.7607" lon="4.69235">
        <ele>301.3</ele>
        <time>2018-09-09T06:50:39Z</time>
      </trkpt>
      <trkpt lat="45.76059" lon="4.6924">
        <ele>301.3</ele>
        <time>2018-09-09T06:50:41Z</time>
      </trkpt>
      <trkpt lat="45.76031" lon="4.69239">
        <ele>301.9</ele>
        <time>2018-09-09T06:50:45Z</time>
      </trkpt>
      <trkpt lat="45.7601" lon="4.69237">
        <ele>302.7</ele>
        <time>2018-09-09T06:50:51Z</time>
      </trkpt>
      <trkpt lat="45.76005" lon="4.69234">
        <ele>303.1</ele>
        <time>2018-09-09T06:50:54Z</time>
      </trkpt>
      <trkpt lat="45.75996" lon="4.69229">
        <ele>303.7</ele>
        <time>2018-09-09T06:50:58Z</time>
      </trkpt>
      <trkpt lat="45.75987" lon="4.69212">
        <ele>304.8</ele>
        <time>2018-09-09T06:51:05Z</time>
      </trkpt>
      <trkpt lat="45.75986" lon="4.69209">
        <ele>305</ele>
        <time>2018-09-09T06:51:06Z</time>
      </trkpt>
      <trkpt lat="45.75982" lon="4.69197">
        <ele>305.6</ele>
        <time>2018-09-09T06:51:10Z</time>
      </trkpt>
      <trkpt lat="45.7598" lon="4.69185">
        <ele>306.2</ele>
        <time>2018-09-09T06:51:14Z</time>
      </trkpt>
      <trkpt lat="45.7598" lon="4.69182">
        <ele>306.4</ele>
        <time>2018-09-09T06:51:15Z</time>
      </trkpt>
      <trkpt lat="45.75978" lon="4.69176">
        <ele>306.7</ele>
        <time>2018-09-09T06:51:17Z</time>
      </trkpt>
      <trkpt lat="45.75976" lon="4.69167">
        <ele>307.2</ele>
        <time>2018-09-09T06:51:20Z</time>
      </trkpt>
      <trkpt lat="45.75974" lon="4.69155">
        <ele>307.9</ele>
        <time>2018-09-09T06:51:24Z</time>
      </trkpt>
      <trkpt lat="45.7597" lon="4.69143">
        <ele>308.3</ele>
        <time>2018-09-09T06:51:28Z</time>
      </trkpt>
      <trkpt lat="45.75968" lon="4.69131">
        <ele>309.1</ele>
        <time>2018-09-09T06:51:32Z</time>
      </trkpt>
      <trkpt lat="45.75967" lon="4.69128">
        <ele>309.4</ele>
        <time>2018-09-09T06:51:33Z</time>
      </trkpt>
      <trkpt lat="45.75965" lon="4.69119">
        <ele>310.2</ele>
        <time>2018-09-09T06:51:36Z</time>
      </trkpt>
      <trkpt lat="45.75961" lon="4.69104">
        <ele>311.8</ele>
        <time>2018-09-09T06:51:41Z</time>
      </trkpt>
      <trkpt lat="45.75961" lon="4.69101">
        <ele>312.1</ele>
        <time>2018-09-09T06:51:42Z</time>
      </trkpt>
      <trkpt lat="45.75959" lon="4.69092">
        <ele>312.8</ele>
        <time>2018-09-09T06:51:45Z</time>
      </trkpt>
      <trkpt lat="45.75959" lon="4.69076">
        <ele>313.9</ele>
        <time>2018-09-09T06:51:50Z</time>
      </trkpt>
      <trkpt lat="45.75958" lon="4.69069">
        <ele>314.4</ele>
        <time>2018-09-09T06:51:52Z</time>
      </trkpt>
      <trkpt lat="45.75959" lon="4.69056">
        <ele>315.7</ele>
        <time>2018-09-09T06:51:56Z</time>
      </trkpt>
      <trkpt lat="45.75961" lon="4.69043">
        <ele>316.9</ele>
        <time>2018-09-09T06:52:00Z</time>
      </trkpt>
      <trkpt lat="45.75963" lon="4.69029">
        <ele>318.6</ele>
        <time>2018-09-09T06:52:04Z</time>
      </trkpt>
      <trkpt lat="45.75964" lon="4.69026">
        <ele>318.8</ele>
        <time>2018-09-09T06:52:05Z</time>
      </trkpt>
      <trkpt lat="45.75965" lon="4.69017">
        <ele>319.5</ele>
        <time>2018-09-09T06:52:08Z</time>
      </trkpt>
      <trkpt lat="45.75968" lon="4.69006">
        <ele>320.5</ele>
        <time>2018-09-09T06:52:12Z</time>
      </trkpt>
      <trkpt lat="45.75968" lon="4.69004">
        <ele>320.7</ele>
        <time>2018-09-09T06:52:13Z</time>
      </trkpt>
      <trkpt lat="45.75969" lon="4.69003">
        <ele>320.7</ele>
        <time>2018-09-09T06:52:14Z</time>
      </trkpt>
      <trkpt lat="45.75971" lon="4.68996">
        <ele>321.2</ele>
        <time>2018-09-09T06:52:18Z</time>
      </trkpt>
      <trkpt lat="45.75972" lon="4.68992">
        <ele>321.4</ele>
        <time>2018-09-09T06:52:20Z</time>
      </trkpt>
      <trkpt lat="45.75973" lon="4.68987">
        <ele>321.8</ele>
        <time>2018-09-09T06:52:22Z</time>
      </trkpt>
      <trkpt lat="45.75978" lon="4.68973">
        <ele>323.3</ele>
        <time>2018-09-09T06:52:27Z</time>
      </trkpt>
      <trkpt lat="45.75979" lon="4.68971">
        <ele>323.5</ele>
        <time>2018-09-09T06:52:28Z</time>
      </trkpt>
      <trkpt lat="45.75984" lon="4.6896">
        <ele>324.2</ele>
        <time>2018-09-09T06:52:32Z</time>
      </trkpt>
      <trkpt lat="45.75989" lon="4.6895">
        <ele>324.9</ele>
        <time>2018-09-09T06:52:36Z</time>
      </trkpt>
      <trkpt lat="45.75993" lon="4.68943">
        <ele>325.4</ele>
        <time>2018-09-09T06:52:39Z</time>
      </trkpt>
      <trkpt lat="45.75997" lon="4.68935">
        <ele>326.2</ele>
        <time>2018-09-09T06:52:42Z</time>
      </trkpt>
      <trkpt lat="45.75999" lon="4.6893">
        <ele>326.7</ele>
        <time>2018-09-09T06:52:44Z</time>
      </trkpt>
      <trkpt lat="45.76001" lon="4.68925">
        <ele>327</ele>
        <time>2018-09-09T06:52:46Z</time>
      </trkpt>
      <trkpt lat="45.76008" lon="4.68912">
        <ele>328.1</ele>
        <time>2018-09-09T06:52:51Z</time>
      </trkpt>
      <trkpt lat="45.7601" lon="4.68907">
        <ele>328.5</ele>
        <time>2018-09-09T06:52:53Z</time>
      </trkpt>
      <trkpt lat="45.76013" lon="4.68902">
        <ele>328.9</ele>
        <time>2018-09-09T06:52:55Z</time>
      </trkpt>
      <trkpt lat="45.76025" lon="4.6888">
        <ele>330</ele>
        <time>2018-09-09T06:53:03Z</time>
      </trkpt>
      <trkpt lat="45.76026" lon="4.68877">
        <ele>330</ele>
        <time>2018-09-09T06:53:04Z</time>
      </trkpt>
      <trkpt lat="45.7603" lon="4.68865">
        <ele>331</ele>
        <time>2018-09-09T06:53:08Z</time>
      </trkpt>
      <trkpt lat="45.76031" lon="4.68855">
        <ele>331.6</ele>
        <time>2018-09-09T06:53:11Z</time>
      </trkpt>
      <trkpt lat="45.76031" lon="4.68852">
        <ele>331.9</ele>
        <time>2018-09-09T06:53:12Z</time>
      </trkpt>
      <trkpt lat="45.76029" lon="4.68839">
        <ele>333.1</ele>
        <time>2018-09-09T06:53:16Z</time>
      </trkpt>
      <trkpt lat="45.76027" lon="4.68833">
        <ele>333.5</ele>
        <time>2018-09-09T06:53:18Z</time>
      </trkpt>
      <trkpt lat="45.76015" lon="4.68816">
        <ele>335.1</ele>
        <time>2018-09-09T06:53:25Z</time>
      </trkpt>
      <trkpt lat="45.76013" lon="4.68814">
        <ele>335.2</ele>
        <time>2018-09-09T06:53:26Z</time>
      </trkpt>
      <trkpt lat="45.75998" lon="4.68803">
        <ele>336.2</ele>
        <time>2018-09-09T06:53:33Z</time>
      </trkpt>
      <trkpt lat="45.75984" lon="4.68799">
        <ele>336.5</ele>
        <time>2018-09-09T06:53:39Z</time>
      </trkpt>
      <trkpt lat="45.75975" lon="4.68797">
        <ele>336.5</ele>
        <time>2018-09-09T06:53:43Z</time>
      </trkpt>
      <trkpt lat="45.75962" lon="4.68794">
        <ele>336.6</ele>
        <time>2018-09-09T06:53:49Z</time>
      </trkpt>
      <trkpt lat="45.75959" lon="4.68788">
        <ele>336.7</ele>
        <time>2018-09-09T06:53:53Z</time>
      </trkpt>
      <trkpt lat="45.75957" lon="4.68785">
        <ele>336.8</ele>
        <time>2018-09-09T06:53:57Z</time>
      </trkpt>
      <trkpt lat="45.75956" lon="4.68785">
        <ele>336.8</ele>
        <time>2018-09-09T06:53:58Z</time>
      </trkpt>
      <trkpt lat="45.75949" lon="4.68783">
        <ele>337</ele>
        <time>2018-09-09T06:54:02Z</time>
      </trkpt>
      <trkpt lat="45.75945" lon="4.68787">
        <ele>336.8</ele>
        <time>2018-09-09T06:54:04Z</time>
      </trkpt>
      <trkpt lat="45.75936" lon="4.68795">
        <ele>336.4</ele>
        <time>2018-09-09T06:54:07Z</time>
      </trkpt>
      <trkpt lat="45.75919" lon="4.68811">
        <ele>335.9</ele>
        <time>2018-09-09T06:54:12Z</time>
      </trkpt>
      <trkpt lat="45.75911" lon="4.68819">
        <ele>335.6</ele>
        <time>2018-09-09T06:54:14Z</time>
      </trkpt>
      <trkpt lat="45.75896" lon="4.68837">
        <ele>335.3</ele>
        <time>2018-09-09T06:54:18Z</time>
      </trkpt>
      <trkpt lat="45.75886" lon="4.68854">
        <ele>335.1</ele>
        <time>2018-09-09T06:54:21Z</time>
      </trkpt>
      <trkpt lat="45.75861" lon="4.68905">
        <ele>333.8</ele>
        <time>2018-09-09T06:54:29Z</time>
      </trkpt>
      <trkpt lat="45.75851" lon="4.68929">
        <ele>333</ele>
        <time>2018-09-09T06:54:32Z</time>
      </trkpt>
      <trkpt lat="45.7584" lon="4.68954">
        <ele>332.2</ele>
        <time>2018-09-09T06:54:35Z</time>
      </trkpt>
      <trkpt lat="45.75836" lon="4.68963">
        <ele>331.9</ele>
        <time>2018-09-09T06:54:36Z</time>
      </trkpt>
      <trkpt lat="45.75824" lon="4.6899">
        <ele>331.1</ele>
        <time>2018-09-09T06:54:39Z</time>
      </trkpt>
      <trkpt lat="45.75812" lon="4.69018">
        <ele>329.9</ele>
        <time>2018-09-09T06:54:42Z</time>
      </trkpt>
      <trkpt lat="45.758" lon="4.69049">
        <ele>328.7</ele>
        <time>2018-09-09T06:54:45Z</time>
      </trkpt>
      <trkpt lat="45.75789" lon="4.6908">
        <ele>327.3</ele>
        <time>2018-09-09T06:54:48Z</time>
      </trkpt>
      <trkpt lat="45.75785" lon="4.69091">
        <ele>326.8</ele>
        <time>2018-09-09T06:54:49Z</time>
      </trkpt>
      <trkpt lat="45.75776" lon="4.69112">
        <ele>325.9</ele>
        <time>2018-09-09T06:54:51Z</time>
      </trkpt>
      <trkpt lat="45.75765" lon="4.69135">
        <ele>325</ele>
        <time>2018-09-09T06:54:54Z</time>
      </trkpt>
      <trkpt lat="45.75762" lon="4.69143">
        <ele>324.7</ele>
        <time>2018-09-09T06:54:55Z</time>
      </trkpt>
      <trkpt lat="45.7576" lon="4.69151">
        <ele>324.4</ele>
        <time>2018-09-09T06:54:56Z</time>
      </trkpt>
      <trkpt lat="45.75757" lon="4.6917">
        <ele>323.8</ele>
        <time>2018-09-09T06:54:58Z</time>
      </trkpt>
      <trkpt lat="45.75759" lon="4.69199">
        <ele>322.5</ele>
        <time>2018-09-09T06:55:01Z</time>
      </trkpt>
      <trkpt lat="45.7576" lon="4.69209">
        <ele>322</ele>
        <time>2018-09-09T06:55:02Z</time>
      </trkpt>
      <trkpt lat="45.75762" lon="4.69219">
        <ele>321.6</ele>
        <time>2018-09-09T06:55:03Z</time>
      </trkpt>
      <trkpt lat="45.75764" lon="4.6924">
        <ele>320.7</ele>
        <time>2018-09-09T06:55:05Z</time>
      </trkpt>
      <trkpt lat="45.75764" lon="4.69273">
        <ele>319.4</ele>
        <time>2018-09-09T06:55:08Z</time>
      </trkpt>
      <trkpt lat="45.75762" lon="4.69284">
        <ele>318.9</ele>
        <time>2018-09-09T06:55:09Z</time>
      </trkpt>
      <trkpt lat="45.75757" lon="4.69306">
        <ele>318</ele>
        <time>2018-09-09T06:55:11Z</time>
      </trkpt>
      <trkpt lat="45.75754" lon="4.69317">
        <ele>317.6</ele>
        <time>2018-09-09T06:55:12Z</time>
      </trkpt>
      <trkpt lat="45.75751" lon="4.69327">
        <ele>317.1</ele>
        <time>2018-09-09T06:55:13Z</time>
      </trkpt>
      <trkpt lat="45.75747" lon="4.69336">
        <ele>316.8</ele>
        <time>2018-09-09T06:55:14Z</time>
      </trkpt>
      <trkpt lat="45.75737" lon="4.69366">
        <ele>315.6</ele>
        <time>2018-09-09T06:55:17Z</time>
      </trkpt>
      <trkpt lat="45.75733" lon="4.69377">
        <ele>315.2</ele>
        <time>2018-09-09T06:55:18Z</time>
      </trkpt>
      <trkpt lat="45.75724" lon="4.69399">
        <ele>314.1</ele>
        <time>2018-09-09T06:55:20Z</time>
      </trkpt>
      <trkpt lat="45.75712" lon="4.69436">
        <ele>312.1</ele>
        <time>2018-09-09T06:55:23Z</time>
      </trkpt>
      <trkpt lat="45.75707" lon="4.69449">
        <ele>311.4</ele>
        <time>2018-09-09T06:55:24Z</time>
      </trkpt>
      <trkpt lat="45.75703" lon="4.69462">
        <ele>310.7</ele>
        <time>2018-09-09T06:55:25Z</time>
      </trkpt>
      <trkpt lat="45.75695" lon="4.69488">
        <ele>309.5</ele>
        <time>2018-09-09T06:55:27Z</time>
      </trkpt>
      <trkpt lat="45.75688" lon="4.69515">
        <ele>308.2</ele>
        <time>2018-09-09T06:55:29Z</time>
      </trkpt>
      <trkpt lat="45.75685" lon="4.69528">
        <ele>307.6</ele>
        <time>2018-09-09T06:55:30Z</time>
      </trkpt>
      <trkpt lat="45.75682" lon="4.69543">
        <ele>306.9</ele>
        <time>2018-09-09T06:55:31Z</time>
      </trkpt>
      <trkpt lat="45.75677" lon="4.69571">
        <ele>305.6</ele>
        <time>2018-09-09T06:55:33Z</time>
      </trkpt>
      <trkpt lat="45.75671" lon="4.696">
        <ele>304.3</ele>
        <time>2018-09-09T06:55:35Z</time>
      </trkpt>
      <trkpt lat="45.75666" lon="4.69628">
        <ele>303.1</ele>
        <time>2018-09-09T06:55:37Z</time>
      </trkpt>
      <trkpt lat="45.75662" lon="4.69658">
        <ele>301.7</ele>
        <time>2018-09-09T06:55:39Z</time>
      </trkpt>
      <trkpt lat="45.75659" lon="4.69691">
        <ele>300.1</ele>
        <time>2018-09-09T06:55:41Z</time>
      </trkpt>
      <trkpt lat="45.75657" lon="4.69707">
        <ele>299.1</ele>
        <time>2018-09-09T06:55:42Z</time>
      </trkpt>
      <trkpt lat="45.75655" lon="4.69724">
        <ele>298.1</ele>
        <time>2018-09-09T06:55:43Z</time>
      </trkpt>
      <trkpt lat="45.75649" lon="4.69753">
        <ele>296.6</ele>
        <time>2018-09-09T06:55:45Z</time>
      </trkpt>
      <trkpt lat="45.75646" lon="4.69766">
        <ele>295.9</ele>
        <time>2018-09-09T06:55:46Z</time>
      </trkpt>
      <trkpt lat="45.75643" lon="4.69779">
        <ele>295.4</ele>
        <time>2018-09-09T06:55:47Z</time>
      </trkpt>
      <trkpt lat="45.75636" lon="4.69804">
        <ele>294.4</ele>
        <time>2018-09-09T06:55:49Z</time>
      </trkpt>
      <trkpt lat="45.75627" lon="4.69827">
        <ele>293.3</ele>
        <time>2018-09-09T06:55:51Z</time>
      </trkpt>
      <trkpt lat="45.75623" lon="4.69836">
        <ele>292.8</ele>
        <time>2018-09-09T06:55:52Z</time>
      </trkpt>
      <trkpt lat="45.75619" lon="4.69845">
        <ele>292.2</ele>
        <time>2018-09-09T06:55:53Z</time>
      </trkpt>
      <trkpt lat="45.75611" lon="4.69862">
        <ele>292</ele>
        <time>2018-09-09T06:55:55Z</time>
      </trkpt>
      <trkpt lat="45.75605" lon="4.69868">
        <ele>292</ele>
        <time>2018-09-09T06:55:56Z</time>
      </trkpt>
      <trkpt lat="45.75594" lon="4.69876">
        <ele>292</ele>
        <time>2018-09-09T06:55:58Z</time>
      </trkpt>
      <trkpt lat="45.75589" lon="4.69877">
        <ele>292</ele>
        <time>2018-09-09T06:55:59Z</time>
      </trkpt>
      <trkpt lat="45.75578" lon="4.69874">
        <ele>292</ele>
        <time>2018-09-09T06:56:02Z</time>
      </trkpt>
      <trkpt lat="45.75575" lon="4.69873">
        <ele>292</ele>
        <time>2018-09-09T06:56:03Z</time>
      </trkpt>
      <trkpt lat="45.75574" lon="4.69874">
        <ele>292</ele>
        <time>2018-09-09T06:56:04Z</time>
      </trkpt>
      <trkpt lat="45.75573" lon="4.69883">
        <ele>292</ele>
        <time>2018-09-09T06:56:06Z</time>
      </trkpt>
      <trkpt lat="45.75578" lon="4.69892">
        <ele>292</ele>
        <time>2018-09-09T06:56:08Z</time>
      </trkpt>
      <trkpt lat="45.75581" lon="4.69897">
        <ele>292</ele>
        <time>2018-09-09T06:56:09Z</time>
      </trkpt>
      <trkpt lat="45.75588" lon="4.69915">
        <ele>292</ele>
        <time>2018-09-09T06:56:13Z</time>
      </trkpt>
      <trkpt lat="45.75585" lon="4.69926">
        <ele>292.7</ele>
        <time>2018-09-09T06:56:16Z</time>
      </trkpt>
      <trkpt lat="45.75584" lon="4.69929">
        <ele>292.9</ele>
        <time>2018-09-09T06:56:17Z</time>
      </trkpt>
      <trkpt lat="45.75582" lon="4.69941">
        <ele>293.6</ele>
        <time>2018-09-09T06:56:22Z</time>
      </trkpt>
      <trkpt lat="45.75581" lon="4.69953">
        <ele>294.2</ele>
        <time>2018-09-09T06:56:27Z</time>
      </trkpt>
      <trkpt lat="45.7558" lon="4.69958">
        <ele>294.4</ele>
        <time>2018-09-09T06:56:29Z</time>
      </trkpt>
      <trkpt lat="45.75577" lon="4.69978">
        <ele>294.8</ele>
        <time>2018-09-09T06:56:36Z</time>
      </trkpt>
      <trkpt lat="45.75576" lon="4.69982">
        <ele>294.9</ele>
        <time>2018-09-09T06:56:38Z</time>
      </trkpt>
      <trkpt lat="45.75573" lon="4.69989">
        <ele>295</ele>
        <time>2018-09-09T06:56:41Z</time>
      </trkpt>
      <trkpt lat="45.75573" lon="4.69993">
        <ele>295.1</ele>
        <time>2018-09-09T06:56:42Z</time>
      </trkpt>
      <trkpt lat="45.75573" lon="4.70001">
        <ele>295.2</ele>
        <time>2018-09-09T06:56:45Z</time>
      </trkpt>
      <trkpt lat="45.75571" lon="4.70006">
        <ele>295.2</ele>
        <time>2018-09-09T06:56:47Z</time>
      </trkpt>
      <trkpt lat="45.75567" lon="4.70011">
        <ele>295.4</ele>
        <time>2018-09-09T06:56:50Z</time>
      </trkpt>
      <trkpt lat="45.75562" lon="4.70013">
        <ele>295.6</ele>
        <time>2018-09-09T06:56:52Z</time>
      </trkpt>
      <trkpt lat="45.75556" lon="4.70014">
        <ele>296.1</ele>
        <time>2018-09-09T06:56:55Z</time>
      </trkpt>
      <trkpt lat="45.75549" lon="4.70015">
        <ele>296.7</ele>
        <time>2018-09-09T06:56:58Z</time>
      </trkpt>
      <trkpt lat="45.75547" lon="4.70016">
        <ele>296.9</ele>
        <time>2018-09-09T06:56:59Z</time>
      </trkpt>
      <trkpt lat="45.75542" lon="4.7002">
        <ele>297.3</ele>
        <time>2018-09-09T06:57:01Z</time>
      </trkpt>
      <trkpt lat="45.75537" lon="4.70024">
        <ele>297.8</ele>
        <time>2018-09-09T06:57:03Z</time>
      </trkpt>
      <trkpt lat="45.75533" lon="4.70028">
        <ele>298.2</ele>
        <time>2018-09-09T06:57:05Z</time>
      </trkpt>
      <trkpt lat="45.7553" lon="4.7003">
        <ele>298.4</ele>
        <time>2018-09-09T06:57:06Z</time>
      </trkpt>
      <trkpt lat="45.75528" lon="4.70031">
        <ele>298.7</ele>
        <time>2018-09-09T06:57:07Z</time>
      </trkpt>
      <trkpt lat="45.75515" lon="4.70041">
        <ele>300.2</ele>
        <time>2018-09-09T06:57:12Z</time>
      </trkpt>
      <trkpt lat="45.75513" lon="4.70042">
        <ele>300.4</ele>
        <time>2018-09-09T06:57:13Z</time>
      </trkpt>
      <trkpt lat="45.75508" lon="4.70045">
        <ele>300.7</ele>
        <time>2018-09-09T06:57:15Z</time>
      </trkpt>
      <trkpt lat="45.75501" lon="4.70048">
        <ele>301.4</ele>
        <time>2018-09-09T06:57:18Z</time>
      </trkpt>
      <trkpt lat="45.75497" lon="4.70049">
        <ele>301.8</ele>
        <time>2018-09-09T06:57:20Z</time>
      </trkpt>
      <trkpt lat="45.75492" lon="4.70051">
        <ele>302.1</ele>
        <time>2018-09-09T06:57:22Z</time>
      </trkpt>
      <trkpt lat="45.75481" lon="4.70055">
        <ele>303.2</ele>
        <time>2018-09-09T06:57:27Z</time>
      </trkpt>
      <trkpt lat="45.75476" lon="4.70057">
        <ele>303.5</ele>
        <time>2018-09-09T06:57:29Z</time>
      </trkpt>
      <trkpt lat="45.75465" lon="4.70063">
        <ele>304.7</ele>
        <time>2018-09-09T06:57:34Z</time>
      </trkpt>
      <trkpt lat="45.75458" lon="4.70068">
        <ele>305.4</ele>
        <time>2018-09-09T06:57:37Z</time>
      </trkpt>
      <trkpt lat="45.75451" lon="4.70071">
        <ele>305.9</ele>
        <time>2018-09-09T06:57:40Z</time>
      </trkpt>
      <trkpt lat="45.7544" lon="4.70075">
        <ele>306.6</ele>
        <time>2018-09-09T06:57:44Z</time>
      </trkpt>
      <trkpt lat="45.75426" lon="4.70079">
        <ele>307</ele>
        <time>2018-09-09T06:57:50Z</time>
      </trkpt>
      <trkpt lat="45.75411" lon="4.70083">
        <ele>307.9</ele>
        <time>2018-09-09T06:57:55Z</time>
      </trkpt>
      <trkpt lat="45.75404" lon="4.70087">
        <ele>308.4</ele>
        <time>2018-09-09T06:57:57Z</time>
      </trkpt>
      <trkpt lat="45.75386" lon="4.70095">
        <ele>309.4</ele>
        <time>2018-09-09T06:58:02Z</time>
      </trkpt>
      <trkpt lat="45.7536" lon="4.70107">
        <ele>310.8</ele>
        <time>2018-09-09T06:58:10Z</time>
      </trkpt>
      <trkpt lat="45.75357" lon="4.70108">
        <ele>310.9</ele>
        <time>2018-09-09T06:58:11Z</time>
      </trkpt>
      <trkpt lat="45.7534" lon="4.70115">
        <ele>311.7</ele>
        <time>2018-09-09T06:58:16Z</time>
      </trkpt>
      <trkpt lat="45.75336" lon="4.70117">
        <ele>311.9</ele>
        <time>2018-09-09T06:58:17Z</time>
      </trkpt>
      <trkpt lat="45.75317" lon="4.70125">
        <ele>312.8</ele>
        <time>2018-09-09T06:58:22Z</time>
      </trkpt>
      <trkpt lat="45.75309" lon="4.7013">
        <ele>313.3</ele>
        <time>2018-09-09T06:58:24Z</time>
      </trkpt>
      <trkpt lat="45.75288" lon="4.70142">
        <ele>314.3</ele>
        <time>2018-09-09T06:58:30Z</time>
      </trkpt>
      <trkpt lat="45.7528" lon="4.7015">
        <ele>314.8</ele>
        <time>2018-09-09T06:58:34Z</time>
      </trkpt>
      <trkpt lat="45.75282" lon="4.70153">
        <ele>314.5</ele>
        <time>2018-09-09T06:58:35Z</time>
      </trkpt>
      <trkpt lat="45.75297" lon="4.70168">
        <ele>313.2</ele>
        <time>2018-09-09T06:58:39Z</time>
      </trkpt>
      <trkpt lat="45.75311" lon="4.70186">
        <ele>312.1</ele>
        <time>2018-09-09T06:58:43Z</time>
      </trkpt>
      <trkpt lat="45.75326" lon="4.70207">
        <ele>311.3</ele>
        <time>2018-09-09T06:58:47Z</time>
      </trkpt>
      <trkpt lat="45.75333" lon="4.7022">
        <ele>310.8</ele>
        <time>2018-09-09T06:58:49Z</time>
      </trkpt>
      <trkpt lat="45.75347" lon="4.70244">
        <ele>309.6</ele>
        <time>2018-09-09T06:58:52Z</time>
      </trkpt>
      <trkpt lat="45.75357" lon="4.70262">
        <ele>308.5</ele>
        <time>2018-09-09T06:58:54Z</time>
      </trkpt>
      <trkpt lat="45.75367" lon="4.7028">
        <ele>307.5</ele>
        <time>2018-09-09T06:58:56Z</time>
      </trkpt>
      <trkpt lat="45.75379" lon="4.70298">
        <ele>307</ele>
        <time>2018-09-09T06:58:58Z</time>
      </trkpt>
      <trkpt lat="45.7539" lon="4.70316">
        <ele>306.2</ele>
        <time>2018-09-09T06:59:00Z</time>
      </trkpt>
      <trkpt lat="45.75399" lon="4.7033">
        <ele>304.5</ele>
        <time>2018-09-09T06:59:02Z</time>
      </trkpt>
      <trkpt lat="45.75404" lon="4.70337">
        <ele>303.7</ele>
        <time>2018-09-09T06:59:03Z</time>
      </trkpt>
      <trkpt lat="45.75418" lon="4.70358">
        <ele>301.4</ele>
        <time>2018-09-09T06:59:06Z</time>
      </trkpt>
      <trkpt lat="45.75426" lon="4.70371">
        <ele>299.9</ele>
        <time>2018-09-09T06:59:08Z</time>
      </trkpt>
      <trkpt lat="45.7543" lon="4.70376">
        <ele>299.4</ele>
        <time>2018-09-09T06:59:09Z</time>
      </trkpt>
      <trkpt lat="45.75434" lon="4.70382">
        <ele>298.8</ele>
        <time>2018-09-09T06:59:11Z</time>
      </trkpt>
      <trkpt lat="45.75434" lon="4.70382">
        <ele>298.7</ele>
        <time>2018-09-09T06:59:12Z</time>
      </trkpt>
      <trkpt lat="45.75432" lon="4.70379">
        <ele>299</ele>
        <time>2018-09-09T07:01:01Z</time>
      </trkpt>
      <trkpt lat="45.75426" lon="4.7037">
        <ele>300</ele>
        <time>2018-09-09T07:01:05Z</time>
      </trkpt>
      <trkpt lat="45.75425" lon="4.70367">
        <ele>300.3</ele>
        <time>2018-09-09T07:01:06Z</time>
      </trkpt>
      <trkpt lat="45.75415" lon="4.70352">
        <ele>302</ele>
        <time>2018-09-09T07:01:11Z</time>
      </trkpt>
      <trkpt lat="45.75403" lon="4.70333">
        <ele>304</ele>
        <time>2018-09-09T07:01:17Z</time>
      </trkpt>
      <trkpt lat="45.75402" lon="4.7033">
        <ele>304.3</ele>
        <time>2018-09-09T07:01:18Z</time>
      </trkpt>
      <trkpt lat="45.75392" lon="4.70317">
        <ele>305.9</ele>
        <time>2018-09-09T07:01:22Z</time>
      </trkpt>
      <trkpt lat="45.75389" lon="4.70312">
        <ele>306.5</ele>
        <time>2018-09-09T07:01:24Z</time>
      </trkpt>
      <trkpt lat="45.75385" lon="4.70307">
        <ele>307</ele>
        <time>2018-09-09T07:01:27Z</time>
      </trkpt>
      <trkpt lat="45.75379" lon="4.703">
        <ele>307</ele>
        <time>2018-09-09T07:01:30Z</time>
      </trkpt>
      <trkpt lat="45.75373" lon="4.70291">
        <ele>307</ele>
        <time>2018-09-09T07:01:33Z</time>
      </trkpt>
      <trkpt lat="45.75364" lon="4.70277">
        <ele>307.7</ele>
        <time>2018-09-09T07:01:38Z</time>
      </trkpt>
      <trkpt lat="45.75354" lon="4.70257">
        <ele>308.8</ele>
        <time>2018-09-09T07:01:44Z</time>
      </trkpt>
      <trkpt lat="45.7535" lon="4.70251">
        <ele>309.2</ele>
        <time>2018-09-09T07:01:46Z</time>
      </trkpt>
      <trkpt lat="45.7534" lon="4.70232">
        <ele>310.3</ele>
        <time>2018-09-09T07:01:52Z</time>
      </trkpt>
      <trkpt lat="45.75338" lon="4.70228">
        <ele>310.4</ele>
        <time>2018-09-09T07:01:53Z</time>
      </trkpt>
      <trkpt lat="45.75326" lon="4.7021">
        <ele>311.2</ele>
        <time>2018-09-09T07:01:59Z</time>
      </trkpt>
      <trkpt lat="45.75322" lon="4.70203">
        <ele>311.5</ele>
        <time>2018-09-09T07:02:01Z</time>
      </trkpt>
      <trkpt lat="45.7532" lon="4.702">
        <ele>311.6</ele>
        <time>2018-09-09T07:02:02Z</time>
      </trkpt>
      <trkpt lat="45.75302" lon="4.70178">
        <ele>312.6</ele>
        <time>2018-09-09T07:02:10Z</time>
      </trkpt>
      <trkpt lat="45.75282" lon="4.70153">
        <ele>314.5</ele>
        <time>2018-09-09T07:02:18Z</time>
      </trkpt>
      <trkpt lat="45.75279" lon="4.70144">
        <ele>314.9</ele>
        <time>2018-09-09T07:02:22Z</time>
      </trkpt>
      <trkpt lat="45.7529" lon="4.70137">
        <ele>314.2</ele>
        <time>2018-09-09T07:02:26Z</time>
      </trkpt>
      <trkpt lat="45.75313" lon="4.70129">
        <ele>313.1</ele>
        <time>2018-09-09T07:02:32Z</time>
      </trkpt>
      <trkpt lat="45.75317" lon="4.70127">
        <ele>312.9</ele>
        <time>2018-09-09T07:02:33Z</time>
      </trkpt>
      <trkpt lat="45.75348" lon="4.70113">
        <ele>311.3</ele>
        <time>2018-09-09T07:02:40Z</time>
      </trkpt>
      <trkpt lat="45.75377" lon="4.70102">
        <ele>310</ele>
        <time>2018-09-09T07:02:46Z</time>
      </trkpt>
      <trkpt lat="45.75411" lon="4.70088">
        <ele>308</ele>
        <time>2018-09-09T07:02:52Z</time>
      </trkpt>
      <trkpt lat="45.75441" lon="4.70078">
        <ele>306.5</ele>
        <time>2018-09-09T07:02:57Z</time>
      </trkpt>
      <trkpt lat="45.75447" lon="4.70077">
        <ele>306.2</ele>
        <time>2018-09-09T07:02:58Z</time>
      </trkpt>
      <trkpt lat="45.75454" lon="4.70074">
        <ele>305.8</ele>
        <time>2018-09-09T07:02:59Z</time>
      </trkpt>
      <trkpt lat="45.75472" lon="4.70063">
        <ele>304.3</ele>
        <time>2018-09-09T07:03:02Z</time>
      </trkpt>
      <trkpt lat="45.75479" lon="4.7006">
        <ele>303.6</ele>
        <time>2018-09-09T07:03:03Z</time>
      </trkpt>
      <trkpt lat="45.75499" lon="4.70052">
        <ele>301.9</ele>
        <time>2018-09-09T07:03:06Z</time>
      </trkpt>
      <trkpt lat="45.75507" lon="4.7005">
        <ele>301.3</ele>
        <time>2018-09-09T07:03:07Z</time>
      </trkpt>
      <trkpt lat="45.75514" lon="4.70046">
        <ele>300.6</ele>
        <time>2018-09-09T07:03:08Z</time>
      </trkpt>
      <trkpt lat="45.75521" lon="4.70041">
        <ele>300.1</ele>
        <time>2018-09-09T07:03:09Z</time>
      </trkpt>
      <trkpt lat="45.75534" lon="4.70031">
        <ele>298.7</ele>
        <time>2018-09-09T07:03:11Z</time>
      </trkpt>
      <trkpt lat="45.7554" lon="4.70027">
        <ele>298.1</ele>
        <time>2018-09-09T07:03:12Z</time>
      </trkpt>
      <trkpt lat="45.75553" lon="4.70021">
        <ele>297</ele>
        <time>2018-09-09T07:03:14Z</time>
      </trkpt>
      <trkpt lat="45.7556" lon="4.70021">
        <ele>296.5</ele>
        <time>2018-09-09T07:03:15Z</time>
      </trkpt>
      <trkpt lat="45.75576" lon="4.70015">
        <ele>295.4</ele>
        <time>2018-09-09T07:03:18Z</time>
      </trkpt>
      <trkpt lat="45.75584" lon="4.70008">
        <ele>295.2</ele>
        <time>2018-09-09T07:03:20Z</time>
      </trkpt>
      <trkpt lat="45.75582" lon="4.70001">
        <ele>295.1</ele>
        <time>2018-09-09T07:03:21Z</time>
      </trkpt>
      <trkpt lat="45.75582" lon="4.69996">
        <ele>295</ele>
        <time>2018-09-09T07:03:22Z</time>
      </trkpt>
      <trkpt lat="45.75585" lon="4.69964">
        <ele>294.5</ele>
        <time>2018-09-09T07:03:27Z</time>
      </trkpt>
      <trkpt lat="45.75585" lon="4.69953">
        <ele>294.1</ele>
        <time>2018-09-09T07:03:28Z</time>
      </trkpt>
      <trkpt lat="45.75588" lon="4.69932">
        <ele>293.2</ele>
        <time>2018-09-09T07:03:30Z</time>
      </trkpt>
      <trkpt lat="45.75589" lon="4.69923">
        <ele>292.5</ele>
        <time>2018-09-09T07:03:31Z</time>
      </trkpt>
      <trkpt lat="45.75591" lon="4.69915">
        <ele>292</ele>
        <time>2018-09-09T07:03:32Z</time>
      </trkpt>
      <trkpt lat="45.75594" lon="4.69905">
        <ele>292</ele>
        <time>2018-09-09T07:03:34Z</time>
      </trkpt>
      <trkpt lat="45.75595" lon="4.69903">
        <ele>292</ele>
        <time>2018-09-09T07:03:36Z</time>
      </trkpt>
      <trkpt lat="45.75596" lon="4.69898">
        <ele>292</ele>
        <time>2018-09-09T07:03:39Z</time>
      </trkpt>
      <trkpt lat="45.75598" lon="4.69893">
        <ele>292</ele>
        <time>2018-09-09T07:03:40Z</time>
      </trkpt>
      <trkpt lat="45.75598" lon="4.69888">
        <ele>292</ele>
        <time>2018-09-09T07:03:41Z</time>
      </trkpt>
      <trkpt lat="45.75591" lon="4.69877">
        <ele>292</ele>
        <time>2018-09-09T07:03:44Z</time>
      </trkpt>
      <trkpt lat="45.75582" lon="4.69876">
        <ele>292.5</ele>
        <time>2018-09-09T07:03:48Z</time>
      </trkpt>
      <trkpt lat="45.75576" lon="4.69873">
        <ele>292.9</ele>
        <time>2018-09-09T07:03:50Z</time>
      </trkpt>
      <trkpt lat="45.75566" lon="4.69869">
        <ele>293.5</ele>
        <time>2018-09-09T07:03:53Z</time>
      </trkpt>
      <trkpt lat="45.7556" lon="4.69867">
        <ele>293.9</ele>
        <time>2018-09-09T07:03:55Z</time>
      </trkpt>
      <trkpt lat="45.75542" lon="4.69859">
        <ele>295.1</ele>
        <time>2018-09-09T07:04:01Z</time>
      </trkpt>
      <trkpt lat="45.75534" lon="4.69855">
        <ele>295.6</ele>
        <time>2018-09-09T07:04:05Z</time>
      </trkpt>
      <trkpt lat="45.75534" lon="4.69854">
        <ele>295.7</ele>
        <time>2018-09-09T07:04:06Z</time>
      </trkpt>
      <trkpt lat="45.75531" lon="4.69854">
        <ele>295.8</ele>
        <time>2018-09-09T07:04:09Z</time>
      </trkpt>
      <trkpt lat="45.7553" lon="4.69859">
        <ele>296</ele>
        <time>2018-09-09T07:04:11Z</time>
      </trkpt>
      <trkpt lat="45.75537" lon="4.69867">
        <ele>295.4</ele>
        <time>2018-09-09T07:04:14Z</time>
      </trkpt>
      <trkpt lat="45.75542" lon="4.6987">
        <ele>295.1</ele>
        <time>2018-09-09T07:04:15Z</time>
      </trkpt>
      <trkpt lat="45.75562" lon="4.69879">
        <ele>293.6</ele>
        <time>2018-09-09T07:04:19Z</time>
      </trkpt>
      <trkpt lat="45.75583" lon="4.69888">
        <ele>292.1</ele>
        <time>2018-09-09T07:04:24Z</time>
      </trkpt>
      <trkpt lat="45.75589" lon="4.6989">
        <ele>292</ele>
        <time>2018-09-09T07:04:28Z</time>
      </trkpt>
      <trkpt lat="45.75593" lon="4.69891">
        <ele>292</ele>
        <time>2018-09-09T07:04:32Z</time>
      </trkpt>
      <trkpt lat="45.75596" lon="4.6989">
        <ele>292</ele>
        <time>2018-09-09T07:04:34Z</time>
      </trkpt>
      <trkpt lat="45.75597" lon="4.69886">
        <ele>292</ele>
        <time>2018-09-09T07:04:35Z</time>
      </trkpt>
      <trkpt lat="45.75602" lon="4.69875">
        <ele>292</ele>
        <time>2018-09-09T07:04:37Z</time>
      </trkpt>
      <trkpt lat="45.75604" lon="4.69868">
        <ele>292</ele>
        <time>2018-09-09T07:04:38Z</time>
      </trkpt>
      <trkpt lat="45.75608" lon="4.69861">
        <ele>292</ele>
        <time>2018-09-09T07:04:39Z</time>
      </trkpt>
      <trkpt lat="45.75621" lon="4.69841">
        <ele>292.5</ele>
        <time>2018-09-09T07:04:42Z</time>
      </trkpt>
      <trkpt lat="45.75631" lon="4.69819">
        <ele>293.8</ele>
        <time>2018-09-09T07:04:45Z</time>
      </trkpt>
      <trkpt lat="45.75636" lon="4.69805">
        <ele>294.4</ele>
        <time>2018-09-09T07:04:47Z</time>
      </trkpt>
      <trkpt lat="45.75648" lon="4.69768">
        <ele>295.9</ele>
        <time>2018-09-09T07:04:53Z</time>
      </trkpt>
      <trkpt lat="45.75657" lon="4.69732">
        <ele>297.8</ele>
        <time>2018-09-09T07:05:00Z</time>
      </trkpt>
      <trkpt lat="45.75657" lon="4.69728">
        <ele>298</ele>
        <time>2018-09-09T07:05:01Z</time>
      </trkpt>
      <trkpt lat="45.7566" lon="4.69713">
        <ele>298.9</ele>
        <time>2018-09-09T07:05:04Z</time>
      </trkpt>
      <trkpt lat="45.75662" lon="4.69698">
        <ele>299.8</ele>
        <time>2018-09-09T07:05:07Z</time>
      </trkpt>
      <trkpt lat="45.75662" lon="4.69693">
        <ele>300.1</ele>
        <time>2018-09-09T07:05:08Z</time>
      </trkpt>
      <trkpt lat="45.75663" lon="4.69677">
        <ele>300.9</ele>
        <time>2018-09-09T07:05:11Z</time>
      </trkpt>
      <trkpt lat="45.75665" lon="4.69661">
        <ele>301.7</ele>
        <time>2018-09-09T07:05:14Z</time>
      </trkpt>
      <trkpt lat="45.75665" lon="4.69655">
        <ele>302</ele>
        <time>2018-09-09T07:05:15Z</time>
      </trkpt>
      <trkpt lat="45.75666" lon="4.69645">
        <ele>302.4</ele>
        <time>2018-09-09T07:05:17Z</time>
      </trkpt>
      <trkpt lat="45.7567" lon="4.69626">
        <ele>303.3</ele>
        <time>2018-09-09T07:05:21Z</time>
      </trkpt>
      <trkpt lat="45.75672" lon="4.69616">
        <ele>303.7</ele>
        <time>2018-09-09T07:05:23Z</time>
      </trkpt>
      <trkpt lat="45.75674" lon="4.69607">
        <ele>304.1</ele>
        <time>2018-09-09T07:05:25Z</time>
      </trkpt>
      <trkpt lat="45.75678" lon="4.69583">
        <ele>305.2</ele>
        <time>2018-09-09T07:05:30Z</time>
      </trkpt>
      <trkpt lat="45.7568" lon="4.69573">
        <ele>305.6</ele>
        <time>2018-09-09T07:05:32Z</time>
      </trkpt>
      <trkpt lat="45.75683" lon="4.69558">
        <ele>306.3</ele>
        <time>2018-09-09T07:05:35Z</time>
      </trkpt>
      <trkpt lat="45.75687" lon="4.69538">
        <ele>307.2</ele>
        <time>2018-09-09T07:05:39Z</time>
      </trkpt>
      <trkpt lat="45.75692" lon="4.69514">
        <ele>308.3</ele>
        <time>2018-09-09T07:05:44Z</time>
      </trkpt>
      <trkpt lat="45.75694" lon="4.69504">
        <ele>308.8</ele>
        <time>2018-09-09T07:05:46Z</time>
      </trkpt>
      <trkpt lat="45.75699" lon="4.69486">
        <ele>309.6</ele>
        <time>2018-09-09T07:05:50Z</time>
      </trkpt>
      <trkpt lat="45.75705" lon="4.69469">
        <ele>310.5</ele>
        <time>2018-09-09T07:05:54Z</time>
      </trkpt>
      <trkpt lat="45.75708" lon="4.69459">
        <ele>311</ele>
        <time>2018-09-09T07:05:56Z</time>
      </trkpt>
      <trkpt lat="45.75714" lon="4.6944">
        <ele>312</ele>
        <time>2018-09-09T07:06:00Z</time>
      </trkpt>
      <trkpt lat="45.75716" lon="4.69435">
        <ele>312.2</ele>
        <time>2018-09-09T07:06:01Z</time>
      </trkpt>
      <trkpt lat="45.75725" lon="4.69409">
        <ele>313.7</ele>
        <time>2018-09-09T07:06:07Z</time>
      </trkpt>
      <trkpt lat="45.75726" lon="4.69406">
        <ele>313.9</ele>
        <time>2018-09-09T07:06:08Z</time>
      </trkpt>
      <trkpt lat="45.75731" lon="4.69392">
        <ele>314.5</ele>
        <time>2018-09-09T07:06:11Z</time>
      </trkpt>
      <trkpt lat="45.75734" lon="4.69383">
        <ele>315</ele>
        <time>2018-09-09T07:06:13Z</time>
      </trkpt>
      <trkpt lat="45.7574" lon="4.69365">
        <ele>315.7</ele>
        <time>2018-09-09T07:06:17Z</time>
      </trkpt>
      <trkpt lat="45.75746" lon="4.69347">
        <ele>316.4</ele>
        <time>2018-09-09T07:06:21Z</time>
      </trkpt>
      <trkpt lat="45.75753" lon="4.69324">
        <ele>317.3</ele>
        <time>2018-09-09T07:06:26Z</time>
      </trkpt>
      <trkpt lat="45.75757" lon="4.69311">
        <ele>317.8</ele>
        <time>2018-09-09T07:06:29Z</time>
      </trkpt>
      <trkpt lat="45.75761" lon="4.69298">
        <ele>318.4</ele>
        <time>2018-09-09T07:06:32Z</time>
      </trkpt>
      <trkpt lat="45.75765" lon="4.6928">
        <ele>319.2</ele>
        <time>2018-09-09T07:06:36Z</time>
      </trkpt>
      <trkpt lat="45.75767" lon="4.6927">
        <ele>319.6</ele>
        <time>2018-09-09T07:06:38Z</time>
      </trkpt>
      <trkpt lat="45.75767" lon="4.69241">
        <ele>320.7</ele>
        <time>2018-09-09T07:06:44Z</time>
      </trkpt>
      <trkpt lat="45.75763" lon="4.69201">
        <ele>322.5</ele>
        <time>2018-09-09T07:06:52Z</time>
      </trkpt>
      <trkpt lat="45.75762" lon="4.69179">
        <ele>323.4</ele>
        <time>2018-09-09T07:06:56Z</time>
      </trkpt>
      <trkpt lat="45.75763" lon="4.69154">
        <ele>324.4</ele>
        <time>2018-09-09T07:07:01Z</time>
      </trkpt>
      <trkpt lat="45.75765" lon="4.69139">
        <ele>324.9</ele>
        <time>2018-09-09T07:07:04Z</time>
      </trkpt>
      <trkpt lat="45.75769" lon="4.69125">
        <ele>325.4</ele>
        <time>2018-09-09T07:07:07Z</time>
      </trkpt>
      <trkpt lat="45.75773" lon="4.69117">
        <ele>325.7</ele>
        <time>2018-09-09T07:07:09Z</time>
      </trkpt>
      <trkpt lat="45.75782" lon="4.69099">
        <ele>326.5</ele>
        <time>2018-09-09T07:07:13Z</time>
      </trkpt>
      <trkpt lat="45.75791" lon="4.69081">
        <ele>327.4</ele>
        <time>2018-09-09T07:07:17Z</time>
      </trkpt>
      <trkpt lat="45.75795" lon="4.69071">
        <ele>327.8</ele>
        <time>2018-09-09T07:07:19Z</time>
      </trkpt>
      <trkpt lat="45.75805" lon="4.69047">
        <ele>328.9</ele>
        <time>2018-09-09T07:07:24Z</time>
      </trkpt>
      <trkpt lat="45.75808" lon="4.69037">
        <ele>329.3</ele>
        <time>2018-09-09T07:07:26Z</time>
      </trkpt>
      <trkpt lat="45.7582" lon="4.69009">
        <ele>330.5</ele>
        <time>2018-09-09T07:07:32Z</time>
      </trkpt>
      <trkpt lat="45.75823" lon="4.69004">
        <ele>330.6</ele>
        <time>2018-09-09T07:07:33Z</time>
      </trkpt>
      <trkpt lat="45.75846" lon="4.6895">
        <ele>332.3</ele>
        <time>2018-09-09T07:07:44Z</time>
      </trkpt>
      <trkpt lat="45.7585" lon="4.6894">
        <ele>332.7</ele>
        <time>2018-09-09T07:07:46Z</time>
      </trkpt>
      <trkpt lat="45.75861" lon="4.68916">
        <ele>333.5</ele>
        <time>2018-09-09T07:07:51Z</time>
      </trkpt>
      <trkpt lat="45.75869" lon="4.68895">
        <ele>334.3</ele>
        <time>2018-09-09T07:07:55Z</time>
      </trkpt>
      <trkpt lat="45.75871" lon="4.68889">
        <ele>334.4</ele>
        <time>2018-09-09T07:07:56Z</time>
      </trkpt>
      <trkpt lat="45.75884" lon="4.68862">
        <ele>335</ele>
        <time>2018-09-09T07:08:02Z</time>
      </trkpt>
      <trkpt lat="45.75886" lon="4.68858">
        <ele>335.1</ele>
        <time>2018-09-09T07:08:03Z</time>
      </trkpt>
      <trkpt lat="45.75899" lon="4.6884">
        <ele>335.3</ele>
        <time>2018-09-09T07:08:07Z</time>
      </trkpt>
      <trkpt lat="45.75902" lon="4.68835">
        <ele>335.4</ele>
        <time>2018-09-09T07:08:08Z</time>
      </trkpt>
      <trkpt lat="45.75905" lon="4.68831">
        <ele>335.4</ele>
        <time>2018-09-09T07:08:09Z</time>
      </trkpt>
      <trkpt lat="45.75926" lon="4.68811">
        <ele>336.1</ele>
        <time>2018-09-09T07:08:15Z</time>
      </trkpt>
      <trkpt lat="45.7593" lon="4.68807">
        <ele>336.2</ele>
        <time>2018-09-09T07:08:16Z</time>
      </trkpt>
      <trkpt lat="45.75947" lon="4.68791">
        <ele>336.9</ele>
        <time>2018-09-09T07:08:22Z</time>
      </trkpt>
      <trkpt lat="45.7595" lon="4.68789">
        <ele>337.1</ele>
        <time>2018-09-09T07:08:23Z</time>
      </trkpt>
      <trkpt lat="45.7596" lon="4.68776">
        <ele>337.8</ele>
        <time>2018-09-09T07:09:37Z</time>
      </trkpt>
      <trkpt lat="45.75963" lon="4.6877">
        <ele>338.1</ele>
        <time>2018-09-09T07:09:39Z</time>
      </trkpt>
      <trkpt lat="45.75972" lon="4.68758">
        <ele>338.8</ele>
        <time>2018-09-09T07:09:43Z</time>
      </trkpt>
      <trkpt lat="45.75975" lon="4.68754">
        <ele>339</ele>
        <time>2018-09-09T07:09:44Z</time>
      </trkpt>
      <trkpt lat="45.75981" lon="4.68744">
        <ele>339.6</ele>
        <time>2018-09-09T07:09:47Z</time>
      </trkpt>
      <trkpt lat="45.75985" lon="4.68736">
        <ele>340.1</ele>
        <time>2018-09-09T07:09:50Z</time>
      </trkpt>
      <trkpt lat="45.75987" lon="4.68731">
        <ele>340.4</ele>
        <time>2018-09-09T07:10:49Z</time>
      </trkpt>
      <trkpt lat="45.75982" lon="4.68738">
        <ele>341</ele>
        <time>2018-09-09T07:10:52Z</time>
      </trkpt>
      <trkpt lat="45.75967" lon="4.68766">
        <ele>338.7</ele>
        <time>2018-09-09T07:10:57Z</time>
      </trkpt>
      <trkpt lat="45.7596" lon="4.68778">
        <ele>338</ele>
        <time>2018-09-09T07:10:59Z</time>
      </trkpt>
      <trkpt lat="45.75959" lon="4.68785">
        <ele>337.7</ele>
        <time>2018-09-09T07:11:00Z</time>
      </trkpt>
      <trkpt lat="45.75964" lon="4.68796">
        <ele>336.6</ele>
        <time>2018-09-09T07:11:02Z</time>
      </trkpt>
      <trkpt lat="45.75975" lon="4.688">
        <ele>336.5</ele>
        <time>2018-09-09T07:11:04Z</time>
      </trkpt>
      <trkpt lat="45.75982" lon="4.68802">
        <ele>336.5</ele>
        <time>2018-09-09T07:11:05Z</time>
      </trkpt>
      <trkpt lat="45.76008" lon="4.68813">
        <ele>335.4</ele>
        <time>2018-09-09T07:11:09Z</time>
      </trkpt>
      <trkpt lat="45.76013" lon="4.68816">
        <ele>335.1</ele>
        <time>2018-09-09T07:11:10Z</time>
      </trkpt>
      <trkpt lat="45.76017" lon="4.6882">
        <ele>334.8</ele>
        <time>2018-09-09T07:11:11Z</time>
      </trkpt>
      <trkpt lat="45.76021" lon="4.68827">
        <ele>334.3</ele>
        <time>2018-09-09T07:11:13Z</time>
      </trkpt>
      <trkpt lat="45.76023" lon="4.6883">
        <ele>333.9</ele>
        <time>2018-09-09T07:11:16Z</time>
      </trkpt>
      <trkpt lat="45.76024" lon="4.68833">
        <ele>333.6</ele>
        <time>2018-09-09T07:11:35Z</time>
      </trkpt>
      <trkpt lat="45.76026" lon="4.68839">
        <ele>333.1</ele>
        <time>2018-09-09T07:11:37Z</time>
      </trkpt>
      <trkpt lat="45.76027" lon="4.68844">
        <ele>332.7</ele>
        <time>2018-09-09T07:11:38Z</time>
      </trkpt>
      <trkpt lat="45.76028" lon="4.68849">
        <ele>332.2</ele>
        <time>2018-09-09T07:11:39Z</time>
      </trkpt>
      <trkpt lat="45.76029" lon="4.68863">
        <ele>331.1</ele>
        <time>2018-09-09T07:11:41Z</time>
      </trkpt>
      <trkpt lat="45.7602" lon="4.68887">
        <ele>329.9</ele>
        <time>2018-09-09T07:11:44Z</time>
      </trkpt>
      <trkpt lat="45.76011" lon="4.68905">
        <ele>328.6</ele>
        <time>2018-09-09T07:11:46Z</time>
      </trkpt>
      <trkpt lat="45.76001" lon="4.68926">
        <ele>327</ele>
        <time>2018-09-09T07:11:48Z</time>
      </trkpt>
      <trkpt lat="45.75996" lon="4.68937">
        <ele>326</ele>
        <time>2018-09-09T07:11:49Z</time>
      </trkpt>
      <trkpt lat="45.75991" lon="4.68948">
        <ele>325.1</ele>
        <time>2018-09-09T07:11:50Z</time>
      </trkpt>
      <trkpt lat="45.75979" lon="4.68972">
        <ele>323.4</ele>
        <time>2018-09-09T07:11:52Z</time>
      </trkpt>
      <trkpt lat="45.75969" lon="4.68999">
        <ele>320.9</ele>
        <time>2018-09-09T07:11:54Z</time>
      </trkpt>
      <trkpt lat="45.75962" lon="4.69028">
        <ele>318.5</ele>
        <time>2018-09-09T07:11:56Z</time>
      </trkpt>
      <trkpt lat="45.7596" lon="4.69044">
        <ele>316.7</ele>
        <time>2018-09-09T07:11:57Z</time>
      </trkpt>
      <trkpt lat="45.75959" lon="4.6906">
        <ele>315.1</ele>
        <time>2018-09-09T07:11:58Z</time>
      </trkpt>
      <trkpt lat="45.7596" lon="4.69092">
        <ele>312.7</ele>
        <time>2018-09-09T07:12:00Z</time>
      </trkpt>
      <trkpt lat="45.75966" lon="4.69124">
        <ele>309.7</ele>
        <time>2018-09-09T07:12:02Z</time>
      </trkpt>
      <trkpt lat="45.75969" lon="4.6914">
        <ele>308.5</ele>
        <time>2018-09-09T07:12:03Z</time>
      </trkpt>
      <trkpt lat="45.75973" lon="4.69155">
        <ele>307.8</ele>
        <time>2018-09-09T07:12:04Z</time>
      </trkpt>
      <trkpt lat="45.75982" lon="4.69184">
        <ele>306.2</ele>
        <time>2018-09-09T07:12:06Z</time>
      </trkpt>
      <trkpt lat="45.75986" lon="4.69197">
        <ele>305.5</ele>
        <time>2018-09-09T07:12:07Z</time>
      </trkpt>
      <trkpt lat="45.75989" lon="4.69209">
        <ele>304.9</ele>
        <time>2018-09-09T07:12:08Z</time>
      </trkpt>
      <trkpt lat="45.75993" lon="4.69218">
        <ele>304.3</ele>
        <time>2018-09-09T07:12:09Z</time>
      </trkpt>
      <trkpt lat="45.75996" lon="4.69225">
        <ele>303.9</ele>
        <time>2018-09-09T07:12:10Z</time>
      </trkpt>
      <trkpt lat="45.75999" lon="4.69231">
        <ele>303.6</ele>
        <time>2018-09-09T07:12:11Z</time>
      </trkpt>
      <trkpt lat="45.76004" lon="4.69235">
        <ele>303.2</ele>
        <time>2018-09-09T07:12:13Z</time>
      </trkpt>
      <trkpt lat="45.76007" lon="4.69237">
        <ele>303</ele>
        <time>2018-09-09T07:12:14Z</time>
      </trkpt>
      <trkpt lat="45.7601" lon="4.69238">
        <ele>302.8</ele>
        <time>2018-09-09T07:12:15Z</time>
      </trkpt>
      <trkpt lat="45.76018" lon="4.69236">
        <ele>302.1</ele>
        <time>2018-09-09T07:12:17Z</time>
      </trkpt>
      <trkpt lat="45.76024" lon="4.69234">
        <ele>302</ele>
        <time>2018-09-09T07:12:18Z</time>
      </trkpt>
      <trkpt lat="45.76029" lon="4.69233">
        <ele>301.9</ele>
        <time>2018-09-09T07:12:19Z</time>
      </trkpt>
      <trkpt lat="45.76042" lon="4.69228">
        <ele>301.5</ele>
        <time>2018-09-09T07:12:21Z</time>
      </trkpt>
      <trkpt lat="45.76056" lon="4.69224">
        <ele>301.3</ele>
        <time>2018-09-09T07:12:23Z</time>
      </trkpt>
      <trkpt lat="45.76077" lon="4.69216">
        <ele>301.5</ele>
        <time>2018-09-09T07:12:26Z</time>
      </trkpt>
      <trkpt lat="45.7609" lon="4.69211">
        <ele>301.9</ele>
        <time>2018-09-09T07:12:28Z</time>
      </trkpt>
      <trkpt lat="45.76096" lon="4.69207">
        <ele>302.2</ele>
        <time>2018-09-09T07:12:29Z</time>
      </trkpt>
      <trkpt lat="45.7611" lon="4.69191">
        <ele>302.4</ele>
        <time>2018-09-09T07:12:32Z</time>
      </trkpt>
      <trkpt lat="45.76114" lon="4.69184">
        <ele>302.6</ele>
        <time>2018-09-09T07:12:33Z</time>
      </trkpt>
      <trkpt lat="45.76118" lon="4.69177">
        <ele>302.8</ele>
        <time>2018-09-09T07:12:34Z</time>
      </trkpt>
      <trkpt lat="45.76136" lon="4.6914">
        <ele>303.5</ele>
        <time>2018-09-09T07:12:39Z</time>
      </trkpt>
      <trkpt lat="45.76139" lon="4.69132">
        <ele>303.8</ele>
        <time>2018-09-09T07:12:40Z</time>
      </trkpt>
      <trkpt lat="45.7615" lon="4.69104">
        <ele>305.1</ele>
        <time>2018-09-09T07:12:44Z</time>
      </trkpt>
      <trkpt lat="45.76163" lon="4.69079">
        <ele>306.3</ele>
        <time>2018-09-09T07:12:48Z</time>
      </trkpt>
      <trkpt lat="45.76175" lon="4.69062">
        <ele>307.2</ele>
        <time>2018-09-09T07:12:51Z</time>
      </trkpt>
      <trkpt lat="45.76179" lon="4.69057">
        <ele>307.6</ele>
        <time>2018-09-09T07:12:52Z</time>
      </trkpt>
      <trkpt lat="45.76196" lon="4.69037">
        <ele>308.8</ele>
        <time>2018-09-09T07:12:56Z</time>
      </trkpt>
      <trkpt lat="45.76205" lon="4.69028">
        <ele>309.2</ele>
        <time>2018-09-09T07:12:58Z</time>
      </trkpt>
      <trkpt lat="45.76215" lon="4.6902">
        <ele>309.7</ele>
        <time>2018-09-09T07:13:00Z</time>
      </trkpt>
      <trkpt lat="45.76234" lon="4.69006">
        <ele>310.5</ele>
        <time>2018-09-09T07:13:04Z</time>
      </trkpt>
      <trkpt lat="45.76239" lon="4.69003">
        <ele>310.7</ele>
        <time>2018-09-09T07:13:05Z</time>
      </trkpt>
      <trkpt lat="45.76256" lon="4.68987">
        <ele>311.9</ele>
        <time>2018-09-09T07:13:09Z</time>
      </trkpt>
      <trkpt lat="45.76259" lon="4.68982">
        <ele>312.1</ele>
        <time>2018-09-09T07:13:10Z</time>
      </trkpt>
      <trkpt lat="45.76266" lon="4.68956">
        <ele>312.8</ele>
        <time>2018-09-09T07:13:14Z</time>
      </trkpt>
      <trkpt lat="45.76267" lon="4.68949">
        <ele>312.9</ele>
        <time>2018-09-09T07:13:15Z</time>
      </trkpt>
      <trkpt lat="45.76269" lon="4.68935">
        <ele>313.1</ele>
        <time>2018-09-09T07:13:17Z</time>
      </trkpt>
      <trkpt lat="45.76272" lon="4.68915">
        <ele>313.4</ele>
        <time>2018-09-09T07:13:20Z</time>
      </trkpt>
      <trkpt lat="45.76273" lon="4.68902">
        <ele>313.7</ele>
        <time>2018-09-09T07:13:22Z</time>
      </trkpt>
      <trkpt lat="45.76274" lon="4.68897">
        <ele>313.8</ele>
        <time>2018-09-09T07:13:23Z</time>
      </trkpt>
      <trkpt lat="45.76277" lon="4.68887">
        <ele>313.9</ele>
        <time>2018-09-09T07:13:25Z</time>
      </trkpt>
      <trkpt lat="45.7628" lon="4.68884">
        <ele>314</ele>
        <time>2018-09-09T07:13:26Z</time>
      </trkpt>
      <trkpt lat="45.76284" lon="4.68881">
        <ele>314</ele>
        <time>2018-09-09T07:13:27Z</time>
      </trkpt>
      <trkpt lat="45.76293" lon="4.68875">
        <ele>314</ele>
        <time>2018-09-09T07:13:29Z</time>
      </trkpt>
      <trkpt lat="45.76297" lon="4.68874">
        <ele>314</ele>
        <time>2018-09-09T07:13:30Z</time>
      </trkpt>
      <trkpt lat="45.76305" lon="4.68873">
        <ele>314</ele>
        <time>2018-09-09T07:13:32Z</time>
      </trkpt>
      <trkpt lat="45.76309" lon="4.68874">
        <ele>314</ele>
        <time>2018-09-09T07:13:34Z</time>
      </trkpt>
      <trkpt lat="45.7631" lon="4.68875">
        <ele>314</ele>
        <time>2018-09-09T07:13:35Z</time>
      </trkpt>
      <trkpt lat="45.76318" lon="4.68882">
        <ele>314</ele>
        <time>2018-09-09T07:14:37Z</time>
      </trkpt>
      <trkpt lat="45.7632" lon="4.68883">
        <ele>314</ele>
        <time>2018-09-09T07:14:38Z</time>
      </trkpt>
      <trkpt lat="45.76329" lon="4.68889">
        <ele>314.3</ele>
        <time>2018-09-09T07:14:43Z</time>
      </trkpt>
      <trkpt lat="45.76333" lon="4.68893">
        <ele>314.4</ele>
        <time>2018-09-09T07:14:45Z</time>
      </trkpt>
      <trkpt lat="45.76342" lon="4.68898">
        <ele>314.7</ele>
        <time>2018-09-09T07:14:49Z</time>
      </trkpt>
      <trkpt lat="45.76344" lon="4.68899">
        <ele>314.8</ele>
        <time>2018-09-09T07:14:50Z</time>
      </trkpt>
      <trkpt lat="45.76348" lon="4.68902">
        <ele>315</ele>
        <time>2018-09-09T07:14:52Z</time>
      </trkpt>
      <trkpt lat="45.76351" lon="4.68903">
        <ele>315</ele>
        <time>2018-09-09T07:14:54Z</time>
      </trkpt>
      <trkpt lat="45.76354" lon="4.68906">
        <ele>315.1</ele>
        <time>2018-09-09T07:14:56Z</time>
      </trkpt>
      <trkpt lat="45.76357" lon="4.68908">
        <ele>315.3</ele>
        <time>2018-09-09T07:14:58Z</time>
      </trkpt>
      <trkpt lat="45.76361" lon="4.68909">
        <ele>315.4</ele>
        <time>2018-09-09T07:15:00Z</time>
      </trkpt>
      <trkpt lat="45.76364" lon="4.68911">
        <ele>315.6</ele>
        <time>2018-09-09T07:15:02Z</time>
      </trkpt>
      <trkpt lat="45.76366" lon="4.68912">
        <ele>315.6</ele>
        <time>2018-09-09T07:15:03Z</time>
      </trkpt>
      <trkpt lat="45.76368" lon="4.68913">
        <ele>315.7</ele>
        <time>2018-09-09T07:15:04Z</time>
      </trkpt>
      <trkpt lat="45.76371" lon="4.68912">
        <ele>315.7</ele>
        <time>2018-09-09T07:15:06Z</time>
      </trkpt>
      <trkpt lat="45.76374" lon="4.68912">
        <ele>315.8</ele>
        <time>2018-09-09T07:15:08Z</time>
      </trkpt>
      <trkpt lat="45.76378" lon="4.68913">
        <ele>316</ele>
        <time>2018-09-09T07:15:10Z</time>
      </trkpt>
      <trkpt lat="45.76385" lon="4.68914">
        <ele>316.2</ele>
        <time>2018-09-09T07:15:13Z</time>
      </trkpt>
      <trkpt lat="45.76387" lon="4.68915">
        <ele>316.2</ele>
        <time>2018-09-09T07:15:14Z</time>
      </trkpt>
      <trkpt lat="45.7639" lon="4.68916">
        <ele>316.4</ele>
        <time>2018-09-09T07:15:16Z</time>
      </trkpt>
      <trkpt lat="45.76395" lon="4.68917">
        <ele>316.6</ele>
        <time>2018-09-09T07:15:19Z</time>
      </trkpt>
      <trkpt lat="45.76396" lon="4.68917">
        <ele>316.6</ele>
        <time>2018-09-09T07:15:20Z</time>
      </trkpt>
      <trkpt lat="45.76399" lon="4.68917">
        <ele>316.7</ele>
        <time>2018-09-09T07:15:22Z</time>
      </trkpt>
      <trkpt lat="45.76404" lon="4.68917">
        <ele>316.8</ele>
        <time>2018-09-09T07:15:25Z</time>
      </trkpt>
      <trkpt lat="45.7641" lon="4.68917">
        <ele>317</ele>
        <time>2018-09-09T07:15:28Z</time>
      </trkpt>
      <trkpt lat="45.76424" lon="4.68919">
        <ele>317.4</ele>
        <time>2018-09-09T07:15:35Z</time>
      </trkpt>
      <trkpt lat="45.76435" lon="4.68917">
        <ele>317.9</ele>
        <time>2018-09-09T07:15:41Z</time>
      </trkpt>
      <trkpt lat="45.76443" lon="4.68913">
        <ele>318.5</ele>
        <time>2018-09-09T07:15:47Z</time>
      </trkpt>
      <trkpt lat="45.76444" lon="4.68914">
        <ele>318.6</ele>
        <time>2018-09-09T07:15:49Z</time>
      </trkpt>
      <trkpt lat="45.76448" lon="4.68915">
        <ele>318.9</ele>
        <time>2018-09-09T07:15:53Z</time>
      </trkpt>
      <trkpt lat="45.76456" lon="4.68915">
        <ele>319.6</ele>
        <time>2018-09-09T07:16:02Z</time>
      </trkpt>
      <trkpt lat="45.7646" lon="4.68916">
        <ele>320</ele>
        <time>2018-09-09T07:16:06Z</time>
      </trkpt>
      <trkpt lat="45.76463" lon="4.68917">
        <ele>320.3</ele>
        <time>2018-09-09T07:16:09Z</time>
      </trkpt>
      <trkpt lat="45.76464" lon="4.68918">
        <ele>320.4</ele>
        <time>2018-09-09T07:16:10Z</time>
      </trkpt>
      <trkpt lat="45.76468" lon="4.68918">
        <ele>320.8</ele>
        <time>2018-09-09T07:16:12Z</time>
      </trkpt>
      <trkpt lat="45.76475" lon="4.68919">
        <ele>321.5</ele>
        <time>2018-09-09T07:16:15Z</time>
      </trkpt>
      <trkpt lat="45.76479" lon="4.6892">
        <ele>322.1</ele>
        <time>2018-09-09T07:16:17Z</time>
      </trkpt>
      <trkpt lat="45.7649" lon="4.68922">
        <ele>323</ele>
        <time>2018-09-09T07:16:22Z</time>
      </trkpt>
      <trkpt lat="45.76492" lon="4.68922">
        <ele>323.1</ele>
        <time>2018-09-09T07:16:23Z</time>
      </trkpt>
      <trkpt lat="45.76501" lon="4.68923">
        <ele>324.4</ele>
        <time>2018-09-09T07:16:27Z</time>
      </trkpt>
      <trkpt lat="45.76506" lon="4.68924">
        <ele>325.2</ele>
        <time>2018-09-09T07:16:30Z</time>
      </trkpt>
      <trkpt lat="45.76515" lon="4.68922">
        <ele>326.2</ele>
        <time>2018-09-09T07:16:34Z</time>
      </trkpt>
      <trkpt lat="45.76522" lon="4.6892">
        <ele>326.9</ele>
        <time>2018-09-09T07:16:37Z</time>
      </trkpt>
      <trkpt lat="45.76536" lon="4.68917">
        <ele>328.4</ele>
        <time>2018-09-09T07:16:44Z</time>
      </trkpt>
      <trkpt lat="45.76543" lon="4.68916">
        <ele>328.9</ele>
        <time>2018-09-09T07:16:47Z</time>
      </trkpt>
      <trkpt lat="45.76549" lon="4.68915">
        <ele>329.1</ele>
        <time>2018-09-09T07:16:50Z</time>
      </trkpt>
      <trkpt lat="45.76553" lon="4.68915">
        <ele>329.1</ele>
        <time>2018-09-09T07:16:52Z</time>
      </trkpt>
      <trkpt lat="45.76563" lon="4.68914">
        <ele>329.8</ele>
        <time>2018-09-09T07:16:56Z</time>
      </trkpt>
      <trkpt lat="45.76573" lon="4.68914">
        <ele>330.5</ele>
        <time>2018-09-09T07:17:00Z</time>
      </trkpt>
      <trkpt lat="45.76575" lon="4.68914">
        <ele>330.7</ele>
        <time>2018-09-09T07:17:01Z</time>
      </trkpt>
      <trkpt lat="45.76585" lon="4.68913">
        <ele>331.5</ele>
        <time>2018-09-09T07:17:05Z</time>
      </trkpt>
      <trkpt lat="45.7659" lon="4.68911">
        <ele>332</ele>
        <time>2018-09-09T07:17:07Z</time>
      </trkpt>
      <trkpt lat="45.76595" lon="4.6891">
        <ele>332.5</ele>
        <time>2018-09-09T07:17:09Z</time>
      </trkpt>
      <trkpt lat="45.76614" lon="4.68906">
        <ele>334.4</ele>
        <time>2018-09-09T07:17:16Z</time>
      </trkpt>
      <trkpt lat="45.7662" lon="4.68905">
        <ele>334.9</ele>
        <time>2018-09-09T07:17:18Z</time>
      </trkpt>
      <trkpt lat="45.76631" lon="4.68904">
        <ele>335.9</ele>
        <time>2018-09-09T07:17:22Z</time>
      </trkpt>
      <trkpt lat="45.76644" lon="4.68901">
        <ele>337.3</ele>
        <time>2018-09-09T07:17:27Z</time>
      </trkpt>
      <trkpt lat="45.76653" lon="4.68901">
        <ele>337.8</ele>
        <time>2018-09-09T07:17:30Z</time>
      </trkpt>
      <trkpt lat="45.76656" lon="4.689">
        <ele>338.1</ele>
        <time>2018-09-09T07:17:31Z</time>
      </trkpt>
      <trkpt lat="45.76673" lon="4.68897">
        <ele>339.5</ele>
        <time>2018-09-09T07:17:37Z</time>
      </trkpt>
      <trkpt lat="45.76675" lon="4.68896">
        <ele>339.7</ele>
        <time>2018-09-09T07:17:38Z</time>
      </trkpt>
      <trkpt lat="45.76682" lon="4.68895">
        <ele>340.2</ele>
        <time>2018-09-09T07:17:41Z</time>
      </trkpt>
      <trkpt lat="45.76687" lon="4.68895">
        <ele>340.5</ele>
        <time>2018-09-09T07:17:43Z</time>
      </trkpt>
      <trkpt lat="45.76689" lon="4.68896">
        <ele>340.6</ele>
        <time>2018-09-09T07:17:44Z</time>
      </trkpt>
      <trkpt lat="45.76697" lon="4.68899">
        <ele>341</ele>
        <time>2018-09-09T07:17:48Z</time>
      </trkpt>
      <trkpt lat="45.76698" lon="4.68898">
        <ele>341</ele>
        <time>2018-09-09T07:17:49Z</time>
      </trkpt>
      <trkpt lat="45.76699" lon="4.68898">
        <ele>341</ele>
        <time>2018-09-09T07:17:50Z</time>
      </trkpt>
      <trkpt lat="45.767" lon="4.68897">
        <ele>341</ele>
        <time>2018-09-09T07:17:51Z</time>
      </trkpt>
      <trkpt lat="45.767" lon="4.68893">
        <ele>341</ele>
        <time>2018-09-09T07:17:55Z</time>
      </trkpt>
      <trkpt lat="45.76698" lon="4.68891">
        <ele>341</ele>
        <time>2018-09-09T07:17:57Z</time>
      </trkpt>
      <trkpt lat="45.76696" lon="4.68893">
        <ele>341</ele>
        <time>2018-09-09T07:18:00Z</time>
      </trkpt>
      <trkpt lat="45.76699" lon="4.68896">
        <ele>341</ele>
        <time>2018-09-09T07:18:04Z</time>
      </trkpt>
      <trkpt lat="45.76706" lon="4.68891">
        <ele>341</ele>
        <time>2018-09-09T07:18:10Z</time>
      </trkpt>
      <trkpt lat="45.76707" lon="4.68889">
        <ele>341</ele>
        <time>2018-09-09T07:18:11Z</time>
      </trkpt>
      <trkpt lat="45.76713" lon="4.68885">
        <ele>341</ele>
        <time>2018-09-09T07:18:15Z</time>
      </trkpt>
      <trkpt lat="45.76717" lon="4.68882">
        <ele>341</ele>
        <time>2018-09-09T07:18:17Z</time>
      </trkpt>
      <trkpt lat="45.76727" lon="4.68878">
        <ele>341</ele>
        <time>2018-09-09T07:18:22Z</time>
      </trkpt>
      <trkpt lat="45.76733" lon="4.68875">
        <ele>341</ele>
        <time>2018-09-09T07:18:25Z</time>
      </trkpt>
      <trkpt lat="45.76738" lon="4.68872">
        <ele>341.4</ele>
        <time>2018-09-09T07:18:27Z</time>
      </trkpt>
      <trkpt lat="45.76745" lon="4.68862">
        <ele>342.9</ele>
        <time>2018-09-09T07:18:31Z</time>
      </trkpt>
      <trkpt lat="45.76748" lon="4.68853">
        <ele>344.3</ele>
        <time>2018-09-09T07:18:34Z</time>
      </trkpt>
      <trkpt lat="45.76754" lon="4.68835">
        <ele>346.2</ele>
        <time>2018-09-09T07:18:39Z</time>
      </trkpt>
      <trkpt lat="45.76759" lon="4.68812">
        <ele>348.3</ele>
        <time>2018-09-09T07:18:45Z</time>
      </trkpt>
      <trkpt lat="45.76761" lon="4.688">
        <ele>349.3</ele>
        <time>2018-09-09T07:18:48Z</time>
      </trkpt>
      <trkpt lat="45.76766" lon="4.68778">
        <ele>350</ele>
        <time>2018-09-09T07:18:55Z</time>
      </trkpt>
      <trkpt lat="45.76766" lon="4.68771">
        <ele>350</ele>
        <time>2018-09-09T07:19:20Z</time>
      </trkpt>
      <trkpt lat="45.76766" lon="4.68767">
        <ele>350.2</ele>
        <time>2018-09-09T07:19:22Z</time>
      </trkpt>
      <trkpt lat="45.76772" lon="4.68763">
        <ele>350.4</ele>
        <time>2018-09-09T07:19:26Z</time>
      </trkpt>
      <trkpt lat="45.76775" lon="4.68763">
        <ele>350.6</ele>
        <time>2018-09-09T07:19:28Z</time>
      </trkpt>
      <trkpt lat="45.76786" lon="4.68764">
        <ele>351.3</ele>
        <time>2018-09-09T07:19:32Z</time>
      </trkpt>
      <trkpt lat="45.76794" lon="4.68765">
        <ele>351.7</ele>
        <time>2018-09-09T07:19:35Z</time>
      </trkpt>
      <trkpt lat="45.76803" lon="4.68761">
        <ele>352.2</ele>
        <time>2018-09-09T07:19:39Z</time>
      </trkpt>
      <trkpt lat="45.76805" lon="4.68759">
        <ele>352.2</ele>
        <time>2018-09-09T07:19:40Z</time>
      </trkpt>
      <trkpt lat="45.76812" lon="4.68742">
        <ele>352.2</ele>
        <time>2018-09-09T07:19:45Z</time>
      </trkpt>
      <trkpt lat="45.76825" lon="4.68718">
        <ele>351.9</ele>
        <time>2018-09-09T07:19:52Z</time>
      </trkpt>
      <trkpt lat="45.76827" lon="4.68714">
        <ele>351.9</ele>
        <time>2018-09-09T07:19:53Z</time>
      </trkpt>
      <trkpt lat="45.7684" lon="4.68688">
        <ele>351.1</ele>
        <time>2018-09-09T07:19:59Z</time>
      </trkpt>
      <trkpt lat="45.76857" lon="4.68649">
        <ele>349.4</ele>
        <time>2018-09-09T07:20:07Z</time>
      </trkpt>
      <trkpt lat="45.76864" lon="4.68625">
        <ele>348.1</ele>
        <time>2018-09-09T07:20:11Z</time>
      </trkpt>
      <trkpt lat="45.76867" lon="4.68612">
        <ele>347.6</ele>
        <time>2018-09-09T07:20:13Z</time>
      </trkpt>
      <trkpt lat="45.76875" lon="4.68582">
        <ele>346.3</ele>
        <time>2018-09-09T07:20:17Z</time>
      </trkpt>
      <trkpt lat="45.76878" lon="4.68573">
        <ele>346.1</ele>
        <time>2018-09-09T07:20:18Z</time>
      </trkpt>
      <trkpt lat="45.76882" lon="4.68553">
        <ele>345.9</ele>
        <time>2018-09-09T07:20:20Z</time>
      </trkpt>
      <trkpt lat="45.76889" lon="4.68522">
        <ele>346.4</ele>
        <time>2018-09-09T07:20:23Z</time>
      </trkpt>
      <trkpt lat="45.76902" lon="4.68467">
        <ele>348.4</ele>
        <time>2018-09-09T07:20:29Z</time>
      </trkpt>
      <trkpt lat="45.76904" lon="4.6846">
        <ele>348.9</ele>
        <time>2018-09-09T07:20:30Z</time>
      </trkpt>
      <trkpt lat="45.7691" lon="4.68448">
        <ele>350</ele>
        <time>2018-09-09T07:20:32Z</time>
      </trkpt>
      <trkpt lat="45.76913" lon="4.68443">
        <ele>350.6</ele>
        <time>2018-09-09T07:20:33Z</time>
      </trkpt>
      <trkpt lat="45.76921" lon="4.6843">
        <ele>351.8</ele>
        <time>2018-09-09T07:20:37Z</time>
      </trkpt>
      <trkpt lat="45.76925" lon="4.68416">
        <ele>352.4</ele>
        <time>2018-09-09T07:20:41Z</time>
      </trkpt>
      <trkpt lat="45.76928" lon="4.68405">
        <ele>352.5</ele>
        <time>2018-09-09T07:20:44Z</time>
      </trkpt>
      <trkpt lat="45.76929" lon="4.68401">
        <ele>352.6</ele>
        <time>2018-09-09T07:20:45Z</time>
      </trkpt>
      <trkpt lat="45.76931" lon="4.68387">
        <ele>353.2</ele>
        <time>2018-09-09T07:20:49Z</time>
      </trkpt>
      <trkpt lat="45.76933" lon="4.68375">
        <ele>353.5</ele>
        <time>2018-09-09T07:20:52Z</time>
      </trkpt>
      <trkpt lat="45.76935" lon="4.68351">
        <ele>354.1</ele>
        <time>2018-09-09T07:20:58Z</time>
      </trkpt>
      <trkpt lat="45.76936" lon="4.68343">
        <ele>354.3</ele>
        <time>2018-09-09T07:21:00Z</time>
      </trkpt>
      <trkpt lat="45.76939" lon="4.68313">
        <ele>355</ele>
        <time>2018-09-09T07:21:07Z</time>
      </trkpt>
      <trkpt lat="45.76943" lon="4.68298">
        <ele>355</ele>
        <time>2018-09-09T07:21:11Z</time>
      </trkpt>
      <trkpt lat="45.76945" lon="4.68288">
        <ele>355</ele>
        <time>2018-09-09T07:21:14Z</time>
      </trkpt>
      <trkpt lat="45.76944" lon="4.68284">
        <ele>354.2</ele>
        <time>2018-09-09T07:21:16Z</time>
      </trkpt>
      <trkpt lat="45.76941" lon="4.68279">
        <ele>353.7</ele>
        <time>2018-09-09T07:21:19Z</time>
      </trkpt>
      <trkpt lat="45.76929" lon="4.68275">
        <ele>352.3</ele>
        <time>2018-09-09T07:21:23Z</time>
      </trkpt>
      <trkpt lat="45.76921" lon="4.68264">
        <ele>351.7</ele>
        <time>2018-09-09T07:21:26Z</time>
      </trkpt>
      <trkpt lat="45.76922" lon="4.68246">
        <ele>351.3</ele>
        <time>2018-09-09T07:21:29Z</time>
      </trkpt>
      <trkpt lat="45.76926" lon="4.68214">
        <ele>350.6</ele>
        <time>2018-09-09T07:21:34Z</time>
      </trkpt>
      <trkpt lat="45.76929" lon="4.68208">
        <ele>350.5</ele>
        <time>2018-09-09T07:21:35Z</time>
      </trkpt>
      <trkpt lat="45.76939" lon="4.6819">
        <ele>349.7</ele>
        <time>2018-09-09T07:21:39Z</time>
      </trkpt>
      <trkpt lat="45.76938" lon="4.68167">
        <ele>348.2</ele>
        <time>2018-09-09T07:21:43Z</time>
      </trkpt>
      <trkpt lat="45.76937" lon="4.68161">
        <ele>347.8</ele>
        <time>2018-09-09T07:21:44Z</time>
      </trkpt>
      <trkpt lat="45.76937" lon="4.68142">
        <ele>346.6</ele>
        <time>2018-09-09T07:21:47Z</time>
      </trkpt>
      <trkpt lat="45.76937" lon="4.68133">
        <ele>345.9</ele>
        <time>2018-09-09T07:21:49Z</time>
      </trkpt>
      <trkpt lat="45.76933" lon="4.68131">
        <ele>345.5</ele>
        <time>2018-09-09T07:21:50Z</time>
      </trkpt>
      <trkpt lat="45.76929" lon="4.68129">
        <ele>345.2</ele>
        <time>2018-09-09T07:21:51Z</time>
      </trkpt>
      <trkpt lat="45.76921" lon="4.6812">
        <ele>344.4</ele>
        <time>2018-09-09T07:21:53Z</time>
      </trkpt>
      <trkpt lat="45.76915" lon="4.68118">
        <ele>344</ele>
        <time>2018-09-09T07:21:55Z</time>
      </trkpt>
      <trkpt lat="45.76909" lon="4.68123">
        <ele>343.7</ele>
        <time>2018-09-09T07:21:57Z</time>
      </trkpt>
      <trkpt lat="45.76903" lon="4.68128">
        <ele>343.5</ele>
        <time>2018-09-09T07:21:59Z</time>
      </trkpt>
      <trkpt lat="45.769" lon="4.68131">
        <ele>343.4</ele>
        <time>2018-09-09T07:22:00Z</time>
      </trkpt>
      <trkpt lat="45.76892" lon="4.68134">
        <ele>343.3</ele>
        <time>2018-09-09T07:22:02Z</time>
      </trkpt>
      <trkpt lat="45.76888" lon="4.68134">
        <ele>343.1</ele>
        <time>2018-09-09T07:22:03Z</time>
      </trkpt>
      <trkpt lat="45.76883" lon="4.68134">
        <ele>342.9</ele>
        <time>2018-09-09T07:22:04Z</time>
      </trkpt>
      <trkpt lat="45.76877" lon="4.68135">
        <ele>342.7</ele>
        <time>2018-09-09T07:22:05Z</time>
      </trkpt>
      <trkpt lat="45.76872" lon="4.68138">
        <ele>342.5</ele>
        <time>2018-09-09T07:22:06Z</time>
      </trkpt>
      <trkpt lat="45.76866" lon="4.6814">
        <ele>342.4</ele>
        <time>2018-09-09T07:22:07Z</time>
      </trkpt>
      <trkpt lat="45.7685" lon="4.68137">
        <ele>341.8</ele>
        <time>2018-09-09T07:22:10Z</time>
      </trkpt>
      <trkpt lat="45.7684" lon="4.68135">
        <ele>341.6</ele>
        <time>2018-09-09T07:22:12Z</time>
      </trkpt>
      <trkpt lat="45.76836" lon="4.68133">
        <ele>341.4</ele>
        <time>2018-09-09T07:22:13Z</time>
      </trkpt>
      <trkpt lat="45.76831" lon="4.6811">
        <ele>341.2</ele>
        <time>2018-09-09T07:22:16Z</time>
      </trkpt>
      <trkpt lat="45.76837" lon="4.68087">
        <ele>341.3</ele>
        <time>2018-09-09T07:22:19Z</time>
      </trkpt>
      <trkpt lat="45.76839" lon="4.6808">
        <ele>341.4</ele>
        <time>2018-09-09T07:22:20Z</time>
      </trkpt>
      <trkpt lat="45.76842" lon="4.68059">
        <ele>341.6</ele>
        <time>2018-09-09T07:22:23Z</time>
      </trkpt>
      <trkpt lat="45.76841" lon="4.68055">
        <ele>341.6</ele>
        <time>2018-09-09T07:22:24Z</time>
      </trkpt>
      <trkpt lat="45.7684" lon="4.68055">
        <ele>341.6</ele>
        <time>2018-09-09T07:22:26Z</time>
      </trkpt>
      <trkpt lat="45.76834" lon="4.6806">
        <ele>341.7</ele>
        <time>2018-09-09T07:22:29Z</time>
      </trkpt>
      <trkpt lat="45.76831" lon="4.6806">
        <ele>341.8</ele>
        <time>2018-09-09T07:22:30Z</time>
      </trkpt>
      <trkpt lat="45.76826" lon="4.68055">
        <ele>341.9</ele>
        <time>2018-09-09T07:22:32Z</time>
      </trkpt>
      <trkpt lat="45.76823" lon="4.68049">
        <ele>341.9</ele>
        <time>2018-09-09T07:22:34Z</time>
      </trkpt>
      <trkpt lat="45.76824" lon="4.68046">
        <ele>341.9</ele>
        <time>2018-09-09T07:22:35Z</time>
      </trkpt>
      <trkpt lat="45.76827" lon="4.68038">
        <ele>341.9</ele>
        <time>2018-09-09T07:22:37Z</time>
      </trkpt>
      <trkpt lat="45.76829" lon="4.68035">
        <ele>341.9</ele>
        <time>2018-09-09T07:22:38Z</time>
      </trkpt>
      <trkpt lat="45.76833" lon="4.68028">
        <ele>341.8</ele>
        <time>2018-09-09T07:22:40Z</time>
      </trkpt>
      <trkpt lat="45.76838" lon="4.68021">
        <ele>341.7</ele>
        <time>2018-09-09T07:22:43Z</time>
      </trkpt>
      <trkpt lat="45.76848" lon="4.68014">
        <ele>341.5</ele>
        <time>2018-09-09T07:22:49Z</time>
      </trkpt>
      <trkpt lat="45.76854" lon="4.68012">
        <ele>341.5</ele>
        <time>2018-09-09T07:22:54Z</time>
      </trkpt>
      <trkpt lat="45.76855" lon="4.68012">
        <ele>341.5</ele>
        <time>2018-09-09T07:22:55Z</time>
      </trkpt>
      <trkpt lat="45.76858" lon="4.68011">
        <ele>341.5</ele>
        <time>2018-09-09T07:22:58Z</time>
      </trkpt>
      <trkpt lat="45.76861" lon="4.68008">
        <ele>341.5</ele>
        <time>2018-09-09T07:23:01Z</time>
      </trkpt>
      <trkpt lat="45.76863" lon="4.68007">
        <ele>341.5</ele>
        <time>2018-09-09T07:23:03Z</time>
      </trkpt>
      <trkpt lat="45.76864" lon="4.68007">
        <ele>341.5</ele>
        <time>2018-09-09T07:23:04Z</time>
      </trkpt>
      <trkpt lat="45.76867" lon="4.68004">
        <ele>341.5</ele>
        <time>2018-09-09T07:23:07Z</time>
      </trkpt>
      <trkpt lat="45.76872" lon="4.68001">
        <ele>341.5</ele>
        <time>2018-09-09T07:23:11Z</time>
      </trkpt>
      <trkpt lat="45.76888" lon="4.67979">
        <ele>342</ele>
        <time>2018-09-09T07:23:27Z</time>
      </trkpt>
      <trkpt lat="45.7689" lon="4.67978">
        <ele>342</ele>
        <time>2018-09-09T07:23:28Z</time>
      </trkpt>
      <trkpt lat="45.76896" lon="4.67969">
        <ele>342.3</ele>
        <time>2018-09-09T07:23:33Z</time>
      </trkpt>
      <trkpt lat="45.76897" lon="4.67968">
        <ele>342.4</ele>
        <time>2018-09-09T07:23:34Z</time>
      </trkpt>
      <trkpt lat="45.769" lon="4.67963">
        <ele>342.5</ele>
        <time>2018-09-09T07:23:36Z</time>
      </trkpt>
      <trkpt lat="45.76901" lon="4.67959">
        <ele>342.6</ele>
        <time>2018-09-09T07:23:38Z</time>
      </trkpt>
      <trkpt lat="45.76902" lon="4.67954">
        <ele>342.7</ele>
        <time>2018-09-09T07:23:40Z</time>
      </trkpt>
      <trkpt lat="45.76904" lon="4.67937">
        <ele>343.1</ele>
        <time>2018-09-09T07:23:46Z</time>
      </trkpt>
      <trkpt lat="45.7691" lon="4.67909">
        <ele>344.1</ele>
        <time>2018-09-09T07:23:56Z</time>
      </trkpt>
      <trkpt lat="45.76912" lon="4.679">
        <ele>344.4</ele>
        <time>2018-09-09T07:23:59Z</time>
      </trkpt>
      <trkpt lat="45.76918" lon="4.67875">
        <ele>345.2</ele>
        <time>2018-09-09T07:24:08Z</time>
      </trkpt>
      <trkpt lat="45.76919" lon="4.67872">
        <ele>345.3</ele>
        <time>2018-09-09T07:24:09Z</time>
      </trkpt>
      <trkpt lat="45.76923" lon="4.67859">
        <ele>346.2</ele>
        <time>2018-09-09T07:24:14Z</time>
      </trkpt>
      <trkpt lat="45.76926" lon="4.67851">
        <ele>346.5</ele>
        <time>2018-09-09T07:24:17Z</time>
      </trkpt>
      <trkpt lat="45.76926" lon="4.67848">
        <ele>346.7</ele>
        <time>2018-09-09T07:24:18Z</time>
      </trkpt>
      <trkpt lat="45.76932" lon="4.67835">
        <ele>347.3</ele>
        <time>2018-09-09T07:24:23Z</time>
      </trkpt>
      <trkpt lat="45.76936" lon="4.67827">
        <ele>347.6</ele>
        <time>2018-09-09T07:24:26Z</time>
      </trkpt>
      <trkpt lat="45.76939" lon="4.67819">
        <ele>348.1</ele>
        <time>2018-09-09T07:24:29Z</time>
      </trkpt>
      <trkpt lat="45.76943" lon="4.67812">
        <ele>348.9</ele>
        <time>2018-09-09T07:24:32Z</time>
      </trkpt>
      <trkpt lat="45.76951" lon="4.67794">
        <ele>350.5</ele>
        <time>2018-09-09T07:24:39Z</time>
      </trkpt>
      <trkpt lat="45.76955" lon="4.67787">
        <ele>350.9</ele>
        <time>2018-09-09T07:24:42Z</time>
      </trkpt>
      <trkpt lat="45.76959" lon="4.67779">
        <ele>351.4</ele>
        <time>2018-09-09T07:24:45Z</time>
      </trkpt>
      <trkpt lat="45.76963" lon="4.67768">
        <ele>352</ele>
        <time>2018-09-09T07:24:49Z</time>
      </trkpt>
      <trkpt lat="45.76964" lon="4.67765">
        <ele>352.1</ele>
        <time>2018-09-09T07:24:50Z</time>
      </trkpt>
      <trkpt lat="45.76967" lon="4.67757">
        <ele>352.7</ele>
        <time>2018-09-09T07:24:53Z</time>
      </trkpt>
      <trkpt lat="45.76971" lon="4.67745">
        <ele>353.5</ele>
        <time>2018-09-09T07:24:57Z</time>
      </trkpt>
      <trkpt lat="45.76976" lon="4.67729">
        <ele>354.7</ele>
        <time>2018-09-09T07:25:03Z</time>
      </trkpt>
      <trkpt lat="45.76979" lon="4.67724">
        <ele>355</ele>
        <time>2018-09-09T07:25:05Z</time>
      </trkpt>
      <trkpt lat="45.76986" lon="4.67709">
        <ele>356.3</ele>
        <time>2018-09-09T07:25:11Z</time>
      </trkpt>
      <trkpt lat="45.76987" lon="4.67706">
        <ele>356.5</ele>
        <time>2018-09-09T07:25:12Z</time>
      </trkpt>
      <trkpt lat="45.7699" lon="4.67702">
        <ele>356.9</ele>
        <time>2018-09-09T07:25:14Z</time>
      </trkpt>
      <trkpt lat="45.76995" lon="4.67692">
        <ele>358</ele>
        <time>2018-09-09T07:25:18Z</time>
      </trkpt>
      <trkpt lat="45.77001" lon="4.67683">
        <ele>358.9</ele>
        <time>2018-09-09T07:25:22Z</time>
      </trkpt>
      <trkpt lat="45.77004" lon="4.67679">
        <ele>359.3</ele>
        <time>2018-09-09T07:25:24Z</time>
      </trkpt>
      <trkpt lat="45.77013" lon="4.67668">
        <ele>360.3</ele>
        <time>2018-09-09T07:25:29Z</time>
      </trkpt>
      <trkpt lat="45.77015" lon="4.67666">
        <ele>360.5</ele>
        <time>2018-09-09T07:25:30Z</time>
      </trkpt>
      <trkpt lat="45.77023" lon="4.67658">
        <ele>361.3</ele>
        <time>2018-09-09T07:25:34Z</time>
      </trkpt>
      <trkpt lat="45.77032" lon="4.67649">
        <ele>362.2</ele>
        <time>2018-09-09T07:25:38Z</time>
      </trkpt>
      <trkpt lat="45.77052" lon="4.67633">
        <ele>364</ele>
        <time>2018-09-09T07:25:46Z</time>
      </trkpt>
      <trkpt lat="45.77064" lon="4.67622">
        <ele>364.8</ele>
        <time>2018-09-09T07:25:51Z</time>
      </trkpt>
      <trkpt lat="45.77069" lon="4.67618">
        <ele>365.3</ele>
        <time>2018-09-09T07:25:53Z</time>
      </trkpt>
      <trkpt lat="45.77077" lon="4.67612">
        <ele>365.8</ele>
        <time>2018-09-09T07:25:56Z</time>
      </trkpt>
      <trkpt lat="45.77087" lon="4.67605">
        <ele>366.3</ele>
        <time>2018-09-09T07:26:00Z</time>
      </trkpt>
      <trkpt lat="45.7709" lon="4.67603">
        <ele>366.5</ele>
        <time>2018-09-09T07:26:01Z</time>
      </trkpt>
      <trkpt lat="45.771" lon="4.67599">
        <ele>367</ele>
        <time>2018-09-09T07:26:05Z</time>
      </trkpt>
      <trkpt lat="45.77102" lon="4.67597">
        <ele>367.1</ele>
        <time>2018-09-09T07:26:06Z</time>
      </trkpt>
      <trkpt lat="45.7711" lon="4.67592">
        <ele>367.5</ele>
        <time>2018-09-09T07:26:09Z</time>
      </trkpt>
      <trkpt lat="45.77117" lon="4.67586">
        <ele>368</ele>
        <time>2018-09-09T07:26:12Z</time>
      </trkpt>
      <trkpt lat="45.77119" lon="4.67583">
        <ele>368.1</ele>
        <time>2018-09-09T07:26:13Z</time>
      </trkpt>
      <trkpt lat="45.77123" lon="4.67578">
        <ele>368.4</ele>
        <time>2018-09-09T07:26:15Z</time>
      </trkpt>
      <trkpt lat="45.77131" lon="4.67572">
        <ele>368.8</ele>
        <time>2018-09-09T07:26:18Z</time>
      </trkpt>
      <trkpt lat="45.77133" lon="4.6757">
        <ele>369</ele>
        <time>2018-09-09T07:26:19Z</time>
      </trkpt>
      <trkpt lat="45.77138" lon="4.67566">
        <ele>369.3</ele>
        <time>2018-09-09T07:26:21Z</time>
      </trkpt>
      <trkpt lat="45.77143" lon="4.67562">
        <ele>369.7</ele>
        <time>2018-09-09T07:26:23Z</time>
      </trkpt>
      <trkpt lat="45.77151" lon="4.67559">
        <ele>370.3</ele>
        <time>2018-09-09T07:26:26Z</time>
      </trkpt>
      <trkpt lat="45.77153" lon="4.67558">
        <ele>370.5</ele>
        <time>2018-09-09T07:26:27Z</time>
      </trkpt>
      <trkpt lat="45.77159" lon="4.67553">
        <ele>370.9</ele>
        <time>2018-09-09T07:27:44Z</time>
      </trkpt>
      <trkpt lat="45.77172" lon="4.67541">
        <ele>372.6</ele>
        <time>2018-09-09T07:27:50Z</time>
      </trkpt>
      <trkpt lat="45.77194" lon="4.67523">
        <ele>373.4</ele>
        <time>2018-09-09T07:27:59Z</time>
      </trkpt>
      <trkpt lat="45.7721" lon="4.67511">
        <ele>374.6</ele>
        <time>2018-09-09T07:28:06Z</time>
      </trkpt>
      <trkpt lat="45.77227" lon="4.67499">
        <ele>375.5</ele>
        <time>2018-09-09T07:28:13Z</time>
      </trkpt>
      <trkpt lat="45.77232" lon="4.67494">
        <ele>376</ele>
        <time>2018-09-09T07:28:15Z</time>
      </trkpt>
      <trkpt lat="45.77248" lon="4.67481">
        <ele>377.5</ele>
        <time>2018-09-09T07:28:22Z</time>
      </trkpt>
      <trkpt lat="45.7725" lon="4.67479">
        <ele>377.6</ele>
        <time>2018-09-09T07:28:23Z</time>
      </trkpt>
      <trkpt lat="45.77261" lon="4.67469">
        <ele>378.9</ele>
        <time>2018-09-09T07:28:29Z</time>
      </trkpt>
      <trkpt lat="45.77265" lon="4.67466">
        <ele>379.1</ele>
        <time>2018-09-09T07:28:31Z</time>
      </trkpt>
      <trkpt lat="45.77271" lon="4.67461">
        <ele>379.4</ele>
        <time>2018-09-09T07:28:34Z</time>
      </trkpt>
      <trkpt lat="45.77281" lon="4.67451">
        <ele>380.5</ele>
        <time>2018-09-09T07:28:40Z</time>
      </trkpt>
      <trkpt lat="45.77283" lon="4.6745">
        <ele>380.8</ele>
        <time>2018-09-09T07:28:41Z</time>
      </trkpt>
      <trkpt lat="45.77292" lon="4.67442">
        <ele>381.7</ele>
        <time>2018-09-09T07:28:46Z</time>
      </trkpt>
      <trkpt lat="45.77297" lon="4.67437">
        <ele>382.1</ele>
        <time>2018-09-09T07:28:49Z</time>
      </trkpt>
      <trkpt lat="45.77307" lon="4.67428">
        <ele>383.7</ele>
        <time>2018-09-09T07:28:55Z</time>
      </trkpt>
      <trkpt lat="45.77309" lon="4.67426">
        <ele>383.9</ele>
        <time>2018-09-09T07:28:56Z</time>
      </trkpt>
      <trkpt lat="45.77315" lon="4.67419">
        <ele>384.6</ele>
        <time>2018-09-09T07:29:00Z</time>
      </trkpt>
      <trkpt lat="45.77318" lon="4.67414">
        <ele>385.3</ele>
        <time>2018-09-09T07:29:03Z</time>
      </trkpt>
      <trkpt lat="45.77322" lon="4.6741">
        <ele>385.9</ele>
        <time>2018-09-09T07:29:06Z</time>
      </trkpt>
      <trkpt lat="45.7733" lon="4.67403">
        <ele>386.7</ele>
        <time>2018-09-09T07:29:11Z</time>
      </trkpt>
      <trkpt lat="45.77333" lon="4.67401">
        <ele>387.2</ele>
        <time>2018-09-09T07:29:13Z</time>
      </trkpt>
      <trkpt lat="45.77339" lon="4.67395">
        <ele>387.9</ele>
        <time>2018-09-09T07:29:17Z</time>
      </trkpt>
      <trkpt lat="45.77346" lon="4.67389">
        <ele>388.3</ele>
        <time>2018-09-09T07:29:21Z</time>
      </trkpt>
      <trkpt lat="45.77351" lon="4.67386">
        <ele>388.6</ele>
        <time>2018-09-09T07:29:24Z</time>
      </trkpt>
      <trkpt lat="45.77359" lon="4.67379">
        <ele>389.5</ele>
        <time>2018-09-09T07:29:28Z</time>
      </trkpt>
      <trkpt lat="45.77362" lon="4.67375">
        <ele>389.9</ele>
        <time>2018-09-09T07:29:30Z</time>
      </trkpt>
      <trkpt lat="45.77372" lon="4.67367">
        <ele>390.7</ele>
        <time>2018-09-09T07:29:35Z</time>
      </trkpt>
      <trkpt lat="45.77375" lon="4.67364">
        <ele>391.2</ele>
        <time>2018-09-09T07:29:37Z</time>
      </trkpt>
      <trkpt lat="45.77384" lon="4.67355">
        <ele>392.6</ele>
        <time>2018-09-09T07:29:42Z</time>
      </trkpt>
      <trkpt lat="45.77386" lon="4.67353">
        <ele>392.7</ele>
        <time>2018-09-09T07:29:43Z</time>
      </trkpt>
      <trkpt lat="45.77397" lon="4.67342">
        <ele>393.6</ele>
        <time>2018-09-09T07:29:49Z</time>
      </trkpt>
      <trkpt lat="45.77402" lon="4.67338">
        <ele>394.2</ele>
        <time>2018-09-09T07:29:52Z</time>
      </trkpt>
      <trkpt lat="45.77406" lon="4.67334">
        <ele>394.3</ele>
        <time>2018-09-09T07:29:54Z</time>
      </trkpt>
      <trkpt lat="45.77416" lon="4.67323">
        <ele>394.8</ele>
        <time>2018-09-09T07:30:00Z</time>
      </trkpt>
      <trkpt lat="45.77418" lon="4.67322">
        <ele>394.9</ele>
        <time>2018-09-09T07:30:01Z</time>
      </trkpt>
      <trkpt lat="45.77426" lon="4.67314">
        <ele>395.9</ele>
        <time>2018-09-09T07:30:06Z</time>
      </trkpt>
      <trkpt lat="45.77432" lon="4.67309">
        <ele>396.7</ele>
        <time>2018-09-09T07:30:09Z</time>
      </trkpt>
      <trkpt lat="45.77437" lon="4.67305">
        <ele>397.2</ele>
        <time>2018-09-09T07:30:12Z</time>
      </trkpt>
      <trkpt lat="45.77444" lon="4.67299">
        <ele>398.4</ele>
        <time>2018-09-09T07:30:16Z</time>
      </trkpt>
      <trkpt lat="45.77446" lon="4.67298">
        <ele>398.6</ele>
        <time>2018-09-09T07:30:17Z</time>
      </trkpt>
      <trkpt lat="45.7746" lon="4.67288">
        <ele>399.9</ele>
        <time>2018-09-09T07:30:24Z</time>
      </trkpt>
      <trkpt lat="45.77465" lon="4.67283">
        <ele>400.7</ele>
        <time>2018-09-09T07:30:27Z</time>
      </trkpt>
      <trkpt lat="45.77474" lon="4.67274">
        <ele>401.4</ele>
        <time>2018-09-09T07:30:32Z</time>
      </trkpt>
      <trkpt lat="45.77478" lon="4.67271">
        <ele>401.8</ele>
        <time>2018-09-09T07:30:34Z</time>
      </trkpt>
      <trkpt lat="45.77485" lon="4.67262">
        <ele>403</ele>
        <time>2018-09-09T07:30:39Z</time>
      </trkpt>
      <trkpt lat="45.77487" lon="4.6726">
        <ele>403.1</ele>
        <time>2018-09-09T07:30:40Z</time>
      </trkpt>
      <trkpt lat="45.77495" lon="4.67249">
        <ele>404.2</ele>
        <time>2018-09-09T07:30:46Z</time>
      </trkpt>
      <trkpt lat="45.77502" lon="4.67241">
        <ele>405</ele>
        <time>2018-09-09T07:30:51Z</time>
      </trkpt>
      <trkpt lat="45.77507" lon="4.67236">
        <ele>405.3</ele>
        <time>2018-09-09T07:30:54Z</time>
      </trkpt>
      <trkpt lat="45.77512" lon="4.6723">
        <ele>405.7</ele>
        <time>2018-09-09T07:30:57Z</time>
      </trkpt>
      <trkpt lat="45.7752" lon="4.67221">
        <ele>407</ele>
        <time>2018-09-09T07:31:02Z</time>
      </trkpt>
      <trkpt lat="45.7753" lon="4.6721">
        <ele>408.1</ele>
        <time>2018-09-09T07:31:08Z</time>
      </trkpt>
      <trkpt lat="45.77533" lon="4.67207">
        <ele>408.6</ele>
        <time>2018-09-09T07:31:10Z</time>
      </trkpt>
      <trkpt lat="45.77536" lon="4.67204">
        <ele>409</ele>
        <time>2018-09-09T07:31:12Z</time>
      </trkpt>
      <trkpt lat="45.77542" lon="4.67196">
        <ele>409.8</ele>
        <time>2018-09-09T07:31:17Z</time>
      </trkpt>
      <trkpt lat="45.77543" lon="4.67195">
        <ele>409.8</ele>
        <time>2018-09-09T07:31:18Z</time>
      </trkpt>
      <trkpt lat="45.77549" lon="4.67189">
        <ele>410.2</ele>
        <time>2018-09-09T07:31:22Z</time>
      </trkpt>
      <trkpt lat="45.77551" lon="4.67185">
        <ele>410.7</ele>
        <time>2018-09-09T07:31:24Z</time>
      </trkpt>
      <trkpt lat="45.77556" lon="4.67178">
        <ele>411.5</ele>
        <time>2018-09-09T07:31:28Z</time>
      </trkpt>
      <trkpt lat="45.7756" lon="4.67174">
        <ele>411.7</ele>
        <time>2018-09-09T07:31:30Z</time>
      </trkpt>
      <trkpt lat="45.77565" lon="4.6717">
        <ele>412.2</ele>
        <time>2018-09-09T07:31:33Z</time>
      </trkpt>
      <trkpt lat="45.77575" lon="4.67162">
        <ele>413.5</ele>
        <time>2018-09-09T07:31:38Z</time>
      </trkpt>
      <trkpt lat="45.77577" lon="4.6716">
        <ele>413.7</ele>
        <time>2018-09-09T07:31:39Z</time>
      </trkpt>
      <trkpt lat="45.77583" lon="4.67155">
        <ele>414.1</ele>
        <time>2018-09-09T07:31:42Z</time>
      </trkpt>
      <trkpt lat="45.77591" lon="4.67148">
        <ele>414.7</ele>
        <time>2018-09-09T07:31:46Z</time>
      </trkpt>
      <trkpt lat="45.77593" lon="4.67146">
        <ele>415</ele>
        <time>2018-09-09T07:31:47Z</time>
      </trkpt>
      <trkpt lat="45.77597" lon="4.67143">
        <ele>415.6</ele>
        <time>2018-09-09T07:31:49Z</time>
      </trkpt>
      <trkpt lat="45.77607" lon="4.67135">
        <ele>416.4</ele>
        <time>2018-09-09T07:31:54Z</time>
      </trkpt>
      <trkpt lat="45.77611" lon="4.67132">
        <ele>416.7</ele>
        <time>2018-09-09T07:31:56Z</time>
      </trkpt>
      <trkpt lat="45.77615" lon="4.67129">
        <ele>417.3</ele>
        <time>2018-09-09T07:31:58Z</time>
      </trkpt>
      <trkpt lat="45.77623" lon="4.67121">
        <ele>418.3</ele>
        <time>2018-09-09T07:32:02Z</time>
      </trkpt>
      <trkpt lat="45.77625" lon="4.67119">
        <ele>418.5</ele>
        <time>2018-09-09T07:32:03Z</time>
      </trkpt>
      <trkpt lat="45.77628" lon="4.67116">
        <ele>418.8</ele>
        <time>2018-09-09T07:32:05Z</time>
      </trkpt>
      <trkpt lat="45.77633" lon="4.67107">
        <ele>419.9</ele>
        <time>2018-09-09T07:32:09Z</time>
      </trkpt>
      <trkpt lat="45.77637" lon="4.67104">
        <ele>420.1</ele>
        <time>2018-09-09T07:32:12Z</time>
      </trkpt>
      <trkpt lat="45.77642" lon="4.67095">
        <ele>420.5</ele>
        <time>2018-09-09T07:32:19Z</time>
      </trkpt>
      <trkpt lat="45.77643" lon="4.67093">
        <ele>420.5</ele>
        <time>2018-09-09T07:32:21Z</time>
      </trkpt>
      <trkpt lat="45.77646" lon="4.67089">
        <ele>420.8</ele>
        <time>2018-09-09T07:32:25Z</time>
      </trkpt>
      <trkpt lat="45.77647" lon="4.67087">
        <ele>420.9</ele>
        <time>2018-09-09T07:32:27Z</time>
      </trkpt>
      <trkpt lat="45.77648" lon="4.67086">
        <ele>421</ele>
        <time>2018-09-09T07:32:28Z</time>
      </trkpt>
      <trkpt lat="45.77652" lon="4.67083">
        <ele>421.4</ele>
        <time>2018-09-09T07:32:33Z</time>
      </trkpt>
      <trkpt lat="45.77652" lon="4.67082">
        <ele>421.5</ele>
        <time>2018-09-09T07:32:49Z</time>
      </trkpt>
      <trkpt lat="45.77656" lon="4.67077">
        <ele>421.9</ele>
        <time>2018-09-09T07:32:51Z</time>
      </trkpt>
      <trkpt lat="45.7766" lon="4.67073">
        <ele>422.2</ele>
        <time>2018-09-09T07:32:53Z</time>
      </trkpt>
      <trkpt lat="45.77671" lon="4.67061">
        <ele>422.5</ele>
        <time>2018-09-09T07:32:58Z</time>
      </trkpt>
      <trkpt lat="45.77673" lon="4.67059">
        <ele>422.6</ele>
        <time>2018-09-09T07:32:59Z</time>
      </trkpt>
      <trkpt lat="45.77682" lon="4.6705">
        <ele>422.8</ele>
        <time>2018-09-09T07:33:03Z</time>
      </trkpt>
      <trkpt lat="45.77684" lon="4.67047">
        <ele>422.9</ele>
        <time>2018-09-09T07:33:04Z</time>
      </trkpt>
      <trkpt lat="45.777" lon="4.67019">
        <ele>423.5</ele>
        <time>2018-09-09T07:33:11Z</time>
      </trkpt>
      <trkpt lat="45.77711" lon="4.66997">
        <ele>424</ele>
        <time>2018-09-09T07:33:17Z</time>
      </trkpt>
      <trkpt lat="45.77713" lon="4.66993">
        <ele>424.1</ele>
        <time>2018-09-09T07:33:18Z</time>
      </trkpt>
      <trkpt lat="45.77729" lon="4.66955">
        <ele>424.9</ele>
        <time>2018-09-09T07:33:26Z</time>
      </trkpt>
      <trkpt lat="45.77734" lon="4.66939">
        <ele>425.2</ele>
        <time>2018-09-09T07:33:29Z</time>
      </trkpt>
      <trkpt lat="45.77741" lon="4.66917">
        <ele>425.7</ele>
        <time>2018-09-09T07:33:33Z</time>
      </trkpt>
      <trkpt lat="45.77754" lon="4.66881">
        <ele>426.4</ele>
        <time>2018-09-09T07:33:41Z</time>
      </trkpt>
      <trkpt lat="45.77755" lon="4.66878">
        <ele>426.5</ele>
        <time>2018-09-09T07:33:42Z</time>
      </trkpt>
      <trkpt lat="45.77761" lon="4.66871">
        <ele>426.8</ele>
        <time>2018-09-09T07:33:45Z</time>
      </trkpt>
      <trkpt lat="45.77763" lon="4.6687">
        <ele>426.8</ele>
        <time>2018-09-09T07:33:46Z</time>
      </trkpt>
      <trkpt lat="45.7776" lon="4.66868">
        <ele>426.8</ele>
        <time>2018-09-09T07:38:30Z</time>
      </trkpt>
      <trkpt lat="45.77759" lon="4.66866">
        <ele>426.7</ele>
        <time>2018-09-09T07:38:31Z</time>
      </trkpt>
      <trkpt lat="45.77751" lon="4.6686">
        <ele>426.6</ele>
        <time>2018-09-09T07:38:35Z</time>
      </trkpt>
      <trkpt lat="45.77745" lon="4.66857">
        <ele>426.6</ele>
        <time>2018-09-09T07:38:37Z</time>
      </trkpt>
      <trkpt lat="45.7773" lon="4.66848">
        <ele>426.2</ele>
        <time>2018-09-09T07:38:41Z</time>
      </trkpt>
      <trkpt lat="45.77716" lon="4.66842">
        <ele>425.4</ele>
        <time>2018-09-09T07:38:44Z</time>
      </trkpt>
      <trkpt lat="45.77705" lon="4.6684">
        <ele>424.6</ele>
        <time>2018-09-09T07:38:46Z</time>
      </trkpt>
      <trkpt lat="45.77686" lon="4.66836">
        <ele>423.2</ele>
        <time>2018-09-09T07:38:49Z</time>
      </trkpt>
      <trkpt lat="45.77682" lon="4.66835">
        <ele>422.5</ele>
        <time>2018-09-09T07:38:50Z</time>
      </trkpt>
      <trkpt lat="45.77677" lon="4.66835">
        <ele>421.7</ele>
        <time>2018-09-09T07:38:51Z</time>
      </trkpt>
      <trkpt lat="45.77672" lon="4.66835">
        <ele>421.2</ele>
        <time>2018-09-09T07:38:52Z</time>
      </trkpt>
      <trkpt lat="45.77667" lon="4.66834">
        <ele>420.4</ele>
        <time>2018-09-09T07:38:53Z</time>
      </trkpt>
      <trkpt lat="45.77655" lon="4.66831">
        <ele>418.7</ele>
        <time>2018-09-09T07:38:55Z</time>
      </trkpt>
      <trkpt lat="45.7765" lon="4.66828">
        <ele>417.8</ele>
        <time>2018-09-09T07:38:56Z</time>
      </trkpt>
      <trkpt lat="45.77644" lon="4.66825">
        <ele>417.2</ele>
        <time>2018-09-09T07:38:57Z</time>
      </trkpt>
      <trkpt lat="45.77639" lon="4.66822">
        <ele>416.2</ele>
        <time>2018-09-09T07:38:58Z</time>
      </trkpt>
      <trkpt lat="45.77633" lon="4.66819">
        <ele>415.1</ele>
        <time>2018-09-09T07:38:59Z</time>
      </trkpt>
      <trkpt lat="45.77619" lon="4.66813">
        <ele>413.2</ele>
        <time>2018-09-09T07:39:01Z</time>
      </trkpt>
      <trkpt lat="45.77606" lon="4.66808">
        <ele>411.2</ele>
        <time>2018-09-09T07:39:03Z</time>
      </trkpt>
      <trkpt lat="45.77593" lon="4.66804">
        <ele>408</ele>
        <time>2018-09-09T07:39:05Z</time>
      </trkpt>
      <trkpt lat="45.7758" lon="4.66799">
        <ele>404.7</ele>
        <time>2018-09-09T07:39:07Z</time>
      </trkpt>
      <trkpt lat="45.77568" lon="4.66793">
        <ele>401.5</ele>
        <time>2018-09-09T07:39:09Z</time>
      </trkpt>
      <trkpt lat="45.77562" lon="4.66789">
        <ele>400.1</ele>
        <time>2018-09-09T07:39:10Z</time>
      </trkpt>
      <trkpt lat="45.77556" lon="4.66784">
        <ele>398.8</ele>
        <time>2018-09-09T07:39:11Z</time>
      </trkpt>
      <trkpt lat="45.77545" lon="4.66774">
        <ele>397.2</ele>
        <time>2018-09-09T07:39:13Z</time>
      </trkpt>
      <trkpt lat="45.77537" lon="4.66766">
        <ele>396.7</ele>
        <time>2018-09-09T07:39:15Z</time>
      </trkpt>
      <trkpt lat="45.77532" lon="4.66764">
        <ele>396.2</ele>
        <time>2018-09-09T07:39:16Z</time>
      </trkpt>
      <trkpt lat="45.77527" lon="4.66761">
        <ele>395.8</ele>
        <time>2018-09-09T07:39:17Z</time>
      </trkpt>
      <trkpt lat="45.77517" lon="4.66757">
        <ele>395.5</ele>
        <time>2018-09-09T07:39:19Z</time>
      </trkpt>
      <trkpt lat="45.77511" lon="4.66756">
        <ele>395.3</ele>
        <time>2018-09-09T07:39:20Z</time>
      </trkpt>
      <trkpt lat="45.77504" lon="4.66755">
        <ele>394.9</ele>
        <time>2018-09-09T07:39:21Z</time>
      </trkpt>
      <trkpt lat="45.77497" lon="4.66754">
        <ele>394.6</ele>
        <time>2018-09-09T07:39:22Z</time>
      </trkpt>
      <trkpt lat="45.7749" lon="4.66753">
        <ele>394.3</ele>
        <time>2018-09-09T07:39:23Z</time>
      </trkpt>
      <trkpt lat="45.77474" lon="4.66751">
        <ele>393.7</ele>
        <time>2018-09-09T07:39:25Z</time>
      </trkpt>
      <trkpt lat="45.77461" lon="4.66755">
        <ele>392.8</ele>
        <time>2018-09-09T07:39:27Z</time>
      </trkpt>
      <trkpt lat="45.77448" lon="4.66757">
        <ele>391.6</ele>
        <time>2018-09-09T07:39:29Z</time>
      </trkpt>
      <trkpt lat="45.77437" lon="4.66758">
        <ele>389.6</ele>
        <time>2018-09-09T07:39:31Z</time>
      </trkpt>
      <trkpt lat="45.77432" lon="4.66759">
        <ele>388.4</ele>
        <time>2018-09-09T07:39:32Z</time>
      </trkpt>
      <trkpt lat="45.77426" lon="4.66761">
        <ele>387.6</ele>
        <time>2018-09-09T07:39:33Z</time>
      </trkpt>
      <trkpt lat="45.77408" lon="4.66766">
        <ele>384</ele>
        <time>2018-09-09T07:39:36Z</time>
      </trkpt>
      <trkpt lat="45.77395" lon="4.66771">
        <ele>381</ele>
        <time>2018-09-09T07:39:38Z</time>
      </trkpt>
      <trkpt lat="45.77388" lon="4.66773">
        <ele>379.6</ele>
        <time>2018-09-09T07:39:39Z</time>
      </trkpt>
      <trkpt lat="45.77375" lon="4.66778">
        <ele>377.1</ele>
        <time>2018-09-09T07:39:41Z</time>
      </trkpt>
      <trkpt lat="45.7736" lon="4.66782">
        <ele>375.3</ele>
        <time>2018-09-09T07:39:43Z</time>
      </trkpt>
      <trkpt lat="45.77353" lon="4.66783">
        <ele>374</ele>
        <time>2018-09-09T07:39:44Z</time>
      </trkpt>
      <trkpt lat="45.77346" lon="4.66784">
        <ele>374</ele>
        <time>2018-09-09T07:39:45Z</time>
      </trkpt>
      <trkpt lat="45.77334" lon="4.66785">
        <ele>373.6</ele>
        <time>2018-09-09T07:39:47Z</time>
      </trkpt>
      <trkpt lat="45.77319" lon="4.66784">
        <ele>373.5</ele>
        <time>2018-09-09T07:39:49Z</time>
      </trkpt>
      <trkpt lat="45.77304" lon="4.66783">
        <ele>373.5</ele>
        <time>2018-09-09T07:39:51Z</time>
      </trkpt>
      <trkpt lat="45.77289" lon="4.66783">
        <ele>373.7</ele>
        <time>2018-09-09T07:39:53Z</time>
      </trkpt>
      <trkpt lat="45.7728" lon="4.66784">
        <ele>373.9</ele>
        <time>2018-09-09T07:39:54Z</time>
      </trkpt>
      <trkpt lat="45.77271" lon="4.66784">
        <ele>374</ele>
        <time>2018-09-09T07:39:55Z</time>
      </trkpt>
      <trkpt lat="45.77264" lon="4.66785">
        <ele>374</ele>
        <time>2018-09-09T07:39:56Z</time>
      </trkpt>
      <trkpt lat="45.77258" lon="4.66785">
        <ele>374</ele>
        <time>2018-09-09T07:39:57Z</time>
      </trkpt>
      <trkpt lat="45.77252" lon="4.66786">
        <ele>374</ele>
        <time>2018-09-09T07:39:58Z</time>
      </trkpt>
      <trkpt lat="45.77248" lon="4.66785">
        <ele>374</ele>
        <time>2018-09-09T07:39:59Z</time>
      </trkpt>
      <trkpt lat="45.77246" lon="4.66781">
        <ele>374.1</ele>
        <time>2018-09-09T07:40:00Z</time>
      </trkpt>
      <trkpt lat="45.77245" lon="4.66775">
        <ele>374.6</ele>
        <time>2018-09-09T07:40:01Z</time>
      </trkpt>
      <trkpt lat="45.77245" lon="4.66768">
        <ele>375.1</ele>
        <time>2018-09-09T07:40:02Z</time>
      </trkpt>
      <trkpt lat="45.77246" lon="4.66761">
        <ele>375.6</ele>
        <time>2018-09-09T07:40:03Z</time>
      </trkpt>
      <trkpt lat="45.77247" lon="4.66754">
        <ele>376.1</ele>
        <time>2018-09-09T07:40:04Z</time>
      </trkpt>
      <trkpt lat="45.77246" lon="4.66746">
        <ele>376.7</ele>
        <time>2018-09-09T07:40:05Z</time>
      </trkpt>
      <trkpt lat="45.77245" lon="4.6673">
        <ele>379</ele>
        <time>2018-09-09T07:40:07Z</time>
      </trkpt>
      <trkpt lat="45.77239" lon="4.66708">
        <ele>383.9</ele>
        <time>2018-09-09T07:40:10Z</time>
      </trkpt>
      <trkpt lat="45.77234" lon="4.66704">
        <ele>385.4</ele>
        <time>2018-09-09T07:40:11Z</time>
      </trkpt>
      <trkpt lat="45.77224" lon="4.66701">
        <ele>386</ele>
        <time>2018-09-09T07:40:13Z</time>
      </trkpt>
      <trkpt lat="45.77211" lon="4.66712">
        <ele>386.2</ele>
        <time>2018-09-09T07:40:16Z</time>
      </trkpt>
      <trkpt lat="45.7719" lon="4.66735">
        <ele>386.6</ele>
        <time>2018-09-09T07:40:22Z</time>
      </trkpt>
      <trkpt lat="45.77179" lon="4.66748">
        <ele>387</ele>
        <time>2018-09-09T07:40:27Z</time>
      </trkpt>
      <trkpt lat="45.77177" lon="4.6675">
        <ele>387.1</ele>
        <time>2018-09-09T07:40:28Z</time>
      </trkpt>
      <trkpt lat="45.77171" lon="4.66756">
        <ele>387.3</ele>
        <time>2018-09-09T07:40:31Z</time>
      </trkpt>
      <trkpt lat="45.77165" lon="4.66761">
        <ele>387.4</ele>
        <time>2018-09-09T07:40:34Z</time>
      </trkpt>
      <trkpt lat="45.77158" lon="4.66765">
        <ele>387.7</ele>
        <time>2018-09-09T07:40:37Z</time>
      </trkpt>
      <trkpt lat="45.77156" lon="4.66766">
        <ele>387.8</ele>
        <time>2018-09-09T07:40:38Z</time>
      </trkpt>
      <trkpt lat="45.7715" lon="4.66771">
        <ele>388.2</ele>
        <time>2018-09-09T07:40:41Z</time>
      </trkpt>
      <trkpt lat="45.77144" lon="4.66775">
        <ele>388.4</ele>
        <time>2018-09-09T07:40:44Z</time>
      </trkpt>
      <trkpt lat="45.77139" lon="4.66778">
        <ele>388.6</ele>
        <time>2018-09-09T07:40:46Z</time>
      </trkpt>
      <trkpt lat="45.77135" lon="4.6678">
        <ele>388.7</ele>
        <time>2018-09-09T07:40:48Z</time>
      </trkpt>
      <trkpt lat="45.77126" lon="4.66781">
        <ele>388.9</ele>
        <time>2018-09-09T07:40:52Z</time>
      </trkpt>
      <trkpt lat="45.77124" lon="4.66781">
        <ele>389</ele>
        <time>2018-09-09T07:40:53Z</time>
      </trkpt>
      <trkpt lat="45.7711" lon="4.66785">
        <ele>389.3</ele>
        <time>2018-09-09T07:40:59Z</time>
      </trkpt>
      <trkpt lat="45.77108" lon="4.66786">
        <ele>389.3</ele>
        <time>2018-09-09T07:41:00Z</time>
      </trkpt>
      <trkpt lat="45.77091" lon="4.66791">
        <ele>389.2</ele>
        <time>2018-09-09T07:41:07Z</time>
      </trkpt>
      <trkpt lat="45.77076" lon="4.66793">
        <ele>389</ele>
        <time>2018-09-09T07:41:15Z</time>
      </trkpt>
      <trkpt lat="45.77069" lon="4.66785">
        <ele>390.1</ele>
        <time>2018-09-09T07:41:20Z</time>
      </trkpt>
      <trkpt lat="45.77067" lon="4.66781">
        <ele>390.4</ele>
        <time>2018-09-09T07:41:21Z</time>
      </trkpt>
      <trkpt lat="45.77059" lon="4.66761">
        <ele>392.4</ele>
        <time>2018-09-09T07:41:28Z</time>
      </trkpt>
      <trkpt lat="45.77056" lon="4.66752">
        <ele>393.2</ele>
        <time>2018-09-09T07:41:31Z</time>
      </trkpt>
      <trkpt lat="45.77054" lon="4.66746">
        <ele>393.7</ele>
        <time>2018-09-09T07:41:33Z</time>
      </trkpt>
      <trkpt lat="45.77048" lon="4.66732">
        <ele>394.9</ele>
        <time>2018-09-09T07:41:38Z</time>
      </trkpt>
      <trkpt lat="45.77043" lon="4.66719">
        <ele>395.8</ele>
        <time>2018-09-09T07:41:43Z</time>
      </trkpt>
      <trkpt lat="45.77039" lon="4.66708">
        <ele>396.4</ele>
        <time>2018-09-09T07:41:47Z</time>
      </trkpt>
      <trkpt lat="45.77038" lon="4.66706">
        <ele>396.5</ele>
        <time>2018-09-09T07:41:48Z</time>
      </trkpt>
      <trkpt lat="45.77035" lon="4.66695">
        <ele>397</ele>
        <time>2018-09-09T07:41:52Z</time>
      </trkpt>
      <trkpt lat="45.77033" lon="4.66689">
        <ele>397.3</ele>
        <time>2018-09-09T07:41:54Z</time>
      </trkpt>
      <trkpt lat="45.77032" lon="4.66684">
        <ele>397.5</ele>
        <time>2018-09-09T07:41:56Z</time>
      </trkpt>
      <trkpt lat="45.77029" lon="4.66676">
        <ele>397.8</ele>
        <time>2018-09-09T07:41:59Z</time>
      </trkpt>
      <trkpt lat="45.77027" lon="4.66668">
        <ele>398</ele>
        <time>2018-09-09T07:42:02Z</time>
      </trkpt>
      <trkpt lat="45.77024" lon="4.6666">
        <ele>398.4</ele>
        <time>2018-09-09T07:42:05Z</time>
      </trkpt>
      <trkpt lat="45.77021" lon="4.66652">
        <ele>398.7</ele>
        <time>2018-09-09T07:42:08Z</time>
      </trkpt>
      <trkpt lat="45.77019" lon="4.66646">
        <ele>398.9</ele>
        <time>2018-09-09T07:42:10Z</time>
      </trkpt>
      <trkpt lat="45.77018" lon="4.66643">
        <ele>399.1</ele>
        <time>2018-09-09T07:42:11Z</time>
      </trkpt>
      <trkpt lat="45.77016" lon="4.66634">
        <ele>399.5</ele>
        <time>2018-09-09T07:42:14Z</time>
      </trkpt>
      <trkpt lat="45.77015" lon="4.66623">
        <ele>400</ele>
        <time>2018-09-09T07:42:18Z</time>
      </trkpt>
      <trkpt lat="45.77013" lon="4.66602">
        <ele>400.2</ele>
        <time>2018-09-09T07:42:27Z</time>
      </trkpt>
      <trkpt lat="45.77012" lon="4.66586">
        <ele>400.5</ele>
        <time>2018-09-09T07:42:33Z</time>
      </trkpt>
      <trkpt lat="45.77012" lon="4.66575">
        <ele>400.7</ele>
        <time>2018-09-09T07:42:37Z</time>
      </trkpt>
      <trkpt lat="45.77013" lon="4.66564">
        <ele>401</ele>
        <time>2018-09-09T07:42:41Z</time>
      </trkpt>
      <trkpt lat="45.77013" lon="4.66543">
        <ele>401.5</ele>
        <time>2018-09-09T07:42:48Z</time>
      </trkpt>
      <trkpt lat="45.77014" lon="4.66529">
        <ele>401.9</ele>
        <time>2018-09-09T07:42:53Z</time>
      </trkpt>
      <trkpt lat="45.77014" lon="4.66522">
        <ele>402</ele>
        <time>2018-09-09T07:42:56Z</time>
      </trkpt>
      <trkpt lat="45.77013" lon="4.6652">
        <ele>402.1</ele>
        <time>2018-09-09T07:42:57Z</time>
      </trkpt>
      <trkpt lat="45.77014" lon="4.66508">
        <ele>402.4</ele>
        <time>2018-09-09T07:43:02Z</time>
      </trkpt>
      <trkpt lat="45.77015" lon="4.66505">
        <ele>402.5</ele>
        <time>2018-09-09T07:43:03Z</time>
      </trkpt>
      <trkpt lat="45.77014" lon="4.66482">
        <ele>403.1</ele>
        <time>2018-09-09T07:43:11Z</time>
      </trkpt>
      <trkpt lat="45.77013" lon="4.66458">
        <ele>403.7</ele>
        <time>2018-09-09T07:43:19Z</time>
      </trkpt>
      <trkpt lat="45.77011" lon="4.66443">
        <ele>404</ele>
        <time>2018-09-09T07:43:25Z</time>
      </trkpt>
      <trkpt lat="45.77007" lon="4.66423">
        <ele>404.3</ele>
        <time>2018-09-09T07:43:32Z</time>
      </trkpt>
      <trkpt lat="45.77002" lon="4.66408">
        <ele>404.5</ele>
        <time>2018-09-09T07:43:37Z</time>
      </trkpt>
      <trkpt lat="45.77001" lon="4.66403">
        <ele>404.5</ele>
        <time>2018-09-09T07:43:39Z</time>
      </trkpt>
      <trkpt lat="45.76994" lon="4.66382">
        <ele>404.8</ele>
        <time>2018-09-09T07:43:46Z</time>
      </trkpt>
      <trkpt lat="45.76989" lon="4.66361">
        <ele>405.7</ele>
        <time>2018-09-09T07:43:52Z</time>
      </trkpt>
      <trkpt lat="45.76987" lon="4.66354">
        <ele>406.5</ele>
        <time>2018-09-09T07:43:54Z</time>
      </trkpt>
      <trkpt lat="45.76982" lon="4.66338">
        <ele>408.5</ele>
        <time>2018-09-09T07:43:59Z</time>
      </trkpt>
      <trkpt lat="45.76981" lon="4.66331">
        <ele>409.3</ele>
        <time>2018-09-09T07:44:01Z</time>
      </trkpt>
      <trkpt lat="45.76974" lon="4.66304">
        <ele>412.5</ele>
        <time>2018-09-09T07:44:09Z</time>
      </trkpt>
      <trkpt lat="45.7697" lon="4.66285">
        <ele>414.9</ele>
        <time>2018-09-09T07:44:15Z</time>
      </trkpt>
      <trkpt lat="45.76968" lon="4.66275">
        <ele>416.1</ele>
        <time>2018-09-09T07:44:18Z</time>
      </trkpt>
      <trkpt lat="45.76965" lon="4.66265">
        <ele>417.9</ele>
        <time>2018-09-09T07:44:21Z</time>
      </trkpt>
      <trkpt lat="45.7696" lon="4.66247">
        <ele>421.4</ele>
        <time>2018-09-09T07:44:26Z</time>
      </trkpt>
      <trkpt lat="45.76959" lon="4.66244">
        <ele>422.2</ele>
        <time>2018-09-09T07:44:27Z</time>
      </trkpt>
      <trkpt lat="45.76955" lon="4.66233">
        <ele>424</ele>
        <time>2018-09-09T07:44:30Z</time>
      </trkpt>
      <trkpt lat="45.76947" lon="4.66217">
        <ele>424</ele>
        <time>2018-09-09T07:44:36Z</time>
      </trkpt>
      <trkpt lat="45.76946" lon="4.66216">
        <ele>424</ele>
        <time>2018-09-09T07:44:37Z</time>
      </trkpt>
      <trkpt lat="45.76942" lon="4.66212">
        <ele>424</ele>
        <time>2018-09-09T07:44:41Z</time>
      </trkpt>
      <trkpt lat="45.76938" lon="4.66204">
        <ele>424</ele>
        <time>2018-09-09T07:44:47Z</time>
      </trkpt>
      <trkpt lat="45.76937" lon="4.66202">
        <ele>424</ele>
        <time>2018-09-09T07:44:48Z</time>
      </trkpt>
      <trkpt lat="45.76927" lon="4.66187">
        <ele>424.6</ele>
        <time>2018-09-09T07:44:54Z</time>
      </trkpt>
      <trkpt lat="45.7691" lon="4.66173">
        <ele>425.9</ele>
        <time>2018-09-09T07:45:01Z</time>
      </trkpt>
      <trkpt lat="45.76905" lon="4.6617">
        <ele>426.4</ele>
        <time>2018-09-09T07:45:03Z</time>
      </trkpt>
      <trkpt lat="45.76892" lon="4.66166">
        <ele>427.5</ele>
        <time>2018-09-09T07:45:08Z</time>
      </trkpt>
      <trkpt lat="45.76883" lon="4.66166">
        <ele>428</ele>
        <time>2018-09-09T07:45:11Z</time>
      </trkpt>
      <trkpt lat="45.76875" lon="4.66169">
        <ele>428.7</ele>
        <time>2018-09-09T07:45:14Z</time>
      </trkpt>
      <trkpt lat="45.76864" lon="4.66175">
        <ele>429.7</ele>
        <time>2018-09-09T07:45:18Z</time>
      </trkpt>
      <trkpt lat="45.76855" lon="4.6618">
        <ele>430.5</ele>
        <time>2018-09-09T07:45:21Z</time>
      </trkpt>
      <trkpt lat="45.76842" lon="4.66188">
        <ele>430.9</ele>
        <time>2018-09-09T07:45:26Z</time>
      </trkpt>
      <trkpt lat="45.76829" lon="4.66197">
        <ele>430.7</ele>
        <time>2018-09-09T07:45:30Z</time>
      </trkpt>
      <trkpt lat="45.7682" lon="4.662">
        <ele>430.6</ele>
        <time>2018-09-09T07:45:32Z</time>
      </trkpt>
      <trkpt lat="45.76805" lon="4.66205">
        <ele>430.4</ele>
        <time>2018-09-09T07:45:35Z</time>
      </trkpt>
      <trkpt lat="45.76791" lon="4.66208">
        <ele>430.1</ele>
        <time>2018-09-09T07:45:38Z</time>
      </trkpt>
      <trkpt lat="45.76754" lon="4.66219">
        <ele>429.5</ele>
        <time>2018-09-09T07:45:45Z</time>
      </trkpt>
      <trkpt lat="45.76748" lon="4.66219">
        <ele>429.2</ele>
        <time>2018-09-09T07:45:46Z</time>
      </trkpt>
      <trkpt lat="45.76731" lon="4.66208">
        <ele>428.1</ele>
        <time>2018-09-09T07:45:49Z</time>
      </trkpt>
      <trkpt lat="45.76722" lon="4.66198">
        <ele>427.5</ele>
        <time>2018-09-09T07:45:51Z</time>
      </trkpt>
      <trkpt lat="45.76714" lon="4.66185">
        <ele>427.1</ele>
        <time>2018-09-09T07:45:53Z</time>
      </trkpt>
      <trkpt lat="45.7671" lon="4.66178">
        <ele>427</ele>
        <time>2018-09-09T07:45:54Z</time>
      </trkpt>
      <trkpt lat="45.76678" lon="4.6612">
        <ele>426</ele>
        <time>2018-09-09T07:46:03Z</time>
      </trkpt>
      <trkpt lat="45.76654" lon="4.66103">
        <ele>426</ele>
        <time>2018-09-09T07:46:08Z</time>
      </trkpt>
      <trkpt lat="45.76649" lon="4.66101">
        <ele>426</ele>
        <time>2018-09-09T07:46:09Z</time>
      </trkpt>
      <trkpt lat="45.76621" lon="4.66093">
        <ele>426.2</ele>
        <time>2018-09-09T07:46:15Z</time>
      </trkpt>
      <trkpt lat="45.76598" lon="4.66094">
        <ele>426.5</ele>
        <time>2018-09-09T07:46:19Z</time>
      </trkpt>
      <trkpt lat="45.76592" lon="4.66096">
        <ele>426.6</ele>
        <time>2018-09-09T07:46:20Z</time>
      </trkpt>
      <trkpt lat="45.76555" lon="4.66113">
        <ele>426.8</ele>
        <time>2018-09-09T07:46:27Z</time>
      </trkpt>
      <trkpt lat="45.7655" lon="4.66115">
        <ele>426.7</ele>
        <time>2018-09-09T07:46:28Z</time>
      </trkpt>
      <trkpt lat="45.76538" lon="4.66118">
        <ele>427</ele>
        <time>2018-09-09T07:46:31Z</time>
      </trkpt>
      <trkpt lat="45.7653" lon="4.66116">
        <ele>427.2</ele>
        <time>2018-09-09T07:46:33Z</time>
      </trkpt>
      <trkpt lat="45.76526" lon="4.66114">
        <ele>427.1</ele>
        <time>2018-09-09T07:46:34Z</time>
      </trkpt>
      <trkpt lat="45.76513" lon="4.66111">
        <ele>427.1</ele>
        <time>2018-09-09T07:46:37Z</time>
      </trkpt>
      <trkpt lat="45.76508" lon="4.66111">
        <ele>427</ele>
        <time>2018-09-09T07:46:38Z</time>
      </trkpt>
      <trkpt lat="45.765" lon="4.66102">
        <ele>427</ele>
        <time>2018-09-09T07:46:42Z</time>
      </trkpt>
      <trkpt lat="45.76493" lon="4.66086">
        <ele>429.3</ele>
        <time>2018-09-09T07:46:47Z</time>
      </trkpt>
      <trkpt lat="45.76489" lon="4.66075">
        <ele>430.6</ele>
        <time>2018-09-09T07:46:52Z</time>
      </trkpt>
      <trkpt lat="45.76486" lon="4.66073">
        <ele>430.3</ele>
        <time>2018-09-09T07:46:53Z</time>
      </trkpt>
      <trkpt lat="45.76483" lon="4.66071">
        <ele>430</ele>
        <time>2018-09-09T07:46:58Z</time>
      </trkpt>
      <trkpt lat="45.7648" lon="4.66069">
        <ele>429.7</ele>
        <time>2018-09-09T07:46:59Z</time>
      </trkpt>
      <trkpt lat="45.76446" lon="4.66054">
        <ele>428</ele>
        <time>2018-09-09T07:47:05Z</time>
      </trkpt>
      <trkpt lat="45.76403" lon="4.66035">
        <ele>427</ele>
        <time>2018-09-09T07:47:12Z</time>
      </trkpt>
      <trkpt lat="45.76398" lon="4.66031">
        <ele>426.9</ele>
        <time>2018-09-09T07:47:13Z</time>
      </trkpt>
      <trkpt lat="45.76382" lon="4.6602">
        <ele>426.2</ele>
        <time>2018-09-09T07:47:16Z</time>
      </trkpt>
      <trkpt lat="45.76373" lon="4.66013">
        <ele>425.6</ele>
        <time>2018-09-09T07:47:18Z</time>
      </trkpt>
      <trkpt lat="45.76356" lon="4.66002">
        <ele>424.6</ele>
        <time>2018-09-09T07:47:22Z</time>
      </trkpt>
      <trkpt lat="45.76336" lon="4.6599">
        <ele>423</ele>
        <time>2018-09-09T07:47:27Z</time>
      </trkpt>
      <trkpt lat="45.76326" lon="4.65984">
        <ele>422.2</ele>
        <time>2018-09-09T07:47:30Z</time>
      </trkpt>
      <trkpt lat="45.76307" lon="4.65972">
        <ele>423.3</ele>
        <time>2018-09-09T07:47:36Z</time>
      </trkpt>
      <trkpt lat="45.76304" lon="4.65968">
        <ele>423.6</ele>
        <time>2018-09-09T07:47:37Z</time>
      </trkpt>
      <trkpt lat="45.76291" lon="4.65949">
        <ele>424.4</ele>
        <time>2018-09-09T07:47:41Z</time>
      </trkpt>
      <trkpt lat="45.76287" lon="4.65943">
        <ele>424.7</ele>
        <time>2018-09-09T07:47:42Z</time>
      </trkpt>
      <trkpt lat="45.76275" lon="4.65924">
        <ele>425.4</ele>
        <time>2018-09-09T07:47:45Z</time>
      </trkpt>
      <trkpt lat="45.76263" lon="4.65898">
        <ele>425.1</ele>
        <time>2018-09-09T07:47:48Z</time>
      </trkpt>
      <trkpt lat="45.76259" lon="4.65888">
        <ele>424.4</ele>
        <time>2018-09-09T07:47:49Z</time>
      </trkpt>
      <trkpt lat="45.76242" lon="4.65848">
        <ele>421.5</ele>
        <time>2018-09-09T07:47:53Z</time>
      </trkpt>
      <trkpt lat="45.76238" lon="4.65837">
        <ele>420.7</ele>
        <time>2018-09-09T07:47:54Z</time>
      </trkpt>
      <trkpt lat="45.76231" lon="4.65818">
        <ele>419.1</ele>
        <time>2018-09-09T07:47:56Z</time>
      </trkpt>
      <trkpt lat="45.7622" lon="4.6579">
        <ele>416.9</ele>
        <time>2018-09-09T07:47:59Z</time>
      </trkpt>
      <trkpt lat="45.76212" lon="4.65773">
        <ele>416.3</ele>
        <time>2018-09-09T07:48:01Z</time>
      </trkpt>
      <trkpt lat="45.76207" lon="4.65765">
        <ele>416.6</ele>
        <time>2018-09-09T07:48:02Z</time>
      </trkpt>
      <trkpt lat="45.76202" lon="4.65758">
        <ele>417</ele>
        <time>2018-09-09T07:48:03Z</time>
      </trkpt>
      <trkpt lat="45.76193" lon="4.65743">
        <ele>417.7</ele>
        <time>2018-09-09T07:48:05Z</time>
      </trkpt>
      <trkpt lat="45.76189" lon="4.65735">
        <ele>418</ele>
        <time>2018-09-09T07:48:06Z</time>
      </trkpt>
      <trkpt lat="45.76182" lon="4.6572">
        <ele>418.7</ele>
        <time>2018-09-09T07:48:08Z</time>
      </trkpt>
      <trkpt lat="45.7618" lon="4.65712">
        <ele>419</ele>
        <time>2018-09-09T07:48:09Z</time>
      </trkpt>
      <trkpt lat="45.76178" lon="4.65705">
        <ele>419.3</ele>
        <time>2018-09-09T07:48:10Z</time>
      </trkpt>
      <trkpt lat="45.76175" lon="4.65687">
        <ele>419.9</ele>
        <time>2018-09-09T07:48:13Z</time>
      </trkpt>
      <trkpt lat="45.76174" lon="4.6568">
        <ele>419.8</ele>
        <time>2018-09-09T07:48:14Z</time>
      </trkpt>
      <trkpt lat="45.76164" lon="4.65633">
        <ele>418.1</ele>
        <time>2018-09-09T07:48:21Z</time>
      </trkpt>
      <trkpt lat="45.76158" lon="4.65597">
        <ele>417.4</ele>
        <time>2018-09-09T07:48:26Z</time>
      </trkpt>
      <trkpt lat="45.76156" lon="4.65575">
        <ele>416.9</ele>
        <time>2018-09-09T07:48:29Z</time>
      </trkpt>
      <trkpt lat="45.76154" lon="4.65545">
        <ele>416.2</ele>
        <time>2018-09-09T07:48:33Z</time>
      </trkpt>
      <trkpt lat="45.76154" lon="4.6551">
        <ele>415.2</ele>
        <time>2018-09-09T07:48:38Z</time>
      </trkpt>
      <trkpt lat="45.76156" lon="4.65503">
        <ele>415.4</ele>
        <time>2018-09-09T07:48:39Z</time>
      </trkpt>
      <trkpt lat="45.76162" lon="4.65482">
        <ele>416.9</ele>
        <time>2018-09-09T07:48:42Z</time>
      </trkpt>
      <trkpt lat="45.76172" lon="4.65466">
        <ele>418.6</ele>
        <time>2018-09-09T07:48:45Z</time>
      </trkpt>
      <trkpt lat="45.76175" lon="4.65462">
        <ele>419.3</ele>
        <time>2018-09-09T07:48:46Z</time>
      </trkpt>
      <trkpt lat="45.76179" lon="4.65458">
        <ele>420</ele>
        <time>2018-09-09T07:48:47Z</time>
      </trkpt>
      <trkpt lat="45.76199" lon="4.6544">
        <ele>424.4</ele>
        <time>2018-09-09T07:48:53Z</time>
      </trkpt>
      <trkpt lat="45.76211" lon="4.65432">
        <ele>426.2</ele>
        <time>2018-09-09T07:48:57Z</time>
      </trkpt>
      <trkpt lat="45.7622" lon="4.65428">
        <ele>427.3</ele>
        <time>2018-09-09T07:49:00Z</time>
      </trkpt>
      <trkpt lat="45.76223" lon="4.65427">
        <ele>427.7</ele>
        <time>2018-09-09T07:49:01Z</time>
      </trkpt>
      <trkpt lat="45.76235" lon="4.65424">
        <ele>429.4</ele>
        <time>2018-09-09T07:49:05Z</time>
      </trkpt>
      <trkpt lat="45.76241" lon="4.65423">
        <ele>429.8</ele>
        <time>2018-09-09T07:49:07Z</time>
      </trkpt>
      <trkpt lat="45.76249" lon="4.6542">
        <ele>430.4</ele>
        <time>2018-09-09T07:49:10Z</time>
      </trkpt>
      <trkpt lat="45.76256" lon="4.65414">
        <ele>430.8</ele>
        <time>2018-09-09T07:49:14Z</time>
      </trkpt>
      <trkpt lat="45.76267" lon="4.65399">
        <ele>431.3</ele>
        <time>2018-09-09T07:49:19Z</time>
      </trkpt>
      <trkpt lat="45.76269" lon="4.65394">
        <ele>431.4</ele>
        <time>2018-09-09T07:49:20Z</time>
      </trkpt>
      <trkpt lat="45.76274" lon="4.65381">
        <ele>431.4</ele>
        <time>2018-09-09T07:49:22Z</time>
      </trkpt>
      <trkpt lat="45.76277" lon="4.65375">
        <ele>431.4</ele>
        <time>2018-09-09T07:49:23Z</time>
      </trkpt>
      <trkpt lat="45.76289" lon="4.65354">
        <ele>431.3</ele>
        <time>2018-09-09T07:49:26Z</time>
      </trkpt>
      <trkpt lat="45.76301" lon="4.65337">
        <ele>431.1</ele>
        <time>2018-09-09T07:49:29Z</time>
      </trkpt>
      <trkpt lat="45.76306" lon="4.65329">
        <ele>431</ele>
        <time>2018-09-09T07:49:31Z</time>
      </trkpt>
      <trkpt lat="45.76307" lon="4.65327">
        <ele>431</ele>
        <time>2018-09-09T07:49:32Z</time>
      </trkpt>
      <trkpt lat="45.76307" lon="4.65321">
        <ele>431</ele>
        <time>2018-09-09T07:49:34Z</time>
      </trkpt>
      <trkpt lat="45.76306" lon="4.65316">
        <ele>431</ele>
        <time>2018-09-09T07:49:36Z</time>
      </trkpt>
      <trkpt lat="45.76304" lon="4.65312">
        <ele>431</ele>
        <time>2018-09-09T07:49:37Z</time>
      </trkpt>
      <trkpt lat="45.76299" lon="4.65302">
        <ele>431.1</ele>
        <time>2018-09-09T07:49:39Z</time>
      </trkpt>
      <trkpt lat="45.76291" lon="4.6529">
        <ele>431.1</ele>
        <time>2018-09-09T07:49:41Z</time>
      </trkpt>
      <trkpt lat="45.76282" lon="4.65278">
        <ele>431.2</ele>
        <time>2018-09-09T07:49:43Z</time>
      </trkpt>
      <trkpt lat="45.76257" lon="4.65248">
        <ele>431.5</ele>
        <time>2018-09-09T07:49:49Z</time>
      </trkpt>
      <trkpt lat="45.76254" lon="4.65247">
        <ele>431.6</ele>
        <time>2018-09-09T07:49:50Z</time>
      </trkpt>
      <trkpt lat="45.7624" lon="4.65246">
        <ele>432</ele>
        <time>2018-09-09T07:49:55Z</time>
      </trkpt>
      <trkpt lat="45.76219" lon="4.65258">
        <ele>432.7</ele>
        <time>2018-09-09T07:50:00Z</time>
      </trkpt>
      <trkpt lat="45.76214" lon="4.65261">
        <ele>433</ele>
        <time>2018-09-09T07:50:01Z</time>
      </trkpt>
      <trkpt lat="45.76185" lon="4.65274">
        <ele>434.3</ele>
        <time>2018-09-09T07:50:07Z</time>
      </trkpt>
      <trkpt lat="45.7616" lon="4.65288">
        <ele>435.9</ele>
        <time>2018-09-09T07:50:13Z</time>
      </trkpt>
      <trkpt lat="45.76149" lon="4.65294">
        <ele>436.8</ele>
        <time>2018-09-09T07:50:16Z</time>
      </trkpt>
      <trkpt lat="45.76137" lon="4.65297">
        <ele>437.8</ele>
        <time>2018-09-09T07:50:19Z</time>
      </trkpt>
      <trkpt lat="45.76134" lon="4.65298">
        <ele>438.1</ele>
        <time>2018-09-09T07:50:20Z</time>
      </trkpt>
      <trkpt lat="45.76127" lon="4.65299">
        <ele>438.7</ele>
        <time>2018-09-09T07:50:22Z</time>
      </trkpt>
      <trkpt lat="45.76115" lon="4.65297">
        <ele>439.8</ele>
        <time>2018-09-09T07:50:26Z</time>
      </trkpt>
      <trkpt lat="45.76102" lon="4.65289">
        <ele>441.2</ele>
        <time>2018-09-09T07:50:31Z</time>
      </trkpt>
      <trkpt lat="45.761" lon="4.65288">
        <ele>441.5</ele>
        <time>2018-09-09T07:50:32Z</time>
      </trkpt>
      <trkpt lat="45.7609" lon="4.6528">
        <ele>443</ele>
        <time>2018-09-09T07:50:36Z</time>
      </trkpt>
      <trkpt lat="45.76086" lon="4.65275">
        <ele>443.7</ele>
        <time>2018-09-09T07:50:38Z</time>
      </trkpt>
      <trkpt lat="45.76082" lon="4.6527">
        <ele>444.1</ele>
        <time>2018-09-09T07:50:40Z</time>
      </trkpt>
      <trkpt lat="45.76081" lon="4.65268">
        <ele>444.2</ele>
        <time>2018-09-09T07:50:41Z</time>
      </trkpt>
      <trkpt lat="45.76078" lon="4.65262">
        <ele>444.6</ele>
        <time>2018-09-09T07:50:43Z</time>
      </trkpt>
      <trkpt lat="45.76074" lon="4.65253">
        <ele>445.2</ele>
        <time>2018-09-09T07:50:46Z</time>
      </trkpt>
      <trkpt lat="45.76073" lon="4.6525">
        <ele>445.4</ele>
        <time>2018-09-09T07:50:47Z</time>
      </trkpt>
      <trkpt lat="45.76072" lon="4.65247">
        <ele>445.6</ele>
        <time>2018-09-09T07:50:48Z</time>
      </trkpt>
      <trkpt lat="45.76071" lon="4.6524">
        <ele>445.9</ele>
        <time>2018-09-09T07:50:50Z</time>
      </trkpt>
      <trkpt lat="45.76069" lon="4.65223">
        <ele>446.9</ele>
        <time>2018-09-09T07:50:55Z</time>
      </trkpt>
      <trkpt lat="45.76068" lon="4.6522">
        <ele>447</ele>
        <time>2018-09-09T07:50:56Z</time>
      </trkpt>
      <trkpt lat="45.76065" lon="4.65208">
        <ele>447.7</ele>
        <time>2018-09-09T07:51:00Z</time>
      </trkpt>
      <trkpt lat="45.76064" lon="4.65198">
        <ele>448.1</ele>
        <time>2018-09-09T07:51:03Z</time>
      </trkpt>
      <trkpt lat="45.76063" lon="4.65192">
        <ele>448.3</ele>
        <time>2018-09-09T07:51:05Z</time>
      </trkpt>
      <trkpt lat="45.7606" lon="4.65176">
        <ele>448.9</ele>
        <time>2018-09-09T07:51:10Z</time>
      </trkpt>
      <trkpt lat="45.7606" lon="4.65173">
        <ele>449</ele>
        <time>2018-09-09T07:51:11Z</time>
      </trkpt>
      <trkpt lat="45.7606" lon="4.65147">
        <ele>449.9</ele>
        <time>2018-09-09T07:51:18Z</time>
      </trkpt>
      <trkpt lat="45.76057" lon="4.65127">
        <ele>450.9</ele>
        <time>2018-09-09T07:51:24Z</time>
      </trkpt>
      <trkpt lat="45.76057" lon="4.65111">
        <ele>452</ele>
        <time>2018-09-09T07:51:31Z</time>
      </trkpt>
      <trkpt lat="45.7606" lon="4.65102">
        <ele>452.6</ele>
        <time>2018-09-09T07:51:36Z</time>
      </trkpt>
      <trkpt lat="45.7606" lon="4.651">
        <ele>452.7</ele>
        <time>2018-09-09T07:51:37Z</time>
      </trkpt>
      <trkpt lat="45.76062" lon="4.65084">
        <ele>453.8</ele>
        <time>2018-09-09T07:51:43Z</time>
      </trkpt>
      <trkpt lat="45.76067" lon="4.65064">
        <ele>455.5</ele>
        <time>2018-09-09T07:51:50Z</time>
      </trkpt>
      <trkpt lat="45.76068" lon="4.65062">
        <ele>455.7</ele>
        <time>2018-09-09T07:51:51Z</time>
      </trkpt>
      <trkpt lat="45.7607" lon="4.65055">
        <ele>456.3</ele>
        <time>2018-09-09T07:51:54Z</time>
      </trkpt>
      <trkpt lat="45.76072" lon="4.65051">
        <ele>456.7</ele>
        <time>2018-09-09T07:51:56Z</time>
      </trkpt>
      <trkpt lat="45.76073" lon="4.65048">
        <ele>457</ele>
        <time>2018-09-09T07:51:57Z</time>
      </trkpt>
      <trkpt lat="45.76076" lon="4.65033">
        <ele>458.1</ele>
        <time>2018-09-09T07:52:02Z</time>
      </trkpt>
      <trkpt lat="45.76077" lon="4.65028">
        <ele>458.5</ele>
        <time>2018-09-09T07:52:04Z</time>
      </trkpt>
      <trkpt lat="45.76078" lon="4.65019">
        <ele>459</ele>
        <time>2018-09-09T07:52:07Z</time>
      </trkpt>
      <trkpt lat="45.7608" lon="4.65001">
        <ele>460.1</ele>
        <time>2018-09-09T07:52:13Z</time>
      </trkpt>
      <trkpt lat="45.7608" lon="4.64985">
        <ele>460.7</ele>
        <time>2018-09-09T07:52:18Z</time>
      </trkpt>
      <trkpt lat="45.7608" lon="4.6497">
        <ele>461.3</ele>
        <time>2018-09-09T07:52:23Z</time>
      </trkpt>
      <trkpt lat="45.76079" lon="4.64961">
        <ele>461.6</ele>
        <time>2018-09-09T07:52:26Z</time>
      </trkpt>
      <trkpt lat="45.76078" lon="4.64945">
        <ele>462.2</ele>
        <time>2018-09-09T07:52:30Z</time>
      </trkpt>
      <trkpt lat="45.76073" lon="4.64913">
        <ele>463.1</ele>
        <time>2018-09-09T07:52:38Z</time>
      </trkpt>
      <trkpt lat="45.76066" lon="4.64878">
        <ele>464</ele>
        <time>2018-09-09T07:52:47Z</time>
      </trkpt>
      <trkpt lat="45.76058" lon="4.64844">
        <ele>465.1</ele>
        <time>2018-09-09T07:52:55Z</time>
      </trkpt>
      <trkpt lat="45.76048" lon="4.64811">
        <ele>466.3</ele>
        <time>2018-09-09T07:53:03Z</time>
      </trkpt>
      <trkpt lat="45.76047" lon="4.64808">
        <ele>466.4</ele>
        <time>2018-09-09T07:53:04Z</time>
      </trkpt>
      <trkpt lat="45.76044" lon="4.64799">
        <ele>466.9</ele>
        <time>2018-09-09T07:53:08Z</time>
      </trkpt>
      <trkpt lat="45.76042" lon="4.64791">
        <ele>467.3</ele>
        <time>2018-09-09T07:53:11Z</time>
      </trkpt>
      <trkpt lat="45.76041" lon="4.64789">
        <ele>467.5</ele>
        <time>2018-09-09T07:53:12Z</time>
      </trkpt>
      <trkpt lat="45.7604" lon="4.64778">
        <ele>468.1</ele>
        <time>2018-09-09T07:53:16Z</time>
      </trkpt>
      <trkpt lat="45.7604" lon="4.64777">
        <ele>468.2</ele>
        <time>2018-09-09T07:53:17Z</time>
      </trkpt>
      <trkpt lat="45.76037" lon="4.64768">
        <ele>468.7</ele>
        <time>2018-09-09T07:53:19Z</time>
      </trkpt>
      <trkpt lat="45.76033" lon="4.64758">
        <ele>469.4</ele>
        <time>2018-09-09T07:53:22Z</time>
      </trkpt>
      <trkpt lat="45.76031" lon="4.64752">
        <ele>469.8</ele>
        <time>2018-09-09T07:53:24Z</time>
      </trkpt>
      <trkpt lat="45.7603" lon="4.64747">
        <ele>470.1</ele>
        <time>2018-09-09T07:53:26Z</time>
      </trkpt>
      <trkpt lat="45.76029" lon="4.64743">
        <ele>470.4</ele>
        <time>2018-09-09T07:53:28Z</time>
      </trkpt>
      <trkpt lat="45.76027" lon="4.64738">
        <ele>470.7</ele>
        <time>2018-09-09T07:53:30Z</time>
      </trkpt>
      <trkpt lat="45.76025" lon="4.64734">
        <ele>471.1</ele>
        <time>2018-09-09T07:53:32Z</time>
      </trkpt>
      <trkpt lat="45.76023" lon="4.6473">
        <ele>471.3</ele>
        <time>2018-09-09T07:53:33Z</time>
      </trkpt>
      <trkpt lat="45.76009" lon="4.64709">
        <ele>473.7</ele>
        <time>2018-09-09T07:54:02Z</time>
      </trkpt>
      <trkpt lat="45.75997" lon="4.64698">
        <ele>475.5</ele>
        <time>2018-09-09T07:54:06Z</time>
      </trkpt>
      <trkpt lat="45.75989" lon="4.64695">
        <ele>476.7</ele>
        <time>2018-09-09T07:54:11Z</time>
      </trkpt>
      <trkpt lat="45.75985" lon="4.64697">
        <ele>477.4</ele>
        <time>2018-09-09T07:54:13Z</time>
      </trkpt>
      <trkpt lat="45.75979" lon="4.64707">
        <ele>478.9</ele>
        <time>2018-09-09T07:54:16Z</time>
      </trkpt>
      <trkpt lat="45.75978" lon="4.6471">
        <ele>480</ele>
        <time>2018-09-09T07:54:17Z</time>
      </trkpt>
      <trkpt lat="45.75969" lon="4.64739">
        <ele>481.1</ele>
        <time>2018-09-09T07:54:27Z</time>
      </trkpt>
      <trkpt lat="45.75948" lon="4.64758">
        <ele>480.5</ele>
        <time>2018-09-09T07:54:46Z</time>
      </trkpt>
      <trkpt lat="45.75949" lon="4.64762">
        <ele>480.4</ele>
        <time>2018-09-09T07:54:47Z</time>
      </trkpt>
      <trkpt lat="45.75953" lon="4.64785">
        <ele>479</ele>
        <time>2018-09-09T07:54:53Z</time>
      </trkpt>
      <trkpt lat="45.7596" lon="4.64823">
        <ele>476.6</ele>
        <time>2018-09-09T07:55:00Z</time>
      </trkpt>
      <trkpt lat="45.75964" lon="4.64859">
        <ele>474.6</ele>
        <time>2018-09-09T07:55:06Z</time>
      </trkpt>
      <trkpt lat="45.75972" lon="4.6491">
        <ele>473.2</ele>
        <time>2018-09-09T07:55:15Z</time>
      </trkpt>
      <trkpt lat="45.75972" lon="4.64915">
        <ele>473.1</ele>
        <time>2018-09-09T07:55:16Z</time>
      </trkpt>
      <trkpt lat="45.75962" lon="4.64958">
        <ele>471.7</ele>
        <time>2018-09-09T07:55:25Z</time>
      </trkpt>
      <trkpt lat="45.75935" lon="4.64979">
        <ele>470.3</ele>
        <time>2018-09-09T07:55:32Z</time>
      </trkpt>
      <trkpt lat="45.75929" lon="4.6498">
        <ele>470</ele>
        <time>2018-09-09T07:55:33Z</time>
      </trkpt>
      <trkpt lat="45.75906" lon="4.64981">
        <ele>468.9</ele>
        <time>2018-09-09T07:55:39Z</time>
      </trkpt>
      <trkpt lat="45.75897" lon="4.64978">
        <ele>468.4</ele>
        <time>2018-09-09T07:55:43Z</time>
      </trkpt>
      <trkpt lat="45.75895" lon="4.64976">
        <ele>468.4</ele>
        <time>2018-09-09T07:55:45Z</time>
      </trkpt>
      <trkpt lat="45.75894" lon="4.64977">
        <ele>468.3</ele>
        <time>2018-09-09T07:55:54Z</time>
      </trkpt>
      <trkpt lat="45.75892" lon="4.6498">
        <ele>468.3</ele>
        <time>2018-09-09T07:55:55Z</time>
      </trkpt>
      <trkpt lat="45.75878" lon="4.64986">
        <ele>467.9</ele>
        <time>2018-09-09T07:56:00Z</time>
      </trkpt>
      <trkpt lat="45.75874" lon="4.64988">
        <ele>467.8</ele>
        <time>2018-09-09T07:56:02Z</time>
      </trkpt>
      <trkpt lat="45.75861" lon="4.64996">
        <ele>467.8</ele>
        <time>2018-09-09T07:56:06Z</time>
      </trkpt>
      <trkpt lat="45.75858" lon="4.64998">
        <ele>467.8</ele>
        <time>2018-09-09T07:56:07Z</time>
      </trkpt>
      <trkpt lat="45.75847" lon="4.65013">
        <ele>468.2</ele>
        <time>2018-09-09T07:56:15Z</time>
      </trkpt>
      <trkpt lat="45.75842" lon="4.65024">
        <ele>468.4</ele>
        <time>2018-09-09T07:56:20Z</time>
      </trkpt>
      <trkpt lat="45.75841" lon="4.65027">
        <ele>468.5</ele>
        <time>2018-09-09T07:56:21Z</time>
      </trkpt>
      <trkpt lat="45.75834" lon="4.65042">
        <ele>468.8</ele>
        <time>2018-09-09T07:56:28Z</time>
      </trkpt>
      <trkpt lat="45.75826" lon="4.65059">
        <ele>469.2</ele>
        <time>2018-09-09T07:56:34Z</time>
      </trkpt>
      <trkpt lat="45.75824" lon="4.65064">
        <ele>469.3</ele>
        <time>2018-09-09T07:56:36Z</time>
      </trkpt>
      <trkpt lat="45.75819" lon="4.6508">
        <ele>469.5</ele>
        <time>2018-09-09T07:56:42Z</time>
      </trkpt>
      <trkpt lat="45.75809" lon="4.65092">
        <ele>469.7</ele>
        <time>2018-09-09T07:56:48Z</time>
      </trkpt>
      <trkpt lat="45.75807" lon="4.65092">
        <ele>469.7</ele>
        <time>2018-09-09T07:56:49Z</time>
      </trkpt>
      <trkpt lat="45.75797" lon="4.65085">
        <ele>469.8</ele>
        <time>2018-09-09T07:56:55Z</time>
      </trkpt>
      <trkpt lat="45.75795" lon="4.65085">
        <ele>469.9</ele>
        <time>2018-09-09T07:56:56Z</time>
      </trkpt>
      <trkpt lat="45.75784" lon="4.65076">
        <ele>470.1</ele>
        <time>2018-09-09T07:57:02Z</time>
      </trkpt>
      <trkpt lat="45.75778" lon="4.65072">
        <ele>470.2</ele>
        <time>2018-09-09T07:57:05Z</time>
      </trkpt>
      <trkpt lat="45.75769" lon="4.65065">
        <ele>470.4</ele>
        <time>2018-09-09T07:57:10Z</time>
      </trkpt>
      <trkpt lat="45.75765" lon="4.65062">
        <ele>470.6</ele>
        <time>2018-09-09T07:57:12Z</time>
      </trkpt>
      <trkpt lat="45.75758" lon="4.65057">
        <ele>470.8</ele>
        <time>2018-09-09T07:57:16Z</time>
      </trkpt>
      <trkpt lat="45.75757" lon="4.65055">
        <ele>470.8</ele>
        <time>2018-09-09T07:57:17Z</time>
      </trkpt>
      <trkpt lat="45.75757" lon="4.65049">
        <ele>470.9</ele>
        <time>2018-09-09T07:57:19Z</time>
      </trkpt>
      <trkpt lat="45.75758" lon="4.65042">
        <ele>471.4</ele>
        <time>2018-09-09T07:57:21Z</time>
      </trkpt>
      <trkpt lat="45.7576" lon="4.65026">
        <ele>472.3</ele>
        <time>2018-09-09T07:57:26Z</time>
      </trkpt>
      <trkpt lat="45.75761" lon="4.6502">
        <ele>472.7</ele>
        <time>2018-09-09T07:57:28Z</time>
      </trkpt>
      <trkpt lat="45.75765" lon="4.64998">
        <ele>474.2</ele>
        <time>2018-09-09T07:57:35Z</time>
      </trkpt>
      <trkpt lat="45.75769" lon="4.64973">
        <ele>477.1</ele>
        <time>2018-09-09T07:57:43Z</time>
      </trkpt>
      <trkpt lat="45.7577" lon="4.64962">
        <ele>478.4</ele>
        <time>2018-09-09T07:57:47Z</time>
      </trkpt>
      <trkpt lat="45.75772" lon="4.64955">
        <ele>479.4</ele>
        <time>2018-09-09T07:57:50Z</time>
      </trkpt>
      <trkpt lat="45.75776" lon="4.64942">
        <ele>481.9</ele>
        <time>2018-09-09T07:57:56Z</time>
      </trkpt>
      <trkpt lat="45.75778" lon="4.64937">
        <ele>483.2</ele>
        <time>2018-09-09T07:57:59Z</time>
      </trkpt>
      <trkpt lat="45.75783" lon="4.64931">
        <ele>484.7</ele>
        <time>2018-09-09T07:58:03Z</time>
      </trkpt>
      <trkpt lat="45.75788" lon="4.64927">
        <ele>486.1</ele>
        <time>2018-09-09T07:58:07Z</time>
      </trkpt>
      <trkpt lat="45.75796" lon="4.64922">
        <ele>488</ele>
        <time>2018-09-09T07:58:13Z</time>
      </trkpt>
      <trkpt lat="45.75798" lon="4.6492">
        <ele>488.7</ele>
        <time>2018-09-09T07:58:15Z</time>
      </trkpt>
      <trkpt lat="45.75807" lon="4.64915">
        <ele>492</ele>
        <time>2018-09-09T07:58:22Z</time>
      </trkpt>
      <trkpt lat="45.75809" lon="4.64914">
        <ele>491.8</ele>
        <time>2018-09-09T07:58:23Z</time>
      </trkpt>
      <trkpt lat="45.75813" lon="4.6491">
        <ele>490.5</ele>
        <time>2018-09-09T07:58:27Z</time>
      </trkpt>
      <trkpt lat="45.75817" lon="4.64908">
        <ele>489.6</ele>
        <time>2018-09-09T07:58:29Z</time>
      </trkpt>
      <trkpt lat="45.75829" lon="4.64906">
        <ele>488.6</ele>
        <time>2018-09-09T07:58:37Z</time>
      </trkpt>
      <trkpt lat="45.7584" lon="4.649">
        <ele>488.2</ele>
        <time>2018-09-09T07:58:43Z</time>
      </trkpt>
      <trkpt lat="45.75855" lon="4.64891">
        <ele>487.6</ele>
        <time>2018-09-09T07:58:51Z</time>
      </trkpt>
      <trkpt lat="45.75865" lon="4.64878">
        <ele>487</ele>
        <time>2018-09-09T07:58:57Z</time>
      </trkpt>
      <trkpt lat="45.75866" lon="4.64876">
        <ele>487</ele>
        <time>2018-09-09T07:58:58Z</time>
      </trkpt>
      <trkpt lat="45.75871" lon="4.64871">
        <ele>486.8</ele>
        <time>2018-09-09T07:59:01Z</time>
      </trkpt>
      <trkpt lat="45.75872" lon="4.64869">
        <ele>486.7</ele>
        <time>2018-09-09T07:59:02Z</time>
      </trkpt>
      <trkpt lat="45.75873" lon="4.64867">
        <ele>486.6</ele>
        <time>2018-09-09T07:59:03Z</time>
      </trkpt>
      <trkpt lat="45.75877" lon="4.64854">
        <ele>486.2</ele>
        <time>2018-09-09T07:59:08Z</time>
      </trkpt>
      <trkpt lat="45.75879" lon="4.64852">
        <ele>486.1</ele>
        <time>2018-09-09T07:59:09Z</time>
      </trkpt>
      <trkpt lat="45.75883" lon="4.64841">
        <ele>485.8</ele>
        <time>2018-09-09T07:59:14Z</time>
      </trkpt>
      <trkpt lat="45.75884" lon="4.64836">
        <ele>485.6</ele>
        <time>2018-09-09T07:59:16Z</time>
      </trkpt>
      <trkpt lat="45.75884" lon="4.64827">
        <ele>485.4</ele>
        <time>2018-09-09T07:59:25Z</time>
      </trkpt>
      <trkpt lat="45.75883" lon="4.64831">
        <ele>485.5</ele>
        <time>2018-09-09T07:59:27Z</time>
      </trkpt>
      <trkpt lat="45.75882" lon="4.64834">
        <ele>485.6</ele>
        <time>2018-09-09T07:59:29Z</time>
      </trkpt>
      <trkpt lat="45.75877" lon="4.64839">
        <ele>485.9</ele>
        <time>2018-09-09T07:59:33Z</time>
      </trkpt>
      <trkpt lat="45.75868" lon="4.64846">
        <ele>486.3</ele>
        <time>2018-09-09T07:59:39Z</time>
      </trkpt>
      <trkpt lat="45.75863" lon="4.6485">
        <ele>486.6</ele>
        <time>2018-09-09T07:59:43Z</time>
      </trkpt>
      <trkpt lat="45.75859" lon="4.64851">
        <ele>486.8</ele>
        <time>2018-09-09T07:59:45Z</time>
      </trkpt>
      <trkpt lat="45.75857" lon="4.64852">
        <ele>486.9</ele>
        <time>2018-09-09T07:59:46Z</time>
      </trkpt>
      <trkpt lat="45.75853" lon="4.64855">
        <ele>487.1</ele>
        <time>2018-09-09T07:59:48Z</time>
      </trkpt>
      <trkpt lat="45.75846" lon="4.6486">
        <ele>487.4</ele>
        <time>2018-09-09T07:59:51Z</time>
      </trkpt>
      <trkpt lat="45.75828" lon="4.64869">
        <ele>488.3</ele>
        <time>2018-09-09T07:59:57Z</time>
      </trkpt>
      <trkpt lat="45.75805" lon="4.64876">
        <ele>491.1</ele>
        <time>2018-09-09T08:00:03Z</time>
      </trkpt>
      <trkpt lat="45.75798" lon="4.64875">
        <ele>492.9</ele>
        <time>2018-09-09T08:00:06Z</time>
      </trkpt>
      <trkpt lat="45.75797" lon="4.64874">
        <ele>493.1</ele>
        <time>2018-09-09T08:00:07Z</time>
      </trkpt>
      <trkpt lat="45.75795" lon="4.64869">
        <ele>493.5</ele>
        <time>2018-09-09T08:00:10Z</time>
      </trkpt>
      <trkpt lat="45.75793" lon="4.64864">
        <ele>494</ele>
        <time>2018-09-09T08:00:13Z</time>
      </trkpt>
      <trkpt lat="45.75792" lon="4.64863">
        <ele>494.2</ele>
        <time>2018-09-09T08:00:14Z</time>
      </trkpt>
      <trkpt lat="45.75792" lon="4.64861">
        <ele>494.3</ele>
        <time>2018-09-09T08:00:15Z</time>
      </trkpt>
      <trkpt lat="45.75788" lon="4.64854">
        <ele>495.1</ele>
        <time>2018-09-09T08:00:19Z</time>
      </trkpt>
      <trkpt lat="45.75787" lon="4.64853">
        <ele>495.3</ele>
        <time>2018-09-09T08:00:20Z</time>
      </trkpt>
      <trkpt lat="45.75782" lon="4.64845">
        <ele>496.1</ele>
        <time>2018-09-09T08:00:24Z</time>
      </trkpt>
      <trkpt lat="45.75779" lon="4.64837">
        <ele>497</ele>
        <time>2018-09-09T08:00:28Z</time>
      </trkpt>
      <trkpt lat="45.75776" lon="4.64831">
        <ele>497.5</ele>
        <time>2018-09-09T08:00:31Z</time>
      </trkpt>
      <trkpt lat="45.75773" lon="4.64825">
        <ele>498.1</ele>
        <time>2018-09-09T08:00:35Z</time>
      </trkpt>
      <trkpt lat="45.75772" lon="4.64823">
        <ele>498.3</ele>
        <time>2018-09-09T08:00:36Z</time>
      </trkpt>
      <trkpt lat="45.75768" lon="4.64816">
        <ele>498.9</ele>
        <time>2018-09-09T08:00:40Z</time>
      </trkpt>
      <trkpt lat="45.75763" lon="4.64809">
        <ele>499.5</ele>
        <time>2018-09-09T08:00:44Z</time>
      </trkpt>
      <trkpt lat="45.7576" lon="4.64802">
        <ele>500</ele>
        <time>2018-09-09T08:00:48Z</time>
      </trkpt>
      <trkpt lat="45.75758" lon="4.64796">
        <ele>500.3</ele>
        <time>2018-09-09T08:00:51Z</time>
      </trkpt>
      <trkpt lat="45.7575" lon="4.64789">
        <ele>501</ele>
        <time>2018-09-09T08:00:58Z</time>
      </trkpt>
      <trkpt lat="45.75749" lon="4.64787">
        <ele>501</ele>
        <time>2018-09-09T08:00:59Z</time>
      </trkpt>
      <trkpt lat="45.75747" lon="4.64783">
        <ele>501.2</ele>
        <time>2018-09-09T08:01:01Z</time>
      </trkpt>
      <trkpt lat="45.75743" lon="4.64776">
        <ele>501.6</ele>
        <time>2018-09-09T08:01:04Z</time>
      </trkpt>
      <trkpt lat="45.75736" lon="4.6476">
        <ele>502.4</ele>
        <time>2018-09-09T08:01:11Z</time>
      </trkpt>
      <trkpt lat="45.75727" lon="4.64744">
        <ele>503.1</ele>
        <time>2018-09-09T08:01:18Z</time>
      </trkpt>
      <trkpt lat="45.75723" lon="4.64739">
        <ele>503.4</ele>
        <time>2018-09-09T08:01:21Z</time>
      </trkpt>
      <trkpt lat="45.75721" lon="4.64734">
        <ele>503.6</ele>
        <time>2018-09-09T08:01:23Z</time>
      </trkpt>
      <trkpt lat="45.75717" lon="4.64714">
        <ele>504.3</ele>
        <time>2018-09-09T08:01:31Z</time>
      </trkpt>
      <trkpt lat="45.75715" lon="4.64697">
        <ele>505</ele>
        <time>2018-09-09T08:01:38Z</time>
      </trkpt>
      <trkpt lat="45.75715" lon="4.6468">
        <ele>505.8</ele>
        <time>2018-09-09T08:01:45Z</time>
      </trkpt>
      <trkpt lat="45.75714" lon="4.64671">
        <ele>506.3</ele>
        <time>2018-09-09T08:01:49Z</time>
      </trkpt>
      <trkpt lat="45.75714" lon="4.64667">
        <ele>506.5</ele>
        <time>2018-09-09T08:01:51Z</time>
      </trkpt>
      <trkpt lat="45.75715" lon="4.64665">
        <ele>506.6</ele>
        <time>2018-09-09T08:01:52Z</time>
      </trkpt>
      <trkpt lat="45.75715" lon="4.64656">
        <ele>507.2</ele>
        <time>2018-09-09T08:01:56Z</time>
      </trkpt>
      <trkpt lat="45.75715" lon="4.64647">
        <ele>507.8</ele>
        <time>2018-09-09T08:02:05Z</time>
      </trkpt>
      <trkpt lat="45.75714" lon="4.64639">
        <ele>508.3</ele>
        <time>2018-09-09T08:02:09Z</time>
      </trkpt>
      <trkpt lat="45.75713" lon="4.64637">
        <ele>508.5</ele>
        <time>2018-09-09T08:02:10Z</time>
      </trkpt>
      <trkpt lat="45.75714" lon="4.64628">
        <ele>509.1</ele>
        <time>2018-09-09T08:02:14Z</time>
      </trkpt>
      <trkpt lat="45.75713" lon="4.64623">
        <ele>509.5</ele>
        <time>2018-09-09T08:02:17Z</time>
      </trkpt>
      <trkpt lat="45.75709" lon="4.64607">
        <ele>510.6</ele>
        <time>2018-09-09T08:02:26Z</time>
      </trkpt>
      <trkpt lat="45.75709" lon="4.64604">
        <ele>511</ele>
        <time>2018-09-09T08:02:27Z</time>
      </trkpt>
      <trkpt lat="45.75707" lon="4.646">
        <ele>511.3</ele>
        <time>2018-09-09T08:02:29Z</time>
      </trkpt>
      <trkpt lat="45.75705" lon="4.64593">
        <ele>511.9</ele>
        <time>2018-09-09T08:02:33Z</time>
      </trkpt>
      <trkpt lat="45.75704" lon="4.64589">
        <ele>512.1</ele>
        <time>2018-09-09T08:02:35Z</time>
      </trkpt>
      <trkpt lat="45.75701" lon="4.64581">
        <ele>512.7</ele>
        <time>2018-09-09T08:02:39Z</time>
      </trkpt>
      <trkpt lat="45.757" lon="4.64576">
        <ele>513</ele>
        <time>2018-09-09T08:02:41Z</time>
      </trkpt>
      <trkpt lat="45.75699" lon="4.64565">
        <ele>513.6</ele>
        <time>2018-09-09T08:02:46Z</time>
      </trkpt>
      <trkpt lat="45.75699" lon="4.6456">
        <ele>513.8</ele>
        <time>2018-09-09T08:02:48Z</time>
      </trkpt>
      <trkpt lat="45.75699" lon="4.64558">
        <ele>513.9</ele>
        <time>2018-09-09T08:02:49Z</time>
      </trkpt>
      <trkpt lat="45.757" lon="4.6455">
        <ele>514.2</ele>
        <time>2018-09-09T08:02:53Z</time>
      </trkpt>
      <trkpt lat="45.75701" lon="4.64538">
        <ele>514.8</ele>
        <time>2018-09-09T08:02:59Z</time>
      </trkpt>
      <trkpt lat="45.757" lon="4.64518">
        <ele>515.3</ele>
        <time>2018-09-09T08:03:06Z</time>
      </trkpt>
      <trkpt lat="45.757" lon="4.64511">
        <ele>515.3</ele>
        <time>2018-09-09T08:03:08Z</time>
      </trkpt>
      <trkpt lat="45.75699" lon="4.64493">
        <ele>515.5</ele>
        <time>2018-09-09T08:03:13Z</time>
      </trkpt>
      <trkpt lat="45.75696" lon="4.64467">
        <ele>515.4</ele>
        <time>2018-09-09T08:03:19Z</time>
      </trkpt>
      <trkpt lat="45.75687" lon="4.64443">
        <ele>515.1</ele>
        <time>2018-09-09T08:03:25Z</time>
      </trkpt>
      <trkpt lat="45.75681" lon="4.64427">
        <ele>514.6</ele>
        <time>2018-09-09T08:03:31Z</time>
      </trkpt>
      <trkpt lat="45.75678" lon="4.64411">
        <ele>514.1</ele>
        <time>2018-09-09T08:03:36Z</time>
      </trkpt>
      <trkpt lat="45.75674" lon="4.64399">
        <ele>513.7</ele>
        <time>2018-09-09T08:03:39Z</time>
      </trkpt>
      <trkpt lat="45.75669" lon="4.64384">
        <ele>513.1</ele>
        <time>2018-09-09T08:03:43Z</time>
      </trkpt>
      <trkpt lat="45.75664" lon="4.64358">
        <ele>512.1</ele>
        <time>2018-09-09T08:03:49Z</time>
      </trkpt>
      <trkpt lat="45.75661" lon="4.64347">
        <ele>511.6</ele>
        <time>2018-09-09T08:03:51Z</time>
      </trkpt>
      <trkpt lat="45.75658" lon="4.64328">
        <ele>510.7</ele>
        <time>2018-09-09T08:03:54Z</time>
      </trkpt>
      <trkpt lat="45.75655" lon="4.64314">
        <ele>510</ele>
        <time>2018-09-09T08:03:57Z</time>
      </trkpt>
      <trkpt lat="45.75652" lon="4.64312">
        <ele>510</ele>
        <time>2018-09-09T08:03:58Z</time>
      </trkpt>
      <trkpt lat="45.75645" lon="4.64309">
        <ele>510.3</ele>
        <time>2018-09-09T08:04:01Z</time>
      </trkpt>
      <trkpt lat="45.75641" lon="4.64308">
        <ele>510.3</ele>
        <time>2018-09-09T08:04:03Z</time>
      </trkpt>
      <trkpt lat="45.75623" lon="4.64301">
        <ele>510.3</ele>
        <time>2018-09-09T08:04:10Z</time>
      </trkpt>
      <trkpt lat="45.75609" lon="4.64298">
        <ele>510</ele>
        <time>2018-09-09T08:04:13Z</time>
      </trkpt>
      <trkpt lat="45.75596" lon="4.64298">
        <ele>508.6</ele>
        <time>2018-09-09T08:04:15Z</time>
      </trkpt>
      <trkpt lat="45.75586" lon="4.64303">
        <ele>505.8</ele>
        <time>2018-09-09T08:04:17Z</time>
      </trkpt>
      <trkpt lat="45.75581" lon="4.64308">
        <ele>504.6</ele>
        <time>2018-09-09T08:04:18Z</time>
      </trkpt>
      <trkpt lat="45.75573" lon="4.64318">
        <ele>502.4</ele>
        <time>2018-09-09T08:04:20Z</time>
      </trkpt>
      <trkpt lat="45.75568" lon="4.64324">
        <ele>501.2</ele>
        <time>2018-09-09T08:04:21Z</time>
      </trkpt>
      <trkpt lat="45.75557" lon="4.64344">
        <ele>496.5</ele>
        <time>2018-09-09T08:04:24Z</time>
      </trkpt>
      <trkpt lat="45.75554" lon="4.64352">
        <ele>494.5</ele>
        <time>2018-09-09T08:04:25Z</time>
      </trkpt>
      <trkpt lat="45.75552" lon="4.6436">
        <ele>492</ele>
        <time>2018-09-09T08:04:26Z</time>
      </trkpt>
      <trkpt lat="45.75552" lon="4.64382">
        <ele>489.4</ele>
        <time>2018-09-09T08:04:28Z</time>
      </trkpt>
      <trkpt lat="45.75552" lon="4.64389">
        <ele>487</ele>
        <time>2018-09-09T08:04:29Z</time>
      </trkpt>
      <trkpt lat="45.75551" lon="4.64407">
        <ele>484.3</ele>
        <time>2018-09-09T08:04:32Z</time>
      </trkpt>
      <trkpt lat="45.75549" lon="4.6441">
        <ele>482.7</ele>
        <time>2018-09-09T08:04:33Z</time>
      </trkpt>
      <trkpt lat="45.75546" lon="4.64419">
        <ele>479.9</ele>
        <time>2018-09-09T08:04:37Z</time>
      </trkpt>
      <trkpt lat="45.75539" lon="4.64417">
        <ele>478.2</ele>
        <time>2018-09-09T08:04:39Z</time>
      </trkpt>
      <trkpt lat="45.75534" lon="4.64411">
        <ele>476.6</ele>
        <time>2018-09-09T08:04:40Z</time>
      </trkpt>
      <trkpt lat="45.75524" lon="4.64405">
        <ele>474.9</ele>
        <time>2018-09-09T08:04:41Z</time>
      </trkpt>
      <trkpt lat="45.75504" lon="4.64404">
        <ele>473.6</ele>
        <time>2018-09-09T08:04:43Z</time>
      </trkpt>
      <trkpt lat="45.75496" lon="4.64405">
        <ele>471.9</ele>
        <time>2018-09-09T08:04:44Z</time>
      </trkpt>
      <trkpt lat="45.7548" lon="4.64412">
        <ele>470.5</ele>
        <time>2018-09-09T08:04:46Z</time>
      </trkpt>
      <trkpt lat="45.75465" lon="4.64427">
        <ele>469.9</ele>
        <time>2018-09-09T08:04:48Z</time>
      </trkpt>
      <trkpt lat="45.75459" lon="4.64437">
        <ele>469.7</ele>
        <time>2018-09-09T08:04:49Z</time>
      </trkpt>
      <trkpt lat="45.75449" lon="4.6446">
        <ele>469.6</ele>
        <time>2018-09-09T08:04:51Z</time>
      </trkpt>
      <trkpt lat="45.75443" lon="4.64471">
        <ele>469.5</ele>
        <time>2018-09-09T08:04:52Z</time>
      </trkpt>
      <trkpt lat="45.75437" lon="4.64481">
        <ele>469.5</ele>
        <time>2018-09-09T08:04:53Z</time>
      </trkpt>
      <trkpt lat="45.75433" lon="4.64491">
        <ele>469.5</ele>
        <time>2018-09-09T08:04:54Z</time>
      </trkpt>
      <trkpt lat="45.75429" lon="4.64502">
        <ele>469.4</ele>
        <time>2018-09-09T08:04:55Z</time>
      </trkpt>
      <trkpt lat="45.75422" lon="4.64524">
        <ele>469.6</ele>
        <time>2018-09-09T08:04:57Z</time>
      </trkpt>
      <trkpt lat="45.7542" lon="4.64535">
        <ele>469.6</ele>
        <time>2018-09-09T08:04:58Z</time>
      </trkpt>
      <trkpt lat="45.75418" lon="4.64545">
        <ele>469.7</ele>
        <time>2018-09-09T08:04:59Z</time>
      </trkpt>
      <trkpt lat="45.75412" lon="4.64564">
        <ele>470</ele>
        <time>2018-09-09T08:05:01Z</time>
      </trkpt>
      <trkpt lat="45.75408" lon="4.64573">
        <ele>470.1</ele>
        <time>2018-09-09T08:05:02Z</time>
      </trkpt>
      <trkpt lat="45.75398" lon="4.64587">
        <ele>470.4</ele>
        <time>2018-09-09T08:05:04Z</time>
      </trkpt>
      <trkpt lat="45.75393" lon="4.64591">
        <ele>470.4</ele>
        <time>2018-09-09T08:05:05Z</time>
      </trkpt>
      <trkpt lat="45.75389" lon="4.64597">
        <ele>470.5</ele>
        <time>2018-09-09T08:05:06Z</time>
      </trkpt>
      <trkpt lat="45.75385" lon="4.64612">
        <ele>470.6</ele>
        <time>2018-09-09T08:05:08Z</time>
      </trkpt>
      <trkpt lat="45.75386" lon="4.64628">
        <ele>470.6</ele>
        <time>2018-09-09T08:05:10Z</time>
      </trkpt>
      <trkpt lat="45.75389" lon="4.64646">
        <ele>470.6</ele>
        <time>2018-09-09T08:05:12Z</time>
      </trkpt>
      <trkpt lat="45.75392" lon="4.64665">
        <ele>470.6</ele>
        <time>2018-09-09T08:05:14Z</time>
      </trkpt>
      <trkpt lat="45.75395" lon="4.64685">
        <ele>470.6</ele>
        <time>2018-09-09T08:05:16Z</time>
      </trkpt>
      <trkpt lat="45.75396" lon="4.64704">
        <ele>470.6</ele>
        <time>2018-09-09T08:05:18Z</time>
      </trkpt>
      <trkpt lat="45.75395" lon="4.64713">
        <ele>470.6</ele>
        <time>2018-09-09T08:05:19Z</time>
      </trkpt>
      <trkpt lat="45.75394" lon="4.64723">
        <ele>470.7</ele>
        <time>2018-09-09T08:05:20Z</time>
      </trkpt>
      <trkpt lat="45.75392" lon="4.6474">
        <ele>470.7</ele>
        <time>2018-09-09T08:05:22Z</time>
      </trkpt>
      <trkpt lat="45.75389" lon="4.64752">
        <ele>470.9</ele>
        <time>2018-09-09T08:05:24Z</time>
      </trkpt>
      <trkpt lat="45.75386" lon="4.64761">
        <ele>471</ele>
        <time>2018-09-09T08:05:27Z</time>
      </trkpt>
      <trkpt lat="45.75385" lon="4.64762">
        <ele>471</ele>
        <time>2018-09-09T08:05:28Z</time>
      </trkpt>
      <trkpt lat="45.75384" lon="4.64762">
        <ele>471</ele>
        <time>2018-09-09T08:05:29Z</time>
      </trkpt>
      <trkpt lat="45.75381" lon="4.64759">
        <ele>471.2</ele>
        <time>2018-09-09T08:05:31Z</time>
      </trkpt>
      <trkpt lat="45.7538" lon="4.64757">
        <ele>471.4</ele>
        <time>2018-09-09T08:05:32Z</time>
      </trkpt>
      <trkpt lat="45.75377" lon="4.64753">
        <ele>471.8</ele>
        <time>2018-09-09T08:05:34Z</time>
      </trkpt>
      <trkpt lat="45.75368" lon="4.64739">
        <ele>473.2</ele>
        <time>2018-09-09T08:05:40Z</time>
      </trkpt>
      <trkpt lat="45.75352" lon="4.64725">
        <ele>475</ele>
        <time>2018-09-09T08:05:47Z</time>
      </trkpt>
      <trkpt lat="45.75333" lon="4.64722">
        <ele>476.4</ele>
        <time>2018-09-09T08:05:54Z</time>
      </trkpt>
      <trkpt lat="45.75324" lon="4.64723">
        <ele>476.9</ele>
        <time>2018-09-09T08:05:57Z</time>
      </trkpt>
      <trkpt lat="45.7531" lon="4.64724">
        <ele>477.4</ele>
        <time>2018-09-09T08:06:01Z</time>
      </trkpt>
      <trkpt lat="45.75284" lon="4.64732">
        <ele>478.2</ele>
        <time>2018-09-09T08:06:08Z</time>
      </trkpt>
      <trkpt lat="45.75276" lon="4.64735">
        <ele>478.4</ele>
        <time>2018-09-09T08:06:10Z</time>
      </trkpt>
      <trkpt lat="45.75249" lon="4.64747">
        <ele>479.4</ele>
        <time>2018-09-09T08:06:17Z</time>
      </trkpt>
      <trkpt lat="45.75222" lon="4.64764">
        <ele>480.2</ele>
        <time>2018-09-09T08:06:25Z</time>
      </trkpt>
      <trkpt lat="45.75209" lon="4.64773">
        <ele>480.3</ele>
        <time>2018-09-09T08:06:29Z</time>
      </trkpt>
      <trkpt lat="45.75197" lon="4.6478">
        <ele>480.1</ele>
        <time>2018-09-09T08:06:33Z</time>
      </trkpt>
      <trkpt lat="45.75185" lon="4.64788">
        <ele>479.5</ele>
        <time>2018-09-09T08:06:36Z</time>
      </trkpt>
      <trkpt lat="45.75175" lon="4.64792">
        <ele>479</ele>
        <time>2018-09-09T08:06:38Z</time>
      </trkpt>
      <trkpt lat="45.75146" lon="4.648">
        <ele>478.2</ele>
        <time>2018-09-09T08:06:42Z</time>
      </trkpt>
      <trkpt lat="45.7513" lon="4.64804">
        <ele>478.2</ele>
        <time>2018-09-09T08:06:44Z</time>
      </trkpt>
      <trkpt lat="45.75116" lon="4.64815">
        <ele>478.9</ele>
        <time>2018-09-09T08:06:46Z</time>
      </trkpt>
      <trkpt lat="45.75107" lon="4.6483">
        <ele>480.1</ele>
        <time>2018-09-09T08:06:48Z</time>
      </trkpt>
      <trkpt lat="45.75103" lon="4.64837">
        <ele>480.7</ele>
        <time>2018-09-09T08:06:49Z</time>
      </trkpt>
      <trkpt lat="45.75094" lon="4.64856">
        <ele>483.4</ele>
        <time>2018-09-09T08:06:53Z</time>
      </trkpt>
      <trkpt lat="45.75085" lon="4.64867">
        <ele>485.4</ele>
        <time>2018-09-09T08:06:58Z</time>
      </trkpt>
      <trkpt lat="45.75082" lon="4.64869">
        <ele>486.1</ele>
        <time>2018-09-09T08:07:00Z</time>
      </trkpt>
      <trkpt lat="45.75076" lon="4.64873">
        <ele>487.4</ele>
        <time>2018-09-09T08:07:04Z</time>
      </trkpt>
      <trkpt lat="45.75073" lon="4.64875">
        <ele>488.1</ele>
        <time>2018-09-09T08:07:06Z</time>
      </trkpt>
      <trkpt lat="45.75064" lon="4.64877">
        <ele>489.7</ele>
        <time>2018-09-09T08:07:12Z</time>
      </trkpt>
      <trkpt lat="45.75062" lon="4.64877">
        <ele>490</ele>
        <time>2018-09-09T08:07:13Z</time>
      </trkpt>
      <trkpt lat="45.75059" lon="4.64876">
        <ele>490.5</ele>
        <time>2018-09-09T08:07:15Z</time>
      </trkpt>
      <trkpt lat="45.7505" lon="4.64871">
        <ele>491.7</ele>
        <time>2018-09-09T08:07:20Z</time>
      </trkpt>
      <trkpt lat="45.75034" lon="4.64864">
        <ele>493.5</ele>
        <time>2018-09-09T08:07:28Z</time>
      </trkpt>
      <trkpt lat="45.75014" lon="4.64859">
        <ele>494.8</ele>
        <time>2018-09-09T08:07:35Z</time>
      </trkpt>
      <trkpt lat="45.74991" lon="4.64855">
        <ele>495.8</ele>
        <time>2018-09-09T08:07:41Z</time>
      </trkpt>
      <trkpt lat="45.74952" lon="4.64845">
        <ele>497.2</ele>
        <time>2018-09-09T08:07:49Z</time>
      </trkpt>
      <trkpt lat="45.74943" lon="4.6484">
        <ele>497.6</ele>
        <time>2018-09-09T08:07:51Z</time>
      </trkpt>
      <trkpt lat="45.74934" lon="4.64831">
        <ele>497.9</ele>
        <time>2018-09-09T08:07:53Z</time>
      </trkpt>
      <trkpt lat="45.7493" lon="4.64825">
        <ele>498.2</ele>
        <time>2018-09-09T08:07:54Z</time>
      </trkpt>
      <trkpt lat="45.74923" lon="4.64813">
        <ele>498.7</ele>
        <time>2018-09-09T08:07:56Z</time>
      </trkpt>
      <trkpt lat="45.74914" lon="4.64791">
        <ele>499.5</ele>
        <time>2018-09-09T08:07:59Z</time>
      </trkpt>
      <trkpt lat="45.74912" lon="4.64783">
        <ele>499.8</ele>
        <time>2018-09-09T08:08:00Z</time>
      </trkpt>
      <trkpt lat="45.74906" lon="4.64756">
        <ele>501</ele>
        <time>2018-09-09T08:08:04Z</time>
      </trkpt>
      <trkpt lat="45.74898" lon="4.64747">
        <ele>501.8</ele>
        <time>2018-09-09T08:08:07Z</time>
      </trkpt>
      <trkpt lat="45.74896" lon="4.64746">
        <ele>502</ele>
        <time>2018-09-09T08:08:08Z</time>
      </trkpt>
      <trkpt lat="45.7488" lon="4.64744">
        <ele>503.9</ele>
        <time>2018-09-09T08:08:14Z</time>
      </trkpt>
      <trkpt lat="45.74866" lon="4.64747">
        <ele>505.5</ele>
        <time>2018-09-09T08:08:19Z</time>
      </trkpt>
      <trkpt lat="45.74864" lon="4.64749">
        <ele>506</ele>
        <time>2018-09-09T08:08:20Z</time>
      </trkpt>
      <trkpt lat="45.74852" lon="4.64757">
        <ele>506.4</ele>
        <time>2018-09-09T08:08:26Z</time>
      </trkpt>
      <trkpt lat="45.74846" lon="4.6476">
        <ele>506.7</ele>
        <time>2018-09-09T08:08:29Z</time>
      </trkpt>
      <trkpt lat="45.74841" lon="4.64764">
        <ele>507.1</ele>
        <time>2018-09-09T08:08:32Z</time>
      </trkpt>
      <trkpt lat="45.74837" lon="4.64768">
        <ele>507.3</ele>
        <time>2018-09-09T08:08:34Z</time>
      </trkpt>
      <trkpt lat="45.74832" lon="4.64774">
        <ele>507.7</ele>
        <time>2018-09-09T08:08:37Z</time>
      </trkpt>
      <trkpt lat="45.74828" lon="4.64779">
        <ele>508</ele>
        <time>2018-09-09T08:08:39Z</time>
      </trkpt>
      <trkpt lat="45.74826" lon="4.64781">
        <ele>508.2</ele>
        <time>2018-09-09T08:08:40Z</time>
      </trkpt>
      <trkpt lat="45.7482" lon="4.64788">
        <ele>508.6</ele>
        <time>2018-09-09T08:08:43Z</time>
      </trkpt>
      <trkpt lat="45.74813" lon="4.64792">
        <ele>509.1</ele>
        <time>2018-09-09T08:08:46Z</time>
      </trkpt>
      <trkpt lat="45.74804" lon="4.64796">
        <ele>509.6</ele>
        <time>2018-09-09T08:08:49Z</time>
      </trkpt>
      <trkpt lat="45.74796" lon="4.648">
        <ele>510.2</ele>
        <time>2018-09-09T08:08:52Z</time>
      </trkpt>
      <trkpt lat="45.74794" lon="4.64802">
        <ele>510.4</ele>
        <time>2018-09-09T08:08:53Z</time>
      </trkpt>
      <trkpt lat="45.74791" lon="4.64805">
        <ele>510.7</ele>
        <time>2018-09-09T08:08:55Z</time>
      </trkpt>
      <trkpt lat="45.74789" lon="4.64813">
        <ele>511.1</ele>
        <time>2018-09-09T08:08:58Z</time>
      </trkpt>
      <trkpt lat="45.74786" lon="4.64833">
        <ele>512.2</ele>
        <time>2018-09-09T08:09:04Z</time>
      </trkpt>
      <trkpt lat="45.74779" lon="4.64855">
        <ele>513.5</ele>
        <time>2018-09-09T08:09:10Z</time>
      </trkpt>
      <trkpt lat="45.74777" lon="4.64856">
        <ele>513.7</ele>
        <time>2018-09-09T08:09:11Z</time>
      </trkpt>
      <trkpt lat="45.74772" lon="4.64863">
        <ele>514.2</ele>
        <time>2018-09-09T08:09:14Z</time>
      </trkpt>
      <trkpt lat="45.74766" lon="4.64868">
        <ele>514.7</ele>
        <time>2018-09-09T08:09:18Z</time>
      </trkpt>
      <trkpt lat="45.74763" lon="4.64871">
        <ele>514.9</ele>
        <time>2018-09-09T08:09:20Z</time>
      </trkpt>
      <trkpt lat="45.74757" lon="4.64873">
        <ele>515.2</ele>
        <time>2018-09-09T08:09:23Z</time>
      </trkpt>
      <trkpt lat="45.74754" lon="4.64875">
        <ele>515.4</ele>
        <time>2018-09-09T08:09:25Z</time>
      </trkpt>
      <trkpt lat="45.74752" lon="4.64877">
        <ele>515.5</ele>
        <time>2018-09-09T08:09:26Z</time>
      </trkpt>
      <trkpt lat="45.74751" lon="4.64887">
        <ele>515.9</ele>
        <time>2018-09-09T08:09:30Z</time>
      </trkpt>
      <trkpt lat="45.74751" lon="4.64889">
        <ele>516</ele>
        <time>2018-09-09T08:09:31Z</time>
      </trkpt>
      <trkpt lat="45.74753" lon="4.64897">
        <ele>516.3</ele>
        <time>2018-09-09T08:09:35Z</time>
      </trkpt>
      <trkpt lat="45.74756" lon="4.64912">
        <ele>516.7</ele>
        <time>2018-09-09T08:09:40Z</time>
      </trkpt>
      <trkpt lat="45.74757" lon="4.64918">
        <ele>516.9</ele>
        <time>2018-09-09T08:09:42Z</time>
      </trkpt>
      <trkpt lat="45.74756" lon="4.64939">
        <ele>517.4</ele>
        <time>2018-09-09T08:09:49Z</time>
      </trkpt>
      <trkpt lat="45.74754" lon="4.64957">
        <ele>517.9</ele>
        <time>2018-09-09T08:10:10Z</time>
      </trkpt>
      <trkpt lat="45.7475" lon="4.64961">
        <ele>517.8</ele>
        <time>2018-09-09T08:10:12Z</time>
      </trkpt>
      <trkpt lat="45.7474" lon="4.64975">
        <ele>517.1</ele>
        <time>2018-09-09T08:10:17Z</time>
      </trkpt>
      <trkpt lat="45.7473" lon="4.64999">
        <ele>516.1</ele>
        <time>2018-09-09T08:10:24Z</time>
      </trkpt>
      <trkpt lat="45.74719" lon="4.65018">
        <ele>515.3</ele>
        <time>2018-09-09T08:10:29Z</time>
      </trkpt>
      <trkpt lat="45.74715" lon="4.65028">
        <ele>514.9</ele>
        <time>2018-09-09T08:10:31Z</time>
      </trkpt>
      <trkpt lat="45.747" lon="4.65067">
        <ele>513</ele>
        <time>2018-09-09T08:10:38Z</time>
      </trkpt>
      <trkpt lat="45.74684" lon="4.65108">
        <ele>511.6</ele>
        <time>2018-09-09T08:10:45Z</time>
      </trkpt>
      <trkpt lat="45.74667" lon="4.65138">
        <ele>510.4</ele>
        <time>2018-09-09T08:10:51Z</time>
      </trkpt>
      <trkpt lat="45.74649" lon="4.65142">
        <ele>509.7</ele>
        <time>2018-09-09T08:10:55Z</time>
      </trkpt>
      <trkpt lat="45.74628" lon="4.65139">
        <ele>509.2</ele>
        <time>2018-09-09T08:11:00Z</time>
      </trkpt>
      <trkpt lat="45.74625" lon="4.65139">
        <ele>509.1</ele>
        <time>2018-09-09T08:11:01Z</time>
      </trkpt>
      <trkpt lat="45.7462" lon="4.65136">
        <ele>509.1</ele>
        <time>2018-09-09T08:11:03Z</time>
      </trkpt>
      <trkpt lat="45.74619" lon="4.65127">
        <ele>509.6</ele>
        <time>2018-09-09T08:11:05Z</time>
      </trkpt>
      <trkpt lat="45.7462" lon="4.65117">
        <ele>510.3</ele>
        <time>2018-09-09T08:11:07Z</time>
      </trkpt>
      <trkpt lat="45.74623" lon="4.65104">
        <ele>511.1</ele>
        <time>2018-09-09T08:11:10Z</time>
      </trkpt>
      <trkpt lat="45.74623" lon="4.651">
        <ele>511.4</ele>
        <time>2018-09-09T08:11:11Z</time>
      </trkpt>
      <trkpt lat="45.74625" lon="4.65089">
        <ele>512.1</ele>
        <time>2018-09-09T08:11:14Z</time>
      </trkpt>
      <trkpt lat="45.74628" lon="4.6507">
        <ele>513.2</ele>
        <time>2018-09-09T08:11:19Z</time>
      </trkpt>
      <trkpt lat="45.74628" lon="4.65066">
        <ele>513.5</ele>
        <time>2018-09-09T08:11:20Z</time>
      </trkpt>
      <trkpt lat="45.7463" lon="4.65029">
        <ele>515.5</ele>
        <time>2018-09-09T08:11:29Z</time>
      </trkpt>
      <trkpt lat="45.74631" lon="4.65013">
        <ele>516.4</ele>
        <time>2018-09-09T08:11:33Z</time>
      </trkpt>
      <trkpt lat="45.74635" lon="4.64995">
        <ele>517.7</ele>
        <time>2018-09-09T08:11:38Z</time>
      </trkpt>
      <trkpt lat="45.74641" lon="4.6497">
        <ele>519.3</ele>
        <time>2018-09-09T08:11:46Z</time>
      </trkpt>
      <trkpt lat="45.74647" lon="4.6495">
        <ele>520.5</ele>
        <time>2018-09-09T08:11:53Z</time>
      </trkpt>
      <trkpt lat="45.74649" lon="4.64944">
        <ele>520.8</ele>
        <time>2018-09-09T08:11:55Z</time>
      </trkpt>
      <trkpt lat="45.74655" lon="4.64929">
        <ele>521.7</ele>
        <time>2018-09-09T08:12:00Z</time>
      </trkpt>
      <trkpt lat="45.74661" lon="4.64909">
        <ele>522.7</ele>
        <time>2018-09-09T08:12:06Z</time>
      </trkpt>
      <trkpt lat="45.74665" lon="4.64889">
        <ele>523.5</ele>
        <time>2018-09-09T08:12:12Z</time>
      </trkpt>
      <trkpt lat="45.7467" lon="4.64872">
        <ele>524.1</ele>
        <time>2018-09-09T08:12:17Z</time>
      </trkpt>
      <trkpt lat="45.74671" lon="4.64869">
        <ele>524.3</ele>
        <time>2018-09-09T08:12:18Z</time>
      </trkpt>
      <trkpt lat="45.74674" lon="4.64857">
        <ele>524.9</ele>
        <time>2018-09-09T08:12:22Z</time>
      </trkpt>
      <trkpt lat="45.74677" lon="4.64846">
        <ele>525.5</ele>
        <time>2018-09-09T08:12:26Z</time>
      </trkpt>
      <trkpt lat="45.74677" lon="4.64836">
        <ele>526.1</ele>
        <time>2018-09-09T08:12:30Z</time>
      </trkpt>
      <trkpt lat="45.74676" lon="4.64827">
        <ele>526.7</ele>
        <time>2018-09-09T08:12:33Z</time>
      </trkpt>
      <trkpt lat="45.74676" lon="4.64825">
        <ele>526.9</ele>
        <time>2018-09-09T08:12:34Z</time>
      </trkpt>
      <trkpt lat="45.74672" lon="4.64817">
        <ele>527.6</ele>
        <time>2018-09-09T08:12:37Z</time>
      </trkpt>
      <trkpt lat="45.7467" lon="4.64814">
        <ele>527.9</ele>
        <time>2018-09-09T08:12:39Z</time>
      </trkpt>
      <trkpt lat="45.74669" lon="4.64813">
        <ele>528</ele>
        <time>2018-09-09T08:12:40Z</time>
      </trkpt>
      <trkpt lat="45.74666" lon="4.64809">
        <ele>528.5</ele>
        <time>2018-09-09T08:12:43Z</time>
      </trkpt>
      <trkpt lat="45.74661" lon="4.64805">
        <ele>529</ele>
        <time>2018-09-09T08:12:46Z</time>
      </trkpt>
      <trkpt lat="45.74659" lon="4.64804">
        <ele>529.2</ele>
        <time>2018-09-09T08:12:47Z</time>
      </trkpt>
      <trkpt lat="45.74655" lon="4.64801">
        <ele>529.8</ele>
        <time>2018-09-09T08:12:50Z</time>
      </trkpt>
      <trkpt lat="45.7465" lon="4.64796">
        <ele>530.5</ele>
        <time>2018-09-09T08:12:54Z</time>
      </trkpt>
      <trkpt lat="45.74647" lon="4.64793">
        <ele>530.9</ele>
        <time>2018-09-09T08:12:56Z</time>
      </trkpt>
      <trkpt lat="45.74638" lon="4.64783">
        <ele>532.1</ele>
        <time>2018-09-09T08:13:03Z</time>
      </trkpt>
      <trkpt lat="45.74636" lon="4.64781">
        <ele>532.3</ele>
        <time>2018-09-09T08:13:04Z</time>
      </trkpt>
      <trkpt lat="45.74631" lon="4.64774">
        <ele>533.2</ele>
        <time>2018-09-09T08:13:09Z</time>
      </trkpt>
      <trkpt lat="45.74628" lon="4.64769">
        <ele>533.7</ele>
        <time>2018-09-09T08:13:12Z</time>
      </trkpt>
      <trkpt lat="45.74627" lon="4.64768">
        <ele>533.9</ele>
        <time>2018-09-09T08:13:13Z</time>
      </trkpt>
      <trkpt lat="45.74622" lon="4.64761">
        <ele>534.7</ele>
        <time>2018-09-09T08:13:17Z</time>
      </trkpt>
      <trkpt lat="45.74617" lon="4.64756">
        <ele>535.4</ele>
        <time>2018-09-09T08:13:21Z</time>
      </trkpt>
      <trkpt lat="45.74614" lon="4.64752">
        <ele>535.9</ele>
        <time>2018-09-09T08:13:24Z</time>
      </trkpt>
      <trkpt lat="45.74611" lon="4.64749">
        <ele>536.3</ele>
        <time>2018-09-09T08:13:27Z</time>
      </trkpt>
      <trkpt lat="45.74609" lon="4.64748">
        <ele>536.5</ele>
        <time>2018-09-09T08:13:28Z</time>
      </trkpt>
      <trkpt lat="45.74608" lon="4.64747">
        <ele>536.7</ele>
        <time>2018-09-09T08:13:29Z</time>
      </trkpt>
      <trkpt lat="45.74605" lon="4.64744">
        <ele>537.1</ele>
        <time>2018-09-09T08:13:31Z</time>
      </trkpt>
      <trkpt lat="45.74602" lon="4.64742">
        <ele>537.4</ele>
        <time>2018-09-09T08:13:33Z</time>
      </trkpt>
      <trkpt lat="45.74599" lon="4.64738">
        <ele>537.8</ele>
        <time>2018-09-09T08:13:35Z</time>
      </trkpt>
      <trkpt lat="45.74594" lon="4.64734">
        <ele>538.3</ele>
        <time>2018-09-09T08:13:38Z</time>
      </trkpt>
      <trkpt lat="45.7459" lon="4.64731">
        <ele>538.7</ele>
        <time>2018-09-09T08:13:41Z</time>
      </trkpt>
      <trkpt lat="45.74587" lon="4.64729">
        <ele>539</ele>
        <time>2018-09-09T08:13:43Z</time>
      </trkpt>
      <trkpt lat="45.74585" lon="4.64728">
        <ele>539.2</ele>
        <time>2018-09-09T08:13:44Z</time>
      </trkpt>
      <trkpt lat="45.74578" lon="4.64723">
        <ele>539.9</ele>
        <time>2018-09-09T08:13:48Z</time>
      </trkpt>
      <trkpt lat="45.74576" lon="4.64721">
        <ele>540.1</ele>
        <time>2018-09-09T08:13:49Z</time>
      </trkpt>
      <trkpt lat="45.74564" lon="4.6471">
        <ele>541.1</ele>
        <time>2018-09-09T08:13:57Z</time>
      </trkpt>
      <trkpt lat="45.74561" lon="4.64705">
        <ele>541.4</ele>
        <time>2018-09-09T08:14:00Z</time>
      </trkpt>
      <trkpt lat="45.74555" lon="4.64694">
        <ele>542.3</ele>
        <time>2018-09-09T08:14:06Z</time>
      </trkpt>
      <trkpt lat="45.74554" lon="4.64691">
        <ele>542.5</ele>
        <time>2018-09-09T08:14:07Z</time>
      </trkpt>
      <trkpt lat="45.7455" lon="4.6468">
        <ele>543.6</ele>
        <time>2018-09-09T08:14:12Z</time>
      </trkpt>
      <trkpt lat="45.74544" lon="4.64662">
        <ele>544.8</ele>
        <time>2018-09-09T08:14:21Z</time>
      </trkpt>
      <trkpt lat="45.7454" lon="4.64648">
        <ele>545.8</ele>
        <time>2018-09-09T08:14:27Z</time>
      </trkpt>
      <trkpt lat="45.74533" lon="4.64635">
        <ele>547.1</ele>
        <time>2018-09-09T08:14:32Z</time>
      </trkpt>
      <trkpt lat="45.74531" lon="4.64625">
        <ele>547.9</ele>
        <time>2018-09-09T08:15:46Z</time>
      </trkpt>
      <trkpt lat="45.74528" lon="4.64614">
        <ele>548.7</ele>
        <time>2018-09-09T08:15:50Z</time>
      </trkpt>
      <trkpt lat="45.74526" lon="4.64605">
        <ele>549.3</ele>
        <time>2018-09-09T08:15:53Z</time>
      </trkpt>
      <trkpt lat="45.74526" lon="4.64602">
        <ele>549.5</ele>
        <time>2018-09-09T08:15:54Z</time>
      </trkpt>
      <trkpt lat="45.74525" lon="4.64596">
        <ele>549.8</ele>
        <time>2018-09-09T08:15:56Z</time>
      </trkpt>
      <trkpt lat="45.74522" lon="4.64587">
        <ele>550.7</ele>
        <time>2018-09-09T08:16:00Z</time>
      </trkpt>
      <trkpt lat="45.74521" lon="4.64584">
        <ele>551.1</ele>
        <time>2018-09-09T08:16:01Z</time>
      </trkpt>
      <trkpt lat="45.7452" lon="4.64578">
        <ele>552.3</ele>
        <time>2018-09-09T08:16:04Z</time>
      </trkpt>
      <trkpt lat="45.74517" lon="4.64568">
        <ele>553.5</ele>
        <time>2018-09-09T08:16:09Z</time>
      </trkpt>
      <trkpt lat="45.74515" lon="4.64561">
        <ele>554.1</ele>
        <time>2018-09-09T08:16:12Z</time>
      </trkpt>
      <trkpt lat="45.74514" lon="4.64557">
        <ele>554.6</ele>
        <time>2018-09-09T08:16:14Z</time>
      </trkpt>
      <trkpt lat="45.74513" lon="4.64554">
        <ele>554.8</ele>
        <time>2018-09-09T08:16:15Z</time>
      </trkpt>
      <trkpt lat="45.7451" lon="4.64539">
        <ele>556</ele>
        <time>2018-09-09T08:16:22Z</time>
      </trkpt>
      <trkpt lat="45.74506" lon="4.6452">
        <ele>557.6</ele>
        <time>2018-09-09T08:16:30Z</time>
      </trkpt>
      <trkpt lat="45.74506" lon="4.64516">
        <ele>557.9</ele>
        <time>2018-09-09T08:16:32Z</time>
      </trkpt>
      <trkpt lat="45.74504" lon="4.64504">
        <ele>558.6</ele>
        <time>2018-09-09T08:16:36Z</time>
      </trkpt>
      <trkpt lat="45.74504" lon="4.64496">
        <ele>559.2</ele>
        <time>2018-09-09T08:16:39Z</time>
      </trkpt>
      <trkpt lat="45.74503" lon="4.64481">
        <ele>560.2</ele>
        <time>2018-09-09T08:16:44Z</time>
      </trkpt>
      <trkpt lat="45.74502" lon="4.64475">
        <ele>560.6</ele>
        <time>2018-09-09T08:16:46Z</time>
      </trkpt>
      <trkpt lat="45.745" lon="4.6447">
        <ele>561.1</ele>
        <time>2018-09-09T08:16:48Z</time>
      </trkpt>
      <trkpt lat="45.74498" lon="4.64459">
        <ele>562.1</ele>
        <time>2018-09-09T08:16:52Z</time>
      </trkpt>
      <trkpt lat="45.74496" lon="4.64445">
        <ele>563.4</ele>
        <time>2018-09-09T08:16:58Z</time>
      </trkpt>
      <trkpt lat="45.74496" lon="4.64437">
        <ele>564.2</ele>
        <time>2018-09-09T08:17:01Z</time>
      </trkpt>
      <trkpt lat="45.74497" lon="4.64424">
        <ele>565.3</ele>
        <time>2018-09-09T08:17:05Z</time>
      </trkpt>
      <trkpt lat="45.74496" lon="4.64416">
        <ele>566.1</ele>
        <time>2018-09-09T08:17:08Z</time>
      </trkpt>
      <trkpt lat="45.74495" lon="4.64402">
        <ele>567.3</ele>
        <time>2018-09-09T08:17:13Z</time>
      </trkpt>
      <trkpt lat="45.74495" lon="4.64399">
        <ele>567.5</ele>
        <time>2018-09-09T08:17:14Z</time>
      </trkpt>
      <trkpt lat="45.74497" lon="4.64387">
        <ele>568.7</ele>
        <time>2018-09-09T08:17:20Z</time>
      </trkpt>
      <trkpt lat="45.745" lon="4.64386">
        <ele>569.1</ele>
        <time>2018-09-09T08:17:22Z</time>
      </trkpt>
      <trkpt lat="45.74505" lon="4.64388">
        <ele>570</ele>
        <time>2018-09-09T08:17:25Z</time>
      </trkpt>
      <trkpt lat="45.74511" lon="4.64395">
        <ele>571.3</ele>
        <time>2018-09-09T08:17:29Z</time>
      </trkpt>
      <trkpt lat="45.74516" lon="4.64403">
        <ele>572.1</ele>
        <time>2018-09-09T08:17:33Z</time>
      </trkpt>
      <trkpt lat="45.74519" lon="4.64407">
        <ele>572.6</ele>
        <time>2018-09-09T08:17:35Z</time>
      </trkpt>
      <trkpt lat="45.74527" lon="4.64422">
        <ele>574.4</ele>
        <time>2018-09-09T08:17:42Z</time>
      </trkpt>
      <trkpt lat="45.74528" lon="4.64425">
        <ele>574.8</ele>
        <time>2018-09-09T08:17:43Z</time>
      </trkpt>
      <trkpt lat="45.74529" lon="4.64431">
        <ele>575.3</ele>
        <time>2018-09-09T08:17:45Z</time>
      </trkpt>
      <trkpt lat="45.74535" lon="4.64443">
        <ele>576.6</ele>
        <time>2018-09-09T08:17:50Z</time>
      </trkpt>
      <trkpt lat="45.74537" lon="4.64448">
        <ele>577.2</ele>
        <time>2018-09-09T08:17:52Z</time>
      </trkpt>
      <trkpt lat="45.7454" lon="4.64453">
        <ele>577.7</ele>
        <time>2018-09-09T08:17:54Z</time>
      </trkpt>
      <trkpt lat="45.74548" lon="4.64463">
        <ele>579.1</ele>
        <time>2018-09-09T08:18:00Z</time>
      </trkpt>
      <trkpt lat="45.7455" lon="4.64464">
        <ele>579.3</ele>
        <time>2018-09-09T08:18:01Z</time>
      </trkpt>
      <trkpt lat="45.74557" lon="4.64472">
        <ele>580.3</ele>
        <time>2018-09-09T08:18:06Z</time>
      </trkpt>
      <trkpt lat="45.74558" lon="4.64473">
        <ele>580.5</ele>
        <time>2018-09-09T08:18:07Z</time>
      </trkpt>
      <trkpt lat="45.74566" lon="4.64476">
        <ele>581.5</ele>
        <time>2018-09-09T08:18:12Z</time>
      </trkpt>
      <trkpt lat="45.7457" lon="4.64477">
        <ele>582</ele>
        <time>2018-09-09T08:18:14Z</time>
      </trkpt>
      <trkpt lat="45.74573" lon="4.6448">
        <ele>582.5</ele>
        <time>2018-09-09T08:18:16Z</time>
      </trkpt>
      <trkpt lat="45.74578" lon="4.64484">
        <ele>583.1</ele>
        <time>2018-09-09T08:18:19Z</time>
      </trkpt>
      <trkpt lat="45.7458" lon="4.64485">
        <ele>583.4</ele>
        <time>2018-09-09T08:18:20Z</time>
      </trkpt>
      <trkpt lat="45.74588" lon="4.64489">
        <ele>584.5</ele>
        <time>2018-09-09T08:18:24Z</time>
      </trkpt>
      <trkpt lat="45.74593" lon="4.6449">
        <ele>585</ele>
        <time>2018-09-09T08:18:26Z</time>
      </trkpt>
      <trkpt lat="45.74596" lon="4.64491">
        <ele>585.4</ele>
        <time>2018-09-09T08:18:28Z</time>
      </trkpt>
      <trkpt lat="45.74603" lon="4.64491">
        <ele>586.2</ele>
        <time>2018-09-09T08:18:32Z</time>
      </trkpt>
      <trkpt lat="45.74607" lon="4.6449">
        <ele>586.7</ele>
        <time>2018-09-09T08:18:34Z</time>
      </trkpt>
      <trkpt lat="45.74621" lon="4.64487">
        <ele>588.2</ele>
        <time>2018-09-09T08:18:41Z</time>
      </trkpt>
      <trkpt lat="45.74628" lon="4.64486">
        <ele>588.9</ele>
        <time>2018-09-09T08:18:45Z</time>
      </trkpt>
      <trkpt lat="45.74635" lon="4.64484">
        <ele>589.5</ele>
        <time>2018-09-09T08:18:49Z</time>
      </trkpt>
      <trkpt lat="45.74642" lon="4.64482">
        <ele>590.5</ele>
        <time>2018-09-09T08:18:54Z</time>
      </trkpt>
      <trkpt lat="45.74647" lon="4.64481">
        <ele>591.1</ele>
        <time>2018-09-09T08:18:57Z</time>
      </trkpt>
      <trkpt lat="45.74649" lon="4.64481">
        <ele>591.4</ele>
        <time>2018-09-09T08:18:58Z</time>
      </trkpt>
      <trkpt lat="45.74659" lon="4.6448">
        <ele>592.8</ele>
        <time>2018-09-09T08:19:04Z</time>
      </trkpt>
      <trkpt lat="45.74662" lon="4.64479">
        <ele>593.2</ele>
        <time>2018-09-09T08:19:06Z</time>
      </trkpt>
      <trkpt lat="45.74666" lon="4.64476">
        <ele>594</ele>
        <time>2018-09-09T08:19:09Z</time>
      </trkpt>
      <trkpt lat="45.74672" lon="4.64471">
        <ele>594.3</ele>
        <time>2018-09-09T08:19:13Z</time>
      </trkpt>
      <trkpt lat="45.74681" lon="4.64464">
        <ele>594.9</ele>
        <time>2018-09-09T08:19:19Z</time>
      </trkpt>
      <trkpt lat="45.74687" lon="4.64456">
        <ele>596.1</ele>
        <time>2018-09-09T08:19:24Z</time>
      </trkpt>
      <trkpt lat="45.74691" lon="4.64452">
        <ele>597</ele>
        <time>2018-09-09T08:19:27Z</time>
      </trkpt>
      <trkpt lat="45.74695" lon="4.64446">
        <ele>597.6</ele>
        <time>2018-09-09T08:19:30Z</time>
      </trkpt>
      <trkpt lat="45.74698" lon="4.64439">
        <ele>598.2</ele>
        <time>2018-09-09T08:19:33Z</time>
      </trkpt>
      <trkpt lat="45.74699" lon="4.64435">
        <ele>598.5</ele>
        <time>2018-09-09T08:19:35Z</time>
      </trkpt>
      <trkpt lat="45.74702" lon="4.64431">
        <ele>598.9</ele>
        <time>2018-09-09T08:19:37Z</time>
      </trkpt>
      <trkpt lat="45.74706" lon="4.64424">
        <ele>599.6</ele>
        <time>2018-09-09T08:19:41Z</time>
      </trkpt>
      <trkpt lat="45.74717" lon="4.64408">
        <ele>600.7</ele>
        <time>2018-09-09T08:19:50Z</time>
      </trkpt>
      <trkpt lat="45.74725" lon="4.64395">
        <ele>601.5</ele>
        <time>2018-09-09T08:19:58Z</time>
      </trkpt>
      <trkpt lat="45.74729" lon="4.6439">
        <ele>602</ele>
        <time>2018-09-09T08:20:01Z</time>
      </trkpt>
      <trkpt lat="45.74736" lon="4.64381">
        <ele>602.5</ele>
        <time>2018-09-09T08:20:06Z</time>
      </trkpt>
      <trkpt lat="45.74747" lon="4.64368">
        <ele>603.5</ele>
        <time>2018-09-09T08:20:14Z</time>
      </trkpt>
      <trkpt lat="45.74748" lon="4.64366">
        <ele>603.6</ele>
        <time>2018-09-09T08:20:15Z</time>
      </trkpt>
      <trkpt lat="45.74757" lon="4.64353">
        <ele>604.6</ele>
        <time>2018-09-09T08:20:22Z</time>
      </trkpt>
      <trkpt lat="45.74768" lon="4.6434">
        <ele>605.8</ele>
        <time>2018-09-09T08:20:30Z</time>
      </trkpt>
      <trkpt lat="45.74776" lon="4.64329">
        <ele>606.9</ele>
        <time>2018-09-09T08:20:37Z</time>
      </trkpt>
      <trkpt lat="45.74785" lon="4.64322">
        <ele>607.9</ele>
        <time>2018-09-09T08:20:43Z</time>
      </trkpt>
      <trkpt lat="45.74786" lon="4.6432">
        <ele>608.1</ele>
        <time>2018-09-09T08:20:44Z</time>
      </trkpt>
      <trkpt lat="45.74795" lon="4.64309">
        <ele>609.1</ele>
        <time>2018-09-09T08:20:50Z</time>
      </trkpt>
      <trkpt lat="45.74801" lon="4.64295">
        <ele>610</ele>
        <time>2018-09-09T08:20:57Z</time>
      </trkpt>
      <trkpt lat="45.74802" lon="4.64293">
        <ele>610.1</ele>
        <time>2018-09-09T08:20:58Z</time>
      </trkpt>
      <trkpt lat="45.74809" lon="4.64283">
        <ele>611.2</ele>
        <time>2018-09-09T08:21:04Z</time>
      </trkpt>
      <trkpt lat="45.74811" lon="4.64281">
        <ele>611.3</ele>
        <time>2018-09-09T08:21:05Z</time>
      </trkpt>
      <trkpt lat="45.74817" lon="4.64272">
        <ele>611.9</ele>
        <time>2018-09-09T08:21:10Z</time>
      </trkpt>
      <trkpt lat="45.7482" lon="4.64269">
        <ele>612.2</ele>
        <time>2018-09-09T08:21:12Z</time>
      </trkpt>
      <trkpt lat="45.74831" lon="4.64253">
        <ele>613.2</ele>
        <time>2018-09-09T08:21:21Z</time>
      </trkpt>
      <trkpt lat="45.7484" lon="4.64247">
        <ele>613.8</ele>
        <time>2018-09-09T08:21:27Z</time>
      </trkpt>
      <trkpt lat="45.74841" lon="4.64245">
        <ele>613.9</ele>
        <time>2018-09-09T08:21:28Z</time>
      </trkpt>
      <trkpt lat="45.74851" lon="4.6423">
        <ele>614.9</ele>
        <time>2018-09-09T08:21:36Z</time>
      </trkpt>
      <trkpt lat="45.74857" lon="4.64219">
        <ele>615.5</ele>
        <time>2018-09-09T08:21:42Z</time>
      </trkpt>
      <trkpt lat="45.74863" lon="4.6421">
        <ele>616.1</ele>
        <time>2018-09-09T08:21:48Z</time>
      </trkpt>
      <trkpt lat="45.74867" lon="4.64203">
        <ele>616.4</ele>
        <time>2018-09-09T08:21:52Z</time>
      </trkpt>
      <trkpt lat="45.74871" lon="4.64191">
        <ele>617</ele>
        <time>2018-09-09T08:21:57Z</time>
      </trkpt>
      <trkpt lat="45.74872" lon="4.64189">
        <ele>617.1</ele>
        <time>2018-09-09T08:21:58Z</time>
      </trkpt>
      <trkpt lat="45.74875" lon="4.64187">
        <ele>617.3</ele>
        <time>2018-09-09T08:22:00Z</time>
      </trkpt>
      <trkpt lat="45.74879" lon="4.64179">
        <ele>617.7</ele>
        <time>2018-09-09T08:22:04Z</time>
      </trkpt>
      <trkpt lat="45.7488" lon="4.64177">
        <ele>617.8</ele>
        <time>2018-09-09T08:22:05Z</time>
      </trkpt>
      <trkpt lat="45.74886" lon="4.64167">
        <ele>618.4</ele>
        <time>2018-09-09T08:22:10Z</time>
      </trkpt>
      <trkpt lat="45.74888" lon="4.64166">
        <ele>618.6</ele>
        <time>2018-09-09T08:22:11Z</time>
      </trkpt>
      <trkpt lat="45.74896" lon="4.64151">
        <ele>619.4</ele>
        <time>2018-09-09T08:22:17Z</time>
      </trkpt>
      <trkpt lat="45.749" lon="4.64142">
        <ele>619.9</ele>
        <time>2018-09-09T08:22:21Z</time>
      </trkpt>
      <trkpt lat="45.74904" lon="4.64135">
        <ele>620.3</ele>
        <time>2018-09-09T08:22:24Z</time>
      </trkpt>
      <trkpt lat="45.7491" lon="4.64125">
        <ele>621</ele>
        <time>2018-09-09T08:22:28Z</time>
      </trkpt>
      <trkpt lat="45.74916" lon="4.64116">
        <ele>621.6</ele>
        <time>2018-09-09T08:22:32Z</time>
      </trkpt>
      <trkpt lat="45.7492" lon="4.64109">
        <ele>622.1</ele>
        <time>2018-09-09T08:22:35Z</time>
      </trkpt>
      <trkpt lat="45.74926" lon="4.64099">
        <ele>622.9</ele>
        <time>2018-09-09T08:22:40Z</time>
      </trkpt>
      <trkpt lat="45.74927" lon="4.64096">
        <ele>623.1</ele>
        <time>2018-09-09T08:22:41Z</time>
      </trkpt>
      <trkpt lat="45.74936" lon="4.64086">
        <ele>624</ele>
        <time>2018-09-09T08:22:47Z</time>
      </trkpt>
      <trkpt lat="45.74938" lon="4.64083">
        <ele>624.1</ele>
        <time>2018-09-09T08:22:48Z</time>
      </trkpt>
      <trkpt lat="45.74942" lon="4.64074">
        <ele>624.7</ele>
        <time>2018-09-09T08:22:52Z</time>
      </trkpt>
      <trkpt lat="45.74945" lon="4.64069">
        <ele>625.1</ele>
        <time>2018-09-09T08:22:55Z</time>
      </trkpt>
      <trkpt lat="45.74947" lon="4.64064">
        <ele>625.4</ele>
        <time>2018-09-09T08:22:57Z</time>
      </trkpt>
      <trkpt lat="45.74949" lon="4.64058">
        <ele>625.8</ele>
        <time>2018-09-09T08:23:00Z</time>
      </trkpt>
      <trkpt lat="45.7495" lon="4.64056">
        <ele>625.9</ele>
        <time>2018-09-09T08:23:01Z</time>
      </trkpt>
      <trkpt lat="45.74955" lon="4.64049">
        <ele>626.4</ele>
        <time>2018-09-09T08:23:05Z</time>
      </trkpt>
      <trkpt lat="45.74956" lon="4.64047">
        <ele>626.5</ele>
        <time>2018-09-09T08:23:06Z</time>
      </trkpt>
      <trkpt lat="45.74958" lon="4.64045">
        <ele>626.7</ele>
        <time>2018-09-09T08:23:07Z</time>
      </trkpt>
      <trkpt lat="45.74965" lon="4.64034">
        <ele>627.5</ele>
        <time>2018-09-09T08:23:12Z</time>
      </trkpt>
      <trkpt lat="45.74969" lon="4.64026">
        <ele>628.1</ele>
        <time>2018-09-09T08:23:16Z</time>
      </trkpt>
      <trkpt lat="45.74973" lon="4.6402">
        <ele>628.6</ele>
        <time>2018-09-09T08:23:19Z</time>
      </trkpt>
      <trkpt lat="45.74974" lon="4.64018">
        <ele>628.8</ele>
        <time>2018-09-09T08:23:20Z</time>
      </trkpt>
      <trkpt lat="45.74977" lon="4.64011">
        <ele>629.4</ele>
        <time>2018-09-09T08:23:24Z</time>
      </trkpt>
      <trkpt lat="45.74979" lon="4.64006">
        <ele>629.7</ele>
        <time>2018-09-09T08:23:26Z</time>
      </trkpt>
      <trkpt lat="45.74981" lon="4.64003">
        <ele>630.1</ele>
        <time>2018-09-09T08:23:28Z</time>
      </trkpt>
      <trkpt lat="45.74985" lon="4.63997">
        <ele>630.8</ele>
        <time>2018-09-09T08:23:31Z</time>
      </trkpt>
      <trkpt lat="45.74987" lon="4.63996">
        <ele>631</ele>
        <time>2018-09-09T08:23:32Z</time>
      </trkpt>
      <trkpt lat="45.74988" lon="4.63994">
        <ele>631.2</ele>
        <time>2018-09-09T08:23:33Z</time>
      </trkpt>
      <trkpt lat="45.74993" lon="4.63988">
        <ele>631.9</ele>
        <time>2018-09-09T08:23:37Z</time>
      </trkpt>
      <trkpt lat="45.74994" lon="4.63987">
        <ele>632</ele>
        <time>2018-09-09T08:23:38Z</time>
      </trkpt>
      <trkpt lat="45.74996" lon="4.63985">
        <ele>632.3</ele>
        <time>2018-09-09T08:23:40Z</time>
      </trkpt>
      <trkpt lat="45.74999" lon="4.63979">
        <ele>632.9</ele>
        <time>2018-09-09T08:23:43Z</time>
      </trkpt>
      <trkpt lat="45.75" lon="4.63978">
        <ele>633</ele>
        <time>2018-09-09T08:23:44Z</time>
      </trkpt>
      <trkpt lat="45.75001" lon="4.63977">
        <ele>633.2</ele>
        <time>2018-09-09T08:23:45Z</time>
      </trkpt>
      <trkpt lat="45.75009" lon="4.63969">
        <ele>634.3</ele>
        <time>2018-09-09T08:23:53Z</time>
      </trkpt>
      <trkpt lat="45.7501" lon="4.63967">
        <ele>634.5</ele>
        <time>2018-09-09T08:23:54Z</time>
      </trkpt>
      <trkpt lat="45.75012" lon="4.63962">
        <ele>634.9</ele>
        <time>2018-09-09T08:23:57Z</time>
      </trkpt>
      <trkpt lat="45.75016" lon="4.63956">
        <ele>635.6</ele>
        <time>2018-09-09T08:24:01Z</time>
      </trkpt>
      <trkpt lat="45.75017" lon="4.63954">
        <ele>635.9</ele>
        <time>2018-09-09T08:24:02Z</time>
      </trkpt>
      <trkpt lat="45.7502" lon="4.6395">
        <ele>636.3</ele>
        <time>2018-09-09T08:24:05Z</time>
      </trkpt>
      <trkpt lat="45.75023" lon="4.63946">
        <ele>636.6</ele>
        <time>2018-09-09T08:24:07Z</time>
      </trkpt>
      <trkpt lat="45.75031" lon="4.63935">
        <ele>637.5</ele>
        <time>2018-09-09T08:24:13Z</time>
      </trkpt>
      <trkpt lat="45.75033" lon="4.63932">
        <ele>637.7</ele>
        <time>2018-09-09T08:24:15Z</time>
      </trkpt>
      <trkpt lat="45.75039" lon="4.63926">
        <ele>638.5</ele>
        <time>2018-09-09T08:24:20Z</time>
      </trkpt>
      <trkpt lat="45.7504" lon="4.63925">
        <ele>638.7</ele>
        <time>2018-09-09T08:24:21Z</time>
      </trkpt>
      <trkpt lat="45.75043" lon="4.63921">
        <ele>639.4</ele>
        <time>2018-09-09T08:24:23Z</time>
      </trkpt>
      <trkpt lat="45.75047" lon="4.63917">
        <ele>640.1</ele>
        <time>2018-09-09T08:24:26Z</time>
      </trkpt>
      <trkpt lat="45.75049" lon="4.63915">
        <ele>640.4</ele>
        <time>2018-09-09T08:24:28Z</time>
      </trkpt>
      <trkpt lat="45.75051" lon="4.63914">
        <ele>640.5</ele>
        <time>2018-09-09T08:24:29Z</time>
      </trkpt>
      <trkpt lat="45.75055" lon="4.63911">
        <ele>641.3</ele>
        <time>2018-09-09T08:24:33Z</time>
      </trkpt>
      <trkpt lat="45.75059" lon="4.63909">
        <ele>641.7</ele>
        <time>2018-09-09T08:24:36Z</time>
      </trkpt>
      <trkpt lat="45.75064" lon="4.63903">
        <ele>642.3</ele>
        <time>2018-09-09T08:24:40Z</time>
      </trkpt>
      <trkpt lat="45.75067" lon="4.63901">
        <ele>642.7</ele>
        <time>2018-09-09T08:24:42Z</time>
      </trkpt>
      <trkpt lat="45.7507" lon="4.63899">
        <ele>643</ele>
        <time>2018-09-09T08:24:44Z</time>
      </trkpt>
      <trkpt lat="45.75073" lon="4.63895">
        <ele>643.5</ele>
        <time>2018-09-09T08:24:47Z</time>
      </trkpt>
      <trkpt lat="45.75078" lon="4.63891">
        <ele>644.1</ele>
        <time>2018-09-09T08:24:50Z</time>
      </trkpt>
      <trkpt lat="45.75082" lon="4.63888">
        <ele>644.7</ele>
        <time>2018-09-09T08:24:53Z</time>
      </trkpt>
      <trkpt lat="45.75088" lon="4.63882">
        <ele>645.7</ele>
        <time>2018-09-09T08:24:57Z</time>
      </trkpt>
      <trkpt lat="45.7509" lon="4.6388">
        <ele>645.9</ele>
        <time>2018-09-09T08:24:58Z</time>
      </trkpt>
      <trkpt lat="45.75098" lon="4.63875">
        <ele>647.3</ele>
        <time>2018-09-09T08:25:03Z</time>
      </trkpt>
      <trkpt lat="45.751" lon="4.63874">
        <ele>647.7</ele>
        <time>2018-09-09T08:25:04Z</time>
      </trkpt>
      <trkpt lat="45.75108" lon="4.63866">
        <ele>648.9</ele>
        <time>2018-09-09T08:25:09Z</time>
      </trkpt>
      <trkpt lat="45.75109" lon="4.63865">
        <ele>648.8</ele>
        <time>2018-09-09T08:25:10Z</time>
      </trkpt>
      <trkpt lat="45.75117" lon="4.6386">
        <ele>648.5</ele>
        <time>2018-09-09T08:25:15Z</time>
      </trkpt>
      <trkpt lat="45.75121" lon="4.63857">
        <ele>648.3</ele>
        <time>2018-09-09T08:25:18Z</time>
      </trkpt>
      <trkpt lat="45.75125" lon="4.63856">
        <ele>648.2</ele>
        <time>2018-09-09T08:25:21Z</time>
      </trkpt>
      <trkpt lat="45.75126" lon="4.63853">
        <ele>648.2</ele>
        <time>2018-09-09T08:27:08Z</time>
      </trkpt>
      <trkpt lat="45.75129" lon="4.63852">
        <ele>648.1</ele>
        <time>2018-09-09T08:27:09Z</time>
      </trkpt>
      <trkpt lat="45.7514" lon="4.63845">
        <ele>647.9</ele>
        <time>2018-09-09T08:27:13Z</time>
      </trkpt>
      <trkpt lat="45.75143" lon="4.63844">
        <ele>647.9</ele>
        <time>2018-09-09T08:27:14Z</time>
      </trkpt>
      <trkpt lat="45.75164" lon="4.6384">
        <ele>647.9</ele>
        <time>2018-09-09T08:27:20Z</time>
      </trkpt>
      <trkpt lat="45.75177" lon="4.63835">
        <ele>648.2</ele>
        <time>2018-09-09T08:27:23Z</time>
      </trkpt>
      <trkpt lat="45.75191" lon="4.63833">
        <ele>648.5</ele>
        <time>2018-09-09T08:27:26Z</time>
      </trkpt>
      <trkpt lat="45.75196" lon="4.63831">
        <ele>648.7</ele>
        <time>2018-09-09T08:27:27Z</time>
      </trkpt>
      <trkpt lat="45.752" lon="4.6383">
        <ele>648.8</ele>
        <time>2018-09-09T08:27:28Z</time>
      </trkpt>
      <trkpt lat="45.75218" lon="4.63813">
        <ele>649.4</ele>
        <time>2018-09-09T08:27:33Z</time>
      </trkpt>
      <trkpt lat="45.75243" lon="4.63775">
        <ele>650.4</ele>
        <time>2018-09-09T08:27:42Z</time>
      </trkpt>
      <trkpt lat="45.75259" lon="4.63739">
        <ele>651.1</ele>
        <time>2018-09-09T08:27:50Z</time>
      </trkpt>
      <trkpt lat="45.75267" lon="4.63713">
        <ele>651.9</ele>
        <time>2018-09-09T08:27:57Z</time>
      </trkpt>
      <trkpt lat="45.75269" lon="4.63691">
        <ele>652.6</ele>
        <time>2018-09-09T08:28:04Z</time>
      </trkpt>
      <trkpt lat="45.75269" lon="4.63688">
        <ele>652.7</ele>
        <time>2018-09-09T08:28:05Z</time>
      </trkpt>
      <trkpt lat="45.75269" lon="4.63672">
        <ele>654.3</ele>
        <time>2018-09-09T08:28:12Z</time>
      </trkpt>
      <trkpt lat="45.75269" lon="4.63656">
        <ele>656</ele>
        <time>2018-09-09T08:28:19Z</time>
      </trkpt>
      <trkpt lat="45.75268" lon="4.63645">
        <ele>657</ele>
        <time>2018-09-09T08:28:24Z</time>
      </trkpt>
      <trkpt lat="45.75267" lon="4.63643">
        <ele>657.2</ele>
        <time>2018-09-09T08:28:25Z</time>
      </trkpt>
      <trkpt lat="45.75266" lon="4.63637">
        <ele>657.9</ele>
        <time>2018-09-09T08:28:28Z</time>
      </trkpt>
      <trkpt lat="45.75264" lon="4.63614">
        <ele>659.8</ele>
        <time>2018-09-09T08:28:40Z</time>
      </trkpt>
      <trkpt lat="45.75263" lon="4.63605">
        <ele>660.4</ele>
        <time>2018-09-09T08:28:44Z</time>
      </trkpt>
      <trkpt lat="45.75262" lon="4.63596">
        <ele>661.3</ele>
        <time>2018-09-09T08:28:48Z</time>
      </trkpt>
      <trkpt lat="45.75262" lon="4.63592">
        <ele>661.6</ele>
        <time>2018-09-09T08:28:50Z</time>
      </trkpt>
      <trkpt lat="45.75261" lon="4.63588">
        <ele>661.9</ele>
        <time>2018-09-09T08:28:52Z</time>
      </trkpt>
      <trkpt lat="45.75259" lon="4.63579">
        <ele>662.6</ele>
        <time>2018-09-09T08:28:56Z</time>
      </trkpt>
      <trkpt lat="45.75258" lon="4.63572">
        <ele>663.1</ele>
        <time>2018-09-09T08:28:59Z</time>
      </trkpt>
      <trkpt lat="45.75257" lon="4.63569">
        <ele>663.4</ele>
        <time>2018-09-09T08:29:00Z</time>
      </trkpt>
      <trkpt lat="45.75255" lon="4.63562">
        <ele>664.2</ele>
        <time>2018-09-09T08:29:03Z</time>
      </trkpt>
      <trkpt lat="45.75254" lon="4.63552">
        <ele>664.9</ele>
        <time>2018-09-09T08:29:06Z</time>
      </trkpt>
      <trkpt lat="45.75253" lon="4.63541">
        <ele>665.8</ele>
        <time>2018-09-09T08:29:10Z</time>
      </trkpt>
      <trkpt lat="45.75253" lon="4.63537">
        <ele>666.3</ele>
        <time>2018-09-09T08:29:12Z</time>
      </trkpt>
      <trkpt lat="45.75252" lon="4.63531">
        <ele>666.9</ele>
        <time>2018-09-09T08:29:15Z</time>
      </trkpt>
      <trkpt lat="45.75252" lon="4.63529">
        <ele>667.1</ele>
        <time>2018-09-09T08:29:16Z</time>
      </trkpt>
      <trkpt lat="45.75253" lon="4.63523">
        <ele>667.7</ele>
        <time>2018-09-09T08:29:18Z</time>
      </trkpt>
      <trkpt lat="45.75253" lon="4.63518">
        <ele>668.1</ele>
        <time>2018-09-09T08:29:20Z</time>
      </trkpt>
      <trkpt lat="45.75253" lon="4.63514">
        <ele>668.6</ele>
        <time>2018-09-09T08:29:22Z</time>
      </trkpt>
      <trkpt lat="45.75253" lon="4.63509">
        <ele>669.1</ele>
        <time>2018-09-09T08:29:24Z</time>
      </trkpt>
      <trkpt lat="45.75251" lon="4.635">
        <ele>670</ele>
        <time>2018-09-09T08:29:27Z</time>
      </trkpt>
      <trkpt lat="45.75248" lon="4.63488">
        <ele>671.1</ele>
        <time>2018-09-09T08:29:32Z</time>
      </trkpt>
      <trkpt lat="45.75248" lon="4.63483">
        <ele>671.5</ele>
        <time>2018-09-09T08:29:34Z</time>
      </trkpt>
      <trkpt lat="45.75248" lon="4.63476">
        <ele>672</ele>
        <time>2018-09-09T08:29:37Z</time>
      </trkpt>
      <trkpt lat="45.75249" lon="4.63471">
        <ele>672.4</ele>
        <time>2018-09-09T08:29:51Z</time>
      </trkpt>
      <trkpt lat="45.75249" lon="4.63469">
        <ele>672.5</ele>
        <time>2018-09-09T08:29:52Z</time>
      </trkpt>
      <trkpt lat="45.75248" lon="4.63465">
        <ele>672.9</ele>
        <time>2018-09-09T08:29:54Z</time>
      </trkpt>
      <trkpt lat="45.75248" lon="4.63454">
        <ele>673.7</ele>
        <time>2018-09-09T08:29:58Z</time>
      </trkpt>
      <trkpt lat="45.75249" lon="4.63444">
        <ele>674.3</ele>
        <time>2018-09-09T08:30:02Z</time>
      </trkpt>
      <trkpt lat="45.7525" lon="4.63429">
        <ele>675.2</ele>
        <time>2018-09-09T08:30:08Z</time>
      </trkpt>
      <trkpt lat="45.75252" lon="4.63412">
        <ele>676.2</ele>
        <time>2018-09-09T08:30:16Z</time>
      </trkpt>
      <trkpt lat="45.75258" lon="4.63397">
        <ele>677.1</ele>
        <time>2018-09-09T08:30:23Z</time>
      </trkpt>
      <trkpt lat="45.75267" lon="4.63378">
        <ele>678.3</ele>
        <time>2018-09-09T08:30:30Z</time>
      </trkpt>
      <trkpt lat="45.75276" lon="4.63359">
        <ele>679.6</ele>
        <time>2018-09-09T08:30:37Z</time>
      </trkpt>
      <trkpt lat="45.75277" lon="4.63357">
        <ele>679.8</ele>
        <time>2018-09-09T08:30:38Z</time>
      </trkpt>
      <trkpt lat="45.75284" lon="4.6334">
        <ele>681</ele>
        <time>2018-09-09T08:30:44Z</time>
      </trkpt>
      <trkpt lat="45.75286" lon="4.63335">
        <ele>681.4</ele>
        <time>2018-09-09T08:30:46Z</time>
      </trkpt>
      <trkpt lat="45.75291" lon="4.6332">
        <ele>682.1</ele>
        <time>2018-09-09T08:30:51Z</time>
      </trkpt>
      <trkpt lat="45.75297" lon="4.63307">
        <ele>682.7</ele>
        <time>2018-09-09T08:30:56Z</time>
      </trkpt>
      <trkpt lat="45.753" lon="4.63301">
        <ele>682.9</ele>
        <time>2018-09-09T08:30:58Z</time>
      </trkpt>
      <trkpt lat="45.75307" lon="4.63288">
        <ele>683.5</ele>
        <time>2018-09-09T08:31:03Z</time>
      </trkpt>
      <trkpt lat="45.75317" lon="4.63267">
        <ele>684.4</ele>
        <time>2018-09-09T08:31:10Z</time>
      </trkpt>
      <trkpt lat="45.75326" lon="4.63252">
        <ele>685.1</ele>
        <time>2018-09-09T08:31:16Z</time>
      </trkpt>
      <trkpt lat="45.75331" lon="4.6324">
        <ele>685.7</ele>
        <time>2018-09-09T08:31:20Z</time>
      </trkpt>
      <trkpt lat="45.75333" lon="4.63236">
        <ele>685.9</ele>
        <time>2018-09-09T08:31:21Z</time>
      </trkpt>
      <trkpt lat="45.75344" lon="4.63216">
        <ele>686.9</ele>
        <time>2018-09-09T08:31:28Z</time>
      </trkpt>
      <trkpt lat="45.7535" lon="4.63208">
        <ele>687.3</ele>
        <time>2018-09-09T08:31:31Z</time>
      </trkpt>
      <trkpt lat="45.75354" lon="4.63201">
        <ele>687.6</ele>
        <time>2018-09-09T08:31:34Z</time>
      </trkpt>
      <trkpt lat="45.75363" lon="4.63188">
        <ele>687.9</ele>
        <time>2018-09-09T08:32:01Z</time>
      </trkpt>
      <trkpt lat="45.75372" lon="4.6317">
        <ele>688</ele>
        <time>2018-09-09T08:32:06Z</time>
      </trkpt>
      <trkpt lat="45.75387" lon="4.63146">
        <ele>687.9</ele>
        <time>2018-09-09T08:32:11Z</time>
      </trkpt>
      <trkpt lat="45.75399" lon="4.63123">
        <ele>688</ele>
        <time>2018-09-09T08:32:15Z</time>
      </trkpt>
      <trkpt lat="45.75405" lon="4.6311">
        <ele>688.1</ele>
        <time>2018-09-09T08:32:17Z</time>
      </trkpt>
      <trkpt lat="45.7541" lon="4.63097">
        <ele>688.2</ele>
        <time>2018-09-09T08:32:19Z</time>
      </trkpt>
      <trkpt lat="45.75418" lon="4.63077">
        <ele>688.3</ele>
        <time>2018-09-09T08:32:22Z</time>
      </trkpt>
      <trkpt lat="45.7542" lon="4.63071">
        <ele>688.4</ele>
        <time>2018-09-09T08:32:23Z</time>
      </trkpt>
      <trkpt lat="45.75425" lon="4.63057">
        <ele>688.5</ele>
        <time>2018-09-09T08:32:25Z</time>
      </trkpt>
      <trkpt lat="45.75434" lon="4.63028">
        <ele>688.7</ele>
        <time>2018-09-09T08:32:29Z</time>
      </trkpt>
      <trkpt lat="45.75438" lon="4.63014">
        <ele>688.9</ele>
        <time>2018-09-09T08:32:31Z</time>
      </trkpt>
      <trkpt lat="45.75458" lon="4.62956">
        <ele>689.7</ele>
        <time>2018-09-09T08:32:39Z</time>
      </trkpt>
      <trkpt lat="45.75471" lon="4.62914">
        <ele>688.3</ele>
        <time>2018-09-09T08:32:45Z</time>
      </trkpt>
      <trkpt lat="45.75474" lon="4.62907">
        <ele>687.9</ele>
        <time>2018-09-09T08:32:46Z</time>
      </trkpt>
      <trkpt lat="45.75489" lon="4.62869">
        <ele>685.8</ele>
        <time>2018-09-09T08:32:52Z</time>
      </trkpt>
      <trkpt lat="45.75497" lon="4.62846">
        <ele>685</ele>
        <time>2018-09-09T08:32:56Z</time>
      </trkpt>
      <trkpt lat="45.75501" lon="4.62834">
        <ele>685</ele>
        <time>2018-09-09T08:32:58Z</time>
      </trkpt>
      <trkpt lat="45.75515" lon="4.62781">
        <ele>684.9</ele>
        <time>2018-09-09T08:33:07Z</time>
      </trkpt>
      <trkpt lat="45.75528" lon="4.6274">
        <ele>685.1</ele>
        <time>2018-09-09T08:33:14Z</time>
      </trkpt>
      <trkpt lat="45.75531" lon="4.62729">
        <ele>685.2</ele>
        <time>2018-09-09T08:33:16Z</time>
      </trkpt>
      <trkpt lat="45.75538" lon="4.62708">
        <ele>685.7</ele>
        <time>2018-09-09T08:33:20Z</time>
      </trkpt>
      <trkpt lat="45.75545" lon="4.62692">
        <ele>686.3</ele>
        <time>2018-09-09T08:33:23Z</time>
      </trkpt>
      <trkpt lat="45.75553" lon="4.62679">
        <ele>687</ele>
        <time>2018-09-09T08:33:26Z</time>
      </trkpt>
      <trkpt lat="45.75558" lon="4.62664">
        <ele>688</ele>
        <time>2018-09-09T08:33:30Z</time>
      </trkpt>
      <trkpt lat="45.7556" lon="4.62661">
        <ele>688.3</ele>
        <time>2018-09-09T08:33:31Z</time>
      </trkpt>
      <trkpt lat="45.75566" lon="4.62647">
        <ele>689.9</ele>
        <time>2018-09-09T08:33:35Z</time>
      </trkpt>
      <trkpt lat="45.75571" lon="4.62635">
        <ele>691.4</ele>
        <time>2018-09-09T08:33:39Z</time>
      </trkpt>
      <trkpt lat="45.75574" lon="4.62626">
        <ele>692.5</ele>
        <time>2018-09-09T08:33:42Z</time>
      </trkpt>
      <trkpt lat="45.75579" lon="4.62615">
        <ele>693.8</ele>
        <time>2018-09-09T08:33:46Z</time>
      </trkpt>
      <trkpt lat="45.7558" lon="4.62613">
        <ele>694</ele>
        <time>2018-09-09T08:33:47Z</time>
      </trkpt>
      <trkpt lat="45.75587" lon="4.62602">
        <ele>695.6</ele>
        <time>2018-09-09T08:33:52Z</time>
      </trkpt>
      <trkpt lat="45.75592" lon="4.62593">
        <ele>696.8</ele>
        <time>2018-09-09T08:33:56Z</time>
      </trkpt>
      <trkpt lat="45.75595" lon="4.62587">
        <ele>697.6</ele>
        <time>2018-09-09T08:33:59Z</time>
      </trkpt>
      <trkpt lat="45.75597" lon="4.62582">
        <ele>698.5</ele>
        <time>2018-09-09T08:34:02Z</time>
      </trkpt>
      <trkpt lat="45.756" lon="4.62574">
        <ele>699.5</ele>
        <time>2018-09-09T08:34:06Z</time>
      </trkpt>
      <trkpt lat="45.75601" lon="4.62572">
        <ele>699.8</ele>
        <time>2018-09-09T08:34:07Z</time>
      </trkpt>
      <trkpt lat="45.75602" lon="4.62564">
        <ele>700.5</ele>
        <time>2018-09-09T08:34:10Z</time>
      </trkpt>
      <trkpt lat="45.75603" lon="4.62558">
        <ele>701.1</ele>
        <time>2018-09-09T08:34:13Z</time>
      </trkpt>
      <trkpt lat="45.75603" lon="4.62555">
        <ele>701.4</ele>
        <time>2018-09-09T08:34:14Z</time>
      </trkpt>
      <trkpt lat="45.75605" lon="4.62545">
        <ele>702.4</ele>
        <time>2018-09-09T08:34:18Z</time>
      </trkpt>
      <trkpt lat="45.75606" lon="4.62537">
        <ele>703.3</ele>
        <time>2018-09-09T08:34:21Z</time>
      </trkpt>
      <trkpt lat="45.75607" lon="4.62534">
        <ele>703.6</ele>
        <time>2018-09-09T08:34:22Z</time>
      </trkpt>
      <trkpt lat="45.75608" lon="4.62525">
        <ele>704.7</ele>
        <time>2018-09-09T08:34:25Z</time>
      </trkpt>
      <trkpt lat="45.75609" lon="4.62517">
        <ele>705.7</ele>
        <time>2018-09-09T08:34:28Z</time>
      </trkpt>
      <trkpt lat="45.7561" lon="4.62507">
        <ele>706.9</ele>
        <time>2018-09-09T08:34:31Z</time>
      </trkpt>
      <trkpt lat="45.75609" lon="4.625">
        <ele>707.8</ele>
        <time>2018-09-09T08:34:33Z</time>
      </trkpt>
      <trkpt lat="45.75609" lon="4.62496">
        <ele>708.5</ele>
        <time>2018-09-09T08:34:34Z</time>
      </trkpt>
      <trkpt lat="45.75609" lon="4.62486">
        <ele>709.8</ele>
        <time>2018-09-09T08:34:37Z</time>
      </trkpt>
      <trkpt lat="45.75609" lon="4.62477">
        <ele>710.8</ele>
        <time>2018-09-09T08:34:40Z</time>
      </trkpt>
      <trkpt lat="45.75609" lon="4.62474">
        <ele>711.2</ele>
        <time>2018-09-09T08:34:41Z</time>
      </trkpt>
      <trkpt lat="45.75609" lon="4.62469">
        <ele>711.8</ele>
        <time>2018-09-09T08:34:43Z</time>
      </trkpt>
      <trkpt lat="45.75609" lon="4.62466">
        <ele>712.1</ele>
        <time>2018-09-09T08:34:44Z</time>
      </trkpt>
      <trkpt lat="45.7561" lon="4.62461">
        <ele>712.5</ele>
        <time>2018-09-09T08:34:46Z</time>
      </trkpt>
      <trkpt lat="45.7561" lon="4.62458">
        <ele>712.7</ele>
        <time>2018-09-09T08:34:47Z</time>
      </trkpt>
      <trkpt lat="45.75611" lon="4.62456">
        <ele>713</ele>
        <time>2018-09-09T08:34:48Z</time>
      </trkpt>
      <trkpt lat="45.75612" lon="4.6245">
        <ele>713.5</ele>
        <time>2018-09-09T08:34:50Z</time>
      </trkpt>
      <trkpt lat="45.75612" lon="4.62444">
        <ele>713.9</ele>
        <time>2018-09-09T08:34:52Z</time>
      </trkpt>
      <trkpt lat="45.75613" lon="4.62439">
        <ele>714.3</ele>
        <time>2018-09-09T08:34:54Z</time>
      </trkpt>
      <trkpt lat="45.75614" lon="4.62431">
        <ele>714.9</ele>
        <time>2018-09-09T08:34:57Z</time>
      </trkpt>
      <trkpt lat="45.75616" lon="4.62421">
        <ele>715.5</ele>
        <time>2018-09-09T08:35:01Z</time>
      </trkpt>
      <trkpt lat="45.75616" lon="4.62418">
        <ele>715.7</ele>
        <time>2018-09-09T08:35:02Z</time>
      </trkpt>
      <trkpt lat="45.75617" lon="4.62401">
        <ele>716.9</ele>
        <time>2018-09-09T08:35:07Z</time>
      </trkpt>
      <trkpt lat="45.75615" lon="4.6238">
        <ele>718</ele>
        <time>2018-09-09T08:35:14Z</time>
      </trkpt>
      <trkpt lat="45.75615" lon="4.62376">
        <ele>718.2</ele>
        <time>2018-09-09T08:35:15Z</time>
      </trkpt>
      <trkpt lat="45.7561" lon="4.62342">
        <ele>720.1</ele>
        <time>2018-09-09T08:36:18Z</time>
      </trkpt>
      <trkpt lat="45.75608" lon="4.62332">
        <ele>720.9</ele>
        <time>2018-09-09T08:36:21Z</time>
      </trkpt>
      <trkpt lat="45.75606" lon="4.62321">
        <ele>721.8</ele>
        <time>2018-09-09T08:36:24Z</time>
      </trkpt>
      <trkpt lat="45.75601" lon="4.62298">
        <ele>723.7</ele>
        <time>2018-09-09T08:36:31Z</time>
      </trkpt>
      <trkpt lat="45.75601" lon="4.62295">
        <ele>723.9</ele>
        <time>2018-09-09T08:36:32Z</time>
      </trkpt>
      <trkpt lat="45.75598" lon="4.62278">
        <ele>725.4</ele>
        <time>2018-09-09T08:36:38Z</time>
      </trkpt>
      <trkpt lat="45.75598" lon="4.62275">
        <ele>725.7</ele>
        <time>2018-09-09T08:36:39Z</time>
      </trkpt>
      <trkpt lat="45.75598" lon="4.62261">
        <ele>727</ele>
        <time>2018-09-09T08:36:44Z</time>
      </trkpt>
      <trkpt lat="45.75597" lon="4.62246">
        <ele>728.4</ele>
        <time>2018-09-09T08:36:49Z</time>
      </trkpt>
      <trkpt lat="45.75597" lon="4.62243">
        <ele>728.6</ele>
        <time>2018-09-09T08:36:50Z</time>
      </trkpt>
      <trkpt lat="45.75592" lon="4.62232">
        <ele>729.8</ele>
        <time>2018-09-09T08:37:49Z</time>
      </trkpt>
      <trkpt lat="45.75592" lon="4.62227">
        <ele>730.3</ele>
        <time>2018-09-09T08:37:51Z</time>
      </trkpt>
      <trkpt lat="45.75592" lon="4.62211">
        <ele>732.1</ele>
        <time>2018-09-09T08:37:58Z</time>
      </trkpt>
      <trkpt lat="45.75592" lon="4.62208">
        <ele>732.4</ele>
        <time>2018-09-09T08:37:59Z</time>
      </trkpt>
      <trkpt lat="45.75595" lon="4.62196">
        <ele>733.9</ele>
        <time>2018-09-09T08:38:04Z</time>
      </trkpt>
      <trkpt lat="45.75595" lon="4.62192">
        <ele>734.2</ele>
        <time>2018-09-09T08:38:05Z</time>
      </trkpt>
      <trkpt lat="45.75596" lon="4.62183">
        <ele>735</ele>
        <time>2018-09-09T08:38:08Z</time>
      </trkpt>
      <trkpt lat="45.75597" lon="4.62165">
        <ele>736.7</ele>
        <time>2018-09-09T08:38:13Z</time>
      </trkpt>
      <trkpt lat="45.75597" lon="4.62149">
        <ele>738.1</ele>
        <time>2018-09-09T08:38:18Z</time>
      </trkpt>
      <trkpt lat="45.75598" lon="4.62142">
        <ele>738.7</ele>
        <time>2018-09-09T08:38:20Z</time>
      </trkpt>
      <trkpt lat="45.756" lon="4.62127">
        <ele>740.3</ele>
        <time>2018-09-09T08:38:25Z</time>
      </trkpt>
      <trkpt lat="45.75601" lon="4.6212">
        <ele>741.1</ele>
        <time>2018-09-09T08:38:27Z</time>
      </trkpt>
      <trkpt lat="45.75601" lon="4.62113">
        <ele>741.9</ele>
        <time>2018-09-09T08:38:29Z</time>
      </trkpt>
      <trkpt lat="45.75601" lon="4.6211">
        <ele>742.2</ele>
        <time>2018-09-09T08:38:30Z</time>
      </trkpt>
      <trkpt lat="45.75601" lon="4.62104">
        <ele>743</ele>
        <time>2018-09-09T08:38:32Z</time>
      </trkpt>
      <trkpt lat="45.75602" lon="4.62087">
        <ele>744.7</ele>
        <time>2018-09-09T08:38:37Z</time>
      </trkpt>
      <trkpt lat="45.75603" lon="4.62079">
        <ele>745.4</ele>
        <time>2018-09-09T08:38:40Z</time>
      </trkpt>
      <trkpt lat="45.75603" lon="4.6207">
        <ele>746</ele>
        <time>2018-09-09T08:38:43Z</time>
      </trkpt>
      <trkpt lat="45.75603" lon="4.62067">
        <ele>746.2</ele>
        <time>2018-09-09T08:38:44Z</time>
      </trkpt>
      <trkpt lat="45.75602" lon="4.62058">
        <ele>746.8</ele>
        <time>2018-09-09T08:38:47Z</time>
      </trkpt>
      <trkpt lat="45.75602" lon="4.62051">
        <ele>747.3</ele>
        <time>2018-09-09T08:38:49Z</time>
      </trkpt>
      <trkpt lat="45.75601" lon="4.62038">
        <ele>748.2</ele>
        <time>2018-09-09T08:38:53Z</time>
      </trkpt>
      <trkpt lat="45.75601" lon="4.62029">
        <ele>748.7</ele>
        <time>2018-09-09T08:38:56Z</time>
      </trkpt>
      <trkpt lat="45.75601" lon="4.62026">
        <ele>748.9</ele>
        <time>2018-09-09T08:38:57Z</time>
      </trkpt>
      <trkpt lat="45.75601" lon="4.62019">
        <ele>749.3</ele>
        <time>2018-09-09T08:38:59Z</time>
      </trkpt>
      <trkpt lat="45.756" lon="4.62004">
        <ele>750.1</ele>
        <time>2018-09-09T08:39:03Z</time>
      </trkpt>
      <trkpt lat="45.756" lon="4.61998">
        <ele>750.4</ele>
        <time>2018-09-09T08:39:05Z</time>
      </trkpt>
      <trkpt lat="45.756" lon="4.61994">
        <ele>750.6</ele>
        <time>2018-09-09T08:39:06Z</time>
      </trkpt>
      <trkpt lat="45.756" lon="4.61984">
        <ele>751.2</ele>
        <time>2018-09-09T08:39:09Z</time>
      </trkpt>
      <trkpt lat="45.756" lon="4.61978">
        <ele>751.5</ele>
        <time>2018-09-09T08:39:11Z</time>
      </trkpt>
      <trkpt lat="45.756" lon="4.6197">
        <ele>751.9</ele>
        <time>2018-09-09T08:39:13Z</time>
      </trkpt>
      <trkpt lat="45.756" lon="4.61954">
        <ele>752.6</ele>
        <time>2018-09-09T08:39:17Z</time>
      </trkpt>
      <trkpt lat="45.75599" lon="4.61943">
        <ele>753.1</ele>
        <time>2018-09-09T08:39:20Z</time>
      </trkpt>
      <trkpt lat="45.756" lon="4.61927">
        <ele>753.7</ele>
        <time>2018-09-09T08:39:24Z</time>
      </trkpt>
      <trkpt lat="45.75598" lon="4.61895">
        <ele>755.2</ele>
        <time>2018-09-09T08:39:32Z</time>
      </trkpt>
      <trkpt lat="45.75596" lon="4.6188">
        <ele>755.7</ele>
        <time>2018-09-09T08:39:35Z</time>
      </trkpt>
      <trkpt lat="45.75595" lon="4.61866">
        <ele>756.3</ele>
        <time>2018-09-09T08:39:38Z</time>
      </trkpt>
      <trkpt lat="45.75594" lon="4.61839">
        <ele>757.6</ele>
        <time>2018-09-09T08:39:45Z</time>
      </trkpt>
      <trkpt lat="45.75595" lon="4.61827">
        <ele>758.6</ele>
        <time>2018-09-09T08:39:50Z</time>
      </trkpt>
      <trkpt lat="45.75598" lon="4.6181">
        <ele>760.1</ele>
        <time>2018-09-09T08:39:57Z</time>
      </trkpt>
      <trkpt lat="45.75602" lon="4.61795">
        <ele>761.4</ele>
        <time>2018-09-09T08:40:04Z</time>
      </trkpt>
      <trkpt lat="45.75595" lon="4.61792">
        <ele>762.4</ele>
        <time>2018-09-09T08:40:12Z</time>
      </trkpt>
      <trkpt lat="45.75593" lon="4.61793">
        <ele>762.5</ele>
        <time>2018-09-09T08:40:14Z</time>
      </trkpt>
      <trkpt lat="45.75591" lon="4.61793">
        <ele>762.6</ele>
        <time>2018-09-09T08:40:16Z</time>
      </trkpt>
      <trkpt lat="45.75575" lon="4.61762">
        <ele>764.2</ele>
        <time>2018-09-09T08:40:56Z</time>
      </trkpt>
      <trkpt lat="45.75574" lon="4.6176">
        <ele>764.3</ele>
        <time>2018-09-09T08:40:57Z</time>
      </trkpt>
      <trkpt lat="45.7556" lon="4.61745">
        <ele>765.5</ele>
        <time>2018-09-09T08:41:06Z</time>
      </trkpt>
      <trkpt lat="45.75559" lon="4.61743">
        <ele>765.6</ele>
        <time>2018-09-09T08:41:07Z</time>
      </trkpt>
      <trkpt lat="45.75553" lon="4.61736">
        <ele>766.1</ele>
        <time>2018-09-09T08:41:12Z</time>
      </trkpt>
      <trkpt lat="45.75547" lon="4.61724">
        <ele>766.7</ele>
        <time>2018-09-09T08:41:20Z</time>
      </trkpt>
      <trkpt lat="45.75545" lon="4.6172">
        <ele>766.9</ele>
        <time>2018-09-09T08:41:22Z</time>
      </trkpt>
      <trkpt lat="45.75541" lon="4.61714">
        <ele>767.3</ele>
        <time>2018-09-09T08:41:26Z</time>
      </trkpt>
      <trkpt lat="45.75504" lon="4.61676">
        <ele>770</ele>
        <time>2018-09-09T08:41:54Z</time>
      </trkpt>
      <trkpt lat="45.75497" lon="4.61671">
        <ele>770.6</ele>
        <time>2018-09-09T08:41:58Z</time>
      </trkpt>
      <trkpt lat="45.75491" lon="4.61666">
        <ele>771.2</ele>
        <time>2018-09-09T08:42:02Z</time>
      </trkpt>
      <trkpt lat="45.75486" lon="4.6166">
        <ele>771.8</ele>
        <time>2018-09-09T08:42:06Z</time>
      </trkpt>
      <trkpt lat="45.75483" lon="4.61657">
        <ele>772.2</ele>
        <time>2018-09-09T08:42:08Z</time>
      </trkpt>
      <trkpt lat="45.7548" lon="4.61655">
        <ele>772.6</ele>
        <time>2018-09-09T08:42:10Z</time>
      </trkpt>
      <trkpt lat="45.75474" lon="4.61652">
        <ele>773.2</ele>
        <time>2018-09-09T08:42:13Z</time>
      </trkpt>
      <trkpt lat="45.75469" lon="4.61649">
        <ele>773.7</ele>
        <time>2018-09-09T08:42:16Z</time>
      </trkpt>
      <trkpt lat="45.75458" lon="4.61643">
        <ele>774.7</ele>
        <time>2018-09-09T08:42:22Z</time>
      </trkpt>
      <trkpt lat="45.75456" lon="4.61642">
        <ele>774.8</ele>
        <time>2018-09-09T08:42:23Z</time>
      </trkpt>
      <trkpt lat="45.75446" lon="4.61637">
        <ele>775.5</ele>
        <time>2018-09-09T08:42:29Z</time>
      </trkpt>
      <trkpt lat="45.7544" lon="4.61635">
        <ele>775.8</ele>
        <time>2018-09-09T08:42:32Z</time>
      </trkpt>
      <trkpt lat="45.75435" lon="4.61633">
        <ele>776.1</ele>
        <time>2018-09-09T08:42:35Z</time>
      </trkpt>
      <trkpt lat="45.75422" lon="4.61627">
        <ele>776.8</ele>
        <time>2018-09-09T08:42:42Z</time>
      </trkpt>
      <trkpt lat="45.75411" lon="4.61621">
        <ele>777.4</ele>
        <time>2018-09-09T08:42:48Z</time>
      </trkpt>
      <trkpt lat="45.75409" lon="4.61619">
        <ele>777.5</ele>
        <time>2018-09-09T08:42:49Z</time>
      </trkpt>
      <trkpt lat="45.75397" lon="4.61611">
        <ele>778.1</ele>
        <time>2018-09-09T08:42:54Z</time>
      </trkpt>
      <trkpt lat="45.75382" lon="4.61602">
        <ele>778.7</ele>
        <time>2018-09-09T08:43:00Z</time>
      </trkpt>
      <trkpt lat="45.7538" lon="4.61601">
        <ele>778.7</ele>
        <time>2018-09-09T08:43:01Z</time>
      </trkpt>
      <trkpt lat="45.75368" lon="4.61593">
        <ele>778.9</ele>
        <time>2018-09-09T08:43:06Z</time>
      </trkpt>
      <trkpt lat="45.75364" lon="4.6159">
        <ele>779</ele>
        <time>2018-09-09T08:43:09Z</time>
      </trkpt>
      <trkpt lat="45.75362" lon="4.61589">
        <ele>779</ele>
        <time>2018-09-09T08:43:10Z</time>
      </trkpt>
      <trkpt lat="45.75356" lon="4.61586">
        <ele>779</ele>
        <time>2018-09-09T08:43:13Z</time>
      </trkpt>
      <trkpt lat="45.75352" lon="4.61585">
        <ele>779</ele>
        <time>2018-09-09T08:43:16Z</time>
      </trkpt>
      <trkpt lat="45.75347" lon="4.61582">
        <ele>779</ele>
        <time>2018-09-09T08:43:19Z</time>
      </trkpt>
      <trkpt lat="45.75338" lon="4.6158">
        <ele>778.9</ele>
        <time>2018-09-09T08:43:22Z</time>
      </trkpt>
      <trkpt lat="45.75312" lon="4.61572">
        <ele>778.5</ele>
        <time>2018-09-09T08:43:31Z</time>
      </trkpt>
      <trkpt lat="45.75304" lon="4.6157">
        <ele>778.3</ele>
        <time>2018-09-09T08:43:35Z</time>
      </trkpt>
      <trkpt lat="45.75301" lon="4.61567">
        <ele>778.2</ele>
        <time>2018-09-09T08:43:37Z</time>
      </trkpt>
      <trkpt lat="45.75299" lon="4.61564">
        <ele>778.2</ele>
        <time>2018-09-09T08:43:38Z</time>
      </trkpt>
      <trkpt lat="45.75298" lon="4.61562">
        <ele>778.1</ele>
        <time>2018-09-09T08:43:39Z</time>
      </trkpt>
      <trkpt lat="45.75292" lon="4.61545">
        <ele>777.1</ele>
        <time>2018-09-09T08:43:43Z</time>
      </trkpt>
      <trkpt lat="45.75291" lon="4.61539">
        <ele>776.7</ele>
        <time>2018-09-09T08:43:45Z</time>
      </trkpt>
      <trkpt lat="45.75288" lon="4.61532">
        <ele>776.2</ele>
        <time>2018-09-09T08:43:49Z</time>
      </trkpt>
      <trkpt lat="45.75287" lon="4.61522">
        <ele>775.6</ele>
        <time>2018-09-09T08:43:53Z</time>
      </trkpt>
      <trkpt lat="45.75287" lon="4.61506">
        <ele>774.7</ele>
        <time>2018-09-09T08:43:56Z</time>
      </trkpt>
      <trkpt lat="45.75287" lon="4.61499">
        <ele>774.2</ele>
        <time>2018-09-09T08:43:57Z</time>
      </trkpt>
      <trkpt lat="45.75287" lon="4.61473">
        <ele>772.4</ele>
        <time>2018-09-09T08:44:00Z</time>
      </trkpt>
      <trkpt lat="45.75286" lon="4.61461">
        <ele>771.8</ele>
        <time>2018-09-09T08:44:01Z</time>
      </trkpt>
      <trkpt lat="45.75286" lon="4.61441">
        <ele>770.8</ele>
        <time>2018-09-09T08:44:03Z</time>
      </trkpt>
      <trkpt lat="45.75287" lon="4.61409">
        <ele>769.7</ele>
        <time>2018-09-09T08:44:06Z</time>
      </trkpt>
      <trkpt lat="45.75286" lon="4.61399">
        <ele>769.4</ele>
        <time>2018-09-09T08:44:07Z</time>
      </trkpt>
      <trkpt lat="45.75286" lon="4.6138">
        <ele>768.5</ele>
        <time>2018-09-09T08:44:09Z</time>
      </trkpt>
      <trkpt lat="45.75284" lon="4.61352">
        <ele>767.6</ele>
        <time>2018-09-09T08:44:12Z</time>
      </trkpt>
      <trkpt lat="45.75282" lon="4.61334">
        <ele>767</ele>
        <time>2018-09-09T08:44:14Z</time>
      </trkpt>
      <trkpt lat="45.75282" lon="4.61325">
        <ele>766.7</ele>
        <time>2018-09-09T08:44:15Z</time>
      </trkpt>
      <trkpt lat="45.75271" lon="4.61262">
        <ele>763.9</ele>
        <time>2018-09-09T08:44:22Z</time>
      </trkpt>
      <trkpt lat="45.75253" lon="4.61192">
        <ele>760</ele>
        <time>2018-09-09T08:44:29Z</time>
      </trkpt>
      <trkpt lat="45.75234" lon="4.61144">
        <ele>757.2</ele>
        <time>2018-09-09T08:44:35Z</time>
      </trkpt>
      <trkpt lat="45.7523" lon="4.61138">
        <ele>756.9</ele>
        <time>2018-09-09T08:44:36Z</time>
      </trkpt>
      <trkpt lat="45.75211" lon="4.61123">
        <ele>755.8</ele>
        <time>2018-09-09T08:44:40Z</time>
      </trkpt>
      <trkpt lat="45.75207" lon="4.6112">
        <ele>755.7</ele>
        <time>2018-09-09T08:44:41Z</time>
      </trkpt>
      <trkpt lat="45.75164" lon="4.61082">
        <ele>755.3</ele>
        <time>2018-09-09T08:44:51Z</time>
      </trkpt>
      <trkpt lat="45.75143" lon="4.61041">
        <ele>753.7</ele>
        <time>2018-09-09T08:44:59Z</time>
      </trkpt>
      <trkpt lat="45.75138" lon="4.61028">
        <ele>752.8</ele>
        <time>2018-09-09T08:45:01Z</time>
      </trkpt>
      <trkpt lat="45.75132" lon="4.61018">
        <ele>752.3</ele>
        <time>2018-09-09T08:45:03Z</time>
      </trkpt>
      <trkpt lat="45.75124" lon="4.6101">
        <ele>751.8</ele>
        <time>2018-09-09T08:45:05Z</time>
      </trkpt>
      <trkpt lat="45.75108" lon="4.61001">
        <ele>750.9</ele>
        <time>2018-09-09T08:45:08Z</time>
      </trkpt>
      <trkpt lat="45.75101" lon="4.61">
        <ele>750.7</ele>
        <time>2018-09-09T08:45:09Z</time>
      </trkpt>
      <trkpt lat="45.75094" lon="4.60999">
        <ele>750.6</ele>
        <time>2018-09-09T08:45:10Z</time>
      </trkpt>
      <trkpt lat="45.75075" lon="4.60999">
        <ele>750.3</ele>
        <time>2018-09-09T08:45:13Z</time>
      </trkpt>
      <trkpt lat="45.75055" lon="4.61005">
        <ele>750.5</ele>
        <time>2018-09-09T08:45:17Z</time>
      </trkpt>
      <trkpt lat="45.75031" lon="4.61013">
        <ele>751.4</ele>
        <time>2018-09-09T08:45:23Z</time>
      </trkpt>
      <trkpt lat="45.7502" lon="4.61016">
        <ele>751.9</ele>
        <time>2018-09-09T08:45:26Z</time>
      </trkpt>
      <trkpt lat="45.74995" lon="4.61022">
        <ele>752</ele>
        <time>2018-09-09T08:45:32Z</time>
      </trkpt>
      <trkpt lat="45.74992" lon="4.61025">
        <ele>751.9</ele>
        <time>2018-09-09T08:45:33Z</time>
      </trkpt>
      <trkpt lat="45.74975" lon="4.61039">
        <ele>750.4</ele>
        <time>2018-09-09T08:45:38Z</time>
      </trkpt>
      <trkpt lat="45.74971" lon="4.61042">
        <ele>750</ele>
        <time>2018-09-09T08:45:39Z</time>
      </trkpt>
      <trkpt lat="45.74939" lon="4.61063">
        <ele>747.3</ele>
        <time>2018-09-09T08:45:46Z</time>
      </trkpt>
      <trkpt lat="45.74904" lon="4.61082">
        <ele>746.1</ele>
        <time>2018-09-09T08:45:52Z</time>
      </trkpt>
      <trkpt lat="45.74898" lon="4.61086">
        <ele>746</ele>
        <time>2018-09-09T08:45:53Z</time>
      </trkpt>
      <trkpt lat="45.74883" lon="4.61098">
        <ele>744.9</ele>
        <time>2018-09-09T08:45:57Z</time>
      </trkpt>
      <trkpt lat="45.7488" lon="4.61099">
        <ele>744.7</ele>
        <time>2018-09-09T08:45:58Z</time>
      </trkpt>
      <trkpt lat="45.74877" lon="4.61101">
        <ele>744.3</ele>
        <time>2018-09-09T08:45:59Z</time>
      </trkpt>
      <trkpt lat="45.74867" lon="4.61103">
        <ele>742.5</ele>
        <time>2018-09-09T08:46:03Z</time>
      </trkpt>
      <trkpt lat="45.74861" lon="4.61105">
        <ele>741.7</ele>
        <time>2018-09-09T08:46:05Z</time>
      </trkpt>
      <trkpt lat="45.74855" lon="4.61108">
        <ele>740.6</ele>
        <time>2018-09-09T08:46:08Z</time>
      </trkpt>
      <trkpt lat="45.74849" lon="4.61116">
        <ele>738.7</ele>
        <time>2018-09-09T08:46:12Z</time>
      </trkpt>
      <trkpt lat="45.74847" lon="4.61118">
        <ele>738.1</ele>
        <time>2018-09-09T08:46:13Z</time>
      </trkpt>
      <trkpt lat="45.74843" lon="4.61123">
        <ele>736.8</ele>
        <time>2018-09-09T08:46:15Z</time>
      </trkpt>
      <trkpt lat="45.74831" lon="4.61134">
        <ele>735.2</ele>
        <time>2018-09-09T08:46:19Z</time>
      </trkpt>
      <trkpt lat="45.74822" lon="4.61141">
        <ele>734.1</ele>
        <time>2018-09-09T08:46:23Z</time>
      </trkpt>
      <trkpt lat="45.74821" lon="4.61143">
        <ele>733.8</ele>
        <time>2018-09-09T08:46:24Z</time>
      </trkpt>
      <trkpt lat="45.74814" lon="4.61147">
        <ele>733</ele>
        <time>2018-09-09T08:46:28Z</time>
      </trkpt>
      <trkpt lat="45.7481" lon="4.61146">
        <ele>732.5</ele>
        <time>2018-09-09T08:46:31Z</time>
      </trkpt>
      <trkpt lat="45.74806" lon="4.61145">
        <ele>732.1</ele>
        <time>2018-09-09T08:46:34Z</time>
      </trkpt>
      <trkpt lat="45.74799" lon="4.61151">
        <ele>730.2</ele>
        <time>2018-09-09T08:46:38Z</time>
      </trkpt>
      <trkpt lat="45.74797" lon="4.61152">
        <ele>729.6</ele>
        <time>2018-09-09T08:46:39Z</time>
      </trkpt>
      <trkpt lat="45.74792" lon="4.61154">
        <ele>728.7</ele>
        <time>2018-09-09T08:46:41Z</time>
      </trkpt>
      <trkpt lat="45.74788" lon="4.61154">
        <ele>728.1</ele>
        <time>2018-09-09T08:46:43Z</time>
      </trkpt>
      <trkpt lat="45.74783" lon="4.61151">
        <ele>727.6</ele>
        <time>2018-09-09T08:46:46Z</time>
      </trkpt>
      <trkpt lat="45.74786" lon="4.6114">
        <ele>727</ele>
        <time>2018-09-09T08:47:02Z</time>
      </trkpt>
      <trkpt lat="45.74786" lon="4.61142">
        <ele>727</ele>
        <time>2018-09-09T08:47:03Z</time>
      </trkpt>
      <trkpt lat="45.74784" lon="4.61142">
        <ele>727</ele>
        <time>2018-09-09T08:47:04Z</time>
      </trkpt>
      <trkpt lat="45.74784" lon="4.61143">
        <ele>727</ele>
        <time>2018-09-09T08:47:05Z</time>
      </trkpt>
      <trkpt lat="45.74783" lon="4.61139">
        <ele>727</ele>
        <time>2018-09-09T08:47:07Z</time>
      </trkpt>
      <trkpt lat="45.74776" lon="4.61134">
        <ele>727</ele>
        <time>2018-09-09T08:47:11Z</time>
      </trkpt>
      <trkpt lat="45.74773" lon="4.61131">
        <ele>724.6</ele>
        <time>2018-09-09T08:47:13Z</time>
      </trkpt>
      <trkpt lat="45.74771" lon="4.61122">
        <ele>724</ele>
        <time>2018-09-09T08:47:16Z</time>
      </trkpt>
      <trkpt lat="45.74772" lon="4.6112">
        <ele>723.9</ele>
        <time>2018-09-09T08:47:17Z</time>
      </trkpt>
      <trkpt lat="45.74772" lon="4.61117">
        <ele>723.7</ele>
        <time>2018-09-09T08:47:18Z</time>
      </trkpt>
      <trkpt lat="45.74775" lon="4.61116">
        <ele>723.5</ele>
        <time>2018-09-09T08:47:20Z</time>
      </trkpt>
      <trkpt lat="45.74776" lon="4.61114">
        <ele>723.4</ele>
        <time>2018-09-09T08:47:21Z</time>
      </trkpt>
      <trkpt lat="45.7478" lon="4.61112">
        <ele>723.2</ele>
        <time>2018-09-09T08:47:23Z</time>
      </trkpt>
      <trkpt lat="45.74786" lon="4.61108">
        <ele>722.8</ele>
        <time>2018-09-09T08:47:26Z</time>
      </trkpt>
      <trkpt lat="45.74795" lon="4.611">
        <ele>722.1</ele>
        <time>2018-09-09T08:47:30Z</time>
      </trkpt>
      <trkpt lat="45.748" lon="4.61095">
        <ele>721.4</ele>
        <time>2018-09-09T08:47:32Z</time>
      </trkpt>
      <trkpt lat="45.74803" lon="4.61091">
        <ele>720.6</ele>
        <time>2018-09-09T08:47:33Z</time>
      </trkpt>
      <trkpt lat="45.74812" lon="4.61071">
        <ele>718.5</ele>
        <time>2018-09-09T08:47:37Z</time>
      </trkpt>
      <trkpt lat="45.74818" lon="4.61049">
        <ele>716.5</ele>
        <time>2018-09-09T08:47:41Z</time>
      </trkpt>
      <trkpt lat="45.74823" lon="4.61038">
        <ele>715.3</ele>
        <time>2018-09-09T08:47:43Z</time>
      </trkpt>
      <trkpt lat="45.74837" lon="4.61004">
        <ele>710.6</ele>
        <time>2018-09-09T08:47:48Z</time>
      </trkpt>
      <trkpt lat="45.74844" lon="4.60989">
        <ele>709.1</ele>
        <time>2018-09-09T08:47:50Z</time>
      </trkpt>
      <trkpt lat="45.74865" lon="4.60945">
        <ele>704.4</ele>
        <time>2018-09-09T08:47:55Z</time>
      </trkpt>
      <trkpt lat="45.74874" lon="4.60927">
        <ele>702.6</ele>
        <time>2018-09-09T08:47:57Z</time>
      </trkpt>
      <trkpt lat="45.74893" lon="4.60878">
        <ele>699.7</ele>
        <time>2018-09-09T08:48:02Z</time>
      </trkpt>
      <trkpt lat="45.74896" lon="4.60869">
        <ele>699.1</ele>
        <time>2018-09-09T08:48:03Z</time>
      </trkpt>
      <trkpt lat="45.74904" lon="4.60833">
        <ele>696.8</ele>
        <time>2018-09-09T08:48:07Z</time>
      </trkpt>
      <trkpt lat="45.74907" lon="4.60823">
        <ele>696.1</ele>
        <time>2018-09-09T08:48:08Z</time>
      </trkpt>
      <trkpt lat="45.74926" lon="4.60768">
        <ele>692</ele>
        <time>2018-09-09T08:48:14Z</time>
      </trkpt>
      <trkpt lat="45.74939" lon="4.60738">
        <ele>688.2</ele>
        <time>2018-09-09T08:48:19Z</time>
      </trkpt>
      <trkpt lat="45.74945" lon="4.60727">
        <ele>686.7</ele>
        <time>2018-09-09T08:48:21Z</time>
      </trkpt>
      <trkpt lat="45.74952" lon="4.60718">
        <ele>684.1</ele>
        <time>2018-09-09T08:48:23Z</time>
      </trkpt>
      <trkpt lat="45.74963" lon="4.6071">
        <ele>683.5</ele>
        <time>2018-09-09T08:48:26Z</time>
      </trkpt>
      <trkpt lat="45.74982" lon="4.60713">
        <ele>684.3</ele>
        <time>2018-09-09T08:48:30Z</time>
      </trkpt>
      <trkpt lat="45.74987" lon="4.60713">
        <ele>684.1</ele>
        <time>2018-09-09T08:48:31Z</time>
      </trkpt>
      <trkpt lat="45.74994" lon="4.6072">
        <ele>685.8</ele>
        <time>2018-09-09T08:48:32Z</time>
      </trkpt>
      <trkpt lat="45.75019" lon="4.60743">
        <ele>690.3</ele>
        <time>2018-09-09T08:48:36Z</time>
      </trkpt>
      <trkpt lat="45.75032" lon="4.60753">
        <ele>692.6</ele>
        <time>2018-09-09T08:48:38Z</time>
      </trkpt>
      <trkpt lat="45.75087" lon="4.60778">
        <ele>696.8</ele>
        <time>2018-09-09T08:48:47Z</time>
      </trkpt>
      <trkpt lat="45.75145" lon="4.60792">
        <ele>699</ele>
        <time>2018-09-09T08:48:57Z</time>
      </trkpt>
      <trkpt lat="45.75193" lon="4.60797">
        <ele>701</ele>
        <time>2018-09-09T08:49:07Z</time>
      </trkpt>
      <trkpt lat="45.75206" lon="4.60797">
        <ele>701.2</ele>
        <time>2018-09-09T08:49:12Z</time>
      </trkpt>
      <trkpt lat="45.75209" lon="4.60798">
        <ele>701.2</ele>
        <time>2018-09-09T08:49:13Z</time>
      </trkpt>
      <trkpt lat="45.75217" lon="4.60807">
        <ele>701.2</ele>
        <time>2018-09-09T08:49:16Z</time>
      </trkpt>
      <trkpt lat="45.7522" lon="4.60812">
        <ele>701.1</ele>
        <time>2018-09-09T08:49:17Z</time>
      </trkpt>
      <trkpt lat="45.75236" lon="4.6084">
        <ele>700.6</ele>
        <time>2018-09-09T08:49:23Z</time>
      </trkpt>
      <trkpt lat="45.75258" lon="4.60876">
        <ele>699.5</ele>
        <time>2018-09-09T08:49:30Z</time>
      </trkpt>
      <trkpt lat="45.75262" lon="4.60881">
        <ele>699.4</ele>
        <time>2018-09-09T08:49:31Z</time>
      </trkpt>
      <trkpt lat="45.75277" lon="4.60907">
        <ele>699</ele>
        <time>2018-09-09T08:49:36Z</time>
      </trkpt>
      <trkpt lat="45.7528" lon="4.60912">
        <ele>698.9</ele>
        <time>2018-09-09T08:49:37Z</time>
      </trkpt>
      <trkpt lat="45.75283" lon="4.60918">
        <ele>698.8</ele>
        <time>2018-09-09T08:49:38Z</time>
      </trkpt>
      <trkpt lat="45.75287" lon="4.60928">
        <ele>698.9</ele>
        <time>2018-09-09T08:49:40Z</time>
      </trkpt>
      <trkpt lat="45.7529" lon="4.60933">
        <ele>698.9</ele>
        <time>2018-09-09T08:49:41Z</time>
      </trkpt>
      <trkpt lat="45.75292" lon="4.60937">
        <ele>699</ele>
        <time>2018-09-09T08:49:42Z</time>
      </trkpt>
      <trkpt lat="45.75298" lon="4.60947">
        <ele>699.6</ele>
        <time>2018-09-09T08:49:46Z</time>
      </trkpt>
      <trkpt lat="45.75302" lon="4.60951">
        <ele>699.9</ele>
        <time>2018-09-09T08:49:48Z</time>
      </trkpt>
      <trkpt lat="45.75314" lon="4.60971">
        <ele>701.5</ele>
        <time>2018-09-09T08:49:54Z</time>
      </trkpt>
      <trkpt lat="45.75326" lon="4.6099">
        <ele>701.8</ele>
        <time>2018-09-09T08:49:59Z</time>
      </trkpt>
      <trkpt lat="45.75335" lon="4.61002">
        <ele>701.6</ele>
        <time>2018-09-09T08:50:02Z</time>
      </trkpt>
      <trkpt lat="45.75348" lon="4.61014">
        <ele>699.7</ele>
        <time>2018-09-09T08:50:06Z</time>
      </trkpt>
      <trkpt lat="45.75356" lon="4.61019">
        <ele>698.6</ele>
        <time>2018-09-09T08:50:08Z</time>
      </trkpt>
      <trkpt lat="45.7538" lon="4.61027">
        <ele>695.1</ele>
        <time>2018-09-09T08:50:12Z</time>
      </trkpt>
      <trkpt lat="45.75424" lon="4.61036">
        <ele>689.8</ele>
        <time>2018-09-09T08:50:17Z</time>
      </trkpt>
      <trkpt lat="45.75474" lon="4.6105">
        <ele>695.6</ele>
        <time>2018-09-09T08:50:23Z</time>
      </trkpt>
      <trkpt lat="45.75492" lon="4.61061">
        <ele>698.4</ele>
        <time>2018-09-09T08:50:27Z</time>
      </trkpt>
      <trkpt lat="45.75497" lon="4.61067">
        <ele>699.9</ele>
        <time>2018-09-09T08:50:31Z</time>
      </trkpt>
      <trkpt lat="45.755" lon="4.61072">
        <ele>700.7</ele>
        <time>2018-09-09T08:50:37Z</time>
      </trkpt>
      <trkpt lat="45.75505" lon="4.61079">
        <ele>701.9</ele>
        <time>2018-09-09T08:50:45Z</time>
      </trkpt>
      <trkpt lat="45.75516" lon="4.61089">
        <ele>704.2</ele>
        <time>2018-09-09T08:50:54Z</time>
      </trkpt>
      <trkpt lat="45.75523" lon="4.61097">
        <ele>705.1</ele>
        <time>2018-09-09T08:50:59Z</time>
      </trkpt>
      <trkpt lat="45.75529" lon="4.611">
        <ele>705.8</ele>
        <time>2018-09-09T08:51:02Z</time>
      </trkpt>
      <trkpt lat="45.75545" lon="4.61112">
        <ele>707.1</ele>
        <time>2018-09-09T08:51:08Z</time>
      </trkpt>
      <trkpt lat="45.75561" lon="4.61129">
        <ele>708.1</ele>
        <time>2018-09-09T08:51:14Z</time>
      </trkpt>
      <trkpt lat="45.75572" lon="4.61144">
        <ele>709.2</ele>
        <time>2018-09-09T08:51:19Z</time>
      </trkpt>
      <trkpt lat="45.75583" lon="4.61159">
        <ele>710.5</ele>
        <time>2018-09-09T08:51:25Z</time>
      </trkpt>
      <trkpt lat="45.75596" lon="4.61175">
        <ele>712</ele>
        <time>2018-09-09T08:51:29Z</time>
      </trkpt>
      <trkpt lat="45.75615" lon="4.61197">
        <ele>714</ele>
        <time>2018-09-09T08:51:35Z</time>
      </trkpt>
      <trkpt lat="45.75638" lon="4.61218">
        <ele>715.9</ele>
        <time>2018-09-09T08:51:41Z</time>
      </trkpt>
      <trkpt lat="45.75642" lon="4.61221">
        <ele>716.3</ele>
        <time>2018-09-09T08:51:42Z</time>
      </trkpt>
      <trkpt lat="45.7565" lon="4.61231">
        <ele>717.1</ele>
        <time>2018-09-09T08:51:44Z</time>
      </trkpt>
      <trkpt lat="45.75658" lon="4.61241">
        <ele>717.9</ele>
        <time>2018-09-09T08:51:46Z</time>
      </trkpt>
      <trkpt lat="45.75665" lon="4.61251">
        <ele>718.8</ele>
        <time>2018-09-09T08:51:48Z</time>
      </trkpt>
      <trkpt lat="45.75668" lon="4.61257">
        <ele>719.3</ele>
        <time>2018-09-09T08:51:49Z</time>
      </trkpt>
      <trkpt lat="45.75675" lon="4.6127">
        <ele>720.4</ele>
        <time>2018-09-09T08:51:52Z</time>
      </trkpt>
      <trkpt lat="45.7569" lon="4.61294">
        <ele>722.6</ele>
        <time>2018-09-09T08:51:59Z</time>
      </trkpt>
      <trkpt lat="45.75699" lon="4.61306">
        <ele>723.9</ele>
        <time>2018-09-09T08:52:05Z</time>
      </trkpt>
      <trkpt lat="45.75704" lon="4.61317">
        <ele>724.7</ele>
        <time>2018-09-09T08:52:09Z</time>
      </trkpt>
      <trkpt lat="45.75711" lon="4.61328">
        <ele>725.6</ele>
        <time>2018-09-09T08:52:13Z</time>
      </trkpt>
      <trkpt lat="45.75722" lon="4.61349">
        <ele>727</ele>
        <time>2018-09-09T08:52:20Z</time>
      </trkpt>
      <trkpt lat="45.7573" lon="4.61378">
        <ele>728.4</ele>
        <time>2018-09-09T08:52:28Z</time>
      </trkpt>
      <trkpt lat="45.7573" lon="4.61397">
        <ele>729.1</ele>
        <time>2018-09-09T08:52:34Z</time>
      </trkpt>
      <trkpt lat="45.75727" lon="4.61427">
        <ele>730.3</ele>
        <time>2018-09-09T08:52:42Z</time>
      </trkpt>
      <trkpt lat="45.75724" lon="4.61451">
        <ele>732.2</ele>
        <time>2018-09-09T08:52:49Z</time>
      </trkpt>
      <trkpt lat="45.75726" lon="4.61462">
        <ele>733.3</ele>
        <time>2018-09-09T08:57:37Z</time>
      </trkpt>
      <trkpt lat="45.75724" lon="4.61466">
        <ele>733.8</ele>
        <time>2018-09-09T08:57:39Z</time>
      </trkpt>
      <trkpt lat="45.75721" lon="4.61473">
        <ele>734.6</ele>
        <time>2018-09-09T08:57:42Z</time>
      </trkpt>
      <trkpt lat="45.7572" lon="4.61481">
        <ele>735.2</ele>
        <time>2018-09-09T08:57:45Z</time>
      </trkpt>
      <trkpt lat="45.75719" lon="4.61484">
        <ele>735.4</ele>
        <time>2018-09-09T08:57:46Z</time>
      </trkpt>
      <trkpt lat="45.75718" lon="4.61489">
        <ele>735.8</ele>
        <time>2018-09-09T08:57:48Z</time>
      </trkpt>
      <trkpt lat="45.75716" lon="4.615">
        <ele>736.5</ele>
        <time>2018-09-09T08:57:52Z</time>
      </trkpt>
      <trkpt lat="45.75716" lon="4.61506">
        <ele>736.9</ele>
        <time>2018-09-09T08:57:54Z</time>
      </trkpt>
      <trkpt lat="45.75715" lon="4.61516">
        <ele>737.8</ele>
        <time>2018-09-09T08:57:58Z</time>
      </trkpt>
      <trkpt lat="45.75714" lon="4.61525">
        <ele>738.4</ele>
        <time>2018-09-09T08:58:01Z</time>
      </trkpt>
      <trkpt lat="45.75714" lon="4.61532">
        <ele>738.9</ele>
        <time>2018-09-09T08:58:05Z</time>
      </trkpt>
      <trkpt lat="45.75713" lon="4.61536">
        <ele>739.1</ele>
        <time>2018-09-09T08:58:07Z</time>
      </trkpt>
      <trkpt lat="45.75712" lon="4.6154">
        <ele>739.3</ele>
        <time>2018-09-09T08:58:09Z</time>
      </trkpt>
      <trkpt lat="45.75712" lon="4.61545">
        <ele>739.6</ele>
        <time>2018-09-09T08:58:12Z</time>
      </trkpt>
      <trkpt lat="45.75711" lon="4.61554">
        <ele>740.2</ele>
        <time>2018-09-09T08:58:16Z</time>
      </trkpt>
      <trkpt lat="45.75711" lon="4.61556">
        <ele>740.4</ele>
        <time>2018-09-09T08:58:17Z</time>
      </trkpt>
      <trkpt lat="45.75712" lon="4.61567">
        <ele>741.4</ele>
        <time>2018-09-09T08:58:21Z</time>
      </trkpt>
      <trkpt lat="45.75712" lon="4.61572">
        <ele>741.8</ele>
        <time>2018-09-09T08:58:23Z</time>
      </trkpt>
      <trkpt lat="45.75712" lon="4.61587">
        <ele>743.4</ele>
        <time>2018-09-09T08:58:30Z</time>
      </trkpt>
      <trkpt lat="45.75711" lon="4.61598">
        <ele>744.3</ele>
        <time>2018-09-09T08:58:36Z</time>
      </trkpt>
      <trkpt lat="45.75709" lon="4.61617">
        <ele>746</ele>
        <time>2018-09-09T08:58:46Z</time>
      </trkpt>
      <trkpt lat="45.75709" lon="4.61624">
        <ele>746.6</ele>
        <time>2018-09-09T08:58:49Z</time>
      </trkpt>
      <trkpt lat="45.75708" lon="4.61626">
        <ele>746.8</ele>
        <time>2018-09-09T08:58:50Z</time>
      </trkpt>
      <trkpt lat="45.75708" lon="4.61649">
        <ele>748.9</ele>
        <time>2018-09-09T08:59:02Z</time>
      </trkpt>
      <trkpt lat="45.75708" lon="4.61653">
        <ele>749.3</ele>
        <time>2018-09-09T08:59:04Z</time>
      </trkpt>
      <trkpt lat="45.75708" lon="4.61655">
        <ele>749.5</ele>
        <time>2018-09-09T08:59:05Z</time>
      </trkpt>
      <trkpt lat="45.75705" lon="4.61664">
        <ele>750.5</ele>
        <time>2018-09-09T08:59:11Z</time>
      </trkpt>
      <trkpt lat="45.75704" lon="4.61665">
        <ele>750.7</ele>
        <time>2018-09-09T08:59:12Z</time>
      </trkpt>
      <trkpt lat="45.75699" lon="4.61671">
        <ele>751.7</ele>
        <time>2018-09-09T08:59:17Z</time>
      </trkpt>
      <trkpt lat="45.75694" lon="4.61672">
        <ele>752.2</ele>
        <time>2018-09-09T08:59:21Z</time>
      </trkpt>
      <trkpt lat="45.75692" lon="4.61671">
        <ele>754.3</ele>
        <time>2018-09-09T08:59:23Z</time>
      </trkpt>
      <trkpt lat="45.75691" lon="4.6167">
        <ele>754.6</ele>
        <time>2018-09-09T08:59:24Z</time>
      </trkpt>
      <trkpt lat="45.75687" lon="4.61666">
        <ele>755.3</ele>
        <time>2018-09-09T08:59:27Z</time>
      </trkpt>
      <trkpt lat="45.75686" lon="4.61661">
        <ele>755.8</ele>
        <time>2018-09-09T08:59:30Z</time>
      </trkpt>
      <trkpt lat="45.75683" lon="4.61651">
        <ele>756.8</ele>
        <time>2018-09-09T08:59:36Z</time>
      </trkpt>
      <trkpt lat="45.75681" lon="4.61645">
        <ele>757.3</ele>
        <time>2018-09-09T08:59:39Z</time>
      </trkpt>
      <trkpt lat="45.7568" lon="4.61642">
        <ele>757.6</ele>
        <time>2018-09-09T08:59:40Z</time>
      </trkpt>
      <trkpt lat="45.75678" lon="4.61638">
        <ele>757.9</ele>
        <time>2018-09-09T08:59:42Z</time>
      </trkpt>
      <trkpt lat="45.75673" lon="4.61624">
        <ele>759.2</ele>
        <time>2018-09-09T08:59:49Z</time>
      </trkpt>
      <trkpt lat="45.75671" lon="4.61619">
        <ele>759.6</ele>
        <time>2018-09-09T08:59:52Z</time>
      </trkpt>
      <trkpt lat="45.75668" lon="4.61613">
        <ele>759.9</ele>
        <time>2018-09-09T08:59:55Z</time>
      </trkpt>
      <trkpt lat="45.75667" lon="4.6161">
        <ele>760.2</ele>
        <time>2018-09-09T08:59:57Z</time>
      </trkpt>
      <trkpt lat="45.75665" lon="4.61605">
        <ele>760.8</ele>
        <time>2018-09-09T09:00:00Z</time>
      </trkpt>
      <trkpt lat="45.75663" lon="4.61602">
        <ele>761.1</ele>
        <time>2018-09-09T09:00:02Z</time>
      </trkpt>
      <trkpt lat="45.75661" lon="4.616">
        <ele>761.4</ele>
        <time>2018-09-09T09:00:04Z</time>
      </trkpt>
      <trkpt lat="45.75656" lon="4.61595">
        <ele>762.2</ele>
        <time>2018-09-09T09:00:08Z</time>
      </trkpt>
      <trkpt lat="45.75655" lon="4.61595">
        <ele>762.4</ele>
        <time>2018-09-09T09:00:09Z</time>
      </trkpt>
      <trkpt lat="45.7565" lon="4.61598">
        <ele>763.4</ele>
        <time>2018-09-09T09:00:13Z</time>
      </trkpt>
      <trkpt lat="45.75648" lon="4.61602">
        <ele>763.6</ele>
        <time>2018-09-09T09:00:16Z</time>
      </trkpt>
      <trkpt lat="45.75647" lon="4.61604">
        <ele>763.7</ele>
        <time>2018-09-09T09:00:17Z</time>
      </trkpt>
      <trkpt lat="45.75648" lon="4.61616">
        <ele>764</ele>
        <time>2018-09-09T09:00:23Z</time>
      </trkpt>
      <trkpt lat="45.75645" lon="4.61632">
        <ele>764.4</ele>
        <time>2018-09-09T09:00:30Z</time>
      </trkpt>
      <trkpt lat="45.75639" lon="4.61649">
        <ele>764.9</ele>
        <time>2018-09-09T09:00:38Z</time>
      </trkpt>
      <trkpt lat="45.75635" lon="4.61669">
        <ele>765.5</ele>
        <time>2018-09-09T09:00:46Z</time>
      </trkpt>
      <trkpt lat="45.7563" lon="4.61685">
        <ele>766.1</ele>
        <time>2018-09-09T09:00:53Z</time>
      </trkpt>
      <trkpt lat="45.75623" lon="4.61692">
        <ele>766.5</ele>
        <time>2018-09-09T09:00:59Z</time>
      </trkpt>
      <trkpt lat="45.7562" lon="4.61698">
        <ele>766.7</ele>
        <time>2018-09-09T09:01:03Z</time>
      </trkpt>
      <trkpt lat="45.75619" lon="4.61701">
        <ele>766.8</ele>
        <time>2018-09-09T09:01:05Z</time>
      </trkpt>
      <trkpt lat="45.75622" lon="4.61706">
        <ele>767</ele>
        <time>2018-09-09T09:01:08Z</time>
      </trkpt>
      <trkpt lat="45.75626" lon="4.61703">
        <ele>766.6</ele>
        <time>2018-09-09T09:01:10Z</time>
      </trkpt>
      <trkpt lat="45.7563" lon="4.61687">
        <ele>766</ele>
        <time>2018-09-09T09:01:15Z</time>
      </trkpt>
      <trkpt lat="45.75624" lon="4.61686">
        <ele>765.7</ele>
        <time>2018-09-09T09:01:18Z</time>
      </trkpt>
      <trkpt lat="45.75621" lon="4.617">
        <ele>765.2</ele>
        <time>2018-09-09T09:01:23Z</time>
      </trkpt>
      <trkpt lat="45.75621" lon="4.61704">
        <ele>765</ele>
        <time>2018-09-09T09:01:24Z</time>
      </trkpt>
      <trkpt lat="45.75622" lon="4.61724">
        <ele>764.3</ele>
        <time>2018-09-09T09:01:29Z</time>
      </trkpt>
      <trkpt lat="45.75623" lon="4.61733">
        <ele>763.9</ele>
        <time>2018-09-09T09:01:31Z</time>
      </trkpt>
      <trkpt lat="45.75624" lon="4.61757">
        <ele>762.8</ele>
        <time>2018-09-09T09:01:36Z</time>
      </trkpt>
      <trkpt lat="45.75627" lon="4.61777">
        <ele>762</ele>
        <time>2018-09-09T09:01:42Z</time>
      </trkpt>
      <trkpt lat="45.75629" lon="4.61787">
        <ele>762.9</ele>
        <time>2018-09-09T09:01:47Z</time>
      </trkpt>
      <trkpt lat="45.75628" lon="4.61789">
        <ele>763</ele>
        <time>2018-09-09T09:01:48Z</time>
      </trkpt>
      <trkpt lat="45.75631" lon="4.61799">
        <ele>763.4</ele>
        <time>2018-09-09T09:01:52Z</time>
      </trkpt>
      <trkpt lat="45.75631" lon="4.61801">
        <ele>763.6</ele>
        <time>2018-09-09T09:01:53Z</time>
      </trkpt>
      <trkpt lat="45.75632" lon="4.61807">
        <ele>764</ele>
        <time>2018-09-09T09:01:56Z</time>
      </trkpt>
      <trkpt lat="45.75633" lon="4.61811">
        <ele>764.2</ele>
        <time>2018-09-09T09:01:58Z</time>
      </trkpt>
      <trkpt lat="45.75633" lon="4.61813">
        <ele>764.3</ele>
        <time>2018-09-09T09:01:59Z</time>
      </trkpt>
      <trkpt lat="45.75633" lon="4.61826">
        <ele>764.8</ele>
        <time>2018-09-09T09:02:04Z</time>
      </trkpt>
      <trkpt lat="45.75634" lon="4.61829">
        <ele>765</ele>
        <time>2018-09-09T09:02:05Z</time>
      </trkpt>
      <trkpt lat="45.75636" lon="4.6184">
        <ele>765.4</ele>
        <time>2018-09-09T09:02:08Z</time>
      </trkpt>
      <trkpt lat="45.75638" lon="4.61851">
        <ele>765.9</ele>
        <time>2018-09-09T09:02:11Z</time>
      </trkpt>
      <trkpt lat="45.75647" lon="4.61867">
        <ele>766.5</ele>
        <time>2018-09-09T09:02:16Z</time>
      </trkpt>
      <trkpt lat="45.75653" lon="4.61882">
        <ele>767</ele>
        <time>2018-09-09T09:02:20Z</time>
      </trkpt>
      <trkpt lat="45.75655" lon="4.6189">
        <ele>767.2</ele>
        <time>2018-09-09T09:02:22Z</time>
      </trkpt>
      <trkpt lat="45.75656" lon="4.61894">
        <ele>767.3</ele>
        <time>2018-09-09T09:02:23Z</time>
      </trkpt>
      <trkpt lat="45.7566" lon="4.61913">
        <ele>767.8</ele>
        <time>2018-09-09T09:02:28Z</time>
      </trkpt>
      <trkpt lat="45.75663" lon="4.6194">
        <ele>768.2</ele>
        <time>2018-09-09T09:02:34Z</time>
      </trkpt>
      <trkpt lat="45.7567" lon="4.61977">
        <ele>768.4</ele>
        <time>2018-09-09T09:02:41Z</time>
      </trkpt>
      <trkpt lat="45.75672" lon="4.62012">
        <ele>768.6</ele>
        <time>2018-09-09T09:02:47Z</time>
      </trkpt>
      <trkpt lat="45.75674" lon="4.62031">
        <ele>768.8</ele>
        <time>2018-09-09T09:02:50Z</time>
      </trkpt>
      <trkpt lat="45.75676" lon="4.6206">
        <ele>768.9</ele>
        <time>2018-09-09T09:02:55Z</time>
      </trkpt>
      <trkpt lat="45.75678" lon="4.62079">
        <ele>769</ele>
        <time>2018-09-09T09:02:58Z</time>
      </trkpt>
      <trkpt lat="45.75682" lon="4.62103">
        <ele>769.2</ele>
        <time>2018-09-09T09:03:02Z</time>
      </trkpt>
      <trkpt lat="45.75682" lon="4.62109">
        <ele>769.5</ele>
        <time>2018-09-09T09:03:03Z</time>
      </trkpt>
      <trkpt lat="45.75684" lon="4.62128">
        <ele>770.2</ele>
        <time>2018-09-09T09:03:06Z</time>
      </trkpt>
      <trkpt lat="45.75684" lon="4.62144">
        <ele>770.7</ele>
        <time>2018-09-09T09:03:09Z</time>
      </trkpt>
      <trkpt lat="45.75685" lon="4.62149">
        <ele>770.8</ele>
        <time>2018-09-09T09:03:10Z</time>
      </trkpt>
      <trkpt lat="45.75691" lon="4.62173">
        <ele>771.6</ele>
        <time>2018-09-09T09:03:15Z</time>
      </trkpt>
      <trkpt lat="45.75693" lon="4.62176">
        <ele>771.8</ele>
        <time>2018-09-09T09:03:16Z</time>
      </trkpt>
      <trkpt lat="45.75699" lon="4.62186">
        <ele>772.4</ele>
        <time>2018-09-09T09:03:19Z</time>
      </trkpt>
      <trkpt lat="45.75704" lon="4.62196">
        <ele>773.1</ele>
        <time>2018-09-09T09:03:21Z</time>
      </trkpt>
      <trkpt lat="45.75706" lon="4.622">
        <ele>773.3</ele>
        <time>2018-09-09T09:03:22Z</time>
      </trkpt>
      <trkpt lat="45.75714" lon="4.62218">
        <ele>774.5</ele>
        <time>2018-09-09T09:03:27Z</time>
      </trkpt>
      <trkpt lat="45.75715" lon="4.62222">
        <ele>774.7</ele>
        <time>2018-09-09T09:03:28Z</time>
      </trkpt>
      <trkpt lat="45.75722" lon="4.62245">
        <ele>776</ele>
        <time>2018-09-09T09:03:35Z</time>
      </trkpt>
      <trkpt lat="45.75728" lon="4.62258">
        <ele>776.8</ele>
        <time>2018-09-09T09:03:39Z</time>
      </trkpt>
      <trkpt lat="45.75734" lon="4.62272">
        <ele>777.6</ele>
        <time>2018-09-09T09:03:43Z</time>
      </trkpt>
      <trkpt lat="45.75736" lon="4.6228">
        <ele>778</ele>
        <time>2018-09-09T09:03:45Z</time>
      </trkpt>
      <trkpt lat="45.75741" lon="4.623">
        <ele>779.1</ele>
        <time>2018-09-09T09:03:50Z</time>
      </trkpt>
      <trkpt lat="45.75746" lon="4.62313">
        <ele>779.8</ele>
        <time>2018-09-09T09:03:53Z</time>
      </trkpt>
      <trkpt lat="45.75752" lon="4.62326">
        <ele>780.6</ele>
        <time>2018-09-09T09:03:57Z</time>
      </trkpt>
      <trkpt lat="45.75762" lon="4.62334">
        <ele>781.3</ele>
        <time>2018-09-09T09:04:03Z</time>
      </trkpt>
      <trkpt lat="45.75773" lon="4.62337">
        <ele>782</ele>
        <time>2018-09-09T09:04:10Z</time>
      </trkpt>
      <trkpt lat="45.75778" lon="4.62337">
        <ele>782.3</ele>
        <time>2018-09-09T09:04:13Z</time>
      </trkpt>
      <trkpt lat="45.75783" lon="4.62337">
        <ele>782.6</ele>
        <time>2018-09-09T09:04:16Z</time>
      </trkpt>
      <trkpt lat="45.75784" lon="4.62337">
        <ele>782.6</ele>
        <time>2018-09-09T09:04:17Z</time>
      </trkpt>
      <trkpt lat="45.75787" lon="4.62338">
        <ele>782.8</ele>
        <time>2018-09-09T09:04:19Z</time>
      </trkpt>
      <trkpt lat="45.75793" lon="4.62342">
        <ele>783.1</ele>
        <time>2018-09-09T09:04:23Z</time>
      </trkpt>
      <trkpt lat="45.75803" lon="4.62347">
        <ele>783.3</ele>
        <time>2018-09-09T09:04:30Z</time>
      </trkpt>
      <trkpt lat="45.75814" lon="4.62356">
        <ele>783.5</ele>
        <time>2018-09-09T09:04:37Z</time>
      </trkpt>
      <trkpt lat="45.75816" lon="4.62358">
        <ele>783.6</ele>
        <time>2018-09-09T09:04:38Z</time>
      </trkpt>
      <trkpt lat="45.75824" lon="4.62363">
        <ele>783.7</ele>
        <time>2018-09-09T09:04:44Z</time>
      </trkpt>
      <trkpt lat="45.75829" lon="4.62366">
        <ele>783.7</ele>
        <time>2018-09-09T09:05:56Z</time>
      </trkpt>
      <trkpt lat="45.7583" lon="4.62367">
        <ele>783.7</ele>
        <time>2018-09-09T09:05:57Z</time>
      </trkpt>
      <trkpt lat="45.75836" lon="4.62368">
        <ele>783.8</ele>
        <time>2018-09-09T09:05:59Z</time>
      </trkpt>
      <trkpt lat="45.75841" lon="4.62368">
        <ele>783.8</ele>
        <time>2018-09-09T09:06:01Z</time>
      </trkpt>
      <trkpt lat="45.75858" lon="4.6237">
        <ele>783.4</ele>
        <time>2018-09-09T09:06:05Z</time>
      </trkpt>
      <trkpt lat="45.75874" lon="4.62372">
        <ele>782.7</ele>
        <time>2018-09-09T09:06:09Z</time>
      </trkpt>
      <trkpt lat="45.75877" lon="4.62373">
        <ele>782.6</ele>
        <time>2018-09-09T09:06:10Z</time>
      </trkpt>
      <trkpt lat="45.75885" lon="4.62376">
        <ele>782.5</ele>
        <time>2018-09-09T09:06:13Z</time>
      </trkpt>
      <trkpt lat="45.75891" lon="4.62382">
        <ele>782.1</ele>
        <time>2018-09-09T09:06:16Z</time>
      </trkpt>
      <trkpt lat="45.75897" lon="4.62389">
        <ele>781.4</ele>
        <time>2018-09-09T09:06:19Z</time>
      </trkpt>
      <trkpt lat="45.7591" lon="4.62388">
        <ele>780.4</ele>
        <time>2018-09-09T09:06:22Z</time>
      </trkpt>
      <trkpt lat="45.75925" lon="4.62383">
        <ele>776.6</ele>
        <time>2018-09-09T09:06:25Z</time>
      </trkpt>
      <trkpt lat="45.75941" lon="4.62376">
        <ele>773.8</ele>
        <time>2018-09-09T09:06:28Z</time>
      </trkpt>
      <trkpt lat="45.75951" lon="4.62371">
        <ele>772.7</ele>
        <time>2018-09-09T09:06:30Z</time>
      </trkpt>
      <trkpt lat="45.75956" lon="4.62369">
        <ele>772.2</ele>
        <time>2018-09-09T09:06:31Z</time>
      </trkpt>
      <trkpt lat="45.75959" lon="4.6236">
        <ele>771.7</ele>
        <time>2018-09-09T09:06:32Z</time>
      </trkpt>
      <trkpt lat="45.75958" lon="4.62347">
        <ele>771</ele>
        <time>2018-09-09T09:06:33Z</time>
      </trkpt>
      <trkpt lat="45.75956" lon="4.62336">
        <ele>770.4</ele>
        <time>2018-09-09T09:06:34Z</time>
      </trkpt>
      <trkpt lat="45.75951" lon="4.62318">
        <ele>769.4</ele>
        <time>2018-09-09T09:06:36Z</time>
      </trkpt>
      <trkpt lat="45.75944" lon="4.62298">
        <ele>768.3</ele>
        <time>2018-09-09T09:06:39Z</time>
      </trkpt>
      <trkpt lat="45.75943" lon="4.62293">
        <ele>768</ele>
        <time>2018-09-09T09:06:40Z</time>
      </trkpt>
      <trkpt lat="45.75941" lon="4.62283">
        <ele>767.4</ele>
        <time>2018-09-09T09:06:43Z</time>
      </trkpt>
      <trkpt lat="45.7594" lon="4.6229">
        <ele>767.8</ele>
        <time>2018-09-09T09:06:45Z</time>
      </trkpt>
      <trkpt lat="45.75939" lon="4.62297">
        <ele>768.2</ele>
        <time>2018-09-09T09:06:55Z</time>
      </trkpt>
      <trkpt lat="45.75938" lon="4.62305">
        <ele>768.6</ele>
        <time>2018-09-09T09:06:56Z</time>
      </trkpt>
      <trkpt lat="45.75941" lon="4.62337">
        <ele>770.4</ele>
        <time>2018-09-09T09:07:01Z</time>
      </trkpt>
      <trkpt lat="45.75949" lon="4.62389">
        <ele>773.7</ele>
        <time>2018-09-09T09:07:10Z</time>
      </trkpt>
      <trkpt lat="45.75965" lon="4.62461">
        <ele>771.7</ele>
        <time>2018-09-09T09:07:20Z</time>
      </trkpt>
      <trkpt lat="45.7599" lon="4.62521">
        <ele>767.6</ele>
        <time>2018-09-09T09:07:30Z</time>
      </trkpt>
      <trkpt lat="45.76012" lon="4.62567">
        <ele>763.2</ele>
        <time>2018-09-09T09:07:37Z</time>
      </trkpt>
      <trkpt lat="45.76046" lon="4.62631">
        <ele>761.2</ele>
        <time>2018-09-09T09:07:47Z</time>
      </trkpt>
      <trkpt lat="45.76076" lon="4.62654">
        <ele>758</ele>
        <time>2018-09-09T09:07:52Z</time>
      </trkpt>
      <trkpt lat="45.7613" lon="4.62682">
        <ele>751.5</ele>
        <time>2018-09-09T09:07:59Z</time>
      </trkpt>
      <trkpt lat="45.76138" lon="4.62686">
        <ele>752.1</ele>
        <time>2018-09-09T09:08:00Z</time>
      </trkpt>
      <trkpt lat="45.76184" lon="4.62715">
        <ele>745.4</ele>
        <time>2018-09-09T09:08:07Z</time>
      </trkpt>
      <trkpt lat="45.76225" lon="4.62762">
        <ele>739.3</ele>
        <time>2018-09-09T09:08:15Z</time>
      </trkpt>
      <trkpt lat="45.76251" lon="4.62812">
        <ele>734.5</ele>
        <time>2018-09-09T09:08:23Z</time>
      </trkpt>
      <trkpt lat="45.76271" lon="4.62869">
        <ele>731</ele>
        <time>2018-09-09T09:08:32Z</time>
      </trkpt>
      <trkpt lat="45.76284" lon="4.62894">
        <ele>731.3</ele>
        <time>2018-09-09T09:08:38Z</time>
      </trkpt>
      <trkpt lat="45.76293" lon="4.62908">
        <ele>732.3</ele>
        <time>2018-09-09T09:08:45Z</time>
      </trkpt>
      <trkpt lat="45.76295" lon="4.62918">
        <ele>732.7</ele>
        <time>2018-09-09T09:08:48Z</time>
      </trkpt>
      <trkpt lat="45.76297" lon="4.62925">
        <ele>733.1</ele>
        <time>2018-09-09T09:08:50Z</time>
      </trkpt>
      <trkpt lat="45.76298" lon="4.62926">
        <ele>733.2</ele>
        <time>2018-09-09T09:08:51Z</time>
      </trkpt>
      <trkpt lat="45.76299" lon="4.62928">
        <ele>733.3</ele>
        <time>2018-09-09T09:08:52Z</time>
      </trkpt>
      <trkpt lat="45.763" lon="4.62929">
        <ele>733.3</ele>
        <time>2018-09-09T09:08:53Z</time>
      </trkpt>
      <trkpt lat="45.76302" lon="4.62931">
        <ele>733.5</ele>
        <time>2018-09-09T09:08:55Z</time>
      </trkpt>
      <trkpt lat="45.76303" lon="4.62933">
        <ele>733.7</ele>
        <time>2018-09-09T09:08:56Z</time>
      </trkpt>
      <trkpt lat="45.76306" lon="4.62936">
        <ele>734</ele>
        <time>2018-09-09T09:08:58Z</time>
      </trkpt>
      <trkpt lat="45.76309" lon="4.62938">
        <ele>734.2</ele>
        <time>2018-09-09T09:09:00Z</time>
      </trkpt>
      <trkpt lat="45.76313" lon="4.62942">
        <ele>734.7</ele>
        <time>2018-09-09T09:09:04Z</time>
      </trkpt>
      <trkpt lat="45.76314" lon="4.62944">
        <ele>734.8</ele>
        <time>2018-09-09T09:09:05Z</time>
      </trkpt>
      <trkpt lat="45.76316" lon="4.62947">
        <ele>735.2</ele>
        <time>2018-09-09T09:09:07Z</time>
      </trkpt>
      <trkpt lat="45.76323" lon="4.62954">
        <ele>735.9</ele>
        <time>2018-09-09T09:09:11Z</time>
      </trkpt>
      <trkpt lat="45.76329" lon="4.62962">
        <ele>736.4</ele>
        <time>2018-09-09T09:09:16Z</time>
      </trkpt>
      <trkpt lat="45.76331" lon="4.62964">
        <ele>736.5</ele>
        <time>2018-09-09T09:09:17Z</time>
      </trkpt>
      <trkpt lat="45.76335" lon="4.62968">
        <ele>736.8</ele>
        <time>2018-09-09T09:09:20Z</time>
      </trkpt>
      <trkpt lat="45.7634" lon="4.62974">
        <ele>737.2</ele>
        <time>2018-09-09T09:09:24Z</time>
      </trkpt>
      <trkpt lat="45.76342" lon="4.62975">
        <ele>737.3</ele>
        <time>2018-09-09T09:09:25Z</time>
      </trkpt>
      <trkpt lat="45.7635" lon="4.62983">
        <ele>737.9</ele>
        <time>2018-09-09T09:09:30Z</time>
      </trkpt>
      <trkpt lat="45.76364" lon="4.62992">
        <ele>738.6</ele>
        <time>2018-09-09T09:09:36Z</time>
      </trkpt>
      <trkpt lat="45.76367" lon="4.62994">
        <ele>738.7</ele>
        <time>2018-09-09T09:09:37Z</time>
      </trkpt>
      <trkpt lat="45.76375" lon="4.63002">
        <ele>739.1</ele>
        <time>2018-09-09T09:09:41Z</time>
      </trkpt>
      <trkpt lat="45.76382" lon="4.63009">
        <ele>739.4</ele>
        <time>2018-09-09T09:09:44Z</time>
      </trkpt>
      <trkpt lat="45.76394" lon="4.63023">
        <ele>739.7</ele>
        <time>2018-09-09T09:09:51Z</time>
      </trkpt>
      <trkpt lat="45.76407" lon="4.63033">
        <ele>739.8</ele>
        <time>2018-09-09T09:09:57Z</time>
      </trkpt>
      <trkpt lat="45.76419" lon="4.63045">
        <ele>739.7</ele>
        <time>2018-09-09T09:10:03Z</time>
      </trkpt>
      <trkpt lat="45.76439" lon="4.63064">
        <ele>739</ele>
        <time>2018-09-09T09:10:10Z</time>
      </trkpt>
      <trkpt lat="45.76461" lon="4.63082">
        <ele>737.5</ele>
        <time>2018-09-09T09:10:17Z</time>
      </trkpt>
      <trkpt lat="45.76464" lon="4.63084">
        <ele>737.2</ele>
        <time>2018-09-09T09:10:18Z</time>
      </trkpt>
      <trkpt lat="45.76475" lon="4.63084">
        <ele>736.5</ele>
        <time>2018-09-09T09:10:20Z</time>
      </trkpt>
      <trkpt lat="45.76485" lon="4.63086">
        <ele>736</ele>
        <time>2018-09-09T09:10:22Z</time>
      </trkpt>
      <trkpt lat="45.7649" lon="4.63087">
        <ele>735.7</ele>
        <time>2018-09-09T09:10:23Z</time>
      </trkpt>
      <trkpt lat="45.76537" lon="4.63079">
        <ele>734.2</ele>
        <time>2018-09-09T09:10:30Z</time>
      </trkpt>
      <trkpt lat="45.76543" lon="4.63078">
        <ele>734.2</ele>
        <time>2018-09-09T09:10:31Z</time>
      </trkpt>
      <trkpt lat="45.76584" lon="4.63072">
        <ele>732.7</ele>
        <time>2018-09-09T09:10:38Z</time>
      </trkpt>
      <trkpt lat="45.76588" lon="4.63071">
        <ele>732.4</ele>
        <time>2018-09-09T09:10:39Z</time>
      </trkpt>
      <trkpt lat="45.7662" lon="4.6307">
        <ele>730.6</ele>
        <time>2018-09-09T09:10:45Z</time>
      </trkpt>
      <trkpt lat="45.76655" lon="4.63078">
        <ele>730</ele>
        <time>2018-09-09T09:10:51Z</time>
      </trkpt>
      <trkpt lat="45.76667" lon="4.63085">
        <ele>730</ele>
        <time>2018-09-09T09:10:53Z</time>
      </trkpt>
      <trkpt lat="45.767" lon="4.63113">
        <ele>730.1</ele>
        <time>2018-09-09T09:11:00Z</time>
      </trkpt>
      <trkpt lat="45.76727" lon="4.63152">
        <ele>730.1</ele>
        <time>2018-09-09T09:11:08Z</time>
      </trkpt>
      <trkpt lat="45.7675" lon="4.63202">
        <ele>730</ele>
        <time>2018-09-09T09:11:17Z</time>
      </trkpt>
      <trkpt lat="45.76766" lon="4.63238">
        <ele>728.1</ele>
        <time>2018-09-09T09:11:24Z</time>
      </trkpt>
      <trkpt lat="45.76776" lon="4.63257">
        <ele>727</ele>
        <time>2018-09-09T09:11:27Z</time>
      </trkpt>
      <trkpt lat="45.76802" lon="4.633">
        <ele>726.6</ele>
        <time>2018-09-09T09:11:32Z</time>
      </trkpt>
      <trkpt lat="45.76833" lon="4.63347">
        <ele>725.8</ele>
        <time>2018-09-09T09:11:39Z</time>
      </trkpt>
      <trkpt lat="45.76865" lon="4.63416">
        <ele>722.5</ele>
        <time>2018-09-09T09:11:49Z</time>
      </trkpt>
      <trkpt lat="45.76885" lon="4.63489">
        <ele>720.1</ele>
        <time>2018-09-09T09:11:57Z</time>
      </trkpt>
      <trkpt lat="45.76909" lon="4.63563">
        <ele>717.9</ele>
        <time>2018-09-09T09:12:05Z</time>
      </trkpt>
      <trkpt lat="45.76915" lon="4.63579">
        <ele>718</ele>
        <time>2018-09-09T09:12:07Z</time>
      </trkpt>
      <trkpt lat="45.76943" lon="4.63645">
        <ele>714.4</ele>
        <time>2018-09-09T09:12:16Z</time>
      </trkpt>
      <trkpt lat="45.76949" lon="4.63657">
        <ele>713.4</ele>
        <time>2018-09-09T09:12:18Z</time>
      </trkpt>
      <trkpt lat="45.7697" lon="4.63687">
        <ele>709.3</ele>
        <time>2018-09-09T09:12:23Z</time>
      </trkpt>
      <trkpt lat="45.76985" lon="4.63702">
        <ele>709</ele>
        <time>2018-09-09T09:12:26Z</time>
      </trkpt>
      <trkpt lat="45.77004" lon="4.63714">
        <ele>709.2</ele>
        <time>2018-09-09T09:12:29Z</time>
      </trkpt>
      <trkpt lat="45.77047" lon="4.63729">
        <ele>707.7</ele>
        <time>2018-09-09T09:12:36Z</time>
      </trkpt>
      <trkpt lat="45.77067" lon="4.63729">
        <ele>708.3</ele>
        <time>2018-09-09T09:12:39Z</time>
      </trkpt>
      <trkpt lat="45.77112" lon="4.63728">
        <ele>706</ele>
        <time>2018-09-09T09:12:46Z</time>
      </trkpt>
      <trkpt lat="45.77163" lon="4.63729">
        <ele>701.3</ele>
        <time>2018-09-09T09:12:54Z</time>
      </trkpt>
      <trkpt lat="45.77195" lon="4.63737">
        <ele>696.7</ele>
        <time>2018-09-09T09:13:00Z</time>
      </trkpt>
      <trkpt lat="45.77233" lon="4.63749">
        <ele>689.4</ele>
        <time>2018-09-09T09:13:08Z</time>
      </trkpt>
      <trkpt lat="45.77239" lon="4.63753">
        <ele>688.3</ele>
        <time>2018-09-09T09:13:09Z</time>
      </trkpt>
      <trkpt lat="45.77244" lon="4.63759">
        <ele>687.1</ele>
        <time>2018-09-09T09:13:10Z</time>
      </trkpt>
      <trkpt lat="45.77256" lon="4.6378">
        <ele>684.3</ele>
        <time>2018-09-09T09:13:13Z</time>
      </trkpt>
      <trkpt lat="45.77294" lon="4.63843">
        <ele>676.5</ele>
        <time>2018-09-09T09:13:22Z</time>
      </trkpt>
      <trkpt lat="45.77324" lon="4.63865">
        <ele>669.4</ele>
        <time>2018-09-09T09:13:27Z</time>
      </trkpt>
      <trkpt lat="45.77337" lon="4.63873">
        <ele>665.5</ele>
        <time>2018-09-09T09:13:29Z</time>
      </trkpt>
      <trkpt lat="45.77344" lon="4.63874">
        <ele>664.5</ele>
        <time>2018-09-09T09:13:30Z</time>
      </trkpt>
      <trkpt lat="45.77367" lon="4.63874">
        <ele>659.2</ele>
        <time>2018-09-09T09:13:33Z</time>
      </trkpt>
      <trkpt lat="45.77375" lon="4.6387">
        <ele>658.7</ele>
        <time>2018-09-09T09:13:34Z</time>
      </trkpt>
      <trkpt lat="45.77398" lon="4.63858">
        <ele>656</ele>
        <time>2018-09-09T09:13:37Z</time>
      </trkpt>
      <trkpt lat="45.77405" lon="4.63851">
        <ele>655.8</ele>
        <time>2018-09-09T09:13:38Z</time>
      </trkpt>
      <trkpt lat="45.77412" lon="4.63842">
        <ele>655.2</ele>
        <time>2018-09-09T09:13:39Z</time>
      </trkpt>
      <trkpt lat="45.7742" lon="4.63834">
        <ele>654</ele>
        <time>2018-09-09T09:13:41Z</time>
      </trkpt>
      <trkpt lat="45.77427" lon="4.63828">
        <ele>653.4</ele>
        <time>2018-09-09T09:13:43Z</time>
      </trkpt>
      <trkpt lat="45.77431" lon="4.63821">
        <ele>653.3</ele>
        <time>2018-09-09T09:13:45Z</time>
      </trkpt>
      <trkpt lat="45.77432" lon="4.63821">
        <ele>653.2</ele>
        <time>2018-09-09T09:13:46Z</time>
      </trkpt>
      <trkpt lat="45.77437" lon="4.6382">
        <ele>653.1</ele>
        <time>2018-09-09T09:13:49Z</time>
      </trkpt>
      <trkpt lat="45.7744" lon="4.63818">
        <ele>653</ele>
        <time>2018-09-09T09:13:51Z</time>
      </trkpt>
      <trkpt lat="45.77443" lon="4.63818">
        <ele>652.8</ele>
        <time>2018-09-09T09:13:54Z</time>
      </trkpt>
      <trkpt lat="45.77425" lon="4.63809">
        <ele>656.2</ele>
        <time>2018-09-09T09:14:17Z</time>
      </trkpt>
      <trkpt lat="45.77426" lon="4.63804">
        <ele>655.6</ele>
        <time>2018-09-09T09:14:18Z</time>
      </trkpt>
      <trkpt lat="45.77429" lon="4.63801">
        <ele>654.8</ele>
        <time>2018-09-09T09:14:19Z</time>
      </trkpt>
      <trkpt lat="45.77431" lon="4.63797">
        <ele>653.8</ele>
        <time>2018-09-09T09:14:20Z</time>
      </trkpt>
      <trkpt lat="45.77434" lon="4.63794">
        <ele>652.3</ele>
        <time>2018-09-09T09:14:21Z</time>
      </trkpt>
      <trkpt lat="45.77436" lon="4.6379">
        <ele>651.3</ele>
        <time>2018-09-09T09:14:22Z</time>
      </trkpt>
      <trkpt lat="45.77439" lon="4.63787">
        <ele>650</ele>
        <time>2018-09-09T09:14:23Z</time>
      </trkpt>
      <trkpt lat="45.77442" lon="4.63785">
        <ele>649.1</ele>
        <time>2018-09-09T09:14:24Z</time>
      </trkpt>
      <trkpt lat="45.77446" lon="4.63783">
        <ele>647.9</ele>
        <time>2018-09-09T09:14:25Z</time>
      </trkpt>
      <trkpt lat="45.77449" lon="4.63782">
        <ele>647</ele>
        <time>2018-09-09T09:14:26Z</time>
      </trkpt>
      <trkpt lat="45.77453" lon="4.63781">
        <ele>645.6</ele>
        <time>2018-09-09T09:14:27Z</time>
      </trkpt>
      <trkpt lat="45.7746" lon="4.63779">
        <ele>643.4</ele>
        <time>2018-09-09T09:14:29Z</time>
      </trkpt>
      <trkpt lat="45.77462" lon="4.63777">
        <ele>642.7</ele>
        <time>2018-09-09T09:14:30Z</time>
      </trkpt>
      <trkpt lat="45.77466" lon="4.63774">
        <ele>641.5</ele>
        <time>2018-09-09T09:14:32Z</time>
      </trkpt>
      <trkpt lat="45.7747" lon="4.6377">
        <ele>640.3</ele>
        <time>2018-09-09T09:14:34Z</time>
      </trkpt>
      <trkpt lat="45.77472" lon="4.63768">
        <ele>639.6</ele>
        <time>2018-09-09T09:14:35Z</time>
      </trkpt>
      <trkpt lat="45.77485" lon="4.63768">
        <ele>636.6</ele>
        <time>2018-09-09T09:14:40Z</time>
      </trkpt>
      <trkpt lat="45.77487" lon="4.6377">
        <ele>636.1</ele>
        <time>2018-09-09T09:14:41Z</time>
      </trkpt>
      <trkpt lat="45.77489" lon="4.63772">
        <ele>635.7</ele>
        <time>2018-09-09T09:14:42Z</time>
      </trkpt>
      <trkpt lat="45.77491" lon="4.63774">
        <ele>635</ele>
        <time>2018-09-09T09:14:43Z</time>
      </trkpt>
      <trkpt lat="45.77493" lon="4.63776">
        <ele>634.7</ele>
        <time>2018-09-09T09:14:44Z</time>
      </trkpt>
      <trkpt lat="45.77501" lon="4.63779">
        <ele>633.4</ele>
        <time>2018-09-09T09:14:47Z</time>
      </trkpt>
      <trkpt lat="45.77502" lon="4.63784">
        <ele>632.8</ele>
        <time>2018-09-09T09:14:48Z</time>
      </trkpt>
      <trkpt lat="45.77504" lon="4.63788">
        <ele>632.1</ele>
        <time>2018-09-09T09:14:49Z</time>
      </trkpt>
      <trkpt lat="45.77507" lon="4.63793">
        <ele>631</ele>
        <time>2018-09-09T09:14:51Z</time>
      </trkpt>
      <trkpt lat="45.77508" lon="4.63796">
        <ele>629.5</ele>
        <time>2018-09-09T09:14:52Z</time>
      </trkpt>
      <trkpt lat="45.7751" lon="4.63799">
        <ele>628.3</ele>
        <time>2018-09-09T09:14:53Z</time>
      </trkpt>
      <trkpt lat="45.77513" lon="4.63803">
        <ele>627.1</ele>
        <time>2018-09-09T09:14:54Z</time>
      </trkpt>
      <trkpt lat="45.77515" lon="4.63805">
        <ele>625.4</ele>
        <time>2018-09-09T09:14:55Z</time>
      </trkpt>
      <trkpt lat="45.77517" lon="4.63808">
        <ele>623.8</ele>
        <time>2018-09-09T09:14:56Z</time>
      </trkpt>
      <trkpt lat="45.77519" lon="4.6381">
        <ele>623.2</ele>
        <time>2018-09-09T09:14:57Z</time>
      </trkpt>
      <trkpt lat="45.77521" lon="4.63812">
        <ele>622.6</ele>
        <time>2018-09-09T09:14:58Z</time>
      </trkpt>
      <trkpt lat="45.77524" lon="4.63813">
        <ele>621.8</ele>
        <time>2018-09-09T09:14:59Z</time>
      </trkpt>
      <trkpt lat="45.77526" lon="4.63814">
        <ele>621.2</ele>
        <time>2018-09-09T09:15:00Z</time>
      </trkpt>
      <trkpt lat="45.77529" lon="4.63815">
        <ele>620.4</ele>
        <time>2018-09-09T09:15:01Z</time>
      </trkpt>
      <trkpt lat="45.77531" lon="4.63816">
        <ele>620</ele>
        <time>2018-09-09T09:15:02Z</time>
      </trkpt>
      <trkpt lat="45.77533" lon="4.63818">
        <ele>619.5</ele>
        <time>2018-09-09T09:15:03Z</time>
      </trkpt>
      <trkpt lat="45.77536" lon="4.63819">
        <ele>618.9</ele>
        <time>2018-09-09T09:15:04Z</time>
      </trkpt>
      <trkpt lat="45.77538" lon="4.6382">
        <ele>618.4</ele>
        <time>2018-09-09T09:15:05Z</time>
      </trkpt>
      <trkpt lat="45.7754" lon="4.63821">
        <ele>618</ele>
        <time>2018-09-09T09:15:06Z</time>
      </trkpt>
      <trkpt lat="45.77541" lon="4.63821">
        <ele>617.8</ele>
        <time>2018-09-09T09:15:07Z</time>
      </trkpt>
      <trkpt lat="45.77542" lon="4.63821">
        <ele>617.5</ele>
        <time>2018-09-09T09:15:08Z</time>
      </trkpt>
      <trkpt lat="45.77543" lon="4.63822">
        <ele>617.3</ele>
        <time>2018-09-09T09:15:09Z</time>
      </trkpt>
      <trkpt lat="45.77545" lon="4.63823">
        <ele>617</ele>
        <time>2018-09-09T09:15:10Z</time>
      </trkpt>
      <trkpt lat="45.77547" lon="4.63825">
        <ele>616.2</ele>
        <time>2018-09-09T09:15:12Z</time>
      </trkpt>
      <trkpt lat="45.7755" lon="4.63827">
        <ele>615.8</ele>
        <time>2018-09-09T09:15:14Z</time>
      </trkpt>
      <trkpt lat="45.77553" lon="4.6383">
        <ele>615.1</ele>
        <time>2018-09-09T09:15:16Z</time>
      </trkpt>
      <trkpt lat="45.77556" lon="4.63836">
        <ele>614.3</ele>
        <time>2018-09-09T09:15:18Z</time>
      </trkpt>
      <trkpt lat="45.77558" lon="4.63839">
        <ele>614</ele>
        <time>2018-09-09T09:15:19Z</time>
      </trkpt>
      <trkpt lat="45.77562" lon="4.63843">
        <ele>613.2</ele>
        <time>2018-09-09T09:15:20Z</time>
      </trkpt>
      <trkpt lat="45.77567" lon="4.6385">
        <ele>612.1</ele>
        <time>2018-09-09T09:15:22Z</time>
      </trkpt>
      <trkpt lat="45.77572" lon="4.63851">
        <ele>611.2</ele>
        <time>2018-09-09T09:15:23Z</time>
      </trkpt>
      <trkpt lat="45.77576" lon="4.63853">
        <ele>610.7</ele>
        <time>2018-09-09T09:15:24Z</time>
      </trkpt>
      <trkpt lat="45.77583" lon="4.63855">
        <ele>610</ele>
        <time>2018-09-09T09:15:26Z</time>
      </trkpt>
      <trkpt lat="45.77591" lon="4.63859">
        <ele>609.9</ele>
        <time>2018-09-09T09:15:28Z</time>
      </trkpt>
      <trkpt lat="45.776" lon="4.63863">
        <ele>609.8</ele>
        <time>2018-09-09T09:15:30Z</time>
      </trkpt>
      <trkpt lat="45.77604" lon="4.63864">
        <ele>609.8</ele>
        <time>2018-09-09T09:15:31Z</time>
      </trkpt>
      <trkpt lat="45.7763" lon="4.63879">
        <ele>609.5</ele>
        <time>2018-09-09T09:15:37Z</time>
      </trkpt>
      <trkpt lat="45.77641" lon="4.6389">
        <ele>609.4</ele>
        <time>2018-09-09T09:15:39Z</time>
      </trkpt>
      <trkpt lat="45.77645" lon="4.63894">
        <ele>609.4</ele>
        <time>2018-09-09T09:15:40Z</time>
      </trkpt>
      <trkpt lat="45.77655" lon="4.639">
        <ele>609.2</ele>
        <time>2018-09-09T09:15:42Z</time>
      </trkpt>
      <trkpt lat="45.77667" lon="4.63908">
        <ele>609</ele>
        <time>2018-09-09T09:15:45Z</time>
      </trkpt>
      <trkpt lat="45.77688" lon="4.63921">
        <ele>608.1</ele>
        <time>2018-09-09T09:15:52Z</time>
      </trkpt>
      <trkpt lat="45.77694" lon="4.63926">
        <ele>607.6</ele>
        <time>2018-09-09T09:15:54Z</time>
      </trkpt>
      <trkpt lat="45.777" lon="4.63932">
        <ele>607</ele>
        <time>2018-09-09T09:15:56Z</time>
      </trkpt>
      <trkpt lat="45.77704" lon="4.63934">
        <ele>606.7</ele>
        <time>2018-09-09T09:15:57Z</time>
      </trkpt>
      <trkpt lat="45.77711" lon="4.63937">
        <ele>606.3</ele>
        <time>2018-09-09T09:15:59Z</time>
      </trkpt>
      <trkpt lat="45.77721" lon="4.63934">
        <ele>605.9</ele>
        <time>2018-09-09T09:16:01Z</time>
      </trkpt>
      <trkpt lat="45.77725" lon="4.63933">
        <ele>605.7</ele>
        <time>2018-09-09T09:16:02Z</time>
      </trkpt>
      <trkpt lat="45.77734" lon="4.63933">
        <ele>605.5</ele>
        <time>2018-09-09T09:16:04Z</time>
      </trkpt>
      <trkpt lat="45.77747" lon="4.6394">
        <ele>605.3</ele>
        <time>2018-09-09T09:16:07Z</time>
      </trkpt>
      <trkpt lat="45.77755" lon="4.63948">
        <ele>605.1</ele>
        <time>2018-09-09T09:16:09Z</time>
      </trkpt>
      <trkpt lat="45.77773" lon="4.63963">
        <ele>604.8</ele>
        <time>2018-09-09T09:16:13Z</time>
      </trkpt>
      <trkpt lat="45.77783" lon="4.63973">
        <ele>604.6</ele>
        <time>2018-09-09T09:16:16Z</time>
      </trkpt>
      <trkpt lat="45.77788" lon="4.63981">
        <ele>604.4</ele>
        <time>2018-09-09T09:16:18Z</time>
      </trkpt>
      <trkpt lat="45.77791" lon="4.63985">
        <ele>604.2</ele>
        <time>2018-09-09T09:16:19Z</time>
      </trkpt>
      <trkpt lat="45.77797" lon="4.63997">
        <ele>603.4</ele>
        <time>2018-09-09T09:16:22Z</time>
      </trkpt>
      <trkpt lat="45.77805" lon="4.64008">
        <ele>602.1</ele>
        <time>2018-09-09T09:16:25Z</time>
      </trkpt>
      <trkpt lat="45.77809" lon="4.64018">
        <ele>602.1</ele>
        <time>2018-09-09T09:16:29Z</time>
      </trkpt>
      <trkpt lat="45.77811" lon="4.6403">
        <ele>602.2</ele>
        <time>2018-09-09T09:16:33Z</time>
      </trkpt>
      <trkpt lat="45.77812" lon="4.64039">
        <ele>602.3</ele>
        <time>2018-09-09T09:16:35Z</time>
      </trkpt>
      <trkpt lat="45.77816" lon="4.64075">
        <ele>602.2</ele>
        <time>2018-09-09T09:16:41Z</time>
      </trkpt>
      <trkpt lat="45.77816" lon="4.64082">
        <ele>602.2</ele>
        <time>2018-09-09T09:16:42Z</time>
      </trkpt>
      <trkpt lat="45.7782" lon="4.64125">
        <ele>601.6</ele>
        <time>2018-09-09T09:16:47Z</time>
      </trkpt>
      <trkpt lat="45.77824" lon="4.64152">
        <ele>601.5</ele>
        <time>2018-09-09T09:16:50Z</time>
      </trkpt>
      <trkpt lat="45.77825" lon="4.64161">
        <ele>601.5</ele>
        <time>2018-09-09T09:16:51Z</time>
      </trkpt>
      <trkpt lat="45.77829" lon="4.64193">
        <ele>601.6</ele>
        <time>2018-09-09T09:16:55Z</time>
      </trkpt>
      <trkpt lat="45.77836" lon="4.64225">
        <ele>601.8</ele>
        <time>2018-09-09T09:16:59Z</time>
      </trkpt>
      <trkpt lat="45.77841" lon="4.64243">
        <ele>601.9</ele>
        <time>2018-09-09T09:17:02Z</time>
      </trkpt>
      <trkpt lat="45.77845" lon="4.64253">
        <ele>602</ele>
        <time>2018-09-09T09:17:04Z</time>
      </trkpt>
      <trkpt lat="45.77849" lon="4.64262">
        <ele>602</ele>
        <time>2018-09-09T09:17:06Z</time>
      </trkpt>
      <trkpt lat="45.77852" lon="4.64269">
        <ele>602.2</ele>
        <time>2018-09-09T09:17:09Z</time>
      </trkpt>
      <trkpt lat="45.77851" lon="4.64272">
        <ele>602.2</ele>
        <time>2018-09-09T09:17:10Z</time>
      </trkpt>
      <trkpt lat="45.77849" lon="4.64276">
        <ele>602.3</ele>
        <time>2018-09-09T09:17:12Z</time>
      </trkpt>
      <trkpt lat="45.77844" lon="4.64293">
        <ele>602.4</ele>
        <time>2018-09-09T09:17:16Z</time>
      </trkpt>
      <trkpt lat="45.7784" lon="4.64314">
        <ele>602.6</ele>
        <time>2018-09-09T09:17:21Z</time>
      </trkpt>
      <trkpt lat="45.77838" lon="4.64322">
        <ele>602.8</ele>
        <time>2018-09-09T09:17:23Z</time>
      </trkpt>
      <trkpt lat="45.77835" lon="4.64339">
        <ele>603.2</ele>
        <time>2018-09-09T09:17:28Z</time>
      </trkpt>
      <trkpt lat="45.77834" lon="4.64356">
        <ele>603.4</ele>
        <time>2018-09-09T09:17:33Z</time>
      </trkpt>
      <trkpt lat="45.77831" lon="4.64376">
        <ele>603.4</ele>
        <time>2018-09-09T09:17:38Z</time>
      </trkpt>
      <trkpt lat="45.77829" lon="4.64402">
        <ele>603.3</ele>
        <time>2018-09-09T09:17:44Z</time>
      </trkpt>
      <trkpt lat="45.77829" lon="4.64405">
        <ele>603.3</ele>
        <time>2018-09-09T09:17:45Z</time>
      </trkpt>
      <trkpt lat="45.77828" lon="4.64431">
        <ele>603</ele>
        <time>2018-09-09T09:17:51Z</time>
      </trkpt>
      <trkpt lat="45.77828" lon="4.64452">
        <ele>602</ele>
        <time>2018-09-09T09:17:57Z</time>
      </trkpt>
      <trkpt lat="45.77829" lon="4.64484">
        <ele>600.4</ele>
        <time>2018-09-09T09:18:04Z</time>
      </trkpt>
      <trkpt lat="45.77834" lon="4.64532">
        <ele>596.4</ele>
        <time>2018-09-09T09:18:12Z</time>
      </trkpt>
      <trkpt lat="45.77838" lon="4.64578">
        <ele>592.7</ele>
        <time>2018-09-09T09:18:17Z</time>
      </trkpt>
      <trkpt lat="45.77836" lon="4.64639">
        <ele>592</ele>
        <time>2018-09-09T09:18:23Z</time>
      </trkpt>
      <trkpt lat="45.77834" lon="4.64687">
        <ele>591.7</ele>
        <time>2018-09-09T09:18:28Z</time>
      </trkpt>
      <trkpt lat="45.77833" lon="4.64703">
        <ele>591.5</ele>
        <time>2018-09-09T09:18:30Z</time>
      </trkpt>
      <trkpt lat="45.77823" lon="4.64765">
        <ele>587.1</ele>
        <time>2018-09-09T09:18:37Z</time>
      </trkpt>
      <trkpt lat="45.77817" lon="4.64788">
        <ele>585.3</ele>
        <time>2018-09-09T09:18:40Z</time>
      </trkpt>
      <trkpt lat="45.77813" lon="4.64799">
        <ele>583.6</ele>
        <time>2018-09-09T09:18:42Z</time>
      </trkpt>
      <trkpt lat="45.77805" lon="4.64826">
        <ele>580.9</ele>
        <time>2018-09-09T09:18:47Z</time>
      </trkpt>
      <trkpt lat="45.77801" lon="4.64839">
        <ele>580.3</ele>
        <time>2018-09-09T09:18:50Z</time>
      </trkpt>
      <trkpt lat="45.778" lon="4.64846">
        <ele>580.1</ele>
        <time>2018-09-09T09:19:09Z</time>
      </trkpt>
      <trkpt lat="45.778" lon="4.64869">
        <ele>578.9</ele>
        <time>2018-09-09T09:19:14Z</time>
      </trkpt>
      <trkpt lat="45.77799" lon="4.64911">
        <ele>574.7</ele>
        <time>2018-09-09T09:19:22Z</time>
      </trkpt>
      <trkpt lat="45.77799" lon="4.64921">
        <ele>573.1</ele>
        <time>2018-09-09T09:19:24Z</time>
      </trkpt>
      <trkpt lat="45.77794" lon="4.64961">
        <ele>571.6</ele>
        <time>2018-09-09T09:19:31Z</time>
      </trkpt>
      <trkpt lat="45.77793" lon="4.64968">
        <ele>571.5</ele>
        <time>2018-09-09T09:19:32Z</time>
      </trkpt>
      <trkpt lat="45.77791" lon="4.64982">
        <ele>571.4</ele>
        <time>2018-09-09T09:19:34Z</time>
      </trkpt>
      <trkpt lat="45.77789" lon="4.65011">
        <ele>571.2</ele>
        <time>2018-09-09T09:19:38Z</time>
      </trkpt>
      <trkpt lat="45.77789" lon="4.65019">
        <ele>571.2</ele>
        <time>2018-09-09T09:19:39Z</time>
      </trkpt>
      <trkpt lat="45.77787" lon="4.65081">
        <ele>570.7</ele>
        <time>2018-09-09T09:19:46Z</time>
      </trkpt>
      <trkpt lat="45.77789" lon="4.65097">
        <ele>570.5</ele>
        <time>2018-09-09T09:19:48Z</time>
      </trkpt>
      <trkpt lat="45.77794" lon="4.65114">
        <ele>569.5</ele>
        <time>2018-09-09T09:19:51Z</time>
      </trkpt>
      <trkpt lat="45.77796" lon="4.65118">
        <ele>569.2</ele>
        <time>2018-09-09T09:19:52Z</time>
      </trkpt>
      <trkpt lat="45.77807" lon="4.65154">
        <ele>566.9</ele>
        <time>2018-09-09T09:19:59Z</time>
      </trkpt>
      <trkpt lat="45.77809" lon="4.65168">
        <ele>566.4</ele>
        <time>2018-09-09T09:20:01Z</time>
      </trkpt>
      <trkpt lat="45.77812" lon="4.65201">
        <ele>566</ele>
        <time>2018-09-09T09:20:05Z</time>
      </trkpt>
      <trkpt lat="45.77814" lon="4.65214">
        <ele>565.2</ele>
        <time>2018-09-09T09:20:07Z</time>
      </trkpt>
      <trkpt lat="45.7782" lon="4.65244">
        <ele>563.6</ele>
        <time>2018-09-09T09:20:12Z</time>
      </trkpt>
      <trkpt lat="45.7783" lon="4.65271">
        <ele>561.8</ele>
        <time>2018-09-09T09:20:17Z</time>
      </trkpt>
      <trkpt lat="45.77834" lon="4.6528">
        <ele>561.4</ele>
        <time>2018-09-09T09:20:19Z</time>
      </trkpt>
      <trkpt lat="45.77838" lon="4.65286">
        <ele>560.8</ele>
        <time>2018-09-09T09:20:21Z</time>
      </trkpt>
      <trkpt lat="45.7784" lon="4.65303">
        <ele>560.2</ele>
        <time>2018-09-09T09:20:25Z</time>
      </trkpt>
      <trkpt lat="45.7784" lon="4.65314">
        <ele>559.5</ele>
        <time>2018-09-09T09:20:27Z</time>
      </trkpt>
      <trkpt lat="45.77836" lon="4.65345">
        <ele>557.7</ele>
        <time>2018-09-09T09:20:32Z</time>
      </trkpt>
      <trkpt lat="45.77819" lon="4.65388">
        <ele>555.6</ele>
        <time>2018-09-09T09:20:39Z</time>
      </trkpt>
      <trkpt lat="45.77816" lon="4.65395">
        <ele>555.5</ele>
        <time>2018-09-09T09:20:40Z</time>
      </trkpt>
      <trkpt lat="45.77806" lon="4.65415">
        <ele>555</ele>
        <time>2018-09-09T09:20:43Z</time>
      </trkpt>
      <trkpt lat="45.77796" lon="4.65438">
        <ele>554.3</ele>
        <time>2018-09-09T09:20:46Z</time>
      </trkpt>
      <trkpt lat="45.77793" lon="4.65445">
        <ele>554.1</ele>
        <time>2018-09-09T09:20:47Z</time>
      </trkpt>
      <trkpt lat="45.77784" lon="4.6547">
        <ele>553.5</ele>
        <time>2018-09-09T09:20:50Z</time>
      </trkpt>
      <trkpt lat="45.77765" lon="4.65508">
        <ele>552.2</ele>
        <time>2018-09-09T09:20:55Z</time>
      </trkpt>
      <trkpt lat="45.77748" lon="4.65532">
        <ele>551</ele>
        <time>2018-09-09T09:20:59Z</time>
      </trkpt>
      <trkpt lat="45.77745" lon="4.65538">
        <ele>550.8</ele>
        <time>2018-09-09T09:21:00Z</time>
      </trkpt>
      <trkpt lat="45.77743" lon="4.65544">
        <ele>550.7</ele>
        <time>2018-09-09T09:21:01Z</time>
      </trkpt>
      <trkpt lat="45.77741" lon="4.65557">
        <ele>550.4</ele>
        <time>2018-09-09T09:21:03Z</time>
      </trkpt>
      <trkpt lat="45.77743" lon="4.65581">
        <ele>549.5</ele>
        <time>2018-09-09T09:21:06Z</time>
      </trkpt>
      <trkpt lat="45.77744" lon="4.65598">
        <ele>549</ele>
        <time>2018-09-09T09:21:08Z</time>
      </trkpt>
      <trkpt lat="45.77746" lon="4.6563">
        <ele>546.9</ele>
        <time>2018-09-09T09:21:12Z</time>
      </trkpt>
      <trkpt lat="45.77749" lon="4.65641">
        <ele>546.2</ele>
        <time>2018-09-09T09:21:14Z</time>
      </trkpt>
      <trkpt lat="45.77751" lon="4.65649">
        <ele>545.9</ele>
        <time>2018-09-09T09:21:16Z</time>
      </trkpt>
      <trkpt lat="45.77754" lon="4.6566">
        <ele>545</ele>
        <time>2018-09-09T09:21:19Z</time>
      </trkpt>
      <trkpt lat="45.77755" lon="4.65663">
        <ele>544.8</ele>
        <time>2018-09-09T09:21:20Z</time>
      </trkpt>
      <trkpt lat="45.77761" lon="4.65675">
        <ele>544</ele>
        <time>2018-09-09T09:21:24Z</time>
      </trkpt>
      <trkpt lat="45.77766" lon="4.65687">
        <ele>543.1</ele>
        <time>2018-09-09T09:21:27Z</time>
      </trkpt>
      <trkpt lat="45.77767" lon="4.65692">
        <ele>542.9</ele>
        <time>2018-09-09T09:21:28Z</time>
      </trkpt>
      <trkpt lat="45.7777" lon="4.65706">
        <ele>542</ele>
        <time>2018-09-09T09:21:31Z</time>
      </trkpt>
      <trkpt lat="45.77776" lon="4.65721">
        <ele>540.9</ele>
        <time>2018-09-09T09:21:34Z</time>
      </trkpt>
      <trkpt lat="45.77781" lon="4.65731">
        <ele>539.7</ele>
        <time>2018-09-09T09:21:36Z</time>
      </trkpt>
      <trkpt lat="45.77783" lon="4.65735">
        <ele>539.3</ele>
        <time>2018-09-09T09:21:37Z</time>
      </trkpt>
      <trkpt lat="45.77789" lon="4.65746">
        <ele>538.1</ele>
        <time>2018-09-09T09:21:40Z</time>
      </trkpt>
      <trkpt lat="45.77794" lon="4.65757">
        <ele>536.8</ele>
        <time>2018-09-09T09:21:43Z</time>
      </trkpt>
      <trkpt lat="45.77795" lon="4.6576">
        <ele>536.6</ele>
        <time>2018-09-09T09:21:44Z</time>
      </trkpt>
      <trkpt lat="45.77798" lon="4.6577">
        <ele>535.9</ele>
        <time>2018-09-09T09:21:47Z</time>
      </trkpt>
      <trkpt lat="45.77801" lon="4.65782">
        <ele>534.9</ele>
        <time>2018-09-09T09:21:50Z</time>
      </trkpt>
      <trkpt lat="45.77806" lon="4.65792">
        <ele>533.6</ele>
        <time>2018-09-09T09:21:53Z</time>
      </trkpt>
      <trkpt lat="45.77808" lon="4.65796">
        <ele>533.4</ele>
        <time>2018-09-09T09:21:54Z</time>
      </trkpt>
      <trkpt lat="45.77813" lon="4.65807">
        <ele>532</ele>
        <time>2018-09-09T09:21:57Z</time>
      </trkpt>
      <trkpt lat="45.77823" lon="4.65818">
        <ele>530.1</ele>
        <time>2018-09-09T09:22:01Z</time>
      </trkpt>
      <trkpt lat="45.77825" lon="4.6582">
        <ele>529.6</ele>
        <time>2018-09-09T09:22:02Z</time>
      </trkpt>
      <trkpt lat="45.77832" lon="4.65829">
        <ele>527</ele>
        <time>2018-09-09T09:22:05Z</time>
      </trkpt>
      <trkpt lat="45.77838" lon="4.6584">
        <ele>525.7</ele>
        <time>2018-09-09T09:22:08Z</time>
      </trkpt>
      <trkpt lat="45.7784" lon="4.65845">
        <ele>525.4</ele>
        <time>2018-09-09T09:22:09Z</time>
      </trkpt>
      <trkpt lat="45.77843" lon="4.65854">
        <ele>522.9</ele>
        <time>2018-09-09T09:22:11Z</time>
      </trkpt>
      <trkpt lat="45.77844" lon="4.65858">
        <ele>522</ele>
        <time>2018-09-09T09:22:12Z</time>
      </trkpt>
      <trkpt lat="45.77846" lon="4.65862">
        <ele>521</ele>
        <time>2018-09-09T09:22:13Z</time>
      </trkpt>
      <trkpt lat="45.77848" lon="4.65866">
        <ele>519.9</ele>
        <time>2018-09-09T09:22:14Z</time>
      </trkpt>
      <trkpt lat="45.77849" lon="4.6587">
        <ele>519.2</ele>
        <time>2018-09-09T09:22:15Z</time>
      </trkpt>
      <trkpt lat="45.7785" lon="4.65874">
        <ele>518.5</ele>
        <time>2018-09-09T09:22:16Z</time>
      </trkpt>
      <trkpt lat="45.77851" lon="4.65878">
        <ele>518.2</ele>
        <time>2018-09-09T09:22:17Z</time>
      </trkpt>
      <trkpt lat="45.77852" lon="4.65881">
        <ele>517.9</ele>
        <time>2018-09-09T09:22:18Z</time>
      </trkpt>
      <trkpt lat="45.77853" lon="4.65884">
        <ele>517.7</ele>
        <time>2018-09-09T09:22:19Z</time>
      </trkpt>
      <trkpt lat="45.77854" lon="4.65887">
        <ele>517.5</ele>
        <time>2018-09-09T09:22:20Z</time>
      </trkpt>
      <trkpt lat="45.77854" lon="4.6589">
        <ele>517.3</ele>
        <time>2018-09-09T09:22:21Z</time>
      </trkpt>
      <trkpt lat="45.77856" lon="4.65894">
        <ele>517</ele>
        <time>2018-09-09T09:22:22Z</time>
      </trkpt>
      <trkpt lat="45.77857" lon="4.65897">
        <ele>516.7</ele>
        <time>2018-09-09T09:22:23Z</time>
      </trkpt>
      <trkpt lat="45.77858" lon="4.65901">
        <ele>516.3</ele>
        <time>2018-09-09T09:22:24Z</time>
      </trkpt>
      <trkpt lat="45.77859" lon="4.65904">
        <ele>515.9</ele>
        <time>2018-09-09T09:22:25Z</time>
      </trkpt>
      <trkpt lat="45.7786" lon="4.65906">
        <ele>515.7</ele>
        <time>2018-09-09T09:22:26Z</time>
      </trkpt>
      <trkpt lat="45.77861" lon="4.65908">
        <ele>515.4</ele>
        <time>2018-09-09T09:22:27Z</time>
      </trkpt>
      <trkpt lat="45.77862" lon="4.65911">
        <ele>515.1</ele>
        <time>2018-09-09T09:22:29Z</time>
      </trkpt>
      <trkpt lat="45.77862" lon="4.65912">
        <ele>514.9</ele>
        <time>2018-09-09T09:22:30Z</time>
      </trkpt>
      <trkpt lat="45.77861" lon="4.65916">
        <ele>514.4</ele>
        <time>2018-09-09T09:22:32Z</time>
      </trkpt>
      <trkpt lat="45.77862" lon="4.65921">
        <ele>513.9</ele>
        <time>2018-09-09T09:22:33Z</time>
      </trkpt>
      <trkpt lat="45.77862" lon="4.65928">
        <ele>513.1</ele>
        <time>2018-09-09T09:22:34Z</time>
      </trkpt>
      <trkpt lat="45.77863" lon="4.65936">
        <ele>512.3</ele>
        <time>2018-09-09T09:22:35Z</time>
      </trkpt>
      <trkpt lat="45.77864" lon="4.65956">
        <ele>510.7</ele>
        <time>2018-09-09T09:22:38Z</time>
      </trkpt>
      <trkpt lat="45.77863" lon="4.65964">
        <ele>510.1</ele>
        <time>2018-09-09T09:22:39Z</time>
      </trkpt>
      <trkpt lat="45.77863" lon="4.65982">
        <ele>508.6</ele>
        <time>2018-09-09T09:22:41Z</time>
      </trkpt>
      <trkpt lat="45.77862" lon="4.66007">
        <ele>506.9</ele>
        <time>2018-09-09T09:22:44Z</time>
      </trkpt>
      <trkpt lat="45.77862" lon="4.66016">
        <ele>506.4</ele>
        <time>2018-09-09T09:22:45Z</time>
      </trkpt>
      <trkpt lat="45.77861" lon="4.66034">
        <ele>505.3</ele>
        <time>2018-09-09T09:22:47Z</time>
      </trkpt>
      <trkpt lat="45.77861" lon="4.66061">
        <ele>503.7</ele>
        <time>2018-09-09T09:22:50Z</time>
      </trkpt>
      <trkpt lat="45.77862" lon="4.66077">
        <ele>502</ele>
        <time>2018-09-09T09:22:52Z</time>
      </trkpt>
      <trkpt lat="45.77863" lon="4.66092">
        <ele>500.3</ele>
        <time>2018-09-09T09:22:54Z</time>
      </trkpt>
      <trkpt lat="45.77864" lon="4.66098">
        <ele>499.6</ele>
        <time>2018-09-09T09:22:55Z</time>
      </trkpt>
      <trkpt lat="45.77864" lon="4.66119">
        <ele>498.2</ele>
        <time>2018-09-09T09:22:58Z</time>
      </trkpt>
      <trkpt lat="45.77862" lon="4.66138">
        <ele>496.8</ele>
        <time>2018-09-09T09:23:01Z</time>
      </trkpt>
      <trkpt lat="45.77861" lon="4.66152">
        <ele>496.2</ele>
        <time>2018-09-09T09:23:03Z</time>
      </trkpt>
      <trkpt lat="45.7786" lon="4.66165">
        <ele>495.7</ele>
        <time>2018-09-09T09:23:05Z</time>
      </trkpt>
      <trkpt lat="45.77858" lon="4.66179">
        <ele>494.6</ele>
        <time>2018-09-09T09:23:07Z</time>
      </trkpt>
      <trkpt lat="45.77854" lon="4.66194">
        <ele>493.3</ele>
        <time>2018-09-09T09:23:09Z</time>
      </trkpt>
      <trkpt lat="45.77849" lon="4.6621">
        <ele>492.2</ele>
        <time>2018-09-09T09:23:11Z</time>
      </trkpt>
      <trkpt lat="45.77846" lon="4.66226">
        <ele>491</ele>
        <time>2018-09-09T09:23:13Z</time>
      </trkpt>
      <trkpt lat="45.77843" lon="4.66242">
        <ele>490.1</ele>
        <time>2018-09-09T09:23:15Z</time>
      </trkpt>
      <trkpt lat="45.77842" lon="4.6625">
        <ele>489.7</ele>
        <time>2018-09-09T09:23:16Z</time>
      </trkpt>
      <trkpt lat="45.7784" lon="4.66267">
        <ele>489.3</ele>
        <time>2018-09-09T09:23:18Z</time>
      </trkpt>
      <trkpt lat="45.77837" lon="4.6629">
        <ele>488.8</ele>
        <time>2018-09-09T09:23:21Z</time>
      </trkpt>
      <trkpt lat="45.77835" lon="4.66305">
        <ele>488.5</ele>
        <time>2018-09-09T09:23:23Z</time>
      </trkpt>
      <trkpt lat="45.77832" lon="4.66329">
        <ele>487.8</ele>
        <time>2018-09-09T09:23:26Z</time>
      </trkpt>
      <trkpt lat="45.77831" lon="4.66345">
        <ele>487.5</ele>
        <time>2018-09-09T09:23:28Z</time>
      </trkpt>
      <trkpt lat="45.77831" lon="4.6636">
        <ele>487.1</ele>
        <time>2018-09-09T09:23:30Z</time>
      </trkpt>
      <trkpt lat="45.7783" lon="4.66374">
        <ele>486.8</ele>
        <time>2018-09-09T09:23:32Z</time>
      </trkpt>
      <trkpt lat="45.77831" lon="4.66394">
        <ele>486.1</ele>
        <time>2018-09-09T09:23:35Z</time>
      </trkpt>
      <trkpt lat="45.77836" lon="4.66412">
        <ele>485.1</ele>
        <time>2018-09-09T09:23:38Z</time>
      </trkpt>
      <trkpt lat="45.7784" lon="4.66425">
        <ele>484.5</ele>
        <time>2018-09-09T09:23:40Z</time>
      </trkpt>
      <trkpt lat="45.77843" lon="4.66433">
        <ele>484.1</ele>
        <time>2018-09-09T09:23:41Z</time>
      </trkpt>
      <trkpt lat="45.77855" lon="4.66468">
        <ele>481.2</ele>
        <time>2018-09-09T09:23:45Z</time>
      </trkpt>
      <trkpt lat="45.77864" lon="4.66506">
        <ele>478.3</ele>
        <time>2018-09-09T09:23:49Z</time>
      </trkpt>
      <trkpt lat="45.7787" lon="4.66526">
        <ele>476.1</ele>
        <time>2018-09-09T09:23:51Z</time>
      </trkpt>
      <trkpt lat="45.77873" lon="4.66534">
        <ele>475.3</ele>
        <time>2018-09-09T09:23:52Z</time>
      </trkpt>
      <trkpt lat="45.77875" lon="4.66542">
        <ele>474.6</ele>
        <time>2018-09-09T09:23:53Z</time>
      </trkpt>
      <trkpt lat="45.7788" lon="4.66555">
        <ele>473.9</ele>
        <time>2018-09-09T09:23:55Z</time>
      </trkpt>
      <trkpt lat="45.77884" lon="4.6657">
        <ele>473.2</ele>
        <time>2018-09-09T09:23:57Z</time>
      </trkpt>
      <trkpt lat="45.77888" lon="4.66583">
        <ele>469.6</ele>
        <time>2018-09-09T09:23:59Z</time>
      </trkpt>
      <trkpt lat="45.77892" lon="4.66595">
        <ele>465.7</ele>
        <time>2018-09-09T09:24:01Z</time>
      </trkpt>
      <trkpt lat="45.77898" lon="4.66605">
        <ele>462.1</ele>
        <time>2018-09-09T09:24:03Z</time>
      </trkpt>
      <trkpt lat="45.77902" lon="4.66614">
        <ele>459</ele>
        <time>2018-09-09T09:24:05Z</time>
      </trkpt>
      <trkpt lat="45.77904" lon="4.66619">
        <ele>459</ele>
        <time>2018-09-09T09:24:06Z</time>
      </trkpt>
      <trkpt lat="45.77906" lon="4.66632">
        <ele>458.6</ele>
        <time>2018-09-09T09:24:08Z</time>
      </trkpt>
      <trkpt lat="45.77902" lon="4.66636">
        <ele>458.4</ele>
        <time>2018-09-09T09:24:09Z</time>
      </trkpt>
      <trkpt lat="45.7789" lon="4.66633">
        <ele>457.5</ele>
        <time>2018-09-09T09:24:10Z</time>
      </trkpt>
      <trkpt lat="45.77877" lon="4.66628">
        <ele>456.3</ele>
        <time>2018-09-09T09:24:11Z</time>
      </trkpt>
      <trkpt lat="45.77866" lon="4.66624">
        <ele>455.7</ele>
        <time>2018-09-09T09:24:12Z</time>
      </trkpt>
      <trkpt lat="45.77856" lon="4.66621">
        <ele>455.2</ele>
        <time>2018-09-09T09:24:13Z</time>
      </trkpt>
      <trkpt lat="45.77831" lon="4.66612">
        <ele>452.7</ele>
        <time>2018-09-09T09:24:16Z</time>
      </trkpt>
      <trkpt lat="45.77823" lon="4.66613">
        <ele>451.7</ele>
        <time>2018-09-09T09:24:17Z</time>
      </trkpt>
      <trkpt lat="45.77815" lon="4.66614">
        <ele>450.7</ele>
        <time>2018-09-09T09:24:18Z</time>
      </trkpt>
      <trkpt lat="45.778" lon="4.66614">
        <ele>449.2</ele>
        <time>2018-09-09T09:24:20Z</time>
      </trkpt>
      <trkpt lat="45.77793" lon="4.66612">
        <ele>448.2</ele>
        <time>2018-09-09T09:24:21Z</time>
      </trkpt>
      <trkpt lat="45.77789" lon="4.66607">
        <ele>447.6</ele>
        <time>2018-09-09T09:24:22Z</time>
      </trkpt>
      <trkpt lat="45.77777" lon="4.66602">
        <ele>446.3</ele>
        <time>2018-09-09T09:24:24Z</time>
      </trkpt>
      <trkpt lat="45.77775" lon="4.66603">
        <ele>445.8</ele>
        <time>2018-09-09T09:24:25Z</time>
      </trkpt>
      <trkpt lat="45.77773" lon="4.66607">
        <ele>445.3</ele>
        <time>2018-09-09T09:24:26Z</time>
      </trkpt>
      <trkpt lat="45.77774" lon="4.6662">
        <ele>443.9</ele>
        <time>2018-09-09T09:24:28Z</time>
      </trkpt>
      <trkpt lat="45.77776" lon="4.66628">
        <ele>443.3</ele>
        <time>2018-09-09T09:24:29Z</time>
      </trkpt>
      <trkpt lat="45.77778" lon="4.66635">
        <ele>442.7</ele>
        <time>2018-09-09T09:24:30Z</time>
      </trkpt>
      <trkpt lat="45.77781" lon="4.66642">
        <ele>442.2</ele>
        <time>2018-09-09T09:24:31Z</time>
      </trkpt>
      <trkpt lat="45.77783" lon="4.6665">
        <ele>441.5</ele>
        <time>2018-09-09T09:24:32Z</time>
      </trkpt>
      <trkpt lat="45.77786" lon="4.66665">
        <ele>440.2</ele>
        <time>2018-09-09T09:24:34Z</time>
      </trkpt>
      <trkpt lat="45.77787" lon="4.66674">
        <ele>439.6</ele>
        <time>2018-09-09T09:24:35Z</time>
      </trkpt>
      <trkpt lat="45.77797" lon="4.66716">
        <ele>436.9</ele>
        <time>2018-09-09T09:24:39Z</time>
      </trkpt>
      <trkpt lat="45.778" lon="4.66729">
        <ele>436.3</ele>
        <time>2018-09-09T09:24:40Z</time>
      </trkpt>
      <trkpt lat="45.77803" lon="4.66741">
        <ele>435.2</ele>
        <time>2018-09-09T09:24:41Z</time>
      </trkpt>
      <trkpt lat="45.77806" lon="4.66763">
        <ele>434.1</ele>
        <time>2018-09-09T09:24:43Z</time>
      </trkpt>
      <trkpt lat="45.77806" lon="4.66773">
        <ele>433.4</ele>
        <time>2018-09-09T09:24:44Z</time>
      </trkpt>
      <trkpt lat="45.77808" lon="4.66805">
        <ele>431.2</ele>
        <time>2018-09-09T09:24:47Z</time>
      </trkpt>
      <trkpt lat="45.7781" lon="4.66837">
        <ele>429.6</ele>
        <time>2018-09-09T09:24:50Z</time>
      </trkpt>
      <trkpt lat="45.77808" lon="4.66852">
        <ele>429.2</ele>
        <time>2018-09-09T09:24:53Z</time>
      </trkpt>
      <trkpt lat="45.77806" lon="4.66856">
        <ele>429</ele>
        <time>2018-09-09T09:24:55Z</time>
      </trkpt>
      <trkpt lat="45.77803" lon="4.66858">
        <ele>429</ele>
        <time>2018-09-09T09:24:57Z</time>
      </trkpt>
      <trkpt lat="45.77801" lon="4.66858">
        <ele>428.9</ele>
        <time>2018-09-09T09:24:58Z</time>
      </trkpt>
      <trkpt lat="45.77799" lon="4.66858">
        <ele>428.7</ele>
        <time>2018-09-09T09:24:59Z</time>
      </trkpt>
      <trkpt lat="45.77797" lon="4.66858">
        <ele>428.6</ele>
        <time>2018-09-09T09:25:01Z</time>
      </trkpt>
      <trkpt lat="45.77791" lon="4.6686">
        <ele>428.4</ele>
        <time>2018-09-09T09:25:20Z</time>
      </trkpt>
      <trkpt lat="45.77781" lon="4.66862">
        <ele>427.9</ele>
        <time>2018-09-09T09:25:24Z</time>
      </trkpt>
      <trkpt lat="45.77778" lon="4.66863">
        <ele>427.7</ele>
        <time>2018-09-09T09:25:25Z</time>
      </trkpt>
      <trkpt lat="45.77775" lon="4.66863">
        <ele>427.6</ele>
        <time>2018-09-09T09:25:26Z</time>
      </trkpt>
      <trkpt lat="45.77764" lon="4.66868">
        <ele>427</ele>
        <time>2018-09-09T09:25:30Z</time>
      </trkpt>
      <trkpt lat="45.77764" lon="4.66868">
        <ele>427</ele>
        <time>2018-09-09T09:25:31Z</time>
      </trkpt>
      <trkpt lat="45.77767" lon="4.66865">
        <ele>427.2</ele>
        <time>2018-09-09T09:29:45Z</time>
      </trkpt>
      <trkpt lat="45.77769" lon="4.66866">
        <ele>427.3</ele>
        <time>2018-09-09T09:29:47Z</time>
      </trkpt>
      <trkpt lat="45.7777" lon="4.66866">
        <ele>427.3</ele>
        <time>2018-09-09T09:29:48Z</time>
      </trkpt>
      <trkpt lat="45.77772" lon="4.66867">
        <ele>427.4</ele>
        <time>2018-09-09T09:29:49Z</time>
      </trkpt>
      <trkpt lat="45.77777" lon="4.66866">
        <ele>427.7</ele>
        <time>2018-09-09T09:29:52Z</time>
      </trkpt>
      <trkpt lat="45.77789" lon="4.66863">
        <ele>428.3</ele>
        <time>2018-09-09T09:29:57Z</time>
      </trkpt>
      <trkpt lat="45.77791" lon="4.66863">
        <ele>428.4</ele>
        <time>2018-09-09T09:29:58Z</time>
      </trkpt>
      <trkpt lat="45.77804" lon="4.66862">
        <ele>429</ele>
        <time>2018-09-09T09:30:04Z</time>
      </trkpt>
      <trkpt lat="45.77808" lon="4.66877">
        <ele>427.7</ele>
        <time>2018-09-09T09:30:07Z</time>
      </trkpt>
      <trkpt lat="45.77808" lon="4.66892">
        <ele>426.4</ele>
        <time>2018-09-09T09:30:09Z</time>
      </trkpt>
      <trkpt lat="45.77809" lon="4.66909">
        <ele>424.9</ele>
        <time>2018-09-09T09:30:11Z</time>
      </trkpt>
      <trkpt lat="45.77811" lon="4.66927">
        <ele>423.7</ele>
        <time>2018-09-09T09:30:13Z</time>
      </trkpt>
      <trkpt lat="45.77813" lon="4.66955">
        <ele>423.1</ele>
        <time>2018-09-09T09:30:16Z</time>
      </trkpt>
      <trkpt lat="45.77816" lon="4.66981">
        <ele>422.6</ele>
        <time>2018-09-09T09:30:19Z</time>
      </trkpt>
      <trkpt lat="45.77817" lon="4.6699">
        <ele>422.4</ele>
        <time>2018-09-09T09:30:20Z</time>
      </trkpt>
      <trkpt lat="45.7782" lon="4.67016">
        <ele>421.6</ele>
        <time>2018-09-09T09:30:23Z</time>
      </trkpt>
      <trkpt lat="45.77824" lon="4.67045">
        <ele>421.3</ele>
        <time>2018-09-09T09:30:26Z</time>
      </trkpt>
      <trkpt lat="45.77828" lon="4.67075">
        <ele>420.9</ele>
        <time>2018-09-09T09:30:29Z</time>
      </trkpt>
      <trkpt lat="45.77829" lon="4.67085">
        <ele>420.8</ele>
        <time>2018-09-09T09:30:30Z</time>
      </trkpt>
      <trkpt lat="45.77838" lon="4.6716">
        <ele>419.6</ele>
        <time>2018-09-09T09:30:38Z</time>
      </trkpt>
      <trkpt lat="45.77841" lon="4.67181">
        <ele>419</ele>
        <time>2018-09-09T09:30:41Z</time>
      </trkpt>
      <trkpt lat="45.77845" lon="4.67186">
        <ele>418.7</ele>
        <time>2018-09-09T09:30:43Z</time>
      </trkpt>
      <trkpt lat="45.77854" lon="4.67189">
        <ele>418.4</ele>
        <time>2018-09-09T09:30:47Z</time>
      </trkpt>
      <trkpt lat="45.77872" lon="4.67197">
        <ele>417.9</ele>
        <time>2018-09-09T09:30:53Z</time>
      </trkpt>
      <trkpt lat="45.77882" lon="4.67201">
        <ele>417.5</ele>
        <time>2018-09-09T09:30:57Z</time>
      </trkpt>
      <trkpt lat="45.77885" lon="4.67202">
        <ele>417.4</ele>
        <time>2018-09-09T09:30:58Z</time>
      </trkpt>
      <trkpt lat="45.77904" lon="4.67212">
        <ele>417.2</ele>
        <time>2018-09-09T09:31:04Z</time>
      </trkpt>
      <trkpt lat="45.77927" lon="4.67223">
        <ele>417.1</ele>
        <time>2018-09-09T09:31:08Z</time>
      </trkpt>
      <trkpt lat="45.77969" lon="4.67249">
        <ele>417.2</ele>
        <time>2018-09-09T09:31:15Z</time>
      </trkpt>
      <trkpt lat="45.78006" lon="4.67267">
        <ele>417.4</ele>
        <time>2018-09-09T09:31:21Z</time>
      </trkpt>
      <trkpt lat="45.78011" lon="4.67271">
        <ele>417.4</ele>
        <time>2018-09-09T09:31:22Z</time>
      </trkpt>
      <trkpt lat="45.78052" lon="4.67299">
        <ele>417.5</ele>
        <time>2018-09-09T09:31:30Z</time>
      </trkpt>
      <trkpt lat="45.78097" lon="4.67333">
        <ele>416.2</ele>
        <time>2018-09-09T09:31:40Z</time>
      </trkpt>
      <trkpt lat="45.78134" lon="4.67364">
        <ele>414.4</ele>
        <time>2018-09-09T09:31:47Z</time>
      </trkpt>
      <trkpt lat="45.78182" lon="4.67404">
        <ele>412.9</ele>
        <time>2018-09-09T09:31:55Z</time>
      </trkpt>
      <trkpt lat="45.78188" lon="4.6741">
        <ele>412.7</ele>
        <time>2018-09-09T09:31:56Z</time>
      </trkpt>
      <trkpt lat="45.78216" lon="4.67448">
        <ele>411.2</ele>
        <time>2018-09-09T09:32:02Z</time>
      </trkpt>
      <trkpt lat="45.78247" lon="4.67501">
        <ele>407.3</ele>
        <time>2018-09-09T09:32:10Z</time>
      </trkpt>
      <trkpt lat="45.78256" lon="4.67518">
        <ele>406.2</ele>
        <time>2018-09-09T09:32:12Z</time>
      </trkpt>
      <trkpt lat="45.78259" lon="4.67528">
        <ele>405.6</ele>
        <time>2018-09-09T09:32:13Z</time>
      </trkpt>
      <trkpt lat="45.78266" lon="4.6755">
        <ele>404.2</ele>
        <time>2018-09-09T09:32:15Z</time>
      </trkpt>
      <trkpt lat="45.78268" lon="4.67562">
        <ele>403.4</ele>
        <time>2018-09-09T09:32:16Z</time>
      </trkpt>
      <trkpt lat="45.78275" lon="4.67584">
        <ele>402.6</ele>
        <time>2018-09-09T09:32:18Z</time>
      </trkpt>
      <trkpt lat="45.78283" lon="4.67621">
        <ele>399.2</ele>
        <time>2018-09-09T09:32:22Z</time>
      </trkpt>
      <trkpt lat="45.78284" lon="4.6763">
        <ele>399.5</ele>
        <time>2018-09-09T09:32:23Z</time>
      </trkpt>
      <trkpt lat="45.78282" lon="4.67667">
        <ele>396.8</ele>
        <time>2018-09-09T09:32:27Z</time>
      </trkpt>
      <trkpt lat="45.7828" lon="4.67686">
        <ele>396.4</ele>
        <time>2018-09-09T09:32:29Z</time>
      </trkpt>
      <trkpt lat="45.78272" lon="4.67723">
        <ele>396</ele>
        <time>2018-09-09T09:32:33Z</time>
      </trkpt>
      <trkpt lat="45.78261" lon="4.67754">
        <ele>397.9</ele>
        <time>2018-09-09T09:32:37Z</time>
      </trkpt>
      <trkpt lat="45.78253" lon="4.67769">
        <ele>401.2</ele>
        <time>2018-09-09T09:32:39Z</time>
      </trkpt>
      <trkpt lat="45.78235" lon="4.67809">
        <ele>409.8</ele>
        <time>2018-09-09T09:32:45Z</time>
      </trkpt>
      <trkpt lat="45.78225" lon="4.67838">
        <ele>410.2</ele>
        <time>2018-09-09T09:32:51Z</time>
      </trkpt>
      <trkpt lat="45.78226" lon="4.67862">
        <ele>410.4</ele>
        <time>2018-09-09T09:32:58Z</time>
      </trkpt>
      <trkpt lat="45.78228" lon="4.6786">
        <ele>410.5</ele>
        <time>2018-09-09T09:32:59Z</time>
      </trkpt>
      <trkpt lat="45.78242" lon="4.67866">
        <ele>410.6</ele>
        <time>2018-09-09T09:33:04Z</time>
      </trkpt>
      <trkpt lat="45.78243" lon="4.67859">
        <ele>410.6</ele>
        <time>2018-09-09T09:33:06Z</time>
      </trkpt>
      <trkpt lat="45.78241" lon="4.67859">
        <ele>410.7</ele>
        <time>2018-09-09T09:33:07Z</time>
      </trkpt>
      <trkpt lat="45.7824" lon="4.67861">
        <ele>410.7</ele>
        <time>2018-09-09T09:33:08Z</time>
      </trkpt>
      <trkpt lat="45.7824" lon="4.67864">
        <ele>410.7</ele>
        <time>2018-09-09T09:33:09Z</time>
      </trkpt>
      <trkpt lat="45.78241" lon="4.67872">
        <ele>410.8</ele>
        <time>2018-09-09T09:33:11Z</time>
      </trkpt>
      <trkpt lat="45.78242" lon="4.67875">
        <ele>410.8</ele>
        <time>2018-09-09T09:33:12Z</time>
      </trkpt>
      <trkpt lat="45.78242" lon="4.67896">
        <ele>410.9</ele>
        <time>2018-09-09T09:33:18Z</time>
      </trkpt>
      <trkpt lat="45.78243" lon="4.67908">
        <ele>410.9</ele>
        <time>2018-09-09T09:33:22Z</time>
      </trkpt>
      <trkpt lat="45.78244" lon="4.6792">
        <ele>410.7</ele>
        <time>2018-09-09T09:33:25Z</time>
      </trkpt>
      <trkpt lat="45.78248" lon="4.67956">
        <ele>409.9</ele>
        <time>2018-09-09T09:33:33Z</time>
      </trkpt>
      <trkpt lat="45.78249" lon="4.67972">
        <ele>409.7</ele>
        <time>2018-09-09T09:33:36Z</time>
      </trkpt>
      <trkpt lat="45.78249" lon="4.67985">
        <ele>409.5</ele>
        <time>2018-09-09T09:33:38Z</time>
      </trkpt>
      <trkpt lat="45.78244" lon="4.68026">
        <ele>408.2</ele>
        <time>2018-09-09T09:33:44Z</time>
      </trkpt>
      <trkpt lat="45.78243" lon="4.68033">
        <ele>407.6</ele>
        <time>2018-09-09T09:33:45Z</time>
      </trkpt>
      <trkpt lat="45.78238" lon="4.68054">
        <ele>406.3</ele>
        <time>2018-09-09T09:33:48Z</time>
      </trkpt>
      <trkpt lat="45.78235" lon="4.68061">
        <ele>405.9</ele>
        <time>2018-09-09T09:33:49Z</time>
      </trkpt>
      <trkpt lat="45.78228" lon="4.68075">
        <ele>404.5</ele>
        <time>2018-09-09T09:33:51Z</time>
      </trkpt>
      <trkpt lat="45.78224" lon="4.68083">
        <ele>403.8</ele>
        <time>2018-09-09T09:33:52Z</time>
      </trkpt>
      <trkpt lat="45.78214" lon="4.68105">
        <ele>401.7</ele>
        <time>2018-09-09T09:33:55Z</time>
      </trkpt>
      <trkpt lat="45.78212" lon="4.6811">
        <ele>401.3</ele>
        <time>2018-09-09T09:33:56Z</time>
      </trkpt>
      <trkpt lat="45.78214" lon="4.68114">
        <ele>401.1</ele>
        <time>2018-09-09T09:33:57Z</time>
      </trkpt>
      <trkpt lat="45.78222" lon="4.68115">
        <ele>400.6</ele>
        <time>2018-09-09T09:33:59Z</time>
      </trkpt>
      <trkpt lat="45.7823" lon="4.68109">
        <ele>400</ele>
        <time>2018-09-09T09:34:01Z</time>
      </trkpt>
      <trkpt lat="45.7824" lon="4.68105">
        <ele>398.7</ele>
        <time>2018-09-09T09:34:03Z</time>
      </trkpt>
      <trkpt lat="45.78245" lon="4.68102">
        <ele>397.9</ele>
        <time>2018-09-09T09:34:04Z</time>
      </trkpt>
      <trkpt lat="45.78261" lon="4.68093">
        <ele>395.8</ele>
        <time>2018-09-09T09:34:07Z</time>
      </trkpt>
      <trkpt lat="45.78279" lon="4.68084">
        <ele>394.6</ele>
        <time>2018-09-09T09:34:10Z</time>
      </trkpt>
      <trkpt lat="45.78291" lon="4.68077">
        <ele>393</ele>
        <time>2018-09-09T09:34:12Z</time>
      </trkpt>
      <trkpt lat="45.78311" lon="4.68065">
        <ele>391.1</ele>
        <time>2018-09-09T09:34:15Z</time>
      </trkpt>
      <trkpt lat="45.78319" lon="4.6806">
        <ele>390.3</ele>
        <time>2018-09-09T09:34:16Z</time>
      </trkpt>
      <trkpt lat="45.78332" lon="4.68049">
        <ele>388.4</ele>
        <time>2018-09-09T09:34:18Z</time>
      </trkpt>
      <trkpt lat="45.78344" lon="4.68039">
        <ele>387.1</ele>
        <time>2018-09-09T09:34:20Z</time>
      </trkpt>
      <trkpt lat="45.78349" lon="4.68035">
        <ele>386</ele>
        <time>2018-09-09T09:34:21Z</time>
      </trkpt>
      <trkpt lat="45.78354" lon="4.6803">
        <ele>384.7</ele>
        <time>2018-09-09T09:34:22Z</time>
      </trkpt>
      <trkpt lat="45.78364" lon="4.6802">
        <ele>382.7</ele>
        <time>2018-09-09T09:34:24Z</time>
      </trkpt>
      <trkpt lat="45.78369" lon="4.68013">
        <ele>381.7</ele>
        <time>2018-09-09T09:34:25Z</time>
      </trkpt>
      <trkpt lat="45.78374" lon="4.68005">
        <ele>381.2</ele>
        <time>2018-09-09T09:34:26Z</time>
      </trkpt>
      <trkpt lat="45.78381" lon="4.67996">
        <ele>380.3</ele>
        <time>2018-09-09T09:34:27Z</time>
      </trkpt>
      <trkpt lat="45.78394" lon="4.67978">
        <ele>378.3</ele>
        <time>2018-09-09T09:34:29Z</time>
      </trkpt>
      <trkpt lat="45.78399" lon="4.67968">
        <ele>377.2</ele>
        <time>2018-09-09T09:34:30Z</time>
      </trkpt>
      <trkpt lat="45.78404" lon="4.67959">
        <ele>376.2</ele>
        <time>2018-09-09T09:34:31Z</time>
      </trkpt>
      <trkpt lat="45.78414" lon="4.67941">
        <ele>374.3</ele>
        <time>2018-09-09T09:34:33Z</time>
      </trkpt>
      <trkpt lat="45.78419" lon="4.67932">
        <ele>373.5</ele>
        <time>2018-09-09T09:34:34Z</time>
      </trkpt>
      <trkpt lat="45.78425" lon="4.67923">
        <ele>372.6</ele>
        <time>2018-09-09T09:34:35Z</time>
      </trkpt>
      <trkpt lat="45.7843" lon="4.67915">
        <ele>371.7</ele>
        <time>2018-09-09T09:34:36Z</time>
      </trkpt>
      <trkpt lat="45.78436" lon="4.67905">
        <ele>371</ele>
        <time>2018-09-09T09:34:37Z</time>
      </trkpt>
      <trkpt lat="45.78449" lon="4.67886">
        <ele>369.2</ele>
        <time>2018-09-09T09:34:39Z</time>
      </trkpt>
      <trkpt lat="45.78461" lon="4.67866">
        <ele>367.4</ele>
        <time>2018-09-09T09:34:41Z</time>
      </trkpt>
      <trkpt lat="45.78473" lon="4.67846">
        <ele>365.4</ele>
        <time>2018-09-09T09:34:43Z</time>
      </trkpt>
      <trkpt lat="45.78487" lon="4.67824">
        <ele>363.2</ele>
        <time>2018-09-09T09:34:45Z</time>
      </trkpt>
      <trkpt lat="45.78494" lon="4.67814">
        <ele>362.2</ele>
        <time>2018-09-09T09:34:46Z</time>
      </trkpt>
      <trkpt lat="45.78503" lon="4.67804">
        <ele>361</ele>
        <time>2018-09-09T09:34:47Z</time>
      </trkpt>
      <trkpt lat="45.78511" lon="4.67794">
        <ele>360</ele>
        <time>2018-09-09T09:34:48Z</time>
      </trkpt>
      <trkpt lat="45.78518" lon="4.67785">
        <ele>358.7</ele>
        <time>2018-09-09T09:34:49Z</time>
      </trkpt>
      <trkpt lat="45.78525" lon="4.67776">
        <ele>357.4</ele>
        <time>2018-09-09T09:34:50Z</time>
      </trkpt>
      <trkpt lat="45.78532" lon="4.67768">
        <ele>356.2</ele>
        <time>2018-09-09T09:34:51Z</time>
      </trkpt>
      <trkpt lat="45.78535" lon="4.67759">
        <ele>355</ele>
        <time>2018-09-09T09:34:52Z</time>
      </trkpt>
      <trkpt lat="45.7854" lon="4.67753">
        <ele>353.9</ele>
        <time>2018-09-09T09:34:53Z</time>
      </trkpt>
      <trkpt lat="45.78546" lon="4.6775">
        <ele>353</ele>
        <time>2018-09-09T09:34:54Z</time>
      </trkpt>
      <trkpt lat="45.78552" lon="4.67751">
        <ele>352.3</ele>
        <time>2018-09-09T09:34:55Z</time>
      </trkpt>
      <trkpt lat="45.78559" lon="4.67752">
        <ele>351.6</ele>
        <time>2018-09-09T09:34:56Z</time>
      </trkpt>
      <trkpt lat="45.78565" lon="4.67754">
        <ele>351</ele>
        <time>2018-09-09T09:34:57Z</time>
      </trkpt>
      <trkpt lat="45.7857" lon="4.67761">
        <ele>350.3</ele>
        <time>2018-09-09T09:34:58Z</time>
      </trkpt>
      <trkpt lat="45.78576" lon="4.6777">
        <ele>349.6</ele>
        <time>2018-09-09T09:34:59Z</time>
      </trkpt>
      <trkpt lat="45.78582" lon="4.67778">
        <ele>349.2</ele>
        <time>2018-09-09T09:35:00Z</time>
      </trkpt>
      <trkpt lat="45.78589" lon="4.67785">
        <ele>348.7</ele>
        <time>2018-09-09T09:35:01Z</time>
      </trkpt>
      <trkpt lat="45.78595" lon="4.67791">
        <ele>348.3</ele>
        <time>2018-09-09T09:35:02Z</time>
      </trkpt>
      <trkpt lat="45.78601" lon="4.67795">
        <ele>347.7</ele>
        <time>2018-09-09T09:35:03Z</time>
      </trkpt>
      <trkpt lat="45.78607" lon="4.67796">
        <ele>347</ele>
        <time>2018-09-09T09:35:04Z</time>
      </trkpt>
      <trkpt lat="45.78614" lon="4.67794">
        <ele>346.1</ele>
        <time>2018-09-09T09:35:05Z</time>
      </trkpt>
      <trkpt lat="45.7862" lon="4.67792">
        <ele>345.2</ele>
        <time>2018-09-09T09:35:06Z</time>
      </trkpt>
      <trkpt lat="45.78626" lon="4.6779">
        <ele>344.2</ele>
        <time>2018-09-09T09:35:07Z</time>
      </trkpt>
      <trkpt lat="45.7863" lon="4.67788">
        <ele>343.3</ele>
        <time>2018-09-09T09:35:08Z</time>
      </trkpt>
      <trkpt lat="45.78635" lon="4.67787">
        <ele>342.4</ele>
        <time>2018-09-09T09:35:09Z</time>
      </trkpt>
      <trkpt lat="45.78642" lon="4.67787">
        <ele>341.7</ele>
        <time>2018-09-09T09:35:11Z</time>
      </trkpt>
      <trkpt lat="45.78647" lon="4.67787">
        <ele>341</ele>
        <time>2018-09-09T09:35:13Z</time>
      </trkpt>
      <trkpt lat="45.78654" lon="4.67787">
        <ele>340.5</ele>
        <time>2018-09-09T09:35:15Z</time>
      </trkpt>
      <trkpt lat="45.7866" lon="4.67791">
        <ele>340.4</ele>
        <time>2018-09-09T09:35:17Z</time>
      </trkpt>
      <trkpt lat="45.78662" lon="4.67796">
        <ele>340.7</ele>
        <time>2018-09-09T09:35:18Z</time>
      </trkpt>
      <trkpt lat="45.78664" lon="4.67807">
        <ele>341.1</ele>
        <time>2018-09-09T09:35:20Z</time>
      </trkpt>
      <trkpt lat="45.78657" lon="4.67822">
        <ele>342.6</ele>
        <time>2018-09-09T09:35:23Z</time>
      </trkpt>
      <trkpt lat="45.78653" lon="4.67829">
        <ele>343.3</ele>
        <time>2018-09-09T09:35:25Z</time>
      </trkpt>
      <trkpt lat="45.78653" lon="4.67833">
        <ele>343.6</ele>
        <time>2018-09-09T09:35:26Z</time>
      </trkpt>
      <trkpt lat="45.78653" lon="4.67837">
        <ele>344.1</ele>
        <time>2018-09-09T09:35:27Z</time>
      </trkpt>
      <trkpt lat="45.78653" lon="4.67847">
        <ele>345</ele>
        <time>2018-09-09T09:35:30Z</time>
      </trkpt>
      <trkpt lat="45.78655" lon="4.6785">
        <ele>345.3</ele>
        <time>2018-09-09T09:35:32Z</time>
      </trkpt>
      <trkpt lat="45.78659" lon="4.67856">
        <ele>346.3</ele>
        <time>2018-09-09T09:35:37Z</time>
      </trkpt>
      <trkpt lat="45.78661" lon="4.6786">
        <ele>346.8</ele>
        <time>2018-09-09T09:35:40Z</time>
      </trkpt>
      <trkpt lat="45.78662" lon="4.67861">
        <ele>347</ele>
        <time>2018-09-09T09:35:41Z</time>
      </trkpt>
      <trkpt lat="45.78663" lon="4.67862">
        <ele>347.2</ele>
        <time>2018-09-09T09:35:42Z</time>
      </trkpt>
      <trkpt lat="45.78664" lon="4.67863">
        <ele>347.4</ele>
        <time>2018-09-09T09:35:43Z</time>
      </trkpt>
      <trkpt lat="45.78669" lon="4.67868">
        <ele>348.2</ele>
        <time>2018-09-09T09:35:47Z</time>
      </trkpt>
      <trkpt lat="45.78671" lon="4.67871">
        <ele>348.5</ele>
        <time>2018-09-09T09:35:49Z</time>
      </trkpt>
      <trkpt lat="45.78672" lon="4.67873">
        <ele>348.8</ele>
        <time>2018-09-09T09:35:51Z</time>
      </trkpt>
      <trkpt lat="45.78674" lon="4.67876">
        <ele>349</ele>
        <time>2018-09-09T09:35:53Z</time>
      </trkpt>
      <trkpt lat="45.78677" lon="4.67881">
        <ele>349.6</ele>
        <time>2018-09-09T09:35:57Z</time>
      </trkpt>
      <trkpt lat="45.78679" lon="4.67883">
        <ele>349.8</ele>
        <time>2018-09-09T09:35:58Z</time>
      </trkpt>
      <trkpt lat="45.78681" lon="4.67887">
        <ele>350.2</ele>
        <time>2018-09-09T09:36:01Z</time>
      </trkpt>
      <trkpt lat="45.78682" lon="4.67888">
        <ele>350.3</ele>
        <time>2018-09-09T09:36:02Z</time>
      </trkpt>
      <trkpt lat="45.78684" lon="4.67891">
        <ele>350.8</ele>
        <time>2018-09-09T09:36:04Z</time>
      </trkpt>
      <trkpt lat="45.78687" lon="4.67896">
        <ele>351.4</ele>
        <time>2018-09-09T09:36:07Z</time>
      </trkpt>
      <trkpt lat="45.78689" lon="4.67901">
        <ele>352.1</ele>
        <time>2018-09-09T09:36:10Z</time>
      </trkpt>
      <trkpt lat="45.7869" lon="4.67903">
        <ele>352.2</ele>
        <time>2018-09-09T09:36:11Z</time>
      </trkpt>
      <trkpt lat="45.78691" lon="4.67904">
        <ele>352.4</ele>
        <time>2018-09-09T09:36:12Z</time>
      </trkpt>
      <trkpt lat="45.78694" lon="4.67911">
        <ele>353.2</ele>
        <time>2018-09-09T09:36:17Z</time>
      </trkpt>
      <trkpt lat="45.78696" lon="4.67914">
        <ele>353.6</ele>
        <time>2018-09-09T09:36:19Z</time>
      </trkpt>
      <trkpt lat="45.78699" lon="4.67919">
        <ele>354.2</ele>
        <time>2018-09-09T09:36:22Z</time>
      </trkpt>
      <trkpt lat="45.78702" lon="4.67923">
        <ele>354.8</ele>
        <time>2018-09-09T09:36:25Z</time>
      </trkpt>
      <trkpt lat="45.78705" lon="4.67927">
        <ele>355.3</ele>
        <time>2018-09-09T09:36:27Z</time>
      </trkpt>
      <trkpt lat="45.78708" lon="4.67931">
        <ele>355.8</ele>
        <time>2018-09-09T09:36:30Z</time>
      </trkpt>
      <trkpt lat="45.78711" lon="4.67936">
        <ele>356.3</ele>
        <time>2018-09-09T09:36:33Z</time>
      </trkpt>
      <trkpt lat="45.78712" lon="4.67937">
        <ele>356.5</ele>
        <time>2018-09-09T09:36:34Z</time>
      </trkpt>
      <trkpt lat="45.7872" lon="4.67947">
        <ele>357.7</ele>
        <time>2018-09-09T09:36:41Z</time>
      </trkpt>
      <trkpt lat="45.78723" lon="4.67952">
        <ele>358.2</ele>
        <time>2018-09-09T09:36:45Z</time>
      </trkpt>
      <trkpt lat="45.7873" lon="4.67962">
        <ele>359.3</ele>
        <time>2018-09-09T09:36:53Z</time>
      </trkpt>
      <trkpt lat="45.78731" lon="4.67963">
        <ele>359.4</ele>
        <time>2018-09-09T09:36:54Z</time>
      </trkpt>
      <trkpt lat="45.78732" lon="4.67964">
        <ele>359.5</ele>
        <time>2018-09-09T09:36:55Z</time>
      </trkpt>
      <trkpt lat="45.78738" lon="4.67968">
        <ele>360.2</ele>
        <time>2018-09-09T09:37:00Z</time>
      </trkpt>
      <trkpt lat="45.7874" lon="4.6797">
        <ele>360.4</ele>
        <time>2018-09-09T09:37:02Z</time>
      </trkpt>
      <trkpt lat="45.78743" lon="4.67975">
        <ele>360.8</ele>
        <time>2018-09-09T09:37:06Z</time>
      </trkpt>
      <trkpt lat="45.78747" lon="4.67978">
        <ele>361.3</ele>
        <time>2018-09-09T09:37:10Z</time>
      </trkpt>
      <trkpt lat="45.78749" lon="4.67981">
        <ele>361.4</ele>
        <time>2018-09-09T09:37:12Z</time>
      </trkpt>
      <trkpt lat="45.7875" lon="4.67983">
        <ele>361.7</ele>
        <time>2018-09-09T09:37:14Z</time>
      </trkpt>
      <trkpt lat="45.78753" lon="4.67987">
        <ele>361.9</ele>
        <time>2018-09-09T09:37:17Z</time>
      </trkpt>
      <trkpt lat="45.78757" lon="4.6799">
        <ele>362.1</ele>
        <time>2018-09-09T09:37:20Z</time>
      </trkpt>
      <trkpt lat="45.78759" lon="4.67992">
        <ele>362.3</ele>
        <time>2018-09-09T09:37:22Z</time>
      </trkpt>
      <trkpt lat="45.78765" lon="4.67999">
        <ele>362.8</ele>
        <time>2018-09-09T09:37:27Z</time>
      </trkpt>
      <trkpt lat="45.78766" lon="4.68">
        <ele>362.9</ele>
        <time>2018-09-09T09:37:28Z</time>
      </trkpt>
      <trkpt lat="45.78777" lon="4.68012">
        <ele>363.8</ele>
        <time>2018-09-09T09:37:36Z</time>
      </trkpt>
      <trkpt lat="45.78782" lon="4.68018">
        <ele>364.2</ele>
        <time>2018-09-09T09:37:40Z</time>
      </trkpt>
      <trkpt lat="45.78787" lon="4.68025">
        <ele>364.6</ele>
        <time>2018-09-09T09:37:44Z</time>
      </trkpt>
      <trkpt lat="45.78796" lon="4.68033">
        <ele>365.2</ele>
        <time>2018-09-09T09:37:50Z</time>
      </trkpt>
      <trkpt lat="45.78798" lon="4.68034">
        <ele>365.3</ele>
        <time>2018-09-09T09:37:51Z</time>
      </trkpt>
      <trkpt lat="45.78804" lon="4.68039">
        <ele>365.7</ele>
        <time>2018-09-09T09:37:55Z</time>
      </trkpt>
      <trkpt lat="45.78809" lon="4.68045">
        <ele>366</ele>
        <time>2018-09-09T09:37:58Z</time>
      </trkpt>
      <trkpt lat="45.78811" lon="4.68046">
        <ele>366.1</ele>
        <time>2018-09-09T09:37:59Z</time>
      </trkpt>
      <trkpt lat="45.78818" lon="4.68055">
        <ele>366.7</ele>
        <time>2018-09-09T09:38:04Z</time>
      </trkpt>
      <trkpt lat="45.78828" lon="4.68068">
        <ele>367.3</ele>
        <time>2018-09-09T09:38:10Z</time>
      </trkpt>
      <trkpt lat="45.78843" lon="4.68086">
        <ele>367.8</ele>
        <time>2018-09-09T09:38:17Z</time>
      </trkpt>
      <trkpt lat="45.78854" lon="4.68098">
        <ele>367.9</ele>
        <time>2018-09-09T09:38:22Z</time>
      </trkpt>
      <trkpt lat="45.78857" lon="4.681">
        <ele>368</ele>
        <time>2018-09-09T09:38:24Z</time>
      </trkpt>
      <trkpt lat="45.7886" lon="4.68104">
        <ele>368.1</ele>
        <time>2018-09-09T09:38:26Z</time>
      </trkpt>
      <trkpt lat="45.78866" lon="4.6811">
        <ele>368.2</ele>
        <time>2018-09-09T09:38:29Z</time>
      </trkpt>
      <trkpt lat="45.78869" lon="4.68112">
        <ele>368.3</ele>
        <time>2018-09-09T09:38:30Z</time>
      </trkpt>
      <trkpt lat="45.78885" lon="4.68125">
        <ele>368.5</ele>
        <time>2018-09-09T09:38:36Z</time>
      </trkpt>
      <trkpt lat="45.78895" lon="4.6813">
        <ele>368.7</ele>
        <time>2018-09-09T09:38:40Z</time>
      </trkpt>
      <trkpt lat="45.789" lon="4.68133">
        <ele>368.8</ele>
        <time>2018-09-09T09:38:42Z</time>
      </trkpt>
      <trkpt lat="45.78915" lon="4.68139">
        <ele>368.9</ele>
        <time>2018-09-09T09:38:48Z</time>
      </trkpt>
      <trkpt lat="45.78935" lon="4.68143">
        <ele>368.7</ele>
        <time>2018-09-09T09:38:55Z</time>
      </trkpt>
      <trkpt lat="45.78956" lon="4.6815">
        <ele>368.4</ele>
        <time>2018-09-09T09:39:01Z</time>
      </trkpt>
      <trkpt lat="45.78968" lon="4.68154">
        <ele>367.9</ele>
        <time>2018-09-09T09:39:04Z</time>
      </trkpt>
      <trkpt lat="45.78983" lon="4.68158">
        <ele>367.3</ele>
        <time>2018-09-09T09:39:07Z</time>
      </trkpt>
      <trkpt lat="45.78989" lon="4.6816">
        <ele>367</ele>
        <time>2018-09-09T09:39:08Z</time>
      </trkpt>
      <trkpt lat="45.79006" lon="4.68167">
        <ele>366.5</ele>
        <time>2018-09-09T09:39:11Z</time>
      </trkpt>
      <trkpt lat="45.79012" lon="4.68169">
        <ele>366.3</ele>
        <time>2018-09-09T09:39:12Z</time>
      </trkpt>
      <trkpt lat="45.79017" lon="4.6817">
        <ele>366.1</ele>
        <time>2018-09-09T09:39:13Z</time>
      </trkpt>
      <trkpt lat="45.79024" lon="4.68165">
        <ele>365.9</ele>
        <time>2018-09-09T09:39:15Z</time>
      </trkpt>
      <trkpt lat="45.79027" lon="4.68159">
        <ele>365.9</ele>
        <time>2018-09-09T09:39:16Z</time>
      </trkpt>
      <trkpt lat="45.7903" lon="4.68152">
        <ele>365.8</ele>
        <time>2018-09-09T09:39:17Z</time>
      </trkpt>
      <trkpt lat="45.7904" lon="4.68128">
        <ele>365.2</ele>
        <time>2018-09-09T09:39:20Z</time>
      </trkpt>
      <trkpt lat="45.79044" lon="4.68119">
        <ele>365</ele>
        <time>2018-09-09T09:39:21Z</time>
      </trkpt>
      <trkpt lat="45.79055" lon="4.68097">
        <ele>364.3</ele>
        <time>2018-09-09T09:39:24Z</time>
      </trkpt>
      <trkpt lat="45.79057" lon="4.68092">
        <ele>364</ele>
        <time>2018-09-09T09:39:25Z</time>
      </trkpt>
      <trkpt lat="45.7906" lon="4.68089">
        <ele>363.8</ele>
        <time>2018-09-09T09:39:26Z</time>
      </trkpt>
      <trkpt lat="45.79066" lon="4.6809">
        <ele>363.3</ele>
        <time>2018-09-09T09:39:28Z</time>
      </trkpt>
      <trkpt lat="45.79073" lon="4.68099">
        <ele>362.4</ele>
        <time>2018-09-09T09:39:30Z</time>
      </trkpt>
      <trkpt lat="45.79077" lon="4.68103">
        <ele>362.1</ele>
        <time>2018-09-09T09:39:31Z</time>
      </trkpt>
      <trkpt lat="45.79081" lon="4.68107">
        <ele>361.6</ele>
        <time>2018-09-09T09:39:32Z</time>
      </trkpt>
      <trkpt lat="45.79086" lon="4.68111">
        <ele>361.1</ele>
        <time>2018-09-09T09:39:33Z</time>
      </trkpt>
      <trkpt lat="45.79098" lon="4.68118">
        <ele>360.8</ele>
        <time>2018-09-09T09:39:35Z</time>
      </trkpt>
      <trkpt lat="45.79105" lon="4.68122">
        <ele>360.8</ele>
        <time>2018-09-09T09:39:36Z</time>
      </trkpt>
      <trkpt lat="45.79126" lon="4.68135">
        <ele>361</ele>
        <time>2018-09-09T09:39:39Z</time>
      </trkpt>
      <trkpt lat="45.79133" lon="4.6814">
        <ele>361</ele>
        <time>2018-09-09T09:39:40Z</time>
      </trkpt>
      <trkpt lat="45.79166" lon="4.68163">
        <ele>361.1</ele>
        <time>2018-09-09T09:39:45Z</time>
      </trkpt>
      <trkpt lat="45.79171" lon="4.68167">
        <ele>361</ele>
        <time>2018-09-09T09:39:46Z</time>
      </trkpt>
      <trkpt lat="45.79191" lon="4.68184">
        <ele>360.5</ele>
        <time>2018-09-09T09:39:50Z</time>
      </trkpt>
      <trkpt lat="45.79209" lon="4.68199">
        <ele>359.7</ele>
        <time>2018-09-09T09:39:54Z</time>
      </trkpt>
      <trkpt lat="45.79213" lon="4.68203">
        <ele>359.5</ele>
        <time>2018-09-09T09:39:55Z</time>
      </trkpt>
      <trkpt lat="45.79227" lon="4.68223">
        <ele>358.8</ele>
        <time>2018-09-09T09:39:59Z</time>
      </trkpt>
      <trkpt lat="45.79229" lon="4.6823">
        <ele>358.6</ele>
        <time>2018-09-09T09:40:00Z</time>
      </trkpt>
      <trkpt lat="45.7923" lon="4.68249">
        <ele>357.6</ele>
        <time>2018-09-09T09:40:03Z</time>
      </trkpt>
      <trkpt lat="45.7923" lon="4.68255">
        <ele>357.4</ele>
        <time>2018-09-09T09:40:04Z</time>
      </trkpt>
      <trkpt lat="45.79225" lon="4.68267">
        <ele>356.4</ele>
        <time>2018-09-09T09:40:07Z</time>
      </trkpt>
      <trkpt lat="45.79217" lon="4.68273">
        <ele>355.8</ele>
        <time>2018-09-09T09:40:10Z</time>
      </trkpt>
      <trkpt lat="45.79213" lon="4.68283">
        <ele>355.3</ele>
        <time>2018-09-09T09:40:14Z</time>
      </trkpt>
      <trkpt lat="45.79212" lon="4.68295">
        <ele>354.6</ele>
        <time>2018-09-09T09:40:18Z</time>
      </trkpt>
      <trkpt lat="45.79212" lon="4.68307">
        <ele>353.9</ele>
        <time>2018-09-09T09:40:21Z</time>
      </trkpt>
      <trkpt lat="45.79215" lon="4.68314">
        <ele>353.5</ele>
        <time>2018-09-09T09:40:23Z</time>
      </trkpt>
      <trkpt lat="45.79231" lon="4.6834">
        <ele>351.5</ele>
        <time>2018-09-09T09:40:28Z</time>
      </trkpt>
      <trkpt lat="45.79237" lon="4.68353">
        <ele>350.5</ele>
        <time>2018-09-09T09:40:33Z</time>
      </trkpt>
      <trkpt lat="45.79236" lon="4.68355">
        <ele>350</ele>
        <time>2018-09-09T09:40:34Z</time>
      </trkpt>
      <trkpt lat="45.79235" lon="4.68357">
        <ele>350</ele>
        <time>2018-09-09T09:40:35Z</time>
      </trkpt>
      <trkpt lat="45.79228" lon="4.68364">
        <ele>350</ele>
        <time>2018-09-09T09:40:38Z</time>
      </trkpt>
      <trkpt lat="45.79223" lon="4.68376">
        <ele>348.9</ele>
        <time>2018-09-09T09:40:41Z</time>
      </trkpt>
      <trkpt lat="45.79219" lon="4.68386">
        <ele>348.4</ele>
        <time>2018-09-09T09:40:43Z</time>
      </trkpt>
      <trkpt lat="45.79214" lon="4.68395">
        <ele>347.5</ele>
        <time>2018-09-09T09:40:45Z</time>
      </trkpt>
      <trkpt lat="45.79212" lon="4.68398">
        <ele>347.1</ele>
        <time>2018-09-09T09:40:46Z</time>
      </trkpt>
      <trkpt lat="45.79208" lon="4.68403">
        <ele>346.8</ele>
        <time>2018-09-09T09:40:48Z</time>
      </trkpt>
      <trkpt lat="45.79204" lon="4.68412">
        <ele>345.8</ele>
        <time>2018-09-09T09:40:51Z</time>
      </trkpt>
      <trkpt lat="45.792" lon="4.68419">
        <ele>345.4</ele>
        <time>2018-09-09T09:40:54Z</time>
      </trkpt>
      <trkpt lat="45.79197" lon="4.68425">
        <ele>344.9</ele>
        <time>2018-09-09T09:40:57Z</time>
      </trkpt>
      <trkpt lat="45.79192" lon="4.68435">
        <ele>344.6</ele>
        <time>2018-09-09T09:41:01Z</time>
      </trkpt>
      <trkpt lat="45.79191" lon="4.68438">
        <ele>344.6</ele>
        <time>2018-09-09T09:41:03Z</time>
      </trkpt>
      <trkpt lat="45.79189" lon="4.68443">
        <ele>344.6</ele>
        <time>2018-09-09T09:41:05Z</time>
      </trkpt>
      <trkpt lat="45.79179" lon="4.68465">
        <ele>343.9</ele>
        <time>2018-09-09T09:41:12Z</time>
      </trkpt>
      <trkpt lat="45.79177" lon="4.68474">
        <ele>343.7</ele>
        <time>2018-09-09T09:41:14Z</time>
      </trkpt>
      <trkpt lat="45.79171" lon="4.68498">
        <ele>342.6</ele>
        <time>2018-09-09T09:41:19Z</time>
      </trkpt>
      <trkpt lat="45.79167" lon="4.68533">
        <ele>341.5</ele>
        <time>2018-09-09T09:41:25Z</time>
      </trkpt>
      <trkpt lat="45.79161" lon="4.68562">
        <ele>341.1</ele>
        <time>2018-09-09T09:41:30Z</time>
      </trkpt>
      <trkpt lat="45.79155" lon="4.68599">
        <ele>340.2</ele>
        <time>2018-09-09T09:41:37Z</time>
      </trkpt>
      <trkpt lat="45.79148" lon="4.68622">
        <ele>340.5</ele>
        <time>2018-09-09T09:41:44Z</time>
      </trkpt>
      <trkpt lat="45.79144" lon="4.68638">
        <ele>340.5</ele>
        <time>2018-09-09T09:41:51Z</time>
      </trkpt>
      <trkpt lat="45.79143" lon="4.6864">
        <ele>340.3</ele>
        <time>2018-09-09T09:41:52Z</time>
      </trkpt>
      <trkpt lat="45.79139" lon="4.68649">
        <ele>340.6</ele>
        <time>2018-09-09T09:41:58Z</time>
      </trkpt>
      <trkpt lat="45.7913" lon="4.68668">
        <ele>341.2</ele>
        <time>2018-09-09T09:42:11Z</time>
      </trkpt>
      <trkpt lat="45.79125" lon="4.68675">
        <ele>341.3</ele>
        <time>2018-09-09T09:42:15Z</time>
      </trkpt>
      <trkpt lat="45.79122" lon="4.68681">
        <ele>341.7</ele>
        <time>2018-09-09T09:42:18Z</time>
      </trkpt>
      <trkpt lat="45.7912" lon="4.68683">
        <ele>341.9</ele>
        <time>2018-09-09T09:42:19Z</time>
      </trkpt>
      <trkpt lat="45.79117" lon="4.68687">
        <ele>342.3</ele>
        <time>2018-09-09T09:42:21Z</time>
      </trkpt>
      <trkpt lat="45.79111" lon="4.68697">
        <ele>344.1</ele>
        <time>2018-09-09T09:42:26Z</time>
      </trkpt>
      <trkpt lat="45.79109" lon="4.68701">
        <ele>343.9</ele>
        <time>2018-09-09T09:42:28Z</time>
      </trkpt>
      <trkpt lat="45.79104" lon="4.68708">
        <ele>343.8</ele>
        <time>2018-09-09T09:42:32Z</time>
      </trkpt>
      <trkpt lat="45.79103" lon="4.68709">
        <ele>343.3</ele>
        <time>2018-09-09T09:42:33Z</time>
      </trkpt>
      <trkpt lat="45.7909" lon="4.68724">
        <ele>343.9</ele>
        <time>2018-09-09T09:42:42Z</time>
      </trkpt>
      <trkpt lat="45.79075" lon="4.68736">
        <ele>340.9</ele>
        <time>2018-09-09T09:42:50Z</time>
      </trkpt>
      <trkpt lat="45.7907" lon="4.6874">
        <ele>339.9</ele>
        <time>2018-09-09T09:42:53Z</time>
      </trkpt>
      <trkpt lat="45.79064" lon="4.6875">
        <ele>338.2</ele>
        <time>2018-09-09T09:42:56Z</time>
      </trkpt>
      <trkpt lat="45.79053" lon="4.68783">
        <ele>334.3</ele>
        <time>2018-09-09T09:43:02Z</time>
      </trkpt>
      <trkpt lat="45.7905" lon="4.68788">
        <ele>333.8</ele>
        <time>2018-09-09T09:43:03Z</time>
      </trkpt>
      <trkpt lat="45.79041" lon="4.68798">
        <ele>332.9</ele>
        <time>2018-09-09T09:43:06Z</time>
      </trkpt>
      <trkpt lat="45.79025" lon="4.68796">
        <ele>331.7</ele>
        <time>2018-09-09T09:43:10Z</time>
      </trkpt>
      <trkpt lat="45.78999" lon="4.68786">
        <ele>329.6</ele>
        <time>2018-09-09T09:43:17Z</time>
      </trkpt>
      <trkpt lat="45.78985" lon="4.68781">
        <ele>328.7</ele>
        <time>2018-09-09T09:43:21Z</time>
      </trkpt>
      <trkpt lat="45.78976" lon="4.68776">
        <ele>328.2</ele>
        <time>2018-09-09T09:43:23Z</time>
      </trkpt>
      <trkpt lat="45.78965" lon="4.68771">
        <ele>327.5</ele>
        <time>2018-09-09T09:43:25Z</time>
      </trkpt>
      <trkpt lat="45.78945" lon="4.68764">
        <ele>326.4</ele>
        <time>2018-09-09T09:43:28Z</time>
      </trkpt>
      <trkpt lat="45.78938" lon="4.68761">
        <ele>325.9</ele>
        <time>2018-09-09T09:43:29Z</time>
      </trkpt>
      <trkpt lat="45.78922" lon="4.68743">
        <ele>324.7</ele>
        <time>2018-09-09T09:43:32Z</time>
      </trkpt>
      <trkpt lat="45.78918" lon="4.68736">
        <ele>324.1</ele>
        <time>2018-09-09T09:43:33Z</time>
      </trkpt>
      <trkpt lat="45.78914" lon="4.68729">
        <ele>323.6</ele>
        <time>2018-09-09T09:43:34Z</time>
      </trkpt>
      <trkpt lat="45.78909" lon="4.68722">
        <ele>323.1</ele>
        <time>2018-09-09T09:43:35Z</time>
      </trkpt>
      <trkpt lat="45.78899" lon="4.68712">
        <ele>322.4</ele>
        <time>2018-09-09T09:43:37Z</time>
      </trkpt>
      <trkpt lat="45.78893" lon="4.68706">
        <ele>321.9</ele>
        <time>2018-09-09T09:43:38Z</time>
      </trkpt>
      <trkpt lat="45.78883" lon="4.68691">
        <ele>320.8</ele>
        <time>2018-09-09T09:43:40Z</time>
      </trkpt>
      <trkpt lat="45.78878" lon="4.68684">
        <ele>320.3</ele>
        <time>2018-09-09T09:43:41Z</time>
      </trkpt>
      <trkpt lat="45.78873" lon="4.68677">
        <ele>319.8</ele>
        <time>2018-09-09T09:43:42Z</time>
      </trkpt>
      <trkpt lat="45.78864" lon="4.68663">
        <ele>318.4</ele>
        <time>2018-09-09T09:43:44Z</time>
      </trkpt>
      <trkpt lat="45.78853" lon="4.6865">
        <ele>316.4</ele>
        <time>2018-09-09T09:43:46Z</time>
      </trkpt>
      <trkpt lat="45.78837" lon="4.68639">
        <ele>313.9</ele>
        <time>2018-09-09T09:43:48Z</time>
      </trkpt>
      <trkpt lat="45.78829" lon="4.68631">
        <ele>312.3</ele>
        <time>2018-09-09T09:43:49Z</time>
      </trkpt>
      <trkpt lat="45.78821" lon="4.68622">
        <ele>310.9</ele>
        <time>2018-09-09T09:43:50Z</time>
      </trkpt>
      <trkpt lat="45.78812" lon="4.68611">
        <ele>309.6</ele>
        <time>2018-09-09T09:43:51Z</time>
      </trkpt>
      <trkpt lat="45.78804" lon="4.68601">
        <ele>308.5</ele>
        <time>2018-09-09T09:43:52Z</time>
      </trkpt>
      <trkpt lat="45.78795" lon="4.68592">
        <ele>307.7</ele>
        <time>2018-09-09T09:43:53Z</time>
      </trkpt>
      <trkpt lat="45.78787" lon="4.68583">
        <ele>307.2</ele>
        <time>2018-09-09T09:43:54Z</time>
      </trkpt>
      <trkpt lat="45.7878" lon="4.68576">
        <ele>307.1</ele>
        <time>2018-09-09T09:43:55Z</time>
      </trkpt>
      <trkpt lat="45.78774" lon="4.6857">
        <ele>307</ele>
        <time>2018-09-09T09:43:56Z</time>
      </trkpt>
      <trkpt lat="45.78769" lon="4.68567">
        <ele>307</ele>
        <time>2018-09-09T09:43:57Z</time>
      </trkpt>
      <trkpt lat="45.78762" lon="4.68566">
        <ele>307.1</ele>
        <time>2018-09-09T09:43:58Z</time>
      </trkpt>
      <trkpt lat="45.78747" lon="4.68569">
        <ele>307.3</ele>
        <time>2018-09-09T09:44:00Z</time>
      </trkpt>
      <trkpt lat="45.78741" lon="4.6857">
        <ele>307.3</ele>
        <time>2018-09-09T09:44:01Z</time>
      </trkpt>
      <trkpt lat="45.78736" lon="4.68571">
        <ele>307.5</ele>
        <time>2018-09-09T09:44:02Z</time>
      </trkpt>
      <trkpt lat="45.78731" lon="4.68573">
        <ele>308</ele>
        <time>2018-09-09T09:44:03Z</time>
      </trkpt>
      <trkpt lat="45.78727" lon="4.68574">
        <ele>308.8</ele>
        <time>2018-09-09T09:44:04Z</time>
      </trkpt>
      <trkpt lat="45.78724" lon="4.68575">
        <ele>309.4</ele>
        <time>2018-09-09T09:44:05Z</time>
      </trkpt>
      <trkpt lat="45.7872" lon="4.68576">
        <ele>310.2</ele>
        <time>2018-09-09T09:44:06Z</time>
      </trkpt>
      <trkpt lat="45.78713" lon="4.6858">
        <ele>312.1</ele>
        <time>2018-09-09T09:44:09Z</time>
      </trkpt>
      <trkpt lat="45.78711" lon="4.68581">
        <ele>312.6</ele>
        <time>2018-09-09T09:44:10Z</time>
      </trkpt>
      <trkpt lat="45.7871" lon="4.68583">
        <ele>313</ele>
        <time>2018-09-09T09:44:11Z</time>
      </trkpt>
      <trkpt lat="45.7871" lon="4.68586">
        <ele>313.4</ele>
        <time>2018-09-09T09:44:12Z</time>
      </trkpt>
      <trkpt lat="45.78712" lon="4.6859">
        <ele>314.2</ele>
        <time>2018-09-09T09:44:14Z</time>
      </trkpt>
      <trkpt lat="45.78723" lon="4.68597">
        <ele>317.2</ele>
        <time>2018-09-09T09:44:19Z</time>
      </trkpt>
      <trkpt lat="45.78726" lon="4.68598">
        <ele>317.7</ele>
        <time>2018-09-09T09:44:20Z</time>
      </trkpt>
      <trkpt lat="45.78731" lon="4.68601">
        <ele>318.8</ele>
        <time>2018-09-09T09:44:23Z</time>
      </trkpt>
      <trkpt lat="45.78732" lon="4.68603">
        <ele>319.1</ele>
        <time>2018-09-09T09:44:24Z</time>
      </trkpt>
      <trkpt lat="45.78734" lon="4.68607">
        <ele>319.6</ele>
        <time>2018-09-09T09:44:26Z</time>
      </trkpt>
      <trkpt lat="45.78734" lon="4.68615">
        <ele>320.5</ele>
        <time>2018-09-09T09:44:30Z</time>
      </trkpt>
      <trkpt lat="45.78732" lon="4.68617">
        <ele>320.8</ele>
        <time>2018-09-09T09:44:32Z</time>
      </trkpt>
      <trkpt lat="45.78729" lon="4.6862">
        <ele>321.4</ele>
        <time>2018-09-09T09:44:35Z</time>
      </trkpt>
      <trkpt lat="45.78726" lon="4.68622">
        <ele>321.7</ele>
        <time>2018-09-09T09:44:37Z</time>
      </trkpt>
      <trkpt lat="45.78725" lon="4.68623">
        <ele>321.9</ele>
        <time>2018-09-09T09:44:38Z</time>
      </trkpt>
      <trkpt lat="45.78722" lon="4.68626">
        <ele>322.4</ele>
        <time>2018-09-09T09:44:40Z</time>
      </trkpt>
      <trkpt lat="45.78717" lon="4.68632">
        <ele>323.1</ele>
        <time>2018-09-09T09:44:44Z</time>
      </trkpt>
      <trkpt lat="45.78714" lon="4.68636">
        <ele>323.5</ele>
        <time>2018-09-09T09:44:46Z</time>
      </trkpt>
      <trkpt lat="45.78712" lon="4.68637">
        <ele>323.7</ele>
        <time>2018-09-09T09:44:47Z</time>
      </trkpt>
      <trkpt lat="45.78711" lon="4.68639">
        <ele>323.9</ele>
        <time>2018-09-09T09:44:48Z</time>
      </trkpt>
      <trkpt lat="45.78707" lon="4.68644">
        <ele>324.3</ele>
        <time>2018-09-09T09:44:51Z</time>
      </trkpt>
      <trkpt lat="45.78704" lon="4.68649">
        <ele>324.7</ele>
        <time>2018-09-09T09:44:54Z</time>
      </trkpt>
      <trkpt lat="45.78702" lon="4.68652">
        <ele>325</ele>
        <time>2018-09-09T09:44:56Z</time>
      </trkpt>
      <trkpt lat="45.787" lon="4.68654">
        <ele>325.1</ele>
        <time>2018-09-09T09:44:57Z</time>
      </trkpt>
      <trkpt lat="45.78697" lon="4.68657">
        <ele>325.4</ele>
        <time>2018-09-09T09:44:59Z</time>
      </trkpt>
      <trkpt lat="45.78694" lon="4.68663">
        <ele>325.8</ele>
        <time>2018-09-09T09:45:02Z</time>
      </trkpt>
      <trkpt lat="45.78692" lon="4.68668">
        <ele>326.1</ele>
        <time>2018-09-09T09:45:04Z</time>
      </trkpt>
      <trkpt lat="45.78691" lon="4.6867">
        <ele>326.3</ele>
        <time>2018-09-09T09:45:05Z</time>
      </trkpt>
      <trkpt lat="45.78683" lon="4.68678">
        <ele>327</ele>
        <time>2018-09-09T09:45:11Z</time>
      </trkpt>
      <trkpt lat="45.78679" lon="4.68684">
        <ele>327.5</ele>
        <time>2018-09-09T09:45:16Z</time>
      </trkpt>
      <trkpt lat="45.78677" lon="4.68688">
        <ele>327.9</ele>
        <time>2018-09-09T09:45:19Z</time>
      </trkpt>
      <trkpt lat="45.78675" lon="4.68692">
        <ele>328.1</ele>
        <time>2018-09-09T09:45:21Z</time>
      </trkpt>
      <trkpt lat="45.78671" lon="4.68697">
        <ele>328.7</ele>
        <time>2018-09-09T09:45:26Z</time>
      </trkpt>
      <trkpt lat="45.7867" lon="4.68698">
        <ele>328.8</ele>
        <time>2018-09-09T09:45:27Z</time>
      </trkpt>
      <trkpt lat="45.78667" lon="4.68699">
        <ele>329.2</ele>
        <time>2018-09-09T09:45:30Z</time>
      </trkpt>
      <trkpt lat="45.78666" lon="4.68697">
        <ele>329.2</ele>
        <time>2018-09-09T09:45:32Z</time>
      </trkpt>
      <trkpt lat="45.78666" lon="4.68696">
        <ele>329.2</ele>
        <time>2018-09-09T09:45:33Z</time>
      </trkpt>
      <trkpt lat="45.78665" lon="4.68695">
        <ele>329.2</ele>
        <time>2018-09-09T09:45:34Z</time>
      </trkpt>
      <trkpt lat="45.78666" lon="4.68694">
        <ele>329.1</ele>
        <time>2018-09-09T09:46:13Z</time>
      </trkpt>
      <trkpt lat="45.78665" lon="4.68692">
        <ele>329.1</ele>
        <time>2018-09-09T09:46:14Z</time>
      </trkpt>
      <trkpt lat="45.78661" lon="4.6868">
        <ele>328.7</ele>
        <time>2018-09-09T09:46:19Z</time>
      </trkpt>
      <trkpt lat="45.78651" lon="4.68661">
        <ele>328.2</ele>
        <time>2018-09-09T09:46:26Z</time>
      </trkpt>
      <trkpt lat="45.78631" lon="4.68629">
        <ele>331.1</ele>
        <time>2018-09-09T09:46:38Z</time>
      </trkpt>
      <trkpt lat="45.78615" lon="4.68613">
        <ele>332.8</ele>
        <time>2018-09-09T09:46:46Z</time>
      </trkpt>
      <trkpt lat="45.78613" lon="4.68612">
        <ele>333.7</ele>
        <time>2018-09-09T09:46:47Z</time>
      </trkpt>
      <trkpt lat="45.78602" lon="4.68606">
        <ele>335.1</ele>
        <time>2018-09-09T09:46:53Z</time>
      </trkpt>
      <trkpt lat="45.78599" lon="4.68605">
        <ele>336.2</ele>
        <time>2018-09-09T09:46:55Z</time>
      </trkpt>
      <trkpt lat="45.78588" lon="4.68599">
        <ele>337.6</ele>
        <time>2018-09-09T09:47:01Z</time>
      </trkpt>
      <trkpt lat="45.78585" lon="4.68597">
        <ele>338.6</ele>
        <time>2018-09-09T09:47:03Z</time>
      </trkpt>
      <trkpt lat="45.78577" lon="4.68594">
        <ele>340</ele>
        <time>2018-09-09T09:47:07Z</time>
      </trkpt>
      <trkpt lat="45.7857" lon="4.68591">
        <ele>341.1</ele>
        <time>2018-09-09T09:47:11Z</time>
      </trkpt>
      <trkpt lat="45.78562" lon="4.68585">
        <ele>342.3</ele>
        <time>2018-09-09T09:47:16Z</time>
      </trkpt>
      <trkpt lat="45.78556" lon="4.68583">
        <ele>343.2</ele>
        <time>2018-09-09T09:47:20Z</time>
      </trkpt>
      <trkpt lat="45.78554" lon="4.68583">
        <ele>343.2</ele>
        <time>2018-09-09T09:47:21Z</time>
      </trkpt>
      <trkpt lat="45.7855" lon="4.6858">
        <ele>343.2</ele>
        <time>2018-09-09T09:47:24Z</time>
      </trkpt>
      <trkpt lat="45.78545" lon="4.68579">
        <ele>343.1</ele>
        <time>2018-09-09T09:47:27Z</time>
      </trkpt>
      <trkpt lat="45.78537" lon="4.68571">
        <ele>343</ele>
        <time>2018-09-09T09:47:34Z</time>
      </trkpt>
      <trkpt lat="45.78536" lon="4.6857">
        <ele>343.1</ele>
        <time>2018-09-09T09:47:35Z</time>
      </trkpt>
      <trkpt lat="45.78535" lon="4.68569">
        <ele>343.3</ele>
        <time>2018-09-09T09:47:36Z</time>
      </trkpt>
      <trkpt lat="45.78531" lon="4.68568">
        <ele>343.7</ele>
        <time>2018-09-09T09:47:40Z</time>
      </trkpt>
      <trkpt lat="45.78528" lon="4.68568">
        <ele>344</ele>
        <time>2018-09-09T09:47:42Z</time>
      </trkpt>
      <trkpt lat="45.78521" lon="4.68565">
        <ele>344.8</ele>
        <time>2018-09-09T09:48:48Z</time>
      </trkpt>
      <trkpt lat="45.78513" lon="4.68561">
        <ele>345.6</ele>
        <time>2018-09-09T09:48:53Z</time>
      </trkpt>
      <trkpt lat="45.7851" lon="4.6856">
        <ele>346</ele>
        <time>2018-09-09T09:48:55Z</time>
      </trkpt>
      <trkpt lat="45.78508" lon="4.68559">
        <ele>346.1</ele>
        <time>2018-09-09T09:48:56Z</time>
      </trkpt>
      <trkpt lat="45.78503" lon="4.68558">
        <ele>346.6</ele>
        <time>2018-09-09T09:48:59Z</time>
      </trkpt>
      <trkpt lat="45.78501" lon="4.68557">
        <ele>346.9</ele>
        <time>2018-09-09T09:49:01Z</time>
      </trkpt>
      <trkpt lat="45.78499" lon="4.68556">
        <ele>347.1</ele>
        <time>2018-09-09T09:49:02Z</time>
      </trkpt>
      <trkpt lat="45.78496" lon="4.68555">
        <ele>347.4</ele>
        <time>2018-09-09T09:49:04Z</time>
      </trkpt>
      <trkpt lat="45.7849" lon="4.68553">
        <ele>348.1</ele>
        <time>2018-09-09T09:49:09Z</time>
      </trkpt>
      <trkpt lat="45.78481" lon="4.68551">
        <ele>349.1</ele>
        <time>2018-09-09T09:49:15Z</time>
      </trkpt>
      <trkpt lat="45.78477" lon="4.68549">
        <ele>349.5</ele>
        <time>2018-09-09T09:49:18Z</time>
      </trkpt>
      <trkpt lat="45.78468" lon="4.68548">
        <ele>350.5</ele>
        <time>2018-09-09T09:49:24Z</time>
      </trkpt>
      <trkpt lat="45.78457" lon="4.68545">
        <ele>351.9</ele>
        <time>2018-09-09T09:49:32Z</time>
      </trkpt>
      <trkpt lat="45.78448" lon="4.68544">
        <ele>353</ele>
        <time>2018-09-09T09:49:39Z</time>
      </trkpt>
      <trkpt lat="45.78444" lon="4.68543">
        <ele>353.4</ele>
        <time>2018-09-09T09:49:42Z</time>
      </trkpt>
      <trkpt lat="45.78438" lon="4.68541">
        <ele>354.3</ele>
        <time>2018-09-09T09:49:47Z</time>
      </trkpt>
      <trkpt lat="45.7843" lon="4.68539">
        <ele>355.2</ele>
        <time>2018-09-09T09:49:53Z</time>
      </trkpt>
      <trkpt lat="45.78425" lon="4.68537">
        <ele>355.9</ele>
        <time>2018-09-09T09:49:57Z</time>
      </trkpt>
      <trkpt lat="45.78419" lon="4.68536">
        <ele>356.6</ele>
        <time>2018-09-09T09:50:01Z</time>
      </trkpt>
      <trkpt lat="45.78416" lon="4.68535">
        <ele>357.1</ele>
        <time>2018-09-09T09:50:04Z</time>
      </trkpt>
      <trkpt lat="45.78411" lon="4.68533">
        <ele>357.7</ele>
        <time>2018-09-09T09:50:07Z</time>
      </trkpt>
      <trkpt lat="45.78405" lon="4.68531">
        <ele>358.5</ele>
        <time>2018-09-09T09:50:11Z</time>
      </trkpt>
      <trkpt lat="45.78404" lon="4.68531">
        <ele>358.7</ele>
        <time>2018-09-09T09:50:12Z</time>
      </trkpt>
      <trkpt lat="45.78397" lon="4.6853">
        <ele>359.6</ele>
        <time>2018-09-09T09:50:17Z</time>
      </trkpt>
      <trkpt lat="45.78392" lon="4.68528">
        <ele>360.4</ele>
        <time>2018-09-09T09:50:21Z</time>
      </trkpt>
      <trkpt lat="45.78386" lon="4.68527">
        <ele>361.2</ele>
        <time>2018-09-09T09:50:25Z</time>
      </trkpt>
      <trkpt lat="45.78385" lon="4.68526">
        <ele>361.4</ele>
        <time>2018-09-09T09:50:26Z</time>
      </trkpt>
      <trkpt lat="45.7838" lon="4.68525">
        <ele>362.2</ele>
        <time>2018-09-09T09:50:31Z</time>
      </trkpt>
      <trkpt lat="45.78377" lon="4.68524">
        <ele>362.6</ele>
        <time>2018-09-09T09:50:33Z</time>
      </trkpt>
      <trkpt lat="45.7837" lon="4.68524">
        <ele>363.4</ele>
        <time>2018-09-09T09:50:38Z</time>
      </trkpt>
      <trkpt lat="45.78369" lon="4.68523">
        <ele>363.6</ele>
        <time>2018-09-09T09:50:39Z</time>
      </trkpt>
      <trkpt lat="45.78364" lon="4.68521">
        <ele>364.3</ele>
        <time>2018-09-09T09:50:43Z</time>
      </trkpt>
      <trkpt lat="45.78363" lon="4.68521">
        <ele>364.5</ele>
        <time>2018-09-09T09:50:44Z</time>
      </trkpt>
      <trkpt lat="45.78357" lon="4.68519">
        <ele>365.4</ele>
        <time>2018-09-09T09:50:48Z</time>
      </trkpt>
      <trkpt lat="45.78352" lon="4.68518">
        <ele>366.1</ele>
        <time>2018-09-09T09:50:52Z</time>
      </trkpt>
      <trkpt lat="45.78347" lon="4.68517">
        <ele>366.7</ele>
        <time>2018-09-09T09:50:55Z</time>
      </trkpt>
      <trkpt lat="45.78341" lon="4.68516">
        <ele>367.7</ele>
        <time>2018-09-09T09:51:00Z</time>
      </trkpt>
      <trkpt lat="45.78334" lon="4.68515">
        <ele>368.6</ele>
        <time>2018-09-09T09:51:05Z</time>
      </trkpt>
      <trkpt lat="45.78333" lon="4.68515">
        <ele>368.8</ele>
        <time>2018-09-09T09:51:06Z</time>
      </trkpt>
      <trkpt lat="45.78327" lon="4.68514">
        <ele>369.7</ele>
        <time>2018-09-09T09:51:10Z</time>
      </trkpt>
      <trkpt lat="45.78322" lon="4.68512">
        <ele>370.5</ele>
        <time>2018-09-09T09:51:14Z</time>
      </trkpt>
      <trkpt lat="45.78318" lon="4.6851">
        <ele>371.1</ele>
        <time>2018-09-09T09:51:17Z</time>
      </trkpt>
      <trkpt lat="45.78312" lon="4.68508">
        <ele>371.9</ele>
        <time>2018-09-09T09:51:21Z</time>
      </trkpt>
      <trkpt lat="45.78306" lon="4.68508">
        <ele>372.7</ele>
        <time>2018-09-09T09:51:25Z</time>
      </trkpt>
      <trkpt lat="45.78304" lon="4.68506">
        <ele>373.1</ele>
        <time>2018-09-09T09:51:27Z</time>
      </trkpt>
      <trkpt lat="45.78302" lon="4.68505">
        <ele>373.3</ele>
        <time>2018-09-09T09:51:28Z</time>
      </trkpt>
      <trkpt lat="45.78292" lon="4.68502">
        <ele>374.7</ele>
        <time>2018-09-09T09:51:34Z</time>
      </trkpt>
      <trkpt lat="45.78283" lon="4.685">
        <ele>375.8</ele>
        <time>2018-09-09T09:53:51Z</time>
      </trkpt>
      <trkpt lat="45.78276" lon="4.685">
        <ele>376.7</ele>
        <time>2018-09-09T09:53:56Z</time>
      </trkpt>
      <trkpt lat="45.78273" lon="4.685">
        <ele>377.1</ele>
        <time>2018-09-09T09:53:58Z</time>
      </trkpt>
      <trkpt lat="45.78271" lon="4.685">
        <ele>377.3</ele>
        <time>2018-09-09T09:53:59Z</time>
      </trkpt>
      <trkpt lat="45.78269" lon="4.68499">
        <ele>377.6</ele>
        <time>2018-09-09T09:54:01Z</time>
      </trkpt>
      <trkpt lat="45.78264" lon="4.68497">
        <ele>378.3</ele>
        <time>2018-09-09T09:54:04Z</time>
      </trkpt>
      <trkpt lat="45.78259" lon="4.68495">
        <ele>378.9</ele>
        <time>2018-09-09T09:54:08Z</time>
      </trkpt>
      <trkpt lat="45.78257" lon="4.68494">
        <ele>379.3</ele>
        <time>2018-09-09T09:54:10Z</time>
      </trkpt>
      <trkpt lat="45.78246" lon="4.68494">
        <ele>380.7</ele>
        <time>2018-09-09T09:54:17Z</time>
      </trkpt>
      <trkpt lat="45.78237" lon="4.68493">
        <ele>381.8</ele>
        <time>2018-09-09T09:54:23Z</time>
      </trkpt>
      <trkpt lat="45.78235" lon="4.68491">
        <ele>382.2</ele>
        <time>2018-09-09T09:54:25Z</time>
      </trkpt>
      <trkpt lat="45.78227" lon="4.68491">
        <ele>383.2</ele>
        <time>2018-09-09T09:54:30Z</time>
      </trkpt>
      <trkpt lat="45.78221" lon="4.68487">
        <ele>384.1</ele>
        <time>2018-09-09T09:54:35Z</time>
      </trkpt>
      <trkpt lat="45.78219" lon="4.68486">
        <ele>384.3</ele>
        <time>2018-09-09T09:54:36Z</time>
      </trkpt>
      <trkpt lat="45.78217" lon="4.68486">
        <ele>384.6</ele>
        <time>2018-09-09T09:54:38Z</time>
      </trkpt>
      <trkpt lat="45.78215" lon="4.68486">
        <ele>384.8</ele>
        <time>2018-09-09T09:54:39Z</time>
      </trkpt>
      <trkpt lat="45.7821" lon="4.68485">
        <ele>385.5</ele>
        <time>2018-09-09T09:54:43Z</time>
      </trkpt>
      <trkpt lat="45.78206" lon="4.68484">
        <ele>386.1</ele>
        <time>2018-09-09T09:54:46Z</time>
      </trkpt>
      <trkpt lat="45.78201" lon="4.68482">
        <ele>386.8</ele>
        <time>2018-09-09T09:54:50Z</time>
      </trkpt>
      <trkpt lat="45.78199" lon="4.68482">
        <ele>387.2</ele>
        <time>2018-09-09T09:54:52Z</time>
      </trkpt>
      <trkpt lat="45.78191" lon="4.6848">
        <ele>388.3</ele>
        <time>2018-09-09T09:54:57Z</time>
      </trkpt>
      <trkpt lat="45.78187" lon="4.68479">
        <ele>388.9</ele>
        <time>2018-09-09T09:55:00Z</time>
      </trkpt>
      <trkpt lat="45.7818" lon="4.68478">
        <ele>389.9</ele>
        <time>2018-09-09T09:55:05Z</time>
      </trkpt>
      <trkpt lat="45.78175" lon="4.68478">
        <ele>390.6</ele>
        <time>2018-09-09T09:55:09Z</time>
      </trkpt>
      <trkpt lat="45.78172" lon="4.68478">
        <ele>391</ele>
        <time>2018-09-09T09:55:11Z</time>
      </trkpt>
      <trkpt lat="45.78167" lon="4.68478">
        <ele>391.9</ele>
        <time>2018-09-09T09:55:16Z</time>
      </trkpt>
      <trkpt lat="45.78162" lon="4.68478">
        <ele>392.5</ele>
        <time>2018-09-09T09:55:19Z</time>
      </trkpt>
      <trkpt lat="45.78153" lon="4.68475">
        <ele>393.9</ele>
        <time>2018-09-09T09:55:26Z</time>
      </trkpt>
      <trkpt lat="45.78151" lon="4.68475">
        <ele>394.2</ele>
        <time>2018-09-09T09:55:27Z</time>
      </trkpt>
      <trkpt lat="45.78145" lon="4.68474">
        <ele>395.2</ele>
        <time>2018-09-09T09:55:31Z</time>
      </trkpt>
      <trkpt lat="45.78141" lon="4.68473">
        <ele>395.6</ele>
        <time>2018-09-09T09:55:33Z</time>
      </trkpt>
      <trkpt lat="45.78137" lon="4.68472">
        <ele>396.3</ele>
        <time>2018-09-09T09:55:36Z</time>
      </trkpt>
      <trkpt lat="45.7813" lon="4.68471">
        <ele>397.2</ele>
        <time>2018-09-09T09:55:40Z</time>
      </trkpt>
      <trkpt lat="45.78125" lon="4.68469">
        <ele>397.9</ele>
        <time>2018-09-09T09:55:43Z</time>
      </trkpt>
      <trkpt lat="45.78123" lon="4.68469">
        <ele>398.1</ele>
        <time>2018-09-09T09:55:44Z</time>
      </trkpt>
      <trkpt lat="45.78116" lon="4.68468">
        <ele>398.9</ele>
        <time>2018-09-09T09:55:48Z</time>
      </trkpt>
      <trkpt lat="45.78111" lon="4.68467">
        <ele>399.6</ele>
        <time>2018-09-09T09:55:51Z</time>
      </trkpt>
      <trkpt lat="45.78109" lon="4.68466">
        <ele>399.8</ele>
        <time>2018-09-09T09:55:52Z</time>
      </trkpt>
      <trkpt lat="45.78104" lon="4.68465">
        <ele>400.4</ele>
        <time>2018-09-09T09:55:55Z</time>
      </trkpt>
      <trkpt lat="45.78099" lon="4.68464">
        <ele>400.9</ele>
        <time>2018-09-09T09:55:58Z</time>
      </trkpt>
      <trkpt lat="45.78093" lon="4.68463">
        <ele>401.5</ele>
        <time>2018-09-09T09:56:01Z</time>
      </trkpt>
      <trkpt lat="45.78092" lon="4.68463">
        <ele>401.7</ele>
        <time>2018-09-09T09:56:02Z</time>
      </trkpt>
      <trkpt lat="45.78084" lon="4.6846">
        <ele>402.5</ele>
        <time>2018-09-09T09:56:06Z</time>
      </trkpt>
      <trkpt lat="45.7808" lon="4.68459">
        <ele>403</ele>
        <time>2018-09-09T09:56:09Z</time>
      </trkpt>
      <trkpt lat="45.78076" lon="4.68459">
        <ele>403.4</ele>
        <time>2018-09-09T09:56:11Z</time>
      </trkpt>
      <trkpt lat="45.78072" lon="4.68458">
        <ele>403.8</ele>
        <time>2018-09-09T09:56:13Z</time>
      </trkpt>
      <trkpt lat="45.78067" lon="4.68456">
        <ele>404.3</ele>
        <time>2018-09-09T09:56:16Z</time>
      </trkpt>
      <trkpt lat="45.7806" lon="4.68453">
        <ele>405</ele>
        <time>2018-09-09T09:56:20Z</time>
      </trkpt>
      <trkpt lat="45.78058" lon="4.68453">
        <ele>405.2</ele>
        <time>2018-09-09T09:56:21Z</time>
      </trkpt>
      <trkpt lat="45.78052" lon="4.68451">
        <ele>405.8</ele>
        <time>2018-09-09T09:56:25Z</time>
      </trkpt>
      <trkpt lat="45.78044" lon="4.68445">
        <ele>406.6</ele>
        <time>2018-09-09T09:56:30Z</time>
      </trkpt>
      <trkpt lat="45.78043" lon="4.68444">
        <ele>406.8</ele>
        <time>2018-09-09T09:56:31Z</time>
      </trkpt>
      <trkpt lat="45.78036" lon="4.68442">
        <ele>407.4</ele>
        <time>2018-09-09T09:56:35Z</time>
      </trkpt>
      <trkpt lat="45.7803" lon="4.68437">
        <ele>407.9</ele>
        <time>2018-09-09T09:56:39Z</time>
      </trkpt>
      <trkpt lat="45.78024" lon="4.68435">
        <ele>408.3</ele>
        <time>2018-09-09T09:56:44Z</time>
      </trkpt>
      <trkpt lat="45.78023" lon="4.68435">
        <ele>408.3</ele>
        <time>2018-09-09T09:56:46Z</time>
      </trkpt>
      <trkpt lat="45.78016" lon="4.68436">
        <ele>408.7</ele>
        <time>2018-09-09T09:56:54Z</time>
      </trkpt>
      <trkpt lat="45.78016" lon="4.68435">
        <ele>408.7</ele>
        <time>2018-09-09T09:56:55Z</time>
      </trkpt>
      <trkpt lat="45.78016" lon="4.68433">
        <ele>408.8</ele>
        <time>2018-09-09T09:56:57Z</time>
      </trkpt>
      <trkpt lat="45.78019" lon="4.68429">
        <ele>409</ele>
        <time>2018-09-09T09:57:00Z</time>
      </trkpt>
      <trkpt lat="45.7802" lon="4.68429">
        <ele>409</ele>
        <time>2018-09-09T09:57:01Z</time>
      </trkpt>
      <trkpt lat="45.78021" lon="4.68431">
        <ele>409.2</ele>
        <time>2018-09-09T09:57:03Z</time>
      </trkpt>
      <trkpt lat="45.78022" lon="4.68433">
        <ele>409.3</ele>
        <time>2018-09-09T09:57:05Z</time>
      </trkpt>
      <trkpt lat="45.78022" lon="4.68434">
        <ele>409.4</ele>
        <time>2018-09-09T09:57:06Z</time>
      </trkpt>
      <trkpt lat="45.78018" lon="4.68436">
        <ele>409.7</ele>
        <time>2018-09-09T09:57:11Z</time>
      </trkpt>
      <trkpt lat="45.78017" lon="4.68436">
        <ele>409.8</ele>
        <time>2018-09-09T09:57:12Z</time>
      </trkpt>
      <trkpt lat="45.78017" lon="4.68432">
        <ele>410.1</ele>
        <time>2018-09-09T09:57:15Z</time>
      </trkpt>
      <trkpt lat="45.7802" lon="4.6843">
        <ele>410.4</ele>
        <time>2018-09-09T09:57:20Z</time>
      </trkpt>
      <trkpt lat="45.78021" lon="4.68434">
        <ele>410.6</ele>
        <time>2018-09-09T09:57:24Z</time>
      </trkpt>
      <trkpt lat="45.7802" lon="4.68435">
        <ele>410.7</ele>
        <time>2018-09-09T09:57:25Z</time>
      </trkpt>
      <trkpt lat="45.78013" lon="4.68431">
        <ele>411.3</ele>
        <time>2018-09-09T09:57:29Z</time>
      </trkpt>
      <trkpt lat="45.78011" lon="4.6843">
        <ele>411.5</ele>
        <time>2018-09-09T09:57:31Z</time>
      </trkpt>
      <trkpt lat="45.78002" lon="4.68426">
        <ele>412.1</ele>
        <time>2018-09-09T09:57:37Z</time>
      </trkpt>
      <trkpt lat="45.77993" lon="4.68423">
        <ele>412.6</ele>
        <time>2018-09-09T09:57:43Z</time>
      </trkpt>
      <trkpt lat="45.77992" lon="4.68422">
        <ele>412.6</ele>
        <time>2018-09-09T09:57:44Z</time>
      </trkpt>
      <trkpt lat="45.77987" lon="4.68421">
        <ele>412.7</ele>
        <time>2018-09-09T09:57:47Z</time>
      </trkpt>
      <trkpt lat="45.7798" lon="4.68419">
        <ele>412.8</ele>
        <time>2018-09-09T09:57:51Z</time>
      </trkpt>
      <trkpt lat="45.77979" lon="4.68418">
        <ele>412.8</ele>
        <time>2018-09-09T09:57:52Z</time>
      </trkpt>
      <trkpt lat="45.77964" lon="4.68411">
        <ele>413.1</ele>
        <time>2018-09-09T09:57:59Z</time>
      </trkpt>
      <trkpt lat="45.77944" lon="4.68401">
        <ele>413.4</ele>
        <time>2018-09-09T09:58:08Z</time>
      </trkpt>
      <trkpt lat="45.77942" lon="4.684">
        <ele>413.4</ele>
        <time>2018-09-09T09:58:09Z</time>
      </trkpt>
      <trkpt lat="45.77928" lon="4.68394">
        <ele>413.4</ele>
        <time>2018-09-09T09:58:15Z</time>
      </trkpt>
      <trkpt lat="45.77918" lon="4.68388">
        <ele>413.1</ele>
        <time>2018-09-09T09:58:20Z</time>
      </trkpt>
      <trkpt lat="45.77901" lon="4.68379">
        <ele>412.9</ele>
        <time>2018-09-09T09:58:26Z</time>
      </trkpt>
      <trkpt lat="45.77885" lon="4.68371">
        <ele>412.9</ele>
        <time>2018-09-09T09:58:32Z</time>
      </trkpt>
      <trkpt lat="45.77861" lon="4.68359">
        <ele>412.7</ele>
        <time>2018-09-09T09:58:39Z</time>
      </trkpt>
      <trkpt lat="45.77846" lon="4.68346">
        <ele>412.4</ele>
        <time>2018-09-09T09:58:43Z</time>
      </trkpt>
      <trkpt lat="45.77831" lon="4.68333">
        <ele>412.2</ele>
        <time>2018-09-09T09:58:47Z</time>
      </trkpt>
      <trkpt lat="45.77827" lon="4.68329">
        <ele>412.2</ele>
        <time>2018-09-09T09:58:48Z</time>
      </trkpt>
      <trkpt lat="45.77803" lon="4.68304">
        <ele>411.4</ele>
        <time>2018-09-09T09:58:54Z</time>
      </trkpt>
      <trkpt lat="45.77799" lon="4.683">
        <ele>411.3</ele>
        <time>2018-09-09T09:58:55Z</time>
      </trkpt>
      <trkpt lat="45.77779" lon="4.68285">
        <ele>410.4</ele>
        <time>2018-09-09T09:58:59Z</time>
      </trkpt>
      <trkpt lat="45.77775" lon="4.68281">
        <ele>410.3</ele>
        <time>2018-09-09T09:59:00Z</time>
      </trkpt>
      <trkpt lat="45.77769" lon="4.68272">
        <ele>410.2</ele>
        <time>2018-09-09T09:59:03Z</time>
      </trkpt>
      <trkpt lat="45.77767" lon="4.6827">
        <ele>410.1</ele>
        <time>2018-09-09T09:59:04Z</time>
      </trkpt>
      <trkpt lat="45.77764" lon="4.68266">
        <ele>410.1</ele>
        <time>2018-09-09T09:59:06Z</time>
      </trkpt>
      <trkpt lat="45.77758" lon="4.6826">
        <ele>409.7</ele>
        <time>2018-09-09T09:59:09Z</time>
      </trkpt>
      <trkpt lat="45.77746" lon="4.68252">
        <ele>408.6</ele>
        <time>2018-09-09T09:59:12Z</time>
      </trkpt>
      <trkpt lat="45.77741" lon="4.68248">
        <ele>408.2</ele>
        <time>2018-09-09T09:59:13Z</time>
      </trkpt>
      <trkpt lat="45.77723" lon="4.68237">
        <ele>406.5</ele>
        <time>2018-09-09T09:59:16Z</time>
      </trkpt>
      <trkpt lat="45.77708" lon="4.6823">
        <ele>405.3</ele>
        <time>2018-09-09T09:59:18Z</time>
      </trkpt>
      <trkpt lat="45.777" lon="4.68226">
        <ele>404.5</ele>
        <time>2018-09-09T09:59:19Z</time>
      </trkpt>
      <trkpt lat="45.77675" lon="4.68214">
        <ele>401.8</ele>
        <time>2018-09-09T09:59:22Z</time>
      </trkpt>
      <trkpt lat="45.77666" lon="4.6821">
        <ele>401.3</ele>
        <time>2018-09-09T09:59:23Z</time>
      </trkpt>
      <trkpt lat="45.77658" lon="4.68207">
        <ele>400.6</ele>
        <time>2018-09-09T09:59:24Z</time>
      </trkpt>
      <trkpt lat="45.77641" lon="4.68202">
        <ele>398.5</ele>
        <time>2018-09-09T09:59:26Z</time>
      </trkpt>
      <trkpt lat="45.77632" lon="4.68202">
        <ele>397.5</ele>
        <time>2018-09-09T09:59:27Z</time>
      </trkpt>
      <trkpt lat="45.77624" lon="4.68205">
        <ele>396.7</ele>
        <time>2018-09-09T09:59:28Z</time>
      </trkpt>
      <trkpt lat="45.77606" lon="4.68213">
        <ele>394.5</ele>
        <time>2018-09-09T09:59:30Z</time>
      </trkpt>
      <trkpt lat="45.77587" lon="4.68222">
        <ele>392.5</ele>
        <time>2018-09-09T09:59:32Z</time>
      </trkpt>
      <trkpt lat="45.77578" lon="4.68226">
        <ele>391.7</ele>
        <time>2018-09-09T09:59:33Z</time>
      </trkpt>
      <trkpt lat="45.77568" lon="4.68231">
        <ele>390.6</ele>
        <time>2018-09-09T09:59:34Z</time>
      </trkpt>
      <trkpt lat="45.77547" lon="4.68241">
        <ele>388.9</ele>
        <time>2018-09-09T09:59:36Z</time>
      </trkpt>
      <trkpt lat="45.77526" lon="4.6825">
        <ele>386.5</ele>
        <time>2018-09-09T09:59:38Z</time>
      </trkpt>
      <trkpt lat="45.77515" lon="4.68255">
        <ele>385.1</ele>
        <time>2018-09-09T09:59:39Z</time>
      </trkpt>
      <trkpt lat="45.77505" lon="4.68259">
        <ele>383.8</ele>
        <time>2018-09-09T09:59:40Z</time>
      </trkpt>
      <trkpt lat="45.77496" lon="4.68263">
        <ele>382.7</ele>
        <time>2018-09-09T09:59:41Z</time>
      </trkpt>
      <trkpt lat="45.77486" lon="4.68266">
        <ele>381.8</ele>
        <time>2018-09-09T09:59:42Z</time>
      </trkpt>
      <trkpt lat="45.77477" lon="4.68268">
        <ele>381</ele>
        <time>2018-09-09T09:59:43Z</time>
      </trkpt>
      <trkpt lat="45.77469" lon="4.68271">
        <ele>380.3</ele>
        <time>2018-09-09T09:59:44Z</time>
      </trkpt>
      <trkpt lat="45.77456" lon="4.68275">
        <ele>379.6</ele>
        <time>2018-09-09T09:59:46Z</time>
      </trkpt>
      <trkpt lat="45.77451" lon="4.68276">
        <ele>379.4</ele>
        <time>2018-09-09T09:59:47Z</time>
      </trkpt>
      <trkpt lat="45.77448" lon="4.68278">
        <ele>379.2</ele>
        <time>2018-09-09T09:59:48Z</time>
      </trkpt>
      <trkpt lat="45.77443" lon="4.6828">
        <ele>379</ele>
        <time>2018-09-09T09:59:50Z</time>
      </trkpt>
      <trkpt lat="45.77443" lon="4.68282">
        <ele>378.9</ele>
        <time>2018-09-09T09:59:51Z</time>
      </trkpt>
      <trkpt lat="45.77444" lon="4.6829">
        <ele>378.3</ele>
        <time>2018-09-09T09:59:53Z</time>
      </trkpt>
      <trkpt lat="45.77449" lon="4.683">
        <ele>377.8</ele>
        <time>2018-09-09T09:59:55Z</time>
      </trkpt>
      <trkpt lat="45.77455" lon="4.68313">
        <ele>377.2</ele>
        <time>2018-09-09T09:59:57Z</time>
      </trkpt>
      <trkpt lat="45.77463" lon="4.68327">
        <ele>376.5</ele>
        <time>2018-09-09T09:59:59Z</time>
      </trkpt>
      <trkpt lat="45.77475" lon="4.68351">
        <ele>375.7</ele>
        <time>2018-09-09T10:00:02Z</time>
      </trkpt>
      <trkpt lat="45.77489" lon="4.68385">
        <ele>374.3</ele>
        <time>2018-09-09T10:00:06Z</time>
      </trkpt>
      <trkpt lat="45.77489" lon="4.68402">
        <ele>373.9</ele>
        <time>2018-09-09T10:00:08Z</time>
      </trkpt>
      <trkpt lat="45.77486" lon="4.68409">
        <ele>373.7</ele>
        <time>2018-09-09T10:00:09Z</time>
      </trkpt>
      <trkpt lat="45.77475" lon="4.68421">
        <ele>373.5</ele>
        <time>2018-09-09T10:00:11Z</time>
      </trkpt>
      <trkpt lat="45.77468" lon="4.68427">
        <ele>373.4</ele>
        <time>2018-09-09T10:00:12Z</time>
      </trkpt>
      <trkpt lat="45.77462" lon="4.68432">
        <ele>373.3</ele>
        <time>2018-09-09T10:00:13Z</time>
      </trkpt>
      <trkpt lat="45.77447" lon="4.68441">
        <ele>373.4</ele>
        <time>2018-09-09T10:00:15Z</time>
      </trkpt>
      <trkpt lat="45.7744" lon="4.68445">
        <ele>373.6</ele>
        <time>2018-09-09T10:00:16Z</time>
      </trkpt>
      <trkpt lat="45.77425" lon="4.68453">
        <ele>374</ele>
        <time>2018-09-09T10:00:18Z</time>
      </trkpt>
      <trkpt lat="45.77404" lon="4.68461">
        <ele>374.4</ele>
        <time>2018-09-09T10:00:21Z</time>
      </trkpt>
      <trkpt lat="45.77398" lon="4.68461">
        <ele>374.4</ele>
        <time>2018-09-09T10:00:22Z</time>
      </trkpt>
      <trkpt lat="45.77372" lon="4.68461">
        <ele>374.4</ele>
        <time>2018-09-09T10:00:27Z</time>
      </trkpt>
      <trkpt lat="45.77362" lon="4.68461">
        <ele>374.3</ele>
        <time>2018-09-09T10:00:30Z</time>
      </trkpt>
      <trkpt lat="45.77354" lon="4.68462">
        <ele>374.3</ele>
        <time>2018-09-09T10:00:33Z</time>
      </trkpt>
      <trkpt lat="45.77346" lon="4.68464">
        <ele>374.2</ele>
        <time>2018-09-09T10:00:36Z</time>
      </trkpt>
      <trkpt lat="45.77339" lon="4.68467">
        <ele>374.1</ele>
        <time>2018-09-09T10:00:39Z</time>
      </trkpt>
      <trkpt lat="45.77335" lon="4.68468">
        <ele>374.1</ele>
        <time>2018-09-09T10:00:41Z</time>
      </trkpt>
      <trkpt lat="45.77332" lon="4.68467">
        <ele>373.8</ele>
        <time>2018-09-09T10:00:43Z</time>
      </trkpt>
      <trkpt lat="45.7733" lon="4.68466">
        <ele>373.6</ele>
        <time>2018-09-09T10:02:19Z</time>
      </trkpt>
      <trkpt lat="45.77319" lon="4.6845">
        <ele>372.6</ele>
        <time>2018-09-09T10:02:24Z</time>
      </trkpt>
      <trkpt lat="45.77297" lon="4.6842">
        <ele>370.4</ele>
        <time>2018-09-09T10:02:30Z</time>
      </trkpt>
      <trkpt lat="45.77273" lon="4.68386">
        <ele>368.8</ele>
        <time>2018-09-09T10:02:36Z</time>
      </trkpt>
      <trkpt lat="45.77269" lon="4.68382">
        <ele>368.7</ele>
        <time>2018-09-09T10:02:37Z</time>
      </trkpt>
      <trkpt lat="45.77266" lon="4.68377">
        <ele>368.5</ele>
        <time>2018-09-09T10:02:38Z</time>
      </trkpt>
      <trkpt lat="45.77262" lon="4.68372">
        <ele>368.4</ele>
        <time>2018-09-09T10:02:39Z</time>
      </trkpt>
      <trkpt lat="45.77259" lon="4.68367">
        <ele>368.2</ele>
        <time>2018-09-09T10:02:40Z</time>
      </trkpt>
      <trkpt lat="45.77255" lon="4.68362">
        <ele>368.1</ele>
        <time>2018-09-09T10:02:41Z</time>
      </trkpt>
      <trkpt lat="45.77247" lon="4.68351">
        <ele>367.6</ele>
        <time>2018-09-09T10:02:43Z</time>
      </trkpt>
      <trkpt lat="45.77244" lon="4.68348">
        <ele>367.5</ele>
        <time>2018-09-09T10:02:44Z</time>
      </trkpt>
      <trkpt lat="45.77242" lon="4.68345">
        <ele>367.4</ele>
        <time>2018-09-09T10:02:45Z</time>
      </trkpt>
      <trkpt lat="45.77237" lon="4.6834">
        <ele>367.3</ele>
        <time>2018-09-09T10:02:47Z</time>
      </trkpt>
      <trkpt lat="45.77225" lon="4.68324">
        <ele>366.6</ele>
        <time>2018-09-09T10:02:51Z</time>
      </trkpt>
      <trkpt lat="45.77212" lon="4.68307">
        <ele>365.8</ele>
        <time>2018-09-09T10:02:54Z</time>
      </trkpt>
      <trkpt lat="45.77202" lon="4.68294">
        <ele>365.2</ele>
        <time>2018-09-09T10:02:56Z</time>
      </trkpt>
      <trkpt lat="45.77197" lon="4.68288">
        <ele>364.9</ele>
        <time>2018-09-09T10:02:57Z</time>
      </trkpt>
      <trkpt lat="45.77191" lon="4.68283">
        <ele>364.6</ele>
        <time>2018-09-09T10:02:58Z</time>
      </trkpt>
      <trkpt lat="45.77174" lon="4.68264">
        <ele>363.4</ele>
        <time>2018-09-09T10:03:01Z</time>
      </trkpt>
      <trkpt lat="45.77168" lon="4.6826">
        <ele>363.3</ele>
        <time>2018-09-09T10:03:02Z</time>
      </trkpt>
      <trkpt lat="45.77159" lon="4.68262">
        <ele>363.7</ele>
        <time>2018-09-09T10:03:04Z</time>
      </trkpt>
      <trkpt lat="45.77155" lon="4.68275">
        <ele>364.2</ele>
        <time>2018-09-09T10:03:07Z</time>
      </trkpt>
      <trkpt lat="45.77155" lon="4.68279">
        <ele>364.3</ele>
        <time>2018-09-09T10:03:08Z</time>
      </trkpt>
      <trkpt lat="45.7715" lon="4.68301">
        <ele>365</ele>
        <time>2018-09-09T10:03:13Z</time>
      </trkpt>
      <trkpt lat="45.77144" lon="4.68325">
        <ele>365.5</ele>
        <time>2018-09-09T10:03:18Z</time>
      </trkpt>
      <trkpt lat="45.77142" lon="4.68334">
        <ele>365.7</ele>
        <time>2018-09-09T10:03:20Z</time>
      </trkpt>
      <trkpt lat="45.77138" lon="4.68348">
        <ele>365.9</ele>
        <time>2018-09-09T10:03:23Z</time>
      </trkpt>
      <trkpt lat="45.77132" lon="4.68366">
        <ele>365.9</ele>
        <time>2018-09-09T10:03:28Z</time>
      </trkpt>
      <trkpt lat="45.7713" lon="4.68368">
        <ele>365.8</ele>
        <time>2018-09-09T10:03:29Z</time>
      </trkpt>
      <trkpt lat="45.77126" lon="4.68368">
        <ele>365.7</ele>
        <time>2018-09-09T10:03:30Z</time>
      </trkpt>
      <trkpt lat="45.77123" lon="4.68367">
        <ele>365.6</ele>
        <time>2018-09-09T10:03:31Z</time>
      </trkpt>
      <trkpt lat="45.77104" lon="4.68353">
        <ele>364.5</ele>
        <time>2018-09-09T10:03:35Z</time>
      </trkpt>
      <trkpt lat="45.77098" lon="4.6835">
        <ele>364.1</ele>
        <time>2018-09-09T10:03:36Z</time>
      </trkpt>
      <trkpt lat="45.77091" lon="4.68345">
        <ele>363.7</ele>
        <time>2018-09-09T10:03:37Z</time>
      </trkpt>
      <trkpt lat="45.77076" lon="4.68336">
        <ele>362.7</ele>
        <time>2018-09-09T10:03:39Z</time>
      </trkpt>
      <trkpt lat="45.7706" lon="4.68326">
        <ele>361.8</ele>
        <time>2018-09-09T10:03:41Z</time>
      </trkpt>
      <trkpt lat="45.77044" lon="4.68316">
        <ele>360.8</ele>
        <time>2018-09-09T10:03:43Z</time>
      </trkpt>
      <trkpt lat="45.77027" lon="4.68305">
        <ele>359.7</ele>
        <time>2018-09-09T10:03:45Z</time>
      </trkpt>
      <trkpt lat="45.77011" lon="4.68295">
        <ele>358.5</ele>
        <time>2018-09-09T10:03:47Z</time>
      </trkpt>
      <trkpt lat="45.76995" lon="4.68286">
        <ele>357.5</ele>
        <time>2018-09-09T10:03:49Z</time>
      </trkpt>
      <trkpt lat="45.76988" lon="4.68282">
        <ele>357</ele>
        <time>2018-09-09T10:03:50Z</time>
      </trkpt>
      <trkpt lat="45.76982" lon="4.6828">
        <ele>356.6</ele>
        <time>2018-09-09T10:03:51Z</time>
      </trkpt>
      <trkpt lat="45.76974" lon="4.68279">
        <ele>356.2</ele>
        <time>2018-09-09T10:03:53Z</time>
      </trkpt>
      <trkpt lat="45.76971" lon="4.68279">
        <ele>356</ele>
        <time>2018-09-09T10:03:54Z</time>
      </trkpt>
      <trkpt lat="45.76961" lon="4.68281">
        <ele>355.4</ele>
        <time>2018-09-09T10:03:57Z</time>
      </trkpt>
      <trkpt lat="45.76955" lon="4.68283">
        <ele>355</ele>
        <time>2018-09-09T10:03:59Z</time>
      </trkpt>
      <trkpt lat="45.76952" lon="4.68284">
        <ele>355</ele>
        <time>2018-09-09T10:04:00Z</time>
      </trkpt>
      <trkpt lat="45.76944" lon="4.68294">
        <ele>355</ele>
        <time>2018-09-09T10:04:03Z</time>
      </trkpt>
      <trkpt lat="45.7694" lon="4.68303">
        <ele>355</ele>
        <time>2018-09-09T10:04:05Z</time>
      </trkpt>
      <trkpt lat="45.76937" lon="4.68322">
        <ele>354.8</ele>
        <time>2018-09-09T10:04:08Z</time>
      </trkpt>
      <trkpt lat="45.76936" lon="4.68329">
        <ele>354.6</ele>
        <time>2018-09-09T10:04:09Z</time>
      </trkpt>
      <trkpt lat="45.76934" lon="4.68345">
        <ele>354.2</ele>
        <time>2018-09-09T10:04:11Z</time>
      </trkpt>
      <trkpt lat="45.7693" lon="4.68377">
        <ele>353.5</ele>
        <time>2018-09-09T10:04:15Z</time>
      </trkpt>
      <trkpt lat="45.76926" lon="4.68412">
        <ele>352.5</ele>
        <time>2018-09-09T10:04:19Z</time>
      </trkpt>
      <trkpt lat="45.76924" lon="4.6842">
        <ele>352.3</ele>
        <time>2018-09-09T10:04:20Z</time>
      </trkpt>
      <trkpt lat="45.76919" lon="4.68438">
        <ele>351.4</ele>
        <time>2018-09-09T10:04:22Z</time>
      </trkpt>
      <trkpt lat="45.76911" lon="4.68453">
        <ele>349.8</ele>
        <time>2018-09-09T10:04:24Z</time>
      </trkpt>
      <trkpt lat="45.76906" lon="4.68461">
        <ele>349</ele>
        <time>2018-09-09T10:04:25Z</time>
      </trkpt>
      <trkpt lat="45.76902" lon="4.68471">
        <ele>348.3</ele>
        <time>2018-09-09T10:04:26Z</time>
      </trkpt>
      <trkpt lat="45.76896" lon="4.6849">
        <ele>347.4</ele>
        <time>2018-09-09T10:04:28Z</time>
      </trkpt>
      <trkpt lat="45.7689" lon="4.68518">
        <ele>346.5</ele>
        <time>2018-09-09T10:04:31Z</time>
      </trkpt>
      <trkpt lat="45.76884" lon="4.68543">
        <ele>346</ele>
        <time>2018-09-09T10:04:34Z</time>
      </trkpt>
      <trkpt lat="45.76874" lon="4.68583">
        <ele>346.4</ele>
        <time>2018-09-09T10:04:40Z</time>
      </trkpt>
      <trkpt lat="45.76863" lon="4.68622">
        <ele>347.9</ele>
        <time>2018-09-09T10:04:47Z</time>
      </trkpt>
      <trkpt lat="45.7686" lon="4.68638">
        <ele>348.7</ele>
        <time>2018-09-09T10:04:50Z</time>
      </trkpt>
      <trkpt lat="45.76856" lon="4.68653">
        <ele>349.5</ele>
        <time>2018-09-09T10:04:53Z</time>
      </trkpt>
      <trkpt lat="45.76854" lon="4.68658">
        <ele>349.8</ele>
        <time>2018-09-09T10:04:54Z</time>
      </trkpt>
      <trkpt lat="45.76844" lon="4.68681">
        <ele>350.8</ele>
        <time>2018-09-09T10:04:59Z</time>
      </trkpt>
      <trkpt lat="45.7684" lon="4.68689">
        <ele>351.1</ele>
        <time>2018-09-09T10:05:01Z</time>
      </trkpt>
      <trkpt lat="45.76835" lon="4.68698">
        <ele>351.4</ele>
        <time>2018-09-09T10:05:03Z</time>
      </trkpt>
      <trkpt lat="45.7682" lon="4.68723">
        <ele>352</ele>
        <time>2018-09-09T10:05:09Z</time>
      </trkpt>
      <trkpt lat="45.76816" lon="4.68732">
        <ele>352.1</ele>
        <time>2018-09-09T10:05:11Z</time>
      </trkpt>
      <trkpt lat="45.76805" lon="4.68756">
        <ele>352.3</ele>
        <time>2018-09-09T10:05:16Z</time>
      </trkpt>
      <trkpt lat="45.76798" lon="4.68769">
        <ele>351.9</ele>
        <time>2018-09-09T10:05:19Z</time>
      </trkpt>
      <trkpt lat="45.76792" lon="4.6877">
        <ele>351.5</ele>
        <time>2018-09-09T10:05:21Z</time>
      </trkpt>
      <trkpt lat="45.76774" lon="4.68767">
        <ele>350.5</ele>
        <time>2018-09-09T10:05:25Z</time>
      </trkpt>
      <trkpt lat="45.76771" lon="4.68767">
        <ele>350.3</ele>
        <time>2018-09-09T10:05:26Z</time>
      </trkpt>
      <trkpt lat="45.76765" lon="4.68768">
        <ele>350.1</ele>
        <time>2018-09-09T10:05:28Z</time>
      </trkpt>
      <trkpt lat="45.76764" lon="4.68769">
        <ele>350</ele>
        <time>2018-09-09T10:05:29Z</time>
      </trkpt>
      <trkpt lat="45.76763" lon="4.68778">
        <ele>350</ele>
        <time>2018-09-09T10:05:33Z</time>
      </trkpt>
      <trkpt lat="45.76763" lon="4.68786">
        <ele>350</ele>
        <time>2018-09-09T10:05:41Z</time>
      </trkpt>
      <trkpt lat="45.76762" lon="4.68793">
        <ele>349.9</ele>
        <time>2018-09-09T10:05:43Z</time>
      </trkpt>
      <trkpt lat="45.76755" lon="4.68819">
        <ele>347.5</ele>
        <time>2018-09-09T10:05:48Z</time>
      </trkpt>
      <trkpt lat="45.76744" lon="4.68858">
        <ele>343.2</ele>
        <time>2018-09-09T10:05:55Z</time>
      </trkpt>
      <trkpt lat="45.76734" lon="4.68875">
        <ele>341</ele>
        <time>2018-09-09T10:05:59Z</time>
      </trkpt>
      <trkpt lat="45.7673" lon="4.68878">
        <ele>341</ele>
        <time>2018-09-09T10:06:00Z</time>
      </trkpt>
      <trkpt lat="45.76711" lon="4.68887">
        <ele>341</ele>
        <time>2018-09-09T10:06:04Z</time>
      </trkpt>
      <trkpt lat="45.76692" lon="4.68897">
        <ele>341</ele>
        <time>2018-09-09T10:06:08Z</time>
      </trkpt>
      <trkpt lat="45.76686" lon="4.68899">
        <ele>340.8</ele>
        <time>2018-09-09T10:06:09Z</time>
      </trkpt>
      <trkpt lat="45.76667" lon="4.68904">
        <ele>339.4</ele>
        <time>2018-09-09T10:06:12Z</time>
      </trkpt>
      <trkpt lat="45.76652" lon="4.68908">
        <ele>338.1</ele>
        <time>2018-09-09T10:06:14Z</time>
      </trkpt>
      <trkpt lat="45.76644" lon="4.68909">
        <ele>337.5</ele>
        <time>2018-09-09T10:06:15Z</time>
      </trkpt>
      <trkpt lat="45.76618" lon="4.68913">
        <ele>335.1</ele>
        <time>2018-09-09T10:06:18Z</time>
      </trkpt>
      <trkpt lat="45.766" lon="4.68914">
        <ele>333.4</ele>
        <time>2018-09-09T10:06:20Z</time>
      </trkpt>
      <trkpt lat="45.76592" lon="4.68916">
        <ele>332.5</ele>
        <time>2018-09-09T10:06:21Z</time>
      </trkpt>
      <trkpt lat="45.76569" lon="4.6892">
        <ele>330.4</ele>
        <time>2018-09-09T10:06:24Z</time>
      </trkpt>
      <trkpt lat="45.76555" lon="4.68923">
        <ele>329.4</ele>
        <time>2018-09-09T10:06:26Z</time>
      </trkpt>
      <trkpt lat="45.76547" lon="4.68924">
        <ele>329.1</ele>
        <time>2018-09-09T10:06:27Z</time>
      </trkpt>
      <trkpt lat="45.76518" lon="4.68926">
        <ele>326.7</ele>
        <time>2018-09-09T10:06:31Z</time>
      </trkpt>
      <trkpt lat="45.76505" lon="4.68929">
        <ele>325.2</ele>
        <time>2018-09-09T10:06:33Z</time>
      </trkpt>
      <trkpt lat="45.76492" lon="4.6893">
        <ele>323.3</ele>
        <time>2018-09-09T10:06:35Z</time>
      </trkpt>
      <trkpt lat="45.76471" lon="4.68928">
        <ele>321.2</ele>
        <time>2018-09-09T10:06:38Z</time>
      </trkpt>
      <trkpt lat="45.76462" lon="4.68927">
        <ele>320.3</ele>
        <time>2018-09-09T10:06:39Z</time>
      </trkpt>
      <trkpt lat="45.76446" lon="4.68924">
        <ele>318.7</ele>
        <time>2018-09-09T10:06:41Z</time>
      </trkpt>
      <trkpt lat="45.76422" lon="4.6892">
        <ele>317.4</ele>
        <time>2018-09-09T10:06:44Z</time>
      </trkpt>
      <trkpt lat="45.76407" lon="4.68917">
        <ele>316.9</ele>
        <time>2018-09-09T10:06:46Z</time>
      </trkpt>
      <trkpt lat="45.764" lon="4.68916">
        <ele>316.7</ele>
        <time>2018-09-09T10:06:47Z</time>
      </trkpt>
      <trkpt lat="45.7638" lon="4.68912">
        <ele>316</ele>
        <time>2018-09-09T10:06:50Z</time>
      </trkpt>
      <trkpt lat="45.7636" lon="4.68909">
        <ele>315.4</ele>
        <time>2018-09-09T10:06:53Z</time>
      </trkpt>
      <trkpt lat="45.76354" lon="4.68908">
        <ele>315.1</ele>
        <time>2018-09-09T10:06:54Z</time>
      </trkpt>
      <trkpt lat="45.76348" lon="4.68907">
        <ele>315</ele>
        <time>2018-09-09T10:06:55Z</time>
      </trkpt>
      <trkpt lat="45.76335" lon="4.68902">
        <ele>314.4</ele>
        <time>2018-09-09T10:06:57Z</time>
      </trkpt>
      <trkpt lat="45.7632" lon="4.68895">
        <ele>314.1</ele>
        <time>2018-09-09T10:06:59Z</time>
      </trkpt>
      <trkpt lat="45.76306" lon="4.68888">
        <ele>314</ele>
        <time>2018-09-09T10:07:01Z</time>
      </trkpt>
      <trkpt lat="45.76292" lon="4.6888">
        <ele>314</ele>
        <time>2018-09-09T10:07:03Z</time>
      </trkpt>
      <trkpt lat="45.76274" lon="4.68871">
        <ele>314</ele>
        <time>2018-09-09T10:07:06Z</time>
      </trkpt>
      <trkpt lat="45.76259" lon="4.68866">
        <ele>314.5</ele>
        <time>2018-09-09T10:07:09Z</time>
      </trkpt>
      <trkpt lat="45.7625" lon="4.68865">
        <ele>314.7</ele>
        <time>2018-09-09T10:07:11Z</time>
      </trkpt>
      <trkpt lat="45.76238" lon="4.68878">
        <ele>314.7</ele>
        <time>2018-09-09T10:07:15Z</time>
      </trkpt>
      <trkpt lat="45.76231" lon="4.68915">
        <ele>313.4</ele>
        <time>2018-09-09T10:07:20Z</time>
      </trkpt>
      <trkpt lat="45.76231" lon="4.68929">
        <ele>312.8</ele>
        <time>2018-09-09T10:07:21Z</time>
      </trkpt>
      <trkpt lat="45.76228" lon="4.68953">
        <ele>312.1</ele>
        <time>2018-09-09T10:07:23Z</time>
      </trkpt>
      <trkpt lat="45.76225" lon="4.68962">
        <ele>311.5</ele>
        <time>2018-09-09T10:07:24Z</time>
      </trkpt>
      <trkpt lat="45.76221" lon="4.6897">
        <ele>311</ele>
        <time>2018-09-09T10:07:25Z</time>
      </trkpt>
      <trkpt lat="45.76206" lon="4.68996">
        <ele>309.7</ele>
        <time>2018-09-09T10:07:28Z</time>
      </trkpt>
      <trkpt lat="45.76201" lon="4.69003">
        <ele>309.3</ele>
        <time>2018-09-09T10:07:29Z</time>
      </trkpt>
      <trkpt lat="45.76196" lon="4.6901">
        <ele>309.1</ele>
        <time>2018-09-09T10:07:30Z</time>
      </trkpt>
      <trkpt lat="45.76185" lon="4.69023">
        <ele>308.4</ele>
        <time>2018-09-09T10:07:32Z</time>
      </trkpt>
      <trkpt lat="45.76175" lon="4.69037">
        <ele>307.7</ele>
        <time>2018-09-09T10:07:34Z</time>
      </trkpt>
      <trkpt lat="45.7617" lon="4.69043">
        <ele>307.3</ele>
        <time>2018-09-09T10:07:35Z</time>
      </trkpt>
      <trkpt lat="45.76161" lon="4.69056">
        <ele>306.5</ele>
        <time>2018-09-09T10:07:37Z</time>
      </trkpt>
      <trkpt lat="45.76157" lon="4.69066">
        <ele>306.1</ele>
        <time>2018-09-09T10:07:38Z</time>
      </trkpt>
      <trkpt lat="45.76153" lon="4.69077">
        <ele>305.7</ele>
        <time>2018-09-09T10:07:39Z</time>
      </trkpt>
      <trkpt lat="45.76143" lon="4.69094">
        <ele>304.8</ele>
        <time>2018-09-09T10:07:41Z</time>
      </trkpt>
      <trkpt lat="45.76136" lon="4.69111">
        <ele>304</ele>
        <time>2018-09-09T10:07:43Z</time>
      </trkpt>
      <trkpt lat="45.7613" lon="4.69126">
        <ele>303.5</ele>
        <time>2018-09-09T10:07:45Z</time>
      </trkpt>
      <trkpt lat="45.76125" lon="4.69141">
        <ele>303.3</ele>
        <time>2018-09-09T10:07:47Z</time>
      </trkpt>
      <trkpt lat="45.76118" lon="4.69156">
        <ele>303</ele>
        <time>2018-09-09T10:07:49Z</time>
      </trkpt>
      <trkpt lat="45.7611" lon="4.69171">
        <ele>302.6</ele>
        <time>2018-09-09T10:07:51Z</time>
      </trkpt>
      <trkpt lat="45.76103" lon="4.69188">
        <ele>302.3</ele>
        <time>2018-09-09T10:07:53Z</time>
      </trkpt>
      <trkpt lat="45.76099" lon="4.69195">
        <ele>302.2</ele>
        <time>2018-09-09T10:07:54Z</time>
      </trkpt>
      <trkpt lat="45.76094" lon="4.69203">
        <ele>302.1</ele>
        <time>2018-09-09T10:07:55Z</time>
      </trkpt>
      <trkpt lat="45.76083" lon="4.69214">
        <ele>301.6</ele>
        <time>2018-09-09T10:07:57Z</time>
      </trkpt>
      <trkpt lat="45.76061" lon="4.69222">
        <ele>301.3</ele>
        <time>2018-09-09T10:08:00Z</time>
      </trkpt>
      <trkpt lat="45.76054" lon="4.69225">
        <ele>301.3</ele>
        <time>2018-09-09T10:08:01Z</time>
      </trkpt>
      <trkpt lat="45.76032" lon="4.69233">
        <ele>301.8</ele>
        <time>2018-09-09T10:08:05Z</time>
      </trkpt>
      <trkpt lat="45.7602" lon="4.69233">
        <ele>302</ele>
        <time>2018-09-09T10:08:09Z</time>
      </trkpt>
      <trkpt lat="45.76009" lon="4.69234">
        <ele>302.8</ele>
        <time>2018-09-09T10:08:15Z</time>
      </trkpt>
      <trkpt lat="45.76" lon="4.69228">
        <ele>303.5</ele>
        <time>2018-09-09T10:08:21Z</time>
      </trkpt>
      <trkpt lat="45.75997" lon="4.69225">
        <ele>303.8</ele>
        <time>2018-09-09T10:08:23Z</time>
      </trkpt>
      <trkpt lat="45.75992" lon="4.69218">
        <ele>304.2</ele>
        <time>2018-09-09T10:08:27Z</time>
      </trkpt>
      <trkpt lat="45.75991" lon="4.69217">
        <ele>304.3</ele>
        <time>2018-09-09T10:08:28Z</time>
      </trkpt>
      <trkpt lat="45.7599" lon="4.6921">
        <ele>304.7</ele>
        <time>2018-09-09T10:08:31Z</time>
      </trkpt>
      <trkpt lat="45.75988" lon="4.69206">
        <ele>304.9</ele>
        <time>2018-09-09T10:08:33Z</time>
      </trkpt>
      <trkpt lat="45.75986" lon="4.69195">
        <ele>305.5</ele>
        <time>2018-09-09T10:08:38Z</time>
      </trkpt>
      <trkpt lat="45.75985" lon="4.69191">
        <ele>305.7</ele>
        <time>2018-09-09T10:08:40Z</time>
      </trkpt>
      <trkpt lat="45.75984" lon="4.6919">
        <ele>305.7</ele>
        <time>2018-09-09T10:08:41Z</time>
      </trkpt>
      <trkpt lat="45.75984" lon="4.69188">
        <ele>305.8</ele>
        <time>2018-09-09T10:08:42Z</time>
      </trkpt>
      <trkpt lat="45.75981" lon="4.69173">
        <ele>306.7</ele>
        <time>2018-09-09T10:08:48Z</time>
      </trkpt>
      <trkpt lat="45.75979" lon="4.6916">
        <ele>307.4</ele>
        <time>2018-09-09T10:08:53Z</time>
      </trkpt>
      <trkpt lat="45.75976" lon="4.69149">
        <ele>308</ele>
        <time>2018-09-09T10:08:57Z</time>
      </trkpt>
      <trkpt lat="45.75972" lon="4.69132">
        <ele>308.8</ele>
        <time>2018-09-09T10:09:03Z</time>
      </trkpt>
      <trkpt lat="45.7597" lon="4.69123">
        <ele>309.5</ele>
        <time>2018-09-09T10:09:06Z</time>
      </trkpt>
      <trkpt lat="45.75969" lon="4.6912">
        <ele>309.7</ele>
        <time>2018-09-09T10:09:07Z</time>
      </trkpt>
      <trkpt lat="45.75966" lon="4.69109">
        <ele>311</ele>
        <time>2018-09-09T10:09:11Z</time>
      </trkpt>
      <trkpt lat="45.75964" lon="4.69094">
        <ele>312.4</ele>
        <time>2018-09-09T10:09:16Z</time>
      </trkpt>
      <trkpt lat="45.75963" lon="4.69091">
        <ele>312.6</ele>
        <time>2018-09-09T10:09:17Z</time>
      </trkpt>
      <trkpt lat="45.7596" lon="4.6907">
        <ele>314.1</ele>
        <time>2018-09-09T10:09:24Z</time>
      </trkpt>
      <trkpt lat="45.7596" lon="4.69067">
        <ele>314.4</ele>
        <time>2018-09-09T10:09:25Z</time>
      </trkpt>
      <trkpt lat="45.7596" lon="4.69057">
        <ele>315.3</ele>
        <time>2018-09-09T10:09:30Z</time>
      </trkpt>
      <trkpt lat="45.7596" lon="4.69052">
        <ele>315.9</ele>
        <time>2018-09-09T10:10:23Z</time>
      </trkpt>
      <trkpt lat="45.75961" lon="4.69046">
        <ele>316.5</ele>
        <time>2018-09-09T10:10:25Z</time>
      </trkpt>
      <trkpt lat="45.75964" lon="4.69032">
        <ele>318</ele>
        <time>2018-09-09T10:10:30Z</time>
      </trkpt>
      <trkpt lat="45.75964" lon="4.69029">
        <ele>318.3</ele>
        <time>2018-09-09T10:10:31Z</time>
      </trkpt>
      <trkpt lat="45.75964" lon="4.69027">
        <ele>318.6</ele>
        <time>2018-09-09T10:10:32Z</time>
      </trkpt>
      <trkpt lat="45.75966" lon="4.69018">
        <ele>319.3</ele>
        <time>2018-09-09T10:10:35Z</time>
      </trkpt>
      <trkpt lat="45.75969" lon="4.6901">
        <ele>320.1</ele>
        <time>2018-09-09T10:10:38Z</time>
      </trkpt>
      <trkpt lat="45.75969" lon="4.69007">
        <ele>320.4</ele>
        <time>2018-09-09T10:10:39Z</time>
      </trkpt>
      <trkpt lat="45.75972" lon="4.69">
        <ele>320.9</ele>
        <time>2018-09-09T10:10:42Z</time>
      </trkpt>
      <trkpt lat="45.75974" lon="4.68991">
        <ele>321.5</ele>
        <time>2018-09-09T10:10:45Z</time>
      </trkpt>
      <trkpt lat="45.75974" lon="4.68989">
        <ele>321.6</ele>
        <time>2018-09-09T10:10:46Z</time>
      </trkpt>
      <trkpt lat="45.75976" lon="4.68983">
        <ele>322.2</ele>
        <time>2018-09-09T10:10:48Z</time>
      </trkpt>
      <trkpt lat="45.75979" lon="4.68975">
        <ele>323.1</ele>
        <time>2018-09-09T10:10:51Z</time>
      </trkpt>
      <trkpt lat="45.75981" lon="4.6897">
        <ele>323.5</ele>
        <time>2018-09-09T10:10:53Z</time>
      </trkpt>
      <trkpt lat="45.75983" lon="4.68967">
        <ele>323.7</ele>
        <time>2018-09-09T10:10:54Z</time>
      </trkpt>
      <trkpt lat="45.75985" lon="4.68962">
        <ele>324.1</ele>
        <time>2018-09-09T10:10:56Z</time>
      </trkpt>
      <trkpt lat="45.7599" lon="4.68951">
        <ele>324.8</ele>
        <time>2018-09-09T10:11:00Z</time>
      </trkpt>
      <trkpt lat="45.75995" lon="4.68941">
        <ele>325.5</ele>
        <time>2018-09-09T10:11:04Z</time>
      </trkpt>
      <trkpt lat="45.75996" lon="4.68939">
        <ele>325.8</ele>
        <time>2018-09-09T10:11:05Z</time>
      </trkpt>
      <trkpt lat="45.76" lon="4.68931">
        <ele>326.7</ele>
        <time>2018-09-09T10:11:08Z</time>
      </trkpt>
      <trkpt lat="45.76006" lon="4.6892">
        <ele>327.5</ele>
        <time>2018-09-09T10:11:12Z</time>
      </trkpt>
      <trkpt lat="45.76009" lon="4.68915">
        <ele>328</ele>
        <time>2018-09-09T10:11:14Z</time>
      </trkpt>
      <trkpt lat="45.76016" lon="4.689">
        <ele>329.1</ele>
        <time>2018-09-09T10:11:20Z</time>
      </trkpt>
      <trkpt lat="45.76017" lon="4.68898">
        <ele>329.3</ele>
        <time>2018-09-09T10:11:21Z</time>
      </trkpt>
      <trkpt lat="45.76021" lon="4.68889">
        <ele>329.9</ele>
        <time>2018-09-09T10:11:24Z</time>
      </trkpt>
      <trkpt lat="45.76026" lon="4.68879">
        <ele>330</ele>
        <time>2018-09-09T10:11:28Z</time>
      </trkpt>
      <trkpt lat="45.76028" lon="4.68873">
        <ele>330.4</ele>
        <time>2018-09-09T10:11:30Z</time>
      </trkpt>
      <trkpt lat="45.76031" lon="4.68862">
        <ele>331.2</ele>
        <time>2018-09-09T10:11:34Z</time>
      </trkpt>
      <trkpt lat="45.76031" lon="4.68848">
        <ele>332.4</ele>
        <time>2018-09-09T10:11:39Z</time>
      </trkpt>
      <trkpt lat="45.76028" lon="4.68837">
        <ele>333.2</ele>
        <time>2018-09-09T10:11:43Z</time>
      </trkpt>
      <trkpt lat="45.76024" lon="4.6883">
        <ele>334</ele>
        <time>2018-09-09T10:11:46Z</time>
      </trkpt>
      <trkpt lat="45.76015" lon="4.68818">
        <ele>335.1</ele>
        <time>2018-09-09T10:11:52Z</time>
      </trkpt>
      <trkpt lat="45.76005" lon="4.68809">
        <ele>335.8</ele>
        <time>2018-09-09T10:11:57Z</time>
      </trkpt>
      <trkpt lat="45.75986" lon="4.68802">
        <ele>336.5</ele>
        <time>2018-09-09T10:12:06Z</time>
      </trkpt>
      <trkpt lat="45.75968" lon="4.68797">
        <ele>336.6</ele>
        <time>2018-09-09T10:12:14Z</time>
      </trkpt>
      <trkpt lat="45.75959" lon="4.68791">
        <ele>336.7</ele>
        <time>2018-09-09T10:12:20Z</time>
      </trkpt>
      <trkpt lat="45.7596" lon="4.68787">
        <ele>337</ele>
        <time>2018-09-09T10:12:23Z</time>
      </trkpt>
      <trkpt lat="45.7596" lon="4.68785">
        <ele>336.9</ele>
        <time>2018-09-09T10:12:24Z</time>
      </trkpt>
      <trkpt lat="45.75954" lon="4.68782">
        <ele>336.7</ele>
        <time>2018-09-09T10:12:28Z</time>
      </trkpt>
      <trkpt lat="45.75947" lon="4.68787">
        <ele>336.4</ele>
        <time>2018-09-09T10:12:33Z</time>
      </trkpt>
      <trkpt lat="45.75945" lon="4.68788">
        <ele>336.4</ele>
        <time>2018-09-09T10:13:04Z</time>
      </trkpt>
      <trkpt lat="45.7594" lon="4.68791">
        <ele>336.2</ele>
        <time>2018-09-09T10:13:06Z</time>
      </trkpt>
      <trkpt lat="45.75925" lon="4.68806">
        <ele>335.8</ele>
        <time>2018-09-09T10:13:11Z</time>
      </trkpt>
      <trkpt lat="45.75906" lon="4.68825">
        <ele>335.4</ele>
        <time>2018-09-09T10:13:17Z</time>
      </trkpt>
      <trkpt lat="45.75884" lon="4.68859">
        <ele>335.1</ele>
        <time>2018-09-09T10:13:25Z</time>
      </trkpt>
      <trkpt lat="45.7587" lon="4.68886">
        <ele>334.5</ele>
        <time>2018-09-09T10:13:31Z</time>
      </trkpt>
      <trkpt lat="45.75866" lon="4.68896">
        <ele>334.1</ele>
        <time>2018-09-09T10:13:33Z</time>
      </trkpt>
      <trkpt lat="45.75858" lon="4.68914">
        <ele>333.5</ele>
        <time>2018-09-09T10:13:36Z</time>
      </trkpt>
      <trkpt lat="45.75855" lon="4.6892">
        <ele>333.3</ele>
        <time>2018-09-09T10:13:37Z</time>
      </trkpt>
      <trkpt lat="45.75852" lon="4.68926">
        <ele>333.1</ele>
        <time>2018-09-09T10:13:38Z</time>
      </trkpt>
      <trkpt lat="45.7584" lon="4.68955">
        <ele>332.1</ele>
        <time>2018-09-09T10:13:42Z</time>
      </trkpt>
      <trkpt lat="45.75834" lon="4.6897">
        <ele>331.8</ele>
        <time>2018-09-09T10:13:44Z</time>
      </trkpt>
      <trkpt lat="45.75823" lon="4.68994">
        <ele>330.9</ele>
        <time>2018-09-09T10:13:47Z</time>
      </trkpt>
      <trkpt lat="45.75809" lon="4.69027">
        <ele>329.6</ele>
        <time>2018-09-09T10:13:51Z</time>
      </trkpt>
      <trkpt lat="45.75799" lon="4.69054">
        <ele>328.5</ele>
        <time>2018-09-09T10:13:54Z</time>
      </trkpt>
      <trkpt lat="45.7579" lon="4.69081">
        <ele>327.3</ele>
        <time>2018-09-09T10:13:57Z</time>
      </trkpt>
      <trkpt lat="45.75783" lon="4.69098">
        <ele>326.5</ele>
        <time>2018-09-09T10:13:59Z</time>
      </trkpt>
      <trkpt lat="45.75779" lon="4.69107">
        <ele>326.2</ele>
        <time>2018-09-09T10:14:00Z</time>
      </trkpt>
      <trkpt lat="45.75767" lon="4.69132">
        <ele>325.1</ele>
        <time>2018-09-09T10:14:03Z</time>
      </trkpt>
      <trkpt lat="45.75761" lon="4.6915">
        <ele>324.5</ele>
        <time>2018-09-09T10:14:05Z</time>
      </trkpt>
      <trkpt lat="45.75759" lon="4.6916">
        <ele>324.1</ele>
        <time>2018-09-09T10:14:06Z</time>
      </trkpt>
      <trkpt lat="45.75757" lon="4.69191">
        <ele>322.9</ele>
        <time>2018-09-09T10:14:09Z</time>
      </trkpt>
      <trkpt lat="45.75761" lon="4.69222">
        <ele>321.5</ele>
        <time>2018-09-09T10:14:12Z</time>
      </trkpt>
      <trkpt lat="45.75764" lon="4.69244">
        <ele>320.6</ele>
        <time>2018-09-09T10:14:14Z</time>
      </trkpt>
      <trkpt lat="45.75765" lon="4.69266">
        <ele>319.7</ele>
        <time>2018-09-09T10:14:16Z</time>
      </trkpt>
      <trkpt lat="45.75765" lon="4.69277">
        <ele>319.3</ele>
        <time>2018-09-09T10:14:17Z</time>
      </trkpt>
      <trkpt lat="45.75761" lon="4.69299">
        <ele>318.4</ele>
        <time>2018-09-09T10:14:19Z</time>
      </trkpt>
      <trkpt lat="45.75758" lon="4.69309">
        <ele>317.9</ele>
        <time>2018-09-09T10:14:20Z</time>
      </trkpt>
      <trkpt lat="45.75755" lon="4.6932">
        <ele>317.4</ele>
        <time>2018-09-09T10:14:21Z</time>
      </trkpt>
      <trkpt lat="45.75744" lon="4.69353">
        <ele>316.2</ele>
        <time>2018-09-09T10:14:24Z</time>
      </trkpt>
      <trkpt lat="45.7574" lon="4.69363">
        <ele>315.8</ele>
        <time>2018-09-09T10:14:25Z</time>
      </trkpt>
      <trkpt lat="45.75727" lon="4.694">
        <ele>314.1</ele>
        <time>2018-09-09T10:14:28Z</time>
      </trkpt>
      <trkpt lat="45.75721" lon="4.69413">
        <ele>313.4</ele>
        <time>2018-09-09T10:14:29Z</time>
      </trkpt>
      <trkpt lat="45.75716" lon="4.69427">
        <ele>312.6</ele>
        <time>2018-09-09T10:14:30Z</time>
      </trkpt>
      <trkpt lat="45.75707" lon="4.69454">
        <ele>311.2</ele>
        <time>2018-09-09T10:14:32Z</time>
      </trkpt>
      <trkpt lat="45.75697" lon="4.69482">
        <ele>309.8</ele>
        <time>2018-09-09T10:14:34Z</time>
      </trkpt>
      <trkpt lat="45.7569" lon="4.69511">
        <ele>308.4</ele>
        <time>2018-09-09T10:14:36Z</time>
      </trkpt>
      <trkpt lat="45.75683" lon="4.69541">
        <ele>307</ele>
        <time>2018-09-09T10:14:38Z</time>
      </trkpt>
      <trkpt lat="45.75677" lon="4.69571">
        <ele>305.6</ele>
        <time>2018-09-09T10:14:40Z</time>
      </trkpt>
      <trkpt lat="45.75672" lon="4.69602">
        <ele>304.3</ele>
        <time>2018-09-09T10:14:42Z</time>
      </trkpt>
      <trkpt lat="45.75666" lon="4.69631">
        <ele>303</ele>
        <time>2018-09-09T10:14:44Z</time>
      </trkpt>
      <trkpt lat="45.75662" lon="4.69661">
        <ele>301.7</ele>
        <time>2018-09-09T10:14:46Z</time>
      </trkpt>
      <trkpt lat="45.75659" lon="4.69692">
        <ele>300</ele>
        <time>2018-09-09T10:14:48Z</time>
      </trkpt>
      <trkpt lat="45.75656" lon="4.69724">
        <ele>298.2</ele>
        <time>2018-09-09T10:14:50Z</time>
      </trkpt>
      <trkpt lat="45.75653" lon="4.69739">
        <ele>297.4</ele>
        <time>2018-09-09T10:14:51Z</time>
      </trkpt>
      <trkpt lat="45.7565" lon="4.69752">
        <ele>296.6</ele>
        <time>2018-09-09T10:14:52Z</time>
      </trkpt>
      <trkpt lat="45.75647" lon="4.69766">
        <ele>296</ele>
        <time>2018-09-09T10:14:53Z</time>
      </trkpt>
      <trkpt lat="45.75644" lon="4.69779">
        <ele>295.4</ele>
        <time>2018-09-09T10:14:54Z</time>
      </trkpt>
      <trkpt lat="45.75636" lon="4.69805">
        <ele>294.4</ele>
        <time>2018-09-09T10:14:56Z</time>
      </trkpt>
      <trkpt lat="45.75627" lon="4.69831">
        <ele>293.2</ele>
        <time>2018-09-09T10:14:58Z</time>
      </trkpt>
      <trkpt lat="45.75622" lon="4.69843">
        <ele>292.5</ele>
        <time>2018-09-09T10:14:59Z</time>
      </trkpt>
      <trkpt lat="45.75616" lon="4.69853">
        <ele>292</ele>
        <time>2018-09-09T10:15:00Z</time>
      </trkpt>
      <trkpt lat="45.75602" lon="4.69872">
        <ele>292</ele>
        <time>2018-09-09T10:15:02Z</time>
      </trkpt>
      <trkpt lat="45.75595" lon="4.69879">
        <ele>292</ele>
        <time>2018-09-09T10:15:03Z</time>
      </trkpt>
      <trkpt lat="45.75591" lon="4.69882">
        <ele>292</ele>
        <time>2018-09-09T10:15:04Z</time>
      </trkpt>
      <trkpt lat="45.75588" lon="4.69883">
        <ele>292</ele>
        <time>2018-09-09T10:15:05Z</time>
      </trkpt>
      <trkpt lat="45.75586" lon="4.69884">
        <ele>292</ele>
        <time>2018-09-09T10:15:06Z</time>
      </trkpt>
      <trkpt lat="45.75586" lon="4.69884">
        <ele>292</ele>
        <time>2018-09-09T10:15:08Z</time>
      </trkpt>
      <trkpt lat="45.75586" lon="4.69884">
        <ele>292</ele>
        <time>2018-09-09T10:15:09Z</time>
      </trkpt>
      <trkpt lat="45.75587" lon="4.69895">
        <ele>292</ele>
        <time>2018-09-09T10:15:13Z</time>
      </trkpt>
      <trkpt lat="45.75589" lon="4.69925">
        <ele>292.5</ele>
        <time>2018-09-09T10:15:19Z</time>
      </trkpt>
      <trkpt lat="45.75586" lon="4.69937">
        <ele>293.4</ele>
        <time>2018-09-09T10:15:22Z</time>
      </trkpt>
      <trkpt lat="45.75585" lon="4.6994">
        <ele>293.5</ele>
        <time>2018-09-09T10:15:23Z</time>
      </trkpt>
      <trkpt lat="45.75583" lon="4.69948">
        <ele>294</ele>
        <time>2018-09-09T10:15:27Z</time>
      </trkpt>
      <trkpt lat="45.75582" lon="4.69952">
        <ele>294.1</ele>
        <time>2018-09-09T10:15:29Z</time>
      </trkpt>
      <trkpt lat="45.7558" lon="4.69958">
        <ele>294.4</ele>
        <time>2018-09-09T10:15:32Z</time>
      </trkpt>
      <trkpt lat="45.75579" lon="4.69968">
        <ele>294.7</ele>
        <time>2018-09-09T10:15:37Z</time>
      </trkpt>
      <trkpt lat="45.75578" lon="4.69977">
        <ele>294.8</ele>
        <time>2018-09-09T10:15:41Z</time>
      </trkpt>
      <trkpt lat="45.75577" lon="4.69981">
        <ele>294.9</ele>
        <time>2018-09-09T10:15:43Z</time>
      </trkpt>
      <trkpt lat="45.75576" lon="4.69986">
        <ele>294.9</ele>
        <time>2018-09-09T10:15:45Z</time>
      </trkpt>
      <trkpt lat="45.75574" lon="4.69993">
        <ele>295.1</ele>
        <time>2018-09-09T10:15:48Z</time>
      </trkpt>
      <trkpt lat="45.75573" lon="4.69997">
        <ele>295.1</ele>
        <time>2018-09-09T10:15:50Z</time>
      </trkpt>
      <trkpt lat="45.75573" lon="4.69998">
        <ele>295.2</ele>
        <time>2018-09-09T10:15:51Z</time>
      </trkpt>
      <trkpt lat="45.75573" lon="4.70003">
        <ele>295.2</ele>
        <time>2018-09-09T10:15:53Z</time>
      </trkpt>
      <trkpt lat="45.75572" lon="4.70008">
        <ele>295.2</ele>
        <time>2018-09-09T10:15:55Z</time>
      </trkpt>
      <trkpt lat="45.75569" lon="4.70011">
        <ele>295.3</ele>
        <time>2018-09-09T10:15:58Z</time>
      </trkpt>
      <trkpt lat="45.75565" lon="4.70012">
        <ele>295.5</ele>
        <time>2018-09-09T10:16:01Z</time>
      </trkpt>
      <trkpt lat="45.75563" lon="4.70013">
        <ele>295.6</ele>
        <time>2018-09-09T10:16:02Z</time>
      </trkpt>
      <trkpt lat="45.7556" lon="4.70014">
        <ele>295.8</ele>
        <time>2018-09-09T10:16:04Z</time>
      </trkpt>
      <trkpt lat="45.75549" lon="4.70017">
        <ele>296.7</ele>
        <time>2018-09-09T10:16:10Z</time>
      </trkpt>
      <trkpt lat="45.75547" lon="4.70017">
        <ele>296.9</ele>
        <time>2018-09-09T10:16:11Z</time>
      </trkpt>
      <trkpt lat="45.75541" lon="4.70021">
        <ele>297.4</ele>
        <time>2018-09-09T10:16:15Z</time>
      </trkpt>
      <trkpt lat="45.75536" lon="4.70025">
        <ele>298</ele>
        <time>2018-09-09T10:16:18Z</time>
      </trkpt>
      <trkpt lat="45.75533" lon="4.70028">
        <ele>298.2</ele>
        <time>2018-09-09T10:16:20Z</time>
      </trkpt>
      <trkpt lat="45.75524" lon="4.70034">
        <ele>299.2</ele>
        <time>2018-09-09T10:16:25Z</time>
      </trkpt>
      <trkpt lat="45.75512" lon="4.7004">
        <ele>300.4</ele>
        <time>2018-09-09T10:16:32Z</time>
      </trkpt>
      <trkpt lat="45.7551" lon="4.70041">
        <ele>300.5</ele>
        <time>2018-09-09T10:16:33Z</time>
      </trkpt>
      <trkpt lat="45.75498" lon="4.70048">
        <ele>301.7</ele>
        <time>2018-09-09T10:16:41Z</time>
      </trkpt>
      <trkpt lat="45.75485" lon="4.70053">
        <ele>302.9</ele>
        <time>2018-09-09T10:16:48Z</time>
      </trkpt>
      <trkpt lat="45.75483" lon="4.70054">
        <ele>303</ele>
        <time>2018-09-09T10:16:49Z</time>
      </trkpt>
      <trkpt lat="45.75469" lon="4.70061">
        <ele>304.4</ele>
        <time>2018-09-09T10:16:57Z</time>
      </trkpt>
      <trkpt lat="45.75455" lon="4.70069">
        <ele>305.6</ele>
        <time>2018-09-09T10:17:05Z</time>
      </trkpt>
      <trkpt lat="45.75441" lon="4.70076">
        <ele>306.5</ele>
        <time>2018-09-09T10:17:12Z</time>
      </trkpt>
      <trkpt lat="45.75428" lon="4.7008">
        <ele>307</ele>
        <time>2018-09-09T10:17:19Z</time>
      </trkpt>
      <trkpt lat="45.75417" lon="4.70084">
        <ele>307.5</ele>
        <time>2018-09-09T10:17:25Z</time>
      </trkpt>
      <trkpt lat="45.75406" lon="4.70088">
        <ele>308.3</ele>
        <time>2018-09-09T10:17:31Z</time>
      </trkpt>
      <trkpt lat="45.75392" lon="4.70094">
        <ele>309.1</ele>
        <time>2018-09-09T10:17:37Z</time>
      </trkpt>
      <trkpt lat="45.75374" lon="4.70103">
        <ele>310.1</ele>
        <time>2018-09-09T10:17:44Z</time>
      </trkpt>
      <trkpt lat="45.75354" lon="4.70113">
        <ele>311.1</ele>
        <time>2018-09-09T10:17:52Z</time>
      </trkpt>
      <trkpt lat="45.75337" lon="4.7012">
        <ele>311.9</ele>
        <time>2018-09-09T10:17:58Z</time>
      </trkpt>
      <trkpt lat="45.75334" lon="4.70121">
        <ele>312</ele>
        <time>2018-09-09T10:17:59Z</time>
      </trkpt>
      <trkpt lat="45.75312" lon="4.7013">
        <ele>313.1</ele>
        <time>2018-09-09T10:18:05Z</time>
      </trkpt>
      <trkpt lat="45.75308" lon="4.70131">
        <ele>313.3</ele>
        <time>2018-09-09T10:18:06Z</time>
      </trkpt>
      <trkpt lat="45.75294" lon="4.70138">
        <ele>314.1</ele>
        <time>2018-09-09T10:18:11Z</time>
      </trkpt>
      <trkpt lat="45.75287" lon="4.70141">
        <ele>314.3</ele>
        <time>2018-09-09T10:18:14Z</time>
      </trkpt>
      <trkpt lat="45.75281" lon="4.70147">
        <ele>314.8</ele>
        <time>2018-09-09T10:18:17Z</time>
      </trkpt>
      <trkpt lat="45.75287" lon="4.70159">
        <ele>314</ele>
        <time>2018-09-09T10:18:20Z</time>
      </trkpt>
      <trkpt lat="45.75305" lon="4.70179">
        <ele>312.4</ele>
        <time>2018-09-09T10:18:25Z</time>
      </trkpt>
      <trkpt lat="45.75309" lon="4.70182">
        <ele>312.2</ele>
        <time>2018-09-09T10:18:26Z</time>
      </trkpt>
      <trkpt lat="45.75312" lon="4.70187">
        <ele>312</ele>
        <time>2018-09-09T10:18:27Z</time>
      </trkpt>
      <trkpt lat="45.75316" lon="4.70191">
        <ele>311.9</ele>
        <time>2018-09-09T10:18:28Z</time>
      </trkpt>
      <trkpt lat="45.75322" lon="4.70201">
        <ele>311.5</ele>
        <time>2018-09-09T10:18:30Z</time>
      </trkpt>
      <trkpt lat="45.75326" lon="4.70206">
        <ele>311.3</ele>
        <time>2018-09-09T10:18:31Z</time>
      </trkpt>
      <trkpt lat="45.75336" lon="4.70222">
        <ele>310.6</ele>
        <time>2018-09-09T10:18:34Z</time>
      </trkpt>
      <trkpt lat="45.75351" lon="4.7025">
        <ele>309.2</ele>
        <time>2018-09-09T10:18:38Z</time>
      </trkpt>
      <trkpt lat="45.75363" lon="4.70273">
        <ele>307.9</ele>
        <time>2018-09-09T10:18:41Z</time>
      </trkpt>
      <trkpt lat="45.75372" lon="4.70289">
        <ele>307</ele>
        <time>2018-09-09T10:18:43Z</time>
      </trkpt>
      <trkpt lat="45.75382" lon="4.70304">
        <ele>307</ele>
        <time>2018-09-09T10:18:45Z</time>
      </trkpt>
      <trkpt lat="45.75386" lon="4.70312">
        <ele>306.7</ele>
        <time>2018-09-09T10:18:46Z</time>
      </trkpt>
      <trkpt lat="45.754" lon="4.70335">
        <ele>304.1</ele>
        <time>2018-09-09T10:18:49Z</time>
      </trkpt>
      <trkpt lat="45.75415" lon="4.70357">
        <ele>301.8</ele>
        <time>2018-09-09T10:18:52Z</time>
      </trkpt>
      <trkpt lat="45.7542" lon="4.70365">
        <ele>300.9</ele>
        <time>2018-09-09T10:18:53Z</time>
      </trkpt>
      <trkpt lat="45.7543" lon="4.7038">
        <ele>299.2</ele>
        <time>2018-09-09T10:18:55Z</time>
      </trkpt>
      <trkpt lat="45.75448" lon="4.70403">
        <ele>296.8</ele>
        <time>2018-09-09T10:18:58Z</time>
      </trkpt>
      <trkpt lat="45.75461" lon="4.70417">
        <ele>295.1</ele>
        <time>2018-09-09T10:19:00Z</time>
      </trkpt>
      <trkpt lat="45.75467" lon="4.70424">
        <ele>294.4</ele>
        <time>2018-09-09T10:19:01Z</time>
      </trkpt>
      <trkpt lat="45.7548" lon="4.70437">
        <ele>293.1</ele>
        <time>2018-09-09T10:19:03Z</time>
      </trkpt>
      <trkpt lat="45.75493" lon="4.7045">
        <ele>291.6</ele>
        <time>2018-09-09T10:19:05Z</time>
      </trkpt>
      <trkpt lat="45.75507" lon="4.70461">
        <ele>290.4</ele>
        <time>2018-09-09T10:19:07Z</time>
      </trkpt>
      <trkpt lat="45.75519" lon="4.70471">
        <ele>289.5</ele>
        <time>2018-09-09T10:19:09Z</time>
      </trkpt>
      <trkpt lat="45.7553" lon="4.70479">
        <ele>287.5</ele>
        <time>2018-09-09T10:19:11Z</time>
      </trkpt>
      <trkpt lat="45.75536" lon="4.70485">
        <ele>286.7</ele>
        <time>2018-09-09T10:19:12Z</time>
      </trkpt>
      <trkpt lat="45.75542" lon="4.7049">
        <ele>286</ele>
        <time>2018-09-09T10:19:13Z</time>
      </trkpt>
      <trkpt lat="45.75555" lon="4.705">
        <ele>285.3</ele>
        <time>2018-09-09T10:19:15Z</time>
      </trkpt>
      <trkpt lat="45.75569" lon="4.70511">
        <ele>284.7</ele>
        <time>2018-09-09T10:19:17Z</time>
      </trkpt>
      <trkpt lat="45.75576" lon="4.70516">
        <ele>284.4</ele>
        <time>2018-09-09T10:19:18Z</time>
      </trkpt>
      <trkpt lat="45.75585" lon="4.7052">
        <ele>284</ele>
        <time>2018-09-09T10:19:19Z</time>
      </trkpt>
      <trkpt lat="45.75602" lon="4.70526">
        <ele>283.2</ele>
        <time>2018-09-09T10:19:21Z</time>
      </trkpt>
      <trkpt lat="45.75609" lon="4.70531">
        <ele>282.5</ele>
        <time>2018-09-09T10:19:22Z</time>
      </trkpt>
      <trkpt lat="45.75622" lon="4.70544">
        <ele>281.6</ele>
        <time>2018-09-09T10:19:24Z</time>
      </trkpt>
      <trkpt lat="45.75627" lon="4.70552">
        <ele>281.4</ele>
        <time>2018-09-09T10:19:25Z</time>
      </trkpt>
      <trkpt lat="45.75632" lon="4.70574">
        <ele>281</ele>
        <time>2018-09-09T10:19:28Z</time>
      </trkpt>
      <trkpt lat="45.75633" lon="4.70581">
        <ele>280.8</ele>
        <time>2018-09-09T10:19:29Z</time>
      </trkpt>
      <trkpt lat="45.75635" lon="4.70593">
        <ele>280.5</ele>
        <time>2018-09-09T10:19:31Z</time>
      </trkpt>
      <trkpt lat="45.75637" lon="4.70606">
        <ele>279.7</ele>
        <time>2018-09-09T10:19:34Z</time>
      </trkpt>
      <trkpt lat="45.75642" lon="4.7062">
        <ele>279</ele>
        <time>2018-09-09T10:19:39Z</time>
      </trkpt>
      <trkpt lat="45.75644" lon="4.7064">
        <ele>278.7</ele>
        <time>2018-09-09T10:19:44Z</time>
      </trkpt>
      <trkpt lat="45.75652" lon="4.70674">
        <ele>278.7</ele>
        <time>2018-09-09T10:19:52Z</time>
      </trkpt>
      <trkpt lat="45.75666" lon="4.70707">
        <ele>281.1</ele>
        <time>2018-09-09T10:20:01Z</time>
      </trkpt>
      <trkpt lat="45.7568" lon="4.7073">
        <ele>282.8</ele>
        <time>2018-09-09T10:20:09Z</time>
      </trkpt>
      <trkpt lat="45.75686" lon="4.70747">
        <ele>283.4</ele>
        <time>2018-09-09T10:20:14Z</time>
      </trkpt>
      <trkpt lat="45.75686" lon="4.70751">
        <ele>283.5</ele>
        <time>2018-09-09T10:20:15Z</time>
      </trkpt>
      <trkpt lat="45.75691" lon="4.70781">
        <ele>284</ele>
        <time>2018-09-09T10:20:22Z</time>
      </trkpt>
      <trkpt lat="45.75687" lon="4.70813">
        <ele>283.5</ele>
        <time>2018-09-09T10:20:28Z</time>
      </trkpt>
      <trkpt lat="45.75682" lon="4.70854">
        <ele>283.2</ele>
        <time>2018-09-09T10:20:36Z</time>
      </trkpt>
      <trkpt lat="45.75684" lon="4.70856">
        <ele>283.6</ele>
        <time>2018-09-09T10:20:37Z</time>
      </trkpt>
      <trkpt lat="45.75692" lon="4.70864">
        <ele>284.7</ele>
        <time>2018-09-09T10:20:40Z</time>
      </trkpt>
      <trkpt lat="45.75711" lon="4.70888">
        <ele>286.8</ele>
        <time>2018-09-09T10:20:49Z</time>
      </trkpt>
      <trkpt lat="45.75713" lon="4.70891">
        <ele>287.1</ele>
        <time>2018-09-09T10:20:50Z</time>
      </trkpt>
      <trkpt lat="45.7572" lon="4.709">
        <ele>287.8</ele>
        <time>2018-09-09T10:20:53Z</time>
      </trkpt>
      <trkpt lat="45.75727" lon="4.70908">
        <ele>288.7</ele>
        <time>2018-09-09T10:20:56Z</time>
      </trkpt>
      <trkpt lat="45.75729" lon="4.7091">
        <ele>289</ele>
        <time>2018-09-09T10:20:57Z</time>
      </trkpt>
      <trkpt lat="45.75738" lon="4.7092">
        <ele>289.7</ele>
        <time>2018-09-09T10:21:01Z</time>
      </trkpt>
      <trkpt lat="45.75747" lon="4.70927">
        <ele>290.7</ele>
        <time>2018-09-09T10:21:05Z</time>
      </trkpt>
      <trkpt lat="45.75749" lon="4.70928">
        <ele>291</ele>
        <time>2018-09-09T10:21:06Z</time>
      </trkpt>
      <trkpt lat="45.75771" lon="4.70937">
        <ele>293.4</ele>
        <time>2018-09-09T10:21:14Z</time>
      </trkpt>
      <trkpt lat="45.75773" lon="4.70937">
        <ele>293.7</ele>
        <time>2018-09-09T10:21:15Z</time>
      </trkpt>
      <trkpt lat="45.75781" lon="4.70939">
        <ele>294.6</ele>
        <time>2018-09-09T10:21:18Z</time>
      </trkpt>
      <trkpt lat="45.75792" lon="4.70941">
        <ele>295.3</ele>
        <time>2018-09-09T10:21:23Z</time>
      </trkpt>
      <trkpt lat="45.75801" lon="4.70943">
        <ele>296.1</ele>
        <time>2018-09-09T10:21:27Z</time>
      </trkpt>
      <trkpt lat="45.75813" lon="4.70944">
        <ele>297.3</ele>
        <time>2018-09-09T10:21:32Z</time>
      </trkpt>
      <trkpt lat="45.75815" lon="4.70945">
        <ele>297.5</ele>
        <time>2018-09-09T10:21:33Z</time>
      </trkpt>
      <trkpt lat="45.7583" lon="4.70948">
        <ele>298.9</ele>
        <time>2018-09-09T10:21:39Z</time>
      </trkpt>
      <trkpt lat="45.75834" lon="4.70949">
        <ele>299.4</ele>
        <time>2018-09-09T10:21:41Z</time>
      </trkpt>
      <trkpt lat="45.75848" lon="4.70953">
        <ele>300.8</ele>
        <time>2018-09-09T10:21:47Z</time>
      </trkpt>
      <trkpt lat="45.75853" lon="4.70954">
        <ele>301.2</ele>
        <time>2018-09-09T10:21:49Z</time>
      </trkpt>
      <trkpt lat="45.75861" lon="4.70956">
        <ele>302</ele>
        <time>2018-09-09T10:21:52Z</time>
      </trkpt>
      <trkpt lat="45.75873" lon="4.70956">
        <ele>302.9</ele>
        <time>2018-09-09T10:21:57Z</time>
      </trkpt>
      <trkpt lat="45.75879" lon="4.70948">
        <ele>303.5</ele>
        <time>2018-09-09T10:22:00Z</time>
      </trkpt>
      <trkpt lat="45.75881" lon="4.70944">
        <ele>303.6</ele>
        <time>2018-09-09T10:22:01Z</time>
      </trkpt>
      <trkpt lat="45.75889" lon="4.70915">
        <ele>304.5</ele>
        <time>2018-09-09T10:22:08Z</time>
      </trkpt>
      <trkpt lat="45.75899" lon="4.709">
        <ele>305</ele>
        <time>2018-09-09T10:22:13Z</time>
      </trkpt>
      <trkpt lat="45.75902" lon="4.70899">
        <ele>305.2</ele>
        <time>2018-09-09T10:22:14Z</time>
      </trkpt>
      <trkpt lat="45.75911" lon="4.70901">
        <ele>305.6</ele>
        <time>2018-09-09T10:22:17Z</time>
      </trkpt>
      <trkpt lat="45.75914" lon="4.70902">
        <ele>305.7</ele>
        <time>2018-09-09T10:22:18Z</time>
      </trkpt>
      <trkpt lat="45.75924" lon="4.70903">
        <ele>306.2</ele>
        <time>2018-09-09T10:22:21Z</time>
      </trkpt>
      <trkpt lat="45.75937" lon="4.70903">
        <ele>306.6</ele>
        <time>2018-09-09T10:22:25Z</time>
      </trkpt>
      <trkpt lat="45.75947" lon="4.70907">
        <ele>307</ele>
        <time>2018-09-09T10:22:28Z</time>
      </trkpt>
      <trkpt lat="45.75952" lon="4.70907">
        <ele>307.2</ele>
        <time>2018-09-09T10:22:30Z</time>
      </trkpt>
      <trkpt lat="45.75962" lon="4.70907">
        <ele>307.5</ele>
        <time>2018-09-09T10:22:36Z</time>
      </trkpt>
      <trkpt lat="45.75966" lon="4.70908">
        <ele>307.6</ele>
        <time>2018-09-09T10:23:07Z</time>
      </trkpt>
      <trkpt lat="45.75968" lon="4.70908">
        <ele>307.6</ele>
        <time>2018-09-09T10:23:08Z</time>
      </trkpt>
      <trkpt lat="45.75979" lon="4.7091">
        <ele>307.9</ele>
        <time>2018-09-09T10:23:12Z</time>
      </trkpt>
      <trkpt lat="45.75982" lon="4.7091">
        <ele>307.9</ele>
        <time>2018-09-09T10:23:13Z</time>
      </trkpt>
      <trkpt lat="45.75987" lon="4.70911">
        <ele>308</ele>
        <time>2018-09-09T10:23:15Z</time>
      </trkpt>
      <trkpt lat="45.75991" lon="4.70914">
        <ele>308</ele>
        <time>2018-09-09T10:23:18Z</time>
      </trkpt>
      <trkpt lat="45.75992" lon="4.70915">
        <ele>308</ele>
        <time>2018-09-09T10:23:19Z</time>
      </trkpt>
      <trkpt lat="45.75992" lon="4.70919">
        <ele>307.5</ele>
        <time>2018-09-09T10:23:34Z</time>
      </trkpt>
      <trkpt lat="45.75991" lon="4.70927">
        <ele>307.2</ele>
        <time>2018-09-09T10:23:36Z</time>
      </trkpt>
      <trkpt lat="45.7599" lon="4.70933">
        <ele>307</ele>
        <time>2018-09-09T10:23:37Z</time>
      </trkpt>
      <trkpt lat="45.75986" lon="4.70959">
        <ele>306.6</ele>
        <time>2018-09-09T10:23:41Z</time>
      </trkpt>
      <trkpt lat="45.7598" lon="4.70998">
        <ele>306.3</ele>
        <time>2018-09-09T10:23:46Z</time>
      </trkpt>
      <trkpt lat="45.75977" lon="4.71016">
        <ele>306.2</ele>
        <time>2018-09-09T10:23:48Z</time>
      </trkpt>
      <trkpt lat="45.7596" lon="4.71098">
        <ele>306</ele>
        <time>2018-09-09T10:23:57Z</time>
      </trkpt>
      <trkpt lat="45.75958" lon="4.71107">
        <ele>306</ele>
        <time>2018-09-09T10:23:58Z</time>
      </trkpt>
      <trkpt lat="45.75951" lon="4.71137">
        <ele>306</ele>
        <time>2018-09-09T10:24:01Z</time>
      </trkpt>
      <trkpt lat="45.75942" lon="4.71175">
        <ele>306</ele>
        <time>2018-09-09T10:24:05Z</time>
      </trkpt>
      <trkpt lat="45.75936" lon="4.71203">
        <ele>306</ele>
        <time>2018-09-09T10:24:08Z</time>
      </trkpt>
      <trkpt lat="45.75932" lon="4.71223">
        <ele>306</ele>
        <time>2018-09-09T10:24:10Z</time>
      </trkpt>
      <trkpt lat="45.75922" lon="4.71291">
        <ele>306</ele>
        <time>2018-09-09T10:24:17Z</time>
      </trkpt>
      <trkpt lat="45.75919" lon="4.7131">
        <ele>306</ele>
        <time>2018-09-09T10:24:19Z</time>
      </trkpt>
      <trkpt lat="45.75909" lon="4.71375">
        <ele>305.6</ele>
        <time>2018-09-09T10:24:26Z</time>
      </trkpt>
      <trkpt lat="45.75903" lon="4.71411">
        <ele>305.4</ele>
        <time>2018-09-09T10:24:30Z</time>
      </trkpt>
      <trkpt lat="45.75894" lon="4.71463">
        <ele>305.1</ele>
        <time>2018-09-09T10:24:36Z</time>
      </trkpt>
      <trkpt lat="45.7589" lon="4.71515">
        <ele>305.5</ele>
        <time>2018-09-09T10:24:42Z</time>
      </trkpt>
      <trkpt lat="45.75887" lon="4.71595">
        <ele>306.3</ele>
        <time>2018-09-09T10:24:51Z</time>
      </trkpt>
      <trkpt lat="45.75886" lon="4.71612">
        <ele>306.6</ele>
        <time>2018-09-09T10:24:53Z</time>
      </trkpt>
      <trkpt lat="45.75883" lon="4.71652">
        <ele>307</ele>
        <time>2018-09-09T10:24:58Z</time>
      </trkpt>
      <trkpt lat="45.75879" lon="4.71657">
        <ele>307</ele>
        <time>2018-09-09T10:24:59Z</time>
      </trkpt>
      <trkpt lat="45.75873" lon="4.71669">
        <ele>306.7</ele>
        <time>2018-09-09T10:25:01Z</time>
      </trkpt>
      <trkpt lat="45.75875" lon="4.71683">
        <ele>306</ele>
        <time>2018-09-09T10:25:03Z</time>
      </trkpt>
      <trkpt lat="45.75876" lon="4.71698">
        <ele>306</ele>
        <time>2018-09-09T10:25:05Z</time>
      </trkpt>
      <trkpt lat="45.75874" lon="4.71714">
        <ele>306</ele>
        <time>2018-09-09T10:25:07Z</time>
      </trkpt>
      <trkpt lat="45.75859" lon="4.71772">
        <ele>306</ele>
        <time>2018-09-09T10:25:14Z</time>
      </trkpt>
      <trkpt lat="45.75852" lon="4.71805">
        <ele>306.1</ele>
        <time>2018-09-09T10:25:18Z</time>
      </trkpt>
      <trkpt lat="45.75839" lon="4.71856">
        <ele>305.7</ele>
        <time>2018-09-09T10:25:24Z</time>
      </trkpt>
      <trkpt lat="45.7583" lon="4.71902">
        <ele>305.4</ele>
        <time>2018-09-09T10:25:29Z</time>
      </trkpt>
      <trkpt lat="45.75825" lon="4.71929">
        <ele>305.2</ele>
        <time>2018-09-09T10:25:32Z</time>
      </trkpt>
      <trkpt lat="45.75817" lon="4.71974">
        <ele>303.9</ele>
        <time>2018-09-09T10:25:37Z</time>
      </trkpt>
      <trkpt lat="45.75814" lon="4.72011">
        <ele>302.9</ele>
        <time>2018-09-09T10:25:41Z</time>
      </trkpt>
      <trkpt lat="45.7581" lon="4.72037">
        <ele>302.4</ele>
        <time>2018-09-09T10:25:44Z</time>
      </trkpt>
      <trkpt lat="45.75804" lon="4.72084">
        <ele>301.7</ele>
        <time>2018-09-09T10:25:49Z</time>
      </trkpt>
      <trkpt lat="45.75798" lon="4.72123">
        <ele>301.3</ele>
        <time>2018-09-09T10:25:53Z</time>
      </trkpt>
      <trkpt lat="45.75796" lon="4.72152">
        <ele>300.8</ele>
        <time>2018-09-09T10:25:56Z</time>
      </trkpt>
      <trkpt lat="45.75796" lon="4.72161">
        <ele>300.4</ele>
        <time>2018-09-09T10:25:57Z</time>
      </trkpt>
      <trkpt lat="45.75799" lon="4.72186">
        <ele>299.1</ele>
        <time>2018-09-09T10:26:00Z</time>
      </trkpt>
      <trkpt lat="45.75803" lon="4.72202">
        <ele>298.1</ele>
        <time>2018-09-09T10:26:03Z</time>
      </trkpt>
      <trkpt lat="45.75804" lon="4.72206">
        <ele>297.8</ele>
        <time>2018-09-09T10:26:04Z</time>
      </trkpt>
      <trkpt lat="45.75812" lon="4.72218">
        <ele>297.1</ele>
        <time>2018-09-09T10:26:09Z</time>
      </trkpt>
      <trkpt lat="45.75813" lon="4.72219">
        <ele>297</ele>
        <time>2018-09-09T10:26:10Z</time>
      </trkpt>
      <trkpt lat="45.75813" lon="4.72221">
        <ele>296.9</ele>
        <time>2018-09-09T10:26:44Z</time>
      </trkpt>
      <trkpt lat="45.75812" lon="4.7222">
        <ele>297</ele>
        <time>2018-09-09T10:26:45Z</time>
      </trkpt>
      <trkpt lat="45.75811" lon="4.72216">
        <ele>297.2</ele>
        <time>2018-09-09T10:26:47Z</time>
      </trkpt>
      <trkpt lat="45.7581" lon="4.72214">
        <ele>297.3</ele>
        <time>2018-09-09T10:26:51Z</time>
      </trkpt>
      <trkpt lat="45.7581" lon="4.72215">
        <ele>297.9</ele>
        <time>2018-09-09T10:27:01Z</time>
      </trkpt>
      <trkpt lat="45.75808" lon="4.7222">
        <ele>297.8</ele>
        <time>2018-09-09T10:27:03Z</time>
      </trkpt>
      <trkpt lat="45.75799" lon="4.72241">
        <ele>297.5</ele>
        <time>2018-09-09T10:27:08Z</time>
      </trkpt>
      <trkpt lat="45.75784" lon="4.72284">
        <ele>297</ele>
        <time>2018-09-09T10:27:17Z</time>
      </trkpt>
      <trkpt lat="45.7578" lon="4.72299">
        <ele>297</ele>
        <time>2018-09-09T10:27:23Z</time>
      </trkpt>
      <trkpt lat="45.75776" lon="4.72322">
        <ele>297.3</ele>
        <time>2018-09-09T10:27:28Z</time>
      </trkpt>
      <trkpt lat="45.75774" lon="4.72327">
        <ele>297.3</ele>
        <time>2018-09-09T10:27:29Z</time>
      </trkpt>
      <trkpt lat="45.75767" lon="4.7236">
        <ele>297.7</ele>
        <time>2018-09-09T10:27:35Z</time>
      </trkpt>
      <trkpt lat="45.75764" lon="4.72364">
        <ele>297.7</ele>
        <time>2018-09-09T10:27:36Z</time>
      </trkpt>
      <trkpt lat="45.75757" lon="4.72376">
        <ele>297.9</ele>
        <time>2018-09-09T10:27:39Z</time>
      </trkpt>
      <trkpt lat="45.75748" lon="4.72409">
        <ele>298.4</ele>
        <time>2018-09-09T10:27:45Z</time>
      </trkpt>
      <trkpt lat="45.75734" lon="4.72464">
        <ele>299</ele>
        <time>2018-09-09T10:27:54Z</time>
      </trkpt>
      <trkpt lat="45.75721" lon="4.72511">
        <ele>297.9</ele>
        <time>2018-09-09T10:28:02Z</time>
      </trkpt>
      <trkpt lat="45.75715" lon="4.72528">
        <ele>297.3</ele>
        <time>2018-09-09T10:28:06Z</time>
      </trkpt>
      <trkpt lat="45.75712" lon="4.7253">
        <ele>297</ele>
        <time>2018-09-09T10:28:07Z</time>
      </trkpt>
      <trkpt lat="45.75706" lon="4.72531">
        <ele>297.1</ele>
        <time>2018-09-09T10:28:10Z</time>
      </trkpt>
      <trkpt lat="45.75704" lon="4.7253">
        <ele>297.1</ele>
        <time>2018-09-09T10:28:11Z</time>
      </trkpt>
      <trkpt lat="45.75703" lon="4.72529">
        <ele>297.1</ele>
        <time>2018-09-09T10:28:12Z</time>
      </trkpt>
      <trkpt lat="45.75686" lon="4.72519">
        <ele>297.3</ele>
        <time>2018-09-09T10:28:19Z</time>
      </trkpt>
      <trkpt lat="45.75666" lon="4.72508">
        <ele>297.8</ele>
        <time>2018-09-09T10:28:25Z</time>
      </trkpt>
      <trkpt lat="45.75662" lon="4.72506">
        <ele>297.9</ele>
        <time>2018-09-09T10:28:26Z</time>
      </trkpt>
      <trkpt lat="45.75658" lon="4.72503">
        <ele>298</ele>
        <time>2018-09-09T10:28:27Z</time>
      </trkpt>
      <trkpt lat="45.75642" lon="4.72488">
        <ele>300</ele>
        <time>2018-09-09T10:28:31Z</time>
      </trkpt>
      <trkpt lat="45.75634" lon="4.72483">
        <ele>300</ele>
        <time>2018-09-09T10:28:33Z</time>
      </trkpt>
      <trkpt lat="45.7561" lon="4.72469">
        <ele>300</ele>
        <time>2018-09-09T10:28:39Z</time>
      </trkpt>
      <trkpt lat="45.75589" lon="4.72457">
        <ele>297.4</ele>
        <time>2018-09-09T10:28:44Z</time>
      </trkpt>
      <trkpt lat="45.75581" lon="4.72455">
        <ele>296.5</ele>
        <time>2018-09-09T10:28:46Z</time>
      </trkpt>
      <trkpt lat="45.75578" lon="4.72451">
        <ele>296</ele>
        <time>2018-09-09T10:28:47Z</time>
      </trkpt>
      <trkpt lat="45.75576" lon="4.72442">
        <ele>296</ele>
        <time>2018-09-09T10:28:49Z</time>
      </trkpt>
      <trkpt lat="45.75577" lon="4.72432">
        <ele>296</ele>
        <time>2018-09-09T10:28:51Z</time>
      </trkpt>
      <trkpt lat="45.75577" lon="4.72423">
        <ele>296.1</ele>
        <time>2018-09-09T10:28:53Z</time>
      </trkpt>
      <trkpt lat="45.75577" lon="4.72418">
        <ele>296.1</ele>
        <time>2018-09-09T10:28:54Z</time>
      </trkpt>
      <trkpt lat="45.75574" lon="4.72404">
        <ele>296</ele>
        <time>2018-09-09T10:28:57Z</time>
      </trkpt>
      <trkpt lat="45.75572" lon="4.72402">
        <ele>296</ele>
        <time>2018-09-09T10:28:58Z</time>
      </trkpt>
      <trkpt lat="45.75568" lon="4.724">
        <ele>295.9</ele>
        <time>2018-09-09T10:28:59Z</time>
      </trkpt>
      <trkpt lat="45.75553" lon="4.72397">
        <ele>295.4</ele>
        <time>2018-09-09T10:29:03Z</time>
      </trkpt>
      <trkpt lat="45.75545" lon="4.72396">
        <ele>294.9</ele>
        <time>2018-09-09T10:29:05Z</time>
      </trkpt>
      <trkpt lat="45.75537" lon="4.72391">
        <ele>294.5</ele>
        <time>2018-09-09T10:29:07Z</time>
      </trkpt>
      <trkpt lat="45.75534" lon="4.72387">
        <ele>294.3</ele>
        <time>2018-09-09T10:29:08Z</time>
      </trkpt>
      <trkpt lat="45.75528" lon="4.72363">
        <ele>294</ele>
        <time>2018-09-09T10:29:12Z</time>
      </trkpt>
      <trkpt lat="45.75526" lon="4.72343">
        <ele>293.6</ele>
        <time>2018-09-09T10:29:15Z</time>
      </trkpt>
      <trkpt lat="45.75525" lon="4.7233">
        <ele>293.3</ele>
        <time>2018-09-09T10:29:17Z</time>
      </trkpt>
      <trkpt lat="45.75525" lon="4.72316">
        <ele>293</ele>
        <time>2018-09-09T10:29:19Z</time>
      </trkpt>
      <trkpt lat="45.75533" lon="4.72288">
        <ele>293.4</ele>
        <time>2018-09-09T10:29:24Z</time>
      </trkpt>
      <trkpt lat="45.75537" lon="4.72266">
        <ele>293.3</ele>
        <time>2018-09-09T10:29:29Z</time>
      </trkpt>
    </trkseg>
  </trk>
</gpx>